<?xml version="1.0" encoding="UTF-8"?><gpx xmlns="http://www.topografix.com/GPX/1/1" version="1.1" creator="iOrient"><trk><name>Рогейн "КурсОр-2023"</name><trkseg><trkpt lat="55.9384744" lon="49.2611499"><time>2023-06-17T06:20:49.220</time></trkpt><trkpt lat="55.9385302" lon="49.2611425"><time>2023-06-17T06:20:53.217</time></trkpt><trkpt lat="55.9385668" lon="49.2610855"><time>2023-06-17T06:20:56.227</time></trkpt><trkpt lat="55.9386056" lon="49.2610349"><time>2023-06-17T06:20:59.223</time></trkpt><trkpt lat="55.9386458" lon="49.2609927"><time>2023-06-17T06:21:02.217</time></trkpt><trkpt lat="55.9386843" lon="49.2609341"><time>2023-06-17T06:21:05.220</time></trkpt><trkpt lat="55.9387465" lon="49.2609472"><time>2023-06-17T06:21:07.217</time></trkpt><trkpt lat="55.9387809" lon="49.2608779"><time>2023-06-17T06:21:09.230</time></trkpt><trkpt lat="55.9388191" lon="49.2608143"><time>2023-06-17T06:21:11.227</time></trkpt><trkpt lat="55.9388538" lon="49.2607537"><time>2023-06-17T06:21:13.223</time></trkpt><trkpt lat="55.9388751" lon="49.2606557"><time>2023-06-17T06:21:16.223</time></trkpt><trkpt lat="55.9388860" lon="49.2605780"><time>2023-06-17T06:21:19.217</time></trkpt><trkpt lat="55.9389145" lon="49.2604725"><time>2023-06-17T06:21:22.223</time></trkpt><trkpt lat="55.9389472" lon="49.2604110"><time>2023-06-17T06:21:24.220</time></trkpt><trkpt lat="55.9389817" lon="49.2603462"><time>2023-06-17T06:21:26.223</time></trkpt><trkpt lat="55.9390173" lon="49.2602870"><time>2023-06-17T06:21:28.220</time></trkpt><trkpt lat="55.9390556" lon="49.2602218"><time>2023-06-17T06:21:30.223</time></trkpt><trkpt lat="55.9390994" lon="49.2601742"><time>2023-06-17T06:21:32.217</time></trkpt><trkpt lat="55.9391363" lon="49.2601251"><time>2023-06-17T06:21:34.203</time></trkpt><trkpt lat="55.9391673" lon="49.2600642"><time>2023-06-17T06:21:36.220</time></trkpt><trkpt lat="55.9391898" lon="49.2599925"><time>2023-06-17T06:21:38.227</time></trkpt><trkpt lat="55.9392413" lon="49.2599145"><time>2023-06-17T06:21:41.200</time></trkpt><trkpt lat="55.9392836" lon="49.2598811"><time>2023-06-17T06:21:43.227</time></trkpt><trkpt lat="55.9393295" lon="49.2598521"><time>2023-06-17T06:21:45.207</time></trkpt><trkpt lat="55.9393729" lon="49.2598222"><time>2023-06-17T06:21:47.223</time></trkpt><trkpt lat="55.9394307" lon="49.2597821"><time>2023-06-17T06:21:50.217</time></trkpt><trkpt lat="55.9394809" lon="49.2597414"><time>2023-06-17T06:21:53.213</time></trkpt><trkpt lat="55.9395311" lon="49.2596991"><time>2023-06-17T06:21:56.233</time></trkpt><trkpt lat="55.9395764" lon="49.2596677"><time>2023-06-17T06:21:59.217</time></trkpt><trkpt lat="55.9396203" lon="49.2596411"><time>2023-06-17T06:22:02.217</time></trkpt><trkpt lat="55.9396653" lon="49.2596166"><time>2023-06-17T06:22:05.223</time></trkpt><trkpt lat="55.9397220" lon="49.2595960"><time>2023-06-17T06:22:09.213</time></trkpt><trkpt lat="55.9397753" lon="49.2595703"><time>2023-06-17T06:22:13.217</time></trkpt><trkpt lat="55.9398305" lon="49.2595646"><time>2023-06-17T06:22:17.210</time></trkpt><trkpt lat="55.9398830" lon="49.2595445"><time>2023-06-17T06:22:21.203</time></trkpt><trkpt lat="55.9399392" lon="49.2595092"><time>2023-06-17T06:22:25.227</time></trkpt><trkpt lat="55.9399876" lon="49.2594961"><time>2023-06-17T06:22:28.227</time></trkpt><trkpt lat="55.9400380" lon="49.2594844"><time>2023-06-17T06:22:31.223</time></trkpt><trkpt lat="55.9400859" lon="49.2594740"><time>2023-06-17T06:22:34.210</time></trkpt><trkpt lat="55.9401361" lon="49.2594594"><time>2023-06-17T06:22:37.227</time></trkpt><trkpt lat="55.9401852" lon="49.2594537"><time>2023-06-17T06:22:40.217</time></trkpt><trkpt lat="55.9402427" lon="49.2594650"><time>2023-06-17T06:22:43.207</time></trkpt><trkpt lat="55.9402944" lon="49.2594807"><time>2023-06-17T06:22:45.217</time></trkpt><trkpt lat="55.9403465" lon="49.2594887"><time>2023-06-17T06:22:47.217</time></trkpt><trkpt lat="55.9404015" lon="49.2594922"><time>2023-06-17T06:22:49.230</time></trkpt><trkpt lat="55.9404533" lon="49.2595109"><time>2023-06-17T06:22:51.223</time></trkpt><trkpt lat="55.9405053" lon="49.2595304"><time>2023-06-17T06:22:53.203</time></trkpt><trkpt lat="55.9405577" lon="49.2595376"><time>2023-06-17T06:22:55.207</time></trkpt><trkpt lat="55.9406119" lon="49.2595340"><time>2023-06-17T06:22:57.223</time></trkpt><trkpt lat="55.9406662" lon="49.2595327"><time>2023-06-17T06:22:59.213</time></trkpt><trkpt lat="55.9407259" lon="49.2595154"><time>2023-06-17T06:23:01.247</time></trkpt><trkpt lat="55.9407805" lon="49.2594939"><time>2023-06-17T06:23:03.220</time></trkpt><trkpt lat="55.9408304" lon="49.2594719"><time>2023-06-17T06:23:05.227</time></trkpt><trkpt lat="55.9408761" lon="49.2594320"><time>2023-06-17T06:23:07.227</time></trkpt><trkpt lat="55.9409227" lon="49.2593949"><time>2023-06-17T06:23:09.220</time></trkpt><trkpt lat="55.9409703" lon="49.2593519"><time>2023-06-17T06:23:11.217</time></trkpt><trkpt lat="55.9410180" lon="49.2593021"><time>2023-06-17T06:23:13.207</time></trkpt><trkpt lat="55.9410611" lon="49.2592437"><time>2023-06-17T06:23:15.213</time></trkpt><trkpt lat="55.9411048" lon="49.2591849"><time>2023-06-17T06:23:17.217</time></trkpt><trkpt lat="55.9411485" lon="49.2591254"><time>2023-06-17T06:23:19.207</time></trkpt><trkpt lat="55.9411883" lon="49.2590680"><time>2023-06-17T06:23:21.203</time></trkpt><trkpt lat="55.9412260" lon="49.2590084"><time>2023-06-17T06:23:23.207</time></trkpt><trkpt lat="55.9412641" lon="49.2589517"><time>2023-06-17T06:23:25.200</time></trkpt><trkpt lat="55.9412996" lon="49.2588961"><time>2023-06-17T06:23:27.247</time></trkpt><trkpt lat="55.9413428" lon="49.2588264"><time>2023-06-17T06:23:30.223</time></trkpt><trkpt lat="55.9413870" lon="49.2587482"><time>2023-06-17T06:23:33.210</time></trkpt><trkpt lat="55.9414310" lon="49.2586907"><time>2023-06-17T06:23:35.213</time></trkpt><trkpt lat="55.9414736" lon="49.2586299"><time>2023-06-17T06:23:37.257</time></trkpt><trkpt lat="55.9415169" lon="49.2585891"><time>2023-06-17T06:23:39.217</time></trkpt><trkpt lat="55.9415726" lon="49.2585787"><time>2023-06-17T06:23:42.217</time></trkpt><trkpt lat="55.9416165" lon="49.2586290"><time>2023-06-17T06:23:45.203</time></trkpt><trkpt lat="55.9416332" lon="49.2587366"><time>2023-06-17T06:23:48.220</time></trkpt><trkpt lat="55.9416455" lon="49.2588165"><time>2023-06-17T06:23:50.223</time></trkpt><trkpt lat="55.9416647" lon="49.2589015"><time>2023-06-17T06:23:52.227</time></trkpt><trkpt lat="55.9416932" lon="49.2589764"><time>2023-06-17T06:23:54.233</time></trkpt><trkpt lat="55.9417265" lon="49.2590465"><time>2023-06-17T06:23:56.223</time></trkpt><trkpt lat="55.9417515" lon="49.2591260"><time>2023-06-17T06:23:58.217</time></trkpt><trkpt lat="55.9417708" lon="49.2592122"><time>2023-06-17T06:24:00.210</time></trkpt><trkpt lat="55.9417811" lon="49.2592996"><time>2023-06-17T06:24:02.213</time></trkpt><trkpt lat="55.9417865" lon="49.2593822"><time>2023-06-17T06:24:04.227</time></trkpt><trkpt lat="55.9417981" lon="49.2594671"><time>2023-06-17T06:24:06.213</time></trkpt><trkpt lat="55.9418145" lon="49.2595492"><time>2023-06-17T06:24:08.213</time></trkpt><trkpt lat="55.9418295" lon="49.2596323"><time>2023-06-17T06:24:10.227</time></trkpt><trkpt lat="55.9418435" lon="49.2597126"><time>2023-06-17T06:24:12.220</time></trkpt><trkpt lat="55.9418559" lon="49.2597917"><time>2023-06-17T06:24:14.227</time></trkpt><trkpt lat="55.9418648" lon="49.2598733"><time>2023-06-17T06:24:16.217</time></trkpt><trkpt lat="55.9418797" lon="49.2599495"><time>2023-06-17T06:24:18.227</time></trkpt><trkpt lat="55.9419182" lon="49.2600484"><time>2023-06-17T06:24:21.227</time></trkpt><trkpt lat="55.9419812" lon="49.2600522"><time>2023-06-17T06:24:24.217</time></trkpt><trkpt lat="55.9420466" lon="49.2600376"><time>2023-06-17T06:24:27.223</time></trkpt><trkpt lat="55.9420914" lon="49.2600299"><time>2023-06-17T06:24:30.207</time></trkpt><trkpt lat="55.9421024" lon="49.2601080"><time>2023-06-17T06:24:34.223</time></trkpt><trkpt lat="55.9420970" lon="49.2601231"><time>2023-06-17T06:24:35.477</time></trkpt><trkpt lat="55.9420558" lon="49.2600389"><time>2023-06-17T06:24:41.340</time></trkpt><trkpt lat="55.9420088" lon="49.2600259"><time>2023-06-17T06:24:43.233</time></trkpt><trkpt lat="55.9419625" lon="49.2600265"><time>2023-06-17T06:24:45.220</time></trkpt><trkpt lat="55.9419148" lon="49.2600337"><time>2023-06-17T06:24:47.217</time></trkpt><trkpt lat="55.9418681" lon="49.2600497"><time>2023-06-17T06:24:49.220</time></trkpt><trkpt lat="55.9418402" lon="49.2601506"><time>2023-06-17T06:24:52.240</time></trkpt><trkpt lat="55.9418136" lon="49.2602490"><time>2023-06-17T06:24:55.213</time></trkpt><trkpt lat="55.9417931" lon="49.2603451"><time>2023-06-17T06:24:58.220</time></trkpt><trkpt lat="55.9417787" lon="49.2604536"><time>2023-06-17T06:25:01.217</time></trkpt><trkpt lat="55.9417611" lon="49.2605425"><time>2023-06-17T06:25:04.227</time></trkpt><trkpt lat="55.9417476" lon="49.2606299"><time>2023-06-17T06:25:07.227</time></trkpt><trkpt lat="55.9417347" lon="49.2607372"><time>2023-06-17T06:25:10.223</time></trkpt><trkpt lat="55.9417130" lon="49.2608514"><time>2023-06-17T06:25:13.217</time></trkpt><trkpt lat="55.9416998" lon="49.2609316"><time>2023-06-17T06:25:15.387</time></trkpt><trkpt lat="55.9416842" lon="49.2610148"><time>2023-06-17T06:25:17.217</time></trkpt><trkpt lat="55.9416589" lon="49.2611271"><time>2023-06-17T06:25:20.220</time></trkpt><trkpt lat="55.9416279" lon="49.2612316"><time>2023-06-17T06:25:23.210</time></trkpt><trkpt lat="55.9415884" lon="49.2613243"><time>2023-06-17T06:25:26.233</time></trkpt><trkpt lat="55.9415474" lon="49.2614155"><time>2023-06-17T06:25:29.223</time></trkpt><trkpt lat="55.9415096" lon="49.2615091"><time>2023-06-17T06:25:32.227</time></trkpt><trkpt lat="55.9414901" lon="49.2615828"><time>2023-06-17T06:25:34.220</time></trkpt><trkpt lat="55.9414747" lon="49.2616658"><time>2023-06-17T06:25:36.223</time></trkpt><trkpt lat="55.9414636" lon="49.2617436"><time>2023-06-17T06:25:38.217</time></trkpt><trkpt lat="55.9414454" lon="49.2618547"><time>2023-06-17T06:25:41.223</time></trkpt><trkpt lat="55.9414309" lon="49.2619687"><time>2023-06-17T06:25:44.227</time></trkpt><trkpt lat="55.9414234" lon="49.2620478"><time>2023-06-17T06:25:46.217</time></trkpt><trkpt lat="55.9414138" lon="49.2621307"><time>2023-06-17T06:25:48.213</time></trkpt><trkpt lat="55.9413989" lon="49.2622097"><time>2023-06-17T06:25:50.223</time></trkpt><trkpt lat="55.9413874" lon="49.2622913"><time>2023-06-17T06:25:52.227</time></trkpt><trkpt lat="55.9413806" lon="49.2623852"><time>2023-06-17T06:25:55.223</time></trkpt><trkpt lat="55.9413699" lon="49.2624864"><time>2023-06-17T06:25:59.223</time></trkpt><trkpt lat="55.9413465" lon="49.2625811"><time>2023-06-17T06:26:02.227</time></trkpt><trkpt lat="55.9413069" lon="49.2626410"><time>2023-06-17T06:26:04.237</time></trkpt><trkpt lat="55.9412878" lon="49.2627537"><time>2023-06-17T06:26:07.223</time></trkpt><trkpt lat="55.9412765" lon="49.2628344"><time>2023-06-17T06:26:09.237</time></trkpt><trkpt lat="55.9412739" lon="49.2629221"><time>2023-06-17T06:26:11.230</time></trkpt><trkpt lat="55.9412628" lon="49.2630358"><time>2023-06-17T06:26:14.230</time></trkpt><trkpt lat="55.9412498" lon="49.2631130"><time>2023-06-17T06:26:16.223</time></trkpt><trkpt lat="55.9412395" lon="49.2631910"><time>2023-06-17T06:26:18.223</time></trkpt><trkpt lat="55.9412169" lon="49.2633038"><time>2023-06-17T06:26:21.220</time></trkpt><trkpt lat="55.9412078" lon="49.2633827"><time>2023-06-17T06:26:23.217</time></trkpt><trkpt lat="55.9411974" lon="49.2634615"><time>2023-06-17T06:26:25.223</time></trkpt><trkpt lat="55.9411871" lon="49.2635399"><time>2023-06-17T06:26:27.230</time></trkpt><trkpt lat="55.9411708" lon="49.2636518"><time>2023-06-17T06:26:30.227</time></trkpt><trkpt lat="55.9411461" lon="49.2637546"><time>2023-06-17T06:26:33.227</time></trkpt><trkpt lat="55.9411251" lon="49.2638643"><time>2023-06-17T06:26:36.227</time></trkpt><trkpt lat="55.9411187" lon="49.2639458"><time>2023-06-17T06:26:38.230</time></trkpt><trkpt lat="55.9411084" lon="49.2640610"><time>2023-06-17T06:26:41.227</time></trkpt><trkpt lat="55.9411031" lon="49.2641437"><time>2023-06-17T06:26:43.213</time></trkpt><trkpt lat="55.9410936" lon="49.2642600"><time>2023-06-17T06:26:46.223</time></trkpt><trkpt lat="55.9410756" lon="49.2643346"><time>2023-06-17T06:26:48.223</time></trkpt><trkpt lat="55.9410642" lon="49.2644485"><time>2023-06-17T06:26:51.243</time></trkpt><trkpt lat="55.9410570" lon="49.2645555"><time>2023-06-17T06:26:54.220</time></trkpt><trkpt lat="55.9410534" lon="49.2646681"><time>2023-06-17T06:26:57.230</time></trkpt><trkpt lat="55.9410448" lon="49.2647850"><time>2023-06-17T06:27:00.220</time></trkpt><trkpt lat="55.9410363" lon="49.2648985"><time>2023-06-17T06:27:03.217</time></trkpt><trkpt lat="55.9410126" lon="49.2650031"><time>2023-06-17T06:27:06.237</time></trkpt><trkpt lat="55.9409905" lon="49.2650729"><time>2023-06-17T06:27:08.220</time></trkpt><trkpt lat="55.9409548" lon="49.2651659"><time>2023-06-17T06:27:11.217</time></trkpt><trkpt lat="55.9409376" lon="49.2652696"><time>2023-06-17T06:27:14.230</time></trkpt><trkpt lat="55.9409224" lon="49.2653459"><time>2023-06-17T06:27:16.223</time></trkpt><trkpt lat="55.9409033" lon="49.2654197"><time>2023-06-17T06:27:18.227</time></trkpt><trkpt lat="55.9408793" lon="49.2655246"><time>2023-06-17T06:27:21.223</time></trkpt><trkpt lat="55.9408583" lon="49.2656326"><time>2023-06-17T06:27:24.230</time></trkpt><trkpt lat="55.9408437" lon="49.2657264"><time>2023-06-17T06:27:27.223</time></trkpt><trkpt lat="55.9408271" lon="49.2658317"><time>2023-06-17T06:27:31.220</time></trkpt><trkpt lat="55.9408073" lon="49.2659096"><time>2023-06-17T06:27:34.227</time></trkpt><trkpt lat="55.9408083" lon="49.2660051"><time>2023-06-17T06:27:38.220</time></trkpt><trkpt lat="55.9408183" lon="49.2661078"><time>2023-06-17T06:27:41.217</time></trkpt><trkpt lat="55.9408068" lon="49.2661922"><time>2023-06-17T06:27:43.217</time></trkpt><trkpt lat="55.9407933" lon="49.2662789"><time>2023-06-17T06:27:45.243</time></trkpt><trkpt lat="55.9408045" lon="49.2663881"><time>2023-06-17T06:27:48.213</time></trkpt><trkpt lat="55.9407925" lon="49.2664847"><time>2023-06-17T06:27:51.223</time></trkpt><trkpt lat="55.9407792" lon="49.2665857"><time>2023-06-17T06:27:54.223</time></trkpt><trkpt lat="55.9407665" lon="49.2666692"><time>2023-06-17T06:27:56.217</time></trkpt><trkpt lat="55.9407620" lon="49.2667540"><time>2023-06-17T06:27:58.217</time></trkpt><trkpt lat="55.9407562" lon="49.2668605"><time>2023-06-17T06:28:00.233</time></trkpt><trkpt lat="55.9407749" lon="49.2669472"><time>2023-06-17T06:28:02.230</time></trkpt><trkpt lat="55.9408043" lon="49.2670503"><time>2023-06-17T06:28:05.223</time></trkpt><trkpt lat="55.9408346" lon="49.2671537"><time>2023-06-17T06:28:08.220</time></trkpt><trkpt lat="55.9408422" lon="49.2672564"><time>2023-06-17T06:28:11.227</time></trkpt><trkpt lat="55.9408485" lon="49.2673391"><time>2023-06-17T06:28:13.223</time></trkpt><trkpt lat="55.9408580" lon="49.2674250"><time>2023-06-17T06:28:15.220</time></trkpt><trkpt lat="55.9408603" lon="49.2675056"><time>2023-06-17T06:28:17.220</time></trkpt><trkpt lat="55.9408298" lon="49.2675966"><time>2023-06-17T06:28:20.227</time></trkpt><trkpt lat="55.9408107" lon="49.2676915"><time>2023-06-17T06:28:23.220</time></trkpt><trkpt lat="55.9408000" lon="49.2678035"><time>2023-06-17T06:28:26.220</time></trkpt><trkpt lat="55.9407962" lon="49.2678862"><time>2023-06-17T06:28:28.210</time></trkpt><trkpt lat="55.9407900" lon="49.2679686"><time>2023-06-17T06:28:30.210</time></trkpt><trkpt lat="55.9407798" lon="49.2680835"><time>2023-06-17T06:28:33.227</time></trkpt><trkpt lat="55.9407832" lon="49.2681929"><time>2023-06-17T06:28:36.230</time></trkpt><trkpt lat="55.9407765" lon="49.2682930"><time>2023-06-17T06:28:39.233</time></trkpt><trkpt lat="55.9407709" lon="49.2684018"><time>2023-06-17T06:28:42.227</time></trkpt><trkpt lat="55.9407655" lon="49.2684974"><time>2023-06-17T06:28:45.223</time></trkpt><trkpt lat="55.9407689" lon="49.2686088"><time>2023-06-17T06:28:48.217</time></trkpt><trkpt lat="55.9407639" lon="49.2687193"><time>2023-06-17T06:28:51.220</time></trkpt><trkpt lat="55.9407543" lon="49.2688270"><time>2023-06-17T06:28:54.217</time></trkpt><trkpt lat="55.9407558" lon="49.2689229"><time>2023-06-17T06:28:58.227</time></trkpt><trkpt lat="55.9407457" lon="49.2690227"><time>2023-06-17T06:29:01.220</time></trkpt><trkpt lat="55.9407427" lon="49.2691306"><time>2023-06-17T06:29:04.220</time></trkpt><trkpt lat="55.9407344" lon="49.2692449"><time>2023-06-17T06:29:07.227</time></trkpt><trkpt lat="55.9407292" lon="49.2693585"><time>2023-06-17T06:29:10.217</time></trkpt><trkpt lat="55.9407313" lon="49.2694389"><time>2023-06-17T06:29:12.210</time></trkpt><trkpt lat="55.9407242" lon="49.2695527"><time>2023-06-17T06:29:15.223</time></trkpt><trkpt lat="55.9407185" lon="49.2696595"><time>2023-06-17T06:29:18.230</time></trkpt><trkpt lat="55.9406879" lon="49.2697535"><time>2023-06-17T06:29:21.217</time></trkpt><trkpt lat="55.9406333" lon="49.2698155"><time>2023-06-17T06:29:24.230</time></trkpt><trkpt lat="55.9405817" lon="49.2698696"><time>2023-06-17T06:29:27.230</time></trkpt><trkpt lat="55.9405448" lon="49.2699206"><time>2023-06-17T06:29:29.230</time></trkpt><trkpt lat="55.9405119" lon="49.2700018"><time>2023-06-17T06:29:32.233</time></trkpt><trkpt lat="55.9404924" lon="49.2701111"><time>2023-06-17T06:29:35.217</time></trkpt><trkpt lat="55.9404858" lon="49.2702103"><time>2023-06-17T06:29:37.227</time></trkpt><trkpt lat="55.9405047" lon="49.2703246"><time>2023-06-17T06:29:40.227</time></trkpt><trkpt lat="55.9405304" lon="49.2703962"><time>2023-06-17T06:29:42.220</time></trkpt><trkpt lat="55.9405662" lon="49.2704578"><time>2023-06-17T06:29:45.230</time></trkpt><trkpt lat="55.9406060" lon="49.2705089"><time>2023-06-17T06:29:49.227</time></trkpt><trkpt lat="55.9406331" lon="49.2706081"><time>2023-06-17T06:29:53.233</time></trkpt><trkpt lat="55.9406499" lon="49.2707087"><time>2023-06-17T06:29:56.237</time></trkpt><trkpt lat="55.9406589" lon="49.2708031"><time>2023-06-17T06:29:59.220</time></trkpt><trkpt lat="55.9406534" lon="49.2708899"><time>2023-06-17T06:30:02.250</time></trkpt><trkpt lat="55.9406393" lon="49.2709881"><time>2023-06-17T06:30:05.223</time></trkpt><trkpt lat="55.9406448" lon="49.2710887"><time>2023-06-17T06:30:08.220</time></trkpt><trkpt lat="55.9406541" lon="49.2711959"><time>2023-06-17T06:30:11.220</time></trkpt><trkpt lat="55.9406660" lon="49.2712760"><time>2023-06-17T06:30:13.217</time></trkpt><trkpt lat="55.9406750" lon="49.2713937"><time>2023-06-17T06:30:16.227</time></trkpt><trkpt lat="55.9406743" lon="49.2714748"><time>2023-06-17T06:30:18.217</time></trkpt><trkpt lat="55.9406684" lon="49.2715564"><time>2023-06-17T06:30:20.237</time></trkpt><trkpt lat="55.9406763" lon="49.2716643"><time>2023-06-17T06:30:23.230</time></trkpt><trkpt lat="55.9406938" lon="49.2717557"><time>2023-06-17T06:30:26.220</time></trkpt><trkpt lat="55.9406935" lon="49.2718530"><time>2023-06-17T06:30:29.220</time></trkpt><trkpt lat="55.9407038" lon="49.2719557"><time>2023-06-17T06:30:32.230</time></trkpt><trkpt lat="55.9407241" lon="49.2720642"><time>2023-06-17T06:30:35.217</time></trkpt><trkpt lat="55.9407338" lon="49.2721433"><time>2023-06-17T06:30:37.220</time></trkpt><trkpt lat="55.9407461" lon="49.2722500"><time>2023-06-17T06:30:40.220</time></trkpt><trkpt lat="55.9407523" lon="49.2723391"><time>2023-06-17T06:30:43.217</time></trkpt><trkpt lat="55.9407557" lon="49.2724438"><time>2023-06-17T06:30:47.227</time></trkpt><trkpt lat="55.9407634" lon="49.2725296"><time>2023-06-17T06:30:50.217</time></trkpt><trkpt lat="55.9407723" lon="49.2726321"><time>2023-06-17T06:30:54.220</time></trkpt><trkpt lat="55.9407718" lon="49.2727163"><time>2023-06-17T06:30:57.223</time></trkpt><trkpt lat="55.9407768" lon="49.2728136"><time>2023-06-17T06:31:00.227</time></trkpt><trkpt lat="55.9407815" lon="49.2729157"><time>2023-06-17T06:31:03.227</time></trkpt><trkpt lat="55.9407998" lon="49.2730220"><time>2023-06-17T06:31:06.220</time></trkpt><trkpt lat="55.9408224" lon="49.2731217"><time>2023-06-17T06:31:09.227</time></trkpt><trkpt lat="55.9408449" lon="49.2732251"><time>2023-06-17T06:31:12.227</time></trkpt><trkpt lat="55.9408658" lon="49.2733330"><time>2023-06-17T06:31:15.223</time></trkpt><trkpt lat="55.9408890" lon="49.2734331"><time>2023-06-17T06:31:18.217</time></trkpt><trkpt lat="55.9408849" lon="49.2735492"><time>2023-06-17T06:31:21.227</time></trkpt><trkpt lat="55.9409122" lon="49.2736492"><time>2023-06-17T06:31:24.213</time></trkpt><trkpt lat="55.9409420" lon="49.2737458"><time>2023-06-17T06:31:27.227</time></trkpt><trkpt lat="55.9409692" lon="49.2738441"><time>2023-06-17T06:31:30.237</time></trkpt><trkpt lat="55.9409891" lon="49.2739517"><time>2023-06-17T06:31:33.210</time></trkpt><trkpt lat="55.9409997" lon="49.2740647"><time>2023-06-17T06:31:36.220</time></trkpt><trkpt lat="55.9410037" lon="49.2741745"><time>2023-06-17T06:31:39.230</time></trkpt><trkpt lat="55.9409936" lon="49.2742778"><time>2023-06-17T06:31:42.227</time></trkpt><trkpt lat="55.9409957" lon="49.2743665"><time>2023-06-17T06:31:45.220</time></trkpt><trkpt lat="55.9409836" lon="49.2744721"><time>2023-06-17T06:31:48.233</time></trkpt><trkpt lat="55.9409784" lon="49.2745770"><time>2023-06-17T06:31:51.233</time></trkpt><trkpt lat="55.9409714" lon="49.2746791"><time>2023-06-17T06:31:54.240</time></trkpt><trkpt lat="55.9409696" lon="49.2747805"><time>2023-06-17T06:31:57.207</time></trkpt><trkpt lat="55.9409646" lon="49.2748823"><time>2023-06-17T06:32:00.210</time></trkpt><trkpt lat="55.9409693" lon="49.2749793"><time>2023-06-17T06:32:03.210</time></trkpt><trkpt lat="55.9409667" lon="49.2750825"><time>2023-06-17T06:32:06.230</time></trkpt><trkpt lat="55.9409688" lon="49.2751799"><time>2023-06-17T06:32:10.227</time></trkpt><trkpt lat="55.9409704" lon="49.2752785"><time>2023-06-17T06:32:14.217</time></trkpt><trkpt lat="55.9409676" lon="49.2753759"><time>2023-06-17T06:32:18.233</time></trkpt><trkpt lat="55.9409614" lon="49.2754828"><time>2023-06-17T06:32:22.227</time></trkpt><trkpt lat="55.9409587" lon="49.2755760"><time>2023-06-17T06:32:26.217</time></trkpt><trkpt lat="55.9409704" lon="49.2756544"><time>2023-06-17T06:32:29.223</time></trkpt><trkpt lat="55.9409627" lon="49.2757373"><time>2023-06-17T06:32:32.220</time></trkpt><trkpt lat="55.9409480" lon="49.2758210"><time>2023-06-17T06:32:47.220</time></trkpt><trkpt lat="55.9409426" lon="49.2759018"><time>2023-06-17T06:32:50.217</time></trkpt><trkpt lat="55.9409416" lon="49.2759893"><time>2023-06-17T06:32:53.213</time></trkpt><trkpt lat="55.9409490" lon="49.2760769"><time>2023-06-17T06:32:56.223</time></trkpt><trkpt lat="55.9409651" lon="49.2761758"><time>2023-06-17T06:32:59.217</time></trkpt><trkpt lat="55.9409704" lon="49.2762985"><time>2023-06-17T06:33:02.220</time></trkpt><trkpt lat="55.9409796" lon="49.2763828"><time>2023-06-17T06:33:04.217</time></trkpt><trkpt lat="55.9409919" lon="49.2764620"><time>2023-06-17T06:33:06.217</time></trkpt><trkpt lat="55.9410064" lon="49.2765464"><time>2023-06-17T06:33:08.227</time></trkpt><trkpt lat="55.9410141" lon="49.2766337"><time>2023-06-17T06:33:10.233</time></trkpt><trkpt lat="55.9410205" lon="49.2767183"><time>2023-06-17T06:33:12.220</time></trkpt><trkpt lat="55.9410279" lon="49.2768377"><time>2023-06-17T06:33:15.220</time></trkpt><trkpt lat="55.9410411" lon="49.2769190"><time>2023-06-17T06:33:17.230</time></trkpt><trkpt lat="55.9410501" lon="49.2770029"><time>2023-06-17T06:33:19.237</time></trkpt><trkpt lat="55.9410607" lon="49.2770810"><time>2023-06-17T06:33:21.230</time></trkpt><trkpt lat="55.9410637" lon="49.2771810"><time>2023-06-17T06:33:23.223</time></trkpt><trkpt lat="55.9410784" lon="49.2772628"><time>2023-06-17T06:33:25.237</time></trkpt><trkpt lat="55.9410832" lon="49.2773498"><time>2023-06-17T06:33:27.230</time></trkpt><trkpt lat="55.9410959" lon="49.2774287"><time>2023-06-17T06:33:29.227</time></trkpt><trkpt lat="55.9411073" lon="49.2775079"><time>2023-06-17T06:33:31.223</time></trkpt><trkpt lat="55.9411172" lon="49.2775873"><time>2023-06-17T06:33:33.220</time></trkpt><trkpt lat="55.9411171" lon="49.2777029"><time>2023-06-17T06:33:36.223</time></trkpt><trkpt lat="55.9410858" lon="49.2777862"><time>2023-06-17T06:33:49.233</time></trkpt><trkpt lat="55.9410407" lon="49.2777955"><time>2023-06-17T06:33:53.237</time></trkpt><trkpt lat="55.9409850" lon="49.2778021"><time>2023-06-17T06:33:57.230</time></trkpt><trkpt lat="55.9409306" lon="49.2778252"><time>2023-06-17T06:34:00.217</time></trkpt><trkpt lat="55.9408848" lon="49.2778438"><time>2023-06-17T06:34:02.223</time></trkpt><trkpt lat="55.9408383" lon="49.2778629"><time>2023-06-17T06:34:04.220</time></trkpt><trkpt lat="55.9407945" lon="49.2779029"><time>2023-06-17T06:34:06.227</time></trkpt><trkpt lat="55.9407456" lon="49.2779384"><time>2023-06-17T06:34:08.230</time></trkpt><trkpt lat="55.9406977" lon="49.2779703"><time>2023-06-17T06:34:10.220</time></trkpt><trkpt lat="55.9406484" lon="49.2779961"><time>2023-06-17T06:34:12.233</time></trkpt><trkpt lat="55.9405975" lon="49.2780252"><time>2023-06-17T06:34:14.220</time></trkpt><trkpt lat="55.9405500" lon="49.2780545"><time>2023-06-17T06:34:16.217</time></trkpt><trkpt lat="55.9405056" lon="49.2780779"><time>2023-06-17T06:34:18.223</time></trkpt><trkpt lat="55.9404605" lon="49.2781094"><time>2023-06-17T06:34:20.227</time></trkpt><trkpt lat="55.9404008" lon="49.2781563"><time>2023-06-17T06:34:23.227</time></trkpt><trkpt lat="55.9403403" lon="49.2782021"><time>2023-06-17T06:34:26.227</time></trkpt><trkpt lat="55.9402761" lon="49.2782499"><time>2023-06-17T06:34:29.220</time></trkpt><trkpt lat="55.9402194" lon="49.2783014"><time>2023-06-17T06:34:32.230</time></trkpt><trkpt lat="55.9401636" lon="49.2783337"><time>2023-06-17T06:34:35.223</time></trkpt><trkpt lat="55.9401141" lon="49.2783730"><time>2023-06-17T06:34:38.233</time></trkpt><trkpt lat="55.9400938" lon="49.2784521"><time>2023-06-17T06:34:44.233</time></trkpt><trkpt lat="55.9400841" lon="49.2785374"><time>2023-06-17T06:34:47.220</time></trkpt><trkpt lat="55.9400567" lon="49.2786376"><time>2023-06-17T06:34:50.227</time></trkpt><trkpt lat="55.9400413" lon="49.2787175"><time>2023-06-17T06:34:56.220</time></trkpt><trkpt lat="55.9399934" lon="49.2787771"><time>2023-06-17T06:35:01.223</time></trkpt><trkpt lat="55.9399454" lon="49.2788122"><time>2023-06-17T06:35:04.220</time></trkpt><trkpt lat="55.9398947" lon="49.2788563"><time>2023-06-17T06:35:07.227</time></trkpt><trkpt lat="55.9398547" lon="49.2789019"><time>2023-06-17T06:35:09.227</time></trkpt><trkpt lat="55.9398046" lon="49.2789327"><time>2023-06-17T06:35:12.227</time></trkpt><trkpt lat="55.9397473" lon="49.2789772"><time>2023-06-17T06:35:15.220</time></trkpt><trkpt lat="55.9396922" lon="49.2790449"><time>2023-06-17T06:35:18.230</time></trkpt><trkpt lat="55.9396537" lon="49.2790946"><time>2023-06-17T06:35:20.253</time></trkpt><trkpt lat="55.9396024" lon="49.2791688"><time>2023-06-17T06:35:23.237</time></trkpt><trkpt lat="55.9395586" lon="49.2792487"><time>2023-06-17T06:35:26.247</time></trkpt><trkpt lat="55.9395327" lon="49.2793347"><time>2023-06-17T06:35:30.223</time></trkpt><trkpt lat="55.9395055" lon="49.2793991"><time>2023-06-17T06:35:34.223</time></trkpt><trkpt lat="55.9394700" lon="49.2794500"><time>2023-06-17T06:35:37.223</time></trkpt><trkpt lat="55.9394377" lon="49.2795344"><time>2023-06-17T06:35:40.230</time></trkpt><trkpt lat="55.9393943" lon="49.2796357"><time>2023-06-17T06:35:43.223</time></trkpt><trkpt lat="55.9393681" lon="49.2797199"><time>2023-06-17T06:35:46.220</time></trkpt><trkpt lat="55.9393471" lon="49.2798297"><time>2023-06-17T06:35:49.223</time></trkpt><trkpt lat="55.9393349" lon="49.2799127"><time>2023-06-17T06:35:51.233</time></trkpt><trkpt lat="55.9393218" lon="49.2799983"><time>2023-06-17T06:35:53.220</time></trkpt><trkpt lat="55.9393160" lon="49.2800794"><time>2023-06-17T06:35:55.237</time></trkpt><trkpt lat="55.9392914" lon="49.2801723"><time>2023-06-17T06:35:58.233</time></trkpt><trkpt lat="55.9392837" lon="49.2802546"><time>2023-06-17T06:36:03.230</time></trkpt><trkpt lat="55.9393286" lon="49.2802569"><time>2023-06-17T06:36:09.217</time></trkpt><trkpt lat="55.9392998" lon="49.2803226"><time>2023-06-17T06:36:15.227</time></trkpt><trkpt lat="55.9392934" lon="49.2804091"><time>2023-06-17T06:36:19.210</time></trkpt><trkpt lat="55.9392587" lon="49.2805090"><time>2023-06-17T06:36:22.213</time></trkpt><trkpt lat="55.9392353" lon="49.2806197"><time>2023-06-17T06:36:25.213</time></trkpt><trkpt lat="55.9392359" lon="49.2807207"><time>2023-06-17T06:36:27.223</time></trkpt><trkpt lat="55.9392471" lon="49.2808132"><time>2023-06-17T06:36:29.243</time></trkpt><trkpt lat="55.9392552" lon="49.2809172"><time>2023-06-17T06:36:32.223</time></trkpt><trkpt lat="55.9392665" lon="49.2809971"><time>2023-06-17T06:36:36.220</time></trkpt><trkpt lat="55.9392453" lon="49.2810762"><time>2023-06-17T06:36:40.217</time></trkpt><trkpt lat="55.9392352" lon="49.2811629"><time>2023-06-17T06:36:43.220</time></trkpt><trkpt lat="55.9392397" lon="49.2812580"><time>2023-06-17T06:36:47.213</time></trkpt><trkpt lat="55.9392267" lon="49.2813460"><time>2023-06-17T06:36:51.220</time></trkpt><trkpt lat="55.9392051" lon="49.2814164"><time>2023-06-17T06:36:55.227</time></trkpt><trkpt lat="55.9391825" lon="49.2815002"><time>2023-06-17T06:36:59.220</time></trkpt><trkpt lat="55.9391641" lon="49.2815951"><time>2023-06-17T06:37:03.230</time></trkpt><trkpt lat="55.9391442" lon="49.2816961"><time>2023-06-17T06:37:07.223</time></trkpt><trkpt lat="55.9391612" lon="49.2817703"><time>2023-06-17T06:37:10.237</time></trkpt><trkpt lat="55.9392133" lon="49.2817738"><time>2023-06-17T06:37:15.220</time></trkpt><trkpt lat="55.9392595" lon="49.2817818"><time>2023-06-17T06:37:21.220</time></trkpt><trkpt lat="55.9392909" lon="49.2818537"><time>2023-06-17T06:37:26.363</time></trkpt><trkpt lat="55.9393304" lon="49.2818959"><time>2023-06-17T06:38:03.227</time></trkpt><trkpt lat="55.9393595" lon="49.2819600"><time>2023-06-17T06:38:09.233</time></trkpt><trkpt lat="55.9393798" lon="49.2820319"><time>2023-06-17T06:38:13.233</time></trkpt><trkpt lat="55.9394208" lon="49.2820744"><time>2023-06-17T06:38:21.223</time></trkpt><trkpt lat="55.9394158" lon="49.2821577"><time>2023-06-17T06:38:27.223</time></trkpt><trkpt lat="55.9394427" lon="49.2822340"><time>2023-06-17T06:38:32.233</time></trkpt><trkpt lat="55.9394772" lon="49.2822924"><time>2023-06-17T06:38:36.227</time></trkpt><trkpt lat="55.9395319" lon="49.2823509"><time>2023-06-17T06:38:39.230</time></trkpt><trkpt lat="55.9395886" lon="49.2823468"><time>2023-06-17T06:38:43.227</time></trkpt><trkpt lat="55.9396422" lon="49.2823293"><time>2023-06-17T06:38:47.240</time></trkpt><trkpt lat="55.9396819" lon="49.2822436"><time>2023-06-17T06:38:50.227</time></trkpt><trkpt lat="55.9396776" lon="49.2821333"><time>2023-06-17T06:38:53.227</time></trkpt><trkpt lat="55.9396769" lon="49.2820528"><time>2023-06-17T06:38:57.217</time></trkpt><trkpt lat="55.9397360" lon="49.2820270"><time>2023-06-17T06:39:01.210</time></trkpt><trkpt lat="55.9397903" lon="49.2820039"><time>2023-06-17T06:39:05.217</time></trkpt><trkpt lat="55.9397724" lon="49.2819028"><time>2023-06-17T06:39:08.217</time></trkpt><trkpt lat="55.9397633" lon="49.2818633"><time>2023-06-17T06:39:10.380</time></trkpt><trkpt lat="55.9398236" lon="49.2819458"><time>2023-06-17T06:39:20.227</time></trkpt><trkpt lat="55.9398657" lon="49.2819895"><time>2023-06-17T06:39:25.223</time></trkpt><trkpt lat="55.9399185" lon="49.2820185"><time>2023-06-17T06:39:30.230</time></trkpt><trkpt lat="55.9399713" lon="49.2820585"><time>2023-06-17T06:39:34.217</time></trkpt><trkpt lat="55.9400238" lon="49.2821060"><time>2023-06-17T06:39:37.217</time></trkpt><trkpt lat="55.9400673" lon="49.2821627"><time>2023-06-17T06:39:40.220</time></trkpt><trkpt lat="55.9401024" lon="49.2822156"><time>2023-06-17T06:39:43.223</time></trkpt><trkpt lat="55.9401533" lon="49.2821977"><time>2023-06-17T06:39:46.230</time></trkpt><trkpt lat="55.9402072" lon="49.2821923"><time>2023-06-17T06:39:48.223</time></trkpt><trkpt lat="55.9402543" lon="49.2821945"><time>2023-06-17T06:39:50.227</time></trkpt><trkpt lat="55.9403040" lon="49.2822121"><time>2023-06-17T06:39:52.220</time></trkpt><trkpt lat="55.9403542" lon="49.2822327"><time>2023-06-17T06:39:54.230</time></trkpt><trkpt lat="55.9404154" lon="49.2822399"><time>2023-06-17T06:39:57.223</time></trkpt><trkpt lat="55.9404708" lon="49.2822665"><time>2023-06-17T06:40:00.227</time></trkpt><trkpt lat="55.9405343" lon="49.2822620"><time>2023-06-17T06:40:04.230</time></trkpt><trkpt lat="55.9405815" lon="49.2822410"><time>2023-06-17T06:40:07.223</time></trkpt><trkpt lat="55.9406264" lon="49.2822147"><time>2023-06-17T06:40:10.227</time></trkpt><trkpt lat="55.9406720" lon="49.2821973"><time>2023-06-17T06:40:14.217</time></trkpt><trkpt lat="55.9407043" lon="49.2821293"><time>2023-06-17T06:40:19.293</time></trkpt><trkpt lat="55.9407518" lon="49.2821209"><time>2023-06-17T06:40:23.270</time></trkpt><trkpt lat="55.9408112" lon="49.2820826"><time>2023-06-17T06:40:26.223</time></trkpt><trkpt lat="55.9408665" lon="49.2820654"><time>2023-06-17T06:40:29.253</time></trkpt><trkpt lat="55.9409253" lon="49.2820714"><time>2023-06-17T06:40:30.330</time></trkpt><trkpt lat="55.9409763" lon="49.2821006"><time>2023-06-17T06:40:32.300</time></trkpt><trkpt lat="55.9410176" lon="49.2821375"><time>2023-06-17T06:40:34.243</time></trkpt><trkpt lat="55.9410589" lon="49.2821916"><time>2023-06-17T06:40:37.267</time></trkpt><trkpt lat="55.9410787" lon="49.2822901"><time>2023-06-17T06:40:41.303</time></trkpt><trkpt lat="55.9410641" lon="49.2823760"><time>2023-06-17T06:40:44.233</time></trkpt><trkpt lat="55.9410525" lon="49.2824701"><time>2023-06-17T06:40:48.223</time></trkpt><trkpt lat="55.9410383" lon="49.2825632"><time>2023-06-17T06:40:51.217</time></trkpt><trkpt lat="55.9410218" lon="49.2826502"><time>2023-06-17T06:40:53.223</time></trkpt><trkpt lat="55.9410135" lon="49.2827368"><time>2023-06-17T06:40:55.223</time></trkpt><trkpt lat="55.9409964" lon="49.2828154"><time>2023-06-17T06:40:57.227</time></trkpt><trkpt lat="55.9409743" lon="49.2828963"><time>2023-06-17T06:40:59.310</time></trkpt><trkpt lat="55.9409499" lon="49.2829978"><time>2023-06-17T06:41:02.217</time></trkpt><trkpt lat="55.9409192" lon="49.2831109"><time>2023-06-17T06:41:05.213</time></trkpt><trkpt lat="55.9408970" lon="49.2832301"><time>2023-06-17T06:41:08.277</time></trkpt><trkpt lat="55.9408865" lon="49.2833132"><time>2023-06-17T06:41:10.260</time></trkpt><trkpt lat="55.9408893" lon="49.2834208"><time>2023-06-17T06:41:13.267</time></trkpt><trkpt lat="55.9408846" lon="49.2835028"><time>2023-06-17T06:41:16.227</time></trkpt><trkpt lat="55.9409165" lon="49.2835594"><time>2023-06-17T06:41:25.223</time></trkpt><trkpt lat="55.9409226" lon="49.2836431"><time>2023-06-17T06:41:33.220</time></trkpt><trkpt lat="55.9409343" lon="49.2837355"><time>2023-06-17T06:41:36.223</time></trkpt><trkpt lat="55.9409465" lon="49.2838207"><time>2023-06-17T06:41:40.293</time></trkpt><trkpt lat="55.9409503" lon="49.2839037"><time>2023-06-17T06:41:44.237</time></trkpt><trkpt lat="55.9409687" lon="49.2839954"><time>2023-06-17T06:41:52.327</time></trkpt><trkpt lat="55.9409966" lon="49.2840941"><time>2023-06-17T06:41:55.227</time></trkpt><trkpt lat="55.9410216" lon="49.2841668"><time>2023-06-17T06:41:57.277</time></trkpt><trkpt lat="55.9410501" lon="49.2842352"><time>2023-06-17T06:41:59.267</time></trkpt><trkpt lat="55.9410706" lon="49.2843138"><time>2023-06-17T06:42:01.267</time></trkpt><trkpt lat="55.9410922" lon="49.2844142"><time>2023-06-17T06:42:04.227</time></trkpt><trkpt lat="55.9410982" lon="49.2845151"><time>2023-06-17T06:42:07.253</time></trkpt><trkpt lat="55.9411096" lon="49.2846194"><time>2023-06-17T06:42:11.243</time></trkpt><trkpt lat="55.9411027" lon="49.2847129"><time>2023-06-17T06:42:12.290</time></trkpt><trkpt lat="55.9410994" lon="49.2847958"><time>2023-06-17T06:42:14.220</time></trkpt><trkpt lat="55.9410940" lon="49.2848780"><time>2023-06-17T06:42:16.227</time></trkpt><trkpt lat="55.9410796" lon="49.2849574"><time>2023-06-17T06:42:18.227</time></trkpt><trkpt lat="55.9410644" lon="49.2850446"><time>2023-06-17T06:42:20.213</time></trkpt><trkpt lat="55.9410537" lon="49.2851287"><time>2023-06-17T06:42:22.230</time></trkpt><trkpt lat="55.9410492" lon="49.2852142"><time>2023-06-17T06:42:24.217</time></trkpt><trkpt lat="55.9410479" lon="49.2853010"><time>2023-06-17T06:42:26.220</time></trkpt><trkpt lat="55.9410496" lon="49.2853857"><time>2023-06-17T06:42:28.257</time></trkpt><trkpt lat="55.9410560" lon="49.2854712"><time>2023-06-17T06:42:30.213</time></trkpt><trkpt lat="55.9410673" lon="49.2855525"><time>2023-06-17T06:42:32.267</time></trkpt><trkpt lat="55.9410868" lon="49.2856580"><time>2023-06-17T06:42:35.253</time></trkpt><trkpt lat="55.9410936" lon="49.2857504"><time>2023-06-17T06:42:38.227</time></trkpt><trkpt lat="55.9410937" lon="49.2858438"><time>2023-06-17T06:42:41.220</time></trkpt><trkpt lat="55.9410812" lon="49.2859345"><time>2023-06-17T06:42:44.223</time></trkpt><trkpt lat="55.9410618" lon="49.2860131"><time>2023-06-17T06:42:46.240</time></trkpt><trkpt lat="55.9410419" lon="49.2860986"><time>2023-06-17T06:42:48.260</time></trkpt><trkpt lat="55.9410177" lon="49.2861768"><time>2023-06-17T06:42:50.247</time></trkpt><trkpt lat="55.9409973" lon="49.2862528"><time>2023-06-17T06:42:52.257</time></trkpt><trkpt lat="55.9409657" lon="49.2863606"><time>2023-06-17T06:42:55.227</time></trkpt><trkpt lat="55.9409449" lon="49.2864330"><time>2023-06-17T06:42:57.213</time></trkpt><trkpt lat="55.9409143" lon="49.2865090"><time>2023-06-17T06:42:59.223</time></trkpt><trkpt lat="55.9408897" lon="49.2865905"><time>2023-06-17T06:43:01.260</time></trkpt><trkpt lat="55.9408573" lon="49.2866887"><time>2023-06-17T06:43:04.227</time></trkpt><trkpt lat="55.9408222" lon="49.2867939"><time>2023-06-17T06:43:07.260</time></trkpt><trkpt lat="55.9408252" lon="49.2868757"><time>2023-06-17T06:43:10.257</time></trkpt><trkpt lat="55.9408746" lon="49.2868821"><time>2023-06-17T06:43:13.220</time></trkpt><trkpt lat="55.9409264" lon="49.2868913"><time>2023-06-17T06:43:16.217</time></trkpt><trkpt lat="55.9409786" lon="49.2868825"><time>2023-06-17T06:43:19.250</time></trkpt><trkpt lat="55.9410253" lon="49.2868556"><time>2023-06-17T06:43:23.247</time></trkpt><trkpt lat="55.9410769" lon="49.2868148"><time>2023-06-17T06:43:27.250</time></trkpt><trkpt lat="55.9411181" lon="49.2867805"><time>2023-06-17T06:43:30.293</time></trkpt><trkpt lat="55.9411647" lon="49.2867446"><time>2023-06-17T06:43:33.263</time></trkpt><trkpt lat="55.9412147" lon="49.2866892"><time>2023-06-17T06:43:36.230</time></trkpt><trkpt lat="55.9412531" lon="49.2866386"><time>2023-06-17T06:43:38.257</time></trkpt><trkpt lat="55.9412967" lon="49.2865947"><time>2023-06-17T06:43:40.263</time></trkpt><trkpt lat="55.9413551" lon="49.2865438"><time>2023-06-17T06:43:42.260</time></trkpt><trkpt lat="55.9414023" lon="49.2864968"><time>2023-06-17T06:43:44.227</time></trkpt><trkpt lat="55.9414480" lon="49.2864440"><time>2023-06-17T06:43:46.227</time></trkpt><trkpt lat="55.9414952" lon="49.2863956"><time>2023-06-17T06:43:48.260</time></trkpt><trkpt lat="55.9415375" lon="49.2863381"><time>2023-06-17T06:43:50.257</time></trkpt><trkpt lat="55.9415810" lon="49.2862936"><time>2023-06-17T06:43:52.257</time></trkpt><trkpt lat="55.9416092" lon="49.2862278"><time>2023-06-17T06:43:57.250</time></trkpt><trkpt lat="55.9416473" lon="49.2861575"><time>2023-06-17T06:44:01.257</time></trkpt><trkpt lat="55.9416917" lon="49.2860900"><time>2023-06-17T06:44:05.230</time></trkpt><trkpt lat="55.9417414" lon="49.2860380"><time>2023-06-17T06:44:09.257</time></trkpt><trkpt lat="55.9417929" lon="49.2859981"><time>2023-06-17T06:44:13.247</time></trkpt><trkpt lat="55.9418393" lon="49.2859820"><time>2023-06-17T06:44:16.217</time></trkpt><trkpt lat="55.9419065" lon="49.2859276"><time>2023-06-17T06:44:19.273</time></trkpt><trkpt lat="55.9419639" lon="49.2858959"><time>2023-06-17T06:44:21.227</time></trkpt><trkpt lat="55.9420205" lon="49.2858634"><time>2023-06-17T06:44:23.253</time></trkpt><trkpt lat="55.9420810" lon="49.2858329"><time>2023-06-17T06:44:25.237</time></trkpt><trkpt lat="55.9421334" lon="49.2858114"><time>2023-06-17T06:44:27.297</time></trkpt><trkpt lat="55.9421802" lon="49.2858322"><time>2023-06-17T06:44:29.290</time></trkpt><trkpt lat="55.9422317" lon="49.2858577"><time>2023-06-17T06:44:33.253</time></trkpt><trkpt lat="55.9422839" lon="49.2858783"><time>2023-06-17T06:44:37.253</time></trkpt><trkpt lat="55.9423313" lon="49.2859041"><time>2023-06-17T06:44:41.257</time></trkpt><trkpt lat="55.9423864" lon="49.2859366"><time>2023-06-17T06:44:46.227</time></trkpt><trkpt lat="55.9424362" lon="49.2859808"><time>2023-06-17T06:44:50.253</time></trkpt><trkpt lat="55.9424890" lon="49.2859984"><time>2023-06-17T06:44:53.303</time></trkpt><trkpt lat="55.9425475" lon="49.2860119"><time>2023-06-17T06:44:56.223</time></trkpt><trkpt lat="55.9426076" lon="49.2860317"><time>2023-06-17T06:44:59.317</time></trkpt><trkpt lat="55.9426624" lon="49.2860582"><time>2023-06-17T06:45:03.297</time></trkpt><trkpt lat="55.9427100" lon="49.2860658"><time>2023-06-17T06:45:06.220</time></trkpt><trkpt lat="55.9427588" lon="49.2860965"><time>2023-06-17T06:45:09.290</time></trkpt><trkpt lat="55.9428009" lon="49.2861297"><time>2023-06-17T06:45:14.257</time></trkpt><trkpt lat="55.9428474" lon="49.2861172"><time>2023-06-17T06:45:18.307</time></trkpt><trkpt lat="55.9428931" lon="49.2860966"><time>2023-06-17T06:45:24.310</time></trkpt><trkpt lat="55.9429105" lon="49.2861706"><time>2023-06-17T06:45:30.210</time></trkpt><trkpt lat="55.9429561" lon="49.2862033"><time>2023-06-17T06:45:34.267</time></trkpt><trkpt lat="55.9430021" lon="49.2861957"><time>2023-06-17T06:45:39.263</time></trkpt><trkpt lat="55.9430525" lon="49.2862047"><time>2023-06-17T06:45:45.240</time></trkpt><trkpt lat="55.9430999" lon="49.2861917"><time>2023-06-17T06:45:53.297</time></trkpt><trkpt lat="55.9431427" lon="49.2861485"><time>2023-06-17T06:45:58.250</time></trkpt><trkpt lat="55.9431930" lon="49.2861865"><time>2023-06-17T06:46:03.297</time></trkpt><trkpt lat="55.9432107" lon="49.2862717"><time>2023-06-17T06:46:08.297</time></trkpt><trkpt lat="55.9432571" lon="49.2863023"><time>2023-06-17T06:46:12.300</time></trkpt><trkpt lat="55.9432965" lon="49.2863413"><time>2023-06-17T06:46:16.227</time></trkpt><trkpt lat="55.9433366" lon="49.2863898"><time>2023-06-17T06:46:22.217</time></trkpt><trkpt lat="55.9433817" lon="49.2864086"><time>2023-06-17T06:46:32.293</time></trkpt><trkpt lat="55.9434030" lon="49.2864996"><time>2023-06-17T06:46:36.223</time></trkpt><trkpt lat="55.9434418" lon="49.2865776"><time>2023-06-17T06:46:40.303</time></trkpt><trkpt lat="55.9434825" lon="49.2866473"><time>2023-06-17T06:46:44.267</time></trkpt><trkpt lat="55.9435129" lon="49.2867083"><time>2023-06-17T06:46:48.260</time></trkpt><trkpt lat="55.9435635" lon="49.2867508"><time>2023-06-17T06:46:53.287</time></trkpt><trkpt lat="55.9436102" lon="49.2867947"><time>2023-06-17T06:46:57.230</time></trkpt><trkpt lat="55.9436609" lon="49.2868416"><time>2023-06-17T06:47:01.243</time></trkpt><trkpt lat="55.9437046" lon="49.2868658"><time>2023-06-17T06:47:04.223</time></trkpt><trkpt lat="55.9437516" lon="49.2868761"><time>2023-06-17T06:47:07.230</time></trkpt><trkpt lat="55.9438053" lon="49.2868857"><time>2023-06-17T06:47:11.290</time></trkpt><trkpt lat="55.9438604" lon="49.2868987"><time>2023-06-17T06:47:16.217</time></trkpt><trkpt lat="55.9439118" lon="49.2868516"><time>2023-06-17T06:47:21.227</time></trkpt><trkpt lat="55.9439647" lon="49.2868303"><time>2023-06-17T06:47:25.237</time></trkpt><trkpt lat="55.9439835" lon="49.2869174"><time>2023-06-17T06:47:30.213</time></trkpt><trkpt lat="55.9440290" lon="49.2868935"><time>2023-06-17T06:47:34.213</time></trkpt><trkpt lat="55.9440744" lon="49.2868993"><time>2023-06-17T06:47:37.220</time></trkpt><trkpt lat="55.9441220" lon="49.2869148"><time>2023-06-17T06:47:40.223</time></trkpt><trkpt lat="55.9441855" lon="49.2869014"><time>2023-06-17T06:47:43.227</time></trkpt><trkpt lat="55.9442387" lon="49.2868838"><time>2023-06-17T06:47:48.220</time></trkpt><trkpt lat="55.9442941" lon="49.2869226"><time>2023-06-17T06:47:51.227</time></trkpt><trkpt lat="55.9443494" lon="49.2869737"><time>2023-06-17T06:47:54.220</time></trkpt><trkpt lat="55.9444004" lon="49.2870038"><time>2023-06-17T06:47:57.247</time></trkpt><trkpt lat="55.9444525" lon="49.2870197"><time>2023-06-17T06:48:00.217</time></trkpt><trkpt lat="55.9444983" lon="49.2870430"><time>2023-06-17T06:48:03.227</time></trkpt><trkpt lat="55.9445428" lon="49.2870682"><time>2023-06-17T06:48:05.227</time></trkpt><trkpt lat="55.9445880" lon="49.2871047"><time>2023-06-17T06:48:07.227</time></trkpt><trkpt lat="55.9446332" lon="49.2871348"><time>2023-06-17T06:48:09.217</time></trkpt><trkpt lat="55.9446806" lon="49.2871514"><time>2023-06-17T06:48:11.220</time></trkpt><trkpt lat="55.9447407" lon="49.2871838"><time>2023-06-17T06:48:14.233</time></trkpt><trkpt lat="55.9448004" lon="49.2872295"><time>2023-06-17T06:48:17.223</time></trkpt><trkpt lat="55.9448606" lon="49.2872664"><time>2023-06-17T06:48:20.233</time></trkpt><trkpt lat="55.9449179" lon="49.2873147"><time>2023-06-17T06:48:23.237</time></trkpt><trkpt lat="55.9449704" lon="49.2873686"><time>2023-06-17T06:48:26.217</time></trkpt><trkpt lat="55.9450177" lon="49.2873851"><time>2023-06-17T06:48:30.220</time></trkpt><trkpt lat="55.9450710" lon="49.2873896"><time>2023-06-17T06:48:35.223</time></trkpt><trkpt lat="55.9451196" lon="49.2874150"><time>2023-06-17T06:48:39.230</time></trkpt><trkpt lat="55.9451611" lon="49.2874581"><time>2023-06-17T06:48:42.227</time></trkpt><trkpt lat="55.9452224" lon="49.2874950"><time>2023-06-17T06:48:45.220</time></trkpt><trkpt lat="55.9452747" lon="49.2874955"><time>2023-06-17T06:48:47.217</time></trkpt><trkpt lat="55.9453296" lon="49.2874921"><time>2023-06-17T06:48:49.237</time></trkpt><trkpt lat="55.9453771" lon="49.2875028"><time>2023-06-17T06:48:51.220</time></trkpt><trkpt lat="55.9454290" lon="49.2875051"><time>2023-06-17T06:48:53.227</time></trkpt><trkpt lat="55.9454754" lon="49.2874545"><time>2023-06-17T06:48:55.223</time></trkpt><trkpt lat="55.9455166" lon="49.2873983"><time>2023-06-17T06:48:57.223</time></trkpt><trkpt lat="55.9455480" lon="49.2873305"><time>2023-06-17T06:48:59.227</time></trkpt><trkpt lat="55.9455843" lon="49.2872831"><time>2023-06-17T06:49:01.237</time></trkpt><trkpt lat="55.9456398" lon="49.2872450"><time>2023-06-17T06:49:04.283</time></trkpt><trkpt lat="55.9456909" lon="49.2872890"><time>2023-06-17T06:49:07.210</time></trkpt><trkpt lat="55.9457162" lon="49.2872589"><time>2023-06-17T06:49:10.667</time></trkpt><trkpt lat="55.9457073" lon="49.2873761"><time>2023-06-17T06:49:30.223</time></trkpt><trkpt lat="55.9457251" lon="49.2874603"><time>2023-06-17T06:49:35.217</time></trkpt><trkpt lat="55.9456865" lon="49.2875174"><time>2023-06-17T06:49:40.213</time></trkpt><trkpt lat="55.9456415" lon="49.2875506"><time>2023-06-17T06:49:45.227</time></trkpt><trkpt lat="55.9455940" lon="49.2875525"><time>2023-06-17T06:49:49.223</time></trkpt><trkpt lat="55.9455369" lon="49.2875585"><time>2023-06-17T06:49:54.213</time></trkpt><trkpt lat="55.9454831" lon="49.2875513"><time>2023-06-17T06:49:58.217</time></trkpt><trkpt lat="55.9454394" lon="49.2875704"><time>2023-06-17T06:50:04.213</time></trkpt><trkpt lat="55.9453857" lon="49.2875848"><time>2023-06-17T06:50:18.210</time></trkpt><trkpt lat="55.9453376" lon="49.2875890"><time>2023-06-17T06:50:22.210</time></trkpt><trkpt lat="55.9452798" lon="49.2875722"><time>2023-06-17T06:50:27.223</time></trkpt><trkpt lat="55.9452258" lon="49.2875505"><time>2023-06-17T06:50:31.217</time></trkpt><trkpt lat="55.9451840" lon="49.2875061"><time>2023-06-17T06:50:34.220</time></trkpt><trkpt lat="55.9451221" lon="49.2874595"><time>2023-06-17T06:50:37.227</time></trkpt><trkpt lat="55.9450789" lon="49.2874352"><time>2023-06-17T06:50:39.210</time></trkpt><trkpt lat="55.9450199" lon="49.2874018"><time>2023-06-17T06:50:42.220</time></trkpt><trkpt lat="55.9449716" lon="49.2873967"><time>2023-06-17T06:50:45.233</time></trkpt><trkpt lat="55.9449171" lon="49.2873567"><time>2023-06-17T06:50:49.227</time></trkpt><trkpt lat="55.9448661" lon="49.2873294"><time>2023-06-17T06:50:52.227</time></trkpt><trkpt lat="55.9448305" lon="49.2872776"><time>2023-06-17T06:50:54.307</time></trkpt><trkpt lat="55.9447918" lon="49.2872367"><time>2023-06-17T06:50:56.220</time></trkpt><trkpt lat="55.9447475" lon="49.2872033"><time>2023-06-17T06:50:58.213</time></trkpt><trkpt lat="55.9446998" lon="49.2871658"><time>2023-06-17T06:51:00.217</time></trkpt><trkpt lat="55.9446752" lon="49.2870942"><time>2023-06-17T06:51:02.223</time></trkpt><trkpt lat="55.9446311" lon="49.2871233"><time>2023-06-17T06:51:04.227</time></trkpt><trkpt lat="55.9445770" lon="49.2871253"><time>2023-06-17T06:51:07.230</time></trkpt><trkpt lat="55.9445278" lon="49.2871006"><time>2023-06-17T06:51:10.230</time></trkpt><trkpt lat="55.9444777" lon="49.2870693"><time>2023-06-17T06:51:14.213</time></trkpt><trkpt lat="55.9444241" lon="49.2870499"><time>2023-06-17T06:51:18.237</time></trkpt><trkpt lat="55.9443802" lon="49.2870016"><time>2023-06-17T06:51:22.210</time></trkpt><trkpt lat="55.9443316" lon="49.2869713"><time>2023-06-17T06:51:25.223</time></trkpt><trkpt lat="55.9442687" lon="49.2869515"><time>2023-06-17T06:51:28.223</time></trkpt><trkpt lat="55.9442279" lon="49.2869028"><time>2023-06-17T06:51:30.240</time></trkpt><trkpt lat="55.9441892" lon="49.2868614"><time>2023-06-17T06:51:32.227</time></trkpt><trkpt lat="55.9441421" lon="49.2868836"><time>2023-06-17T06:51:36.217</time></trkpt><trkpt lat="55.9440956" lon="49.2869094"><time>2023-06-17T06:51:40.213</time></trkpt><trkpt lat="55.9440470" lon="49.2869402"><time>2023-06-17T06:51:44.227</time></trkpt><trkpt lat="55.9439947" lon="49.2869652"><time>2023-06-17T06:51:49.227</time></trkpt><trkpt lat="55.9439452" lon="49.2870003"><time>2023-06-17T06:51:58.223</time></trkpt><trkpt lat="55.9439009" lon="49.2870515"><time>2023-06-17T06:52:02.207</time></trkpt><trkpt lat="55.9438985" lon="49.2871351"><time>2023-06-17T06:52:06.217</time></trkpt><trkpt lat="55.9438791" lon="49.2872240"><time>2023-06-17T06:52:10.233</time></trkpt><trkpt lat="55.9438342" lon="49.2872839"><time>2023-06-17T06:52:15.213</time></trkpt><trkpt lat="55.9437812" lon="49.2873170"><time>2023-06-17T06:52:19.220</time></trkpt><trkpt lat="55.9437357" lon="49.2873582"><time>2023-06-17T06:52:23.223</time></trkpt><trkpt lat="55.9436990" lon="49.2874114"><time>2023-06-17T06:52:27.233</time></trkpt><trkpt lat="55.9436839" lon="49.2874876"><time>2023-06-17T06:52:31.213</time></trkpt><trkpt lat="55.9436515" lon="49.2875627"><time>2023-06-17T06:52:36.213</time></trkpt><trkpt lat="55.9436203" lon="49.2876334"><time>2023-06-17T06:52:41.227</time></trkpt><trkpt lat="55.9435756" lon="49.2876635"><time>2023-06-17T06:52:46.210</time></trkpt><trkpt lat="55.9435307" lon="49.2876698"><time>2023-06-17T06:52:52.213</time></trkpt><trkpt lat="55.9434743" lon="49.2876790"><time>2023-06-17T06:52:58.217</time></trkpt><trkpt lat="55.9434232" lon="49.2876444"><time>2023-06-17T06:53:04.227</time></trkpt><trkpt lat="55.9433744" lon="49.2876404"><time>2023-06-17T06:53:10.210</time></trkpt><trkpt lat="55.9433237" lon="49.2876375"><time>2023-06-17T06:53:19.213</time></trkpt><trkpt lat="55.9432782" lon="49.2876673"><time>2023-06-17T06:53:52.220</time></trkpt><trkpt lat="55.9432183" lon="49.2876450"><time>2023-06-17T06:54:01.210</time></trkpt><trkpt lat="55.9432047" lon="49.2875477"><time>2023-06-17T06:54:06.217</time></trkpt><trkpt lat="55.9432191" lon="49.2874576"><time>2023-06-17T06:54:11.223</time></trkpt><trkpt lat="55.9431775" lon="49.2874225"><time>2023-06-17T06:54:19.210</time></trkpt><trkpt lat="55.9431311" lon="49.2874462"><time>2023-06-17T06:54:25.220</time></trkpt><trkpt lat="55.9430840" lon="49.2874466"><time>2023-06-17T06:54:30.220</time></trkpt><trkpt lat="55.9430385" lon="49.2874470"><time>2023-06-17T06:54:36.223</time></trkpt><trkpt lat="55.9429947" lon="49.2874726"><time>2023-06-17T06:54:44.227</time></trkpt><trkpt lat="55.9429501" lon="49.2875182"><time>2023-06-17T06:54:52.227</time></trkpt><trkpt lat="55.9429039" lon="49.2875460"><time>2023-06-17T06:54:59.230</time></trkpt><trkpt lat="55.9428531" lon="49.2875847"><time>2023-06-17T06:55:10.230</time></trkpt><trkpt lat="55.9428054" lon="49.2875912"><time>2023-06-17T06:55:18.230</time></trkpt><trkpt lat="55.9428019" lon="49.2876722"><time>2023-06-17T06:55:25.223</time></trkpt><trkpt lat="55.9428037" lon="49.2877541"><time>2023-06-17T06:55:31.223</time></trkpt><trkpt lat="55.9427654" lon="49.2878151"><time>2023-06-17T06:55:36.227</time></trkpt><trkpt lat="55.9427278" lon="49.2878759"><time>2023-06-17T06:55:41.227</time></trkpt><trkpt lat="55.9426790" lon="49.2879125"><time>2023-06-17T06:55:48.233</time></trkpt><trkpt lat="55.9426293" lon="49.2879348"><time>2023-06-17T06:55:54.223</time></trkpt><trkpt lat="55.9425895" lon="49.2879783"><time>2023-06-17T06:55:59.227</time></trkpt><trkpt lat="55.9425627" lon="49.2880481"><time>2023-06-17T06:56:04.227</time></trkpt><trkpt lat="55.9425172" lon="49.2881052"><time>2023-06-17T06:56:09.223</time></trkpt><trkpt lat="55.9424789" lon="49.2881625"><time>2023-06-17T06:56:15.210</time></trkpt><trkpt lat="55.9424318" lon="49.2881819"><time>2023-06-17T06:56:24.230</time></trkpt><trkpt lat="55.9423923" lon="49.2882335"><time>2023-06-17T06:56:35.217</time></trkpt><trkpt lat="55.9423578" lon="49.2882928"><time>2023-06-17T06:57:07.207</time></trkpt><trkpt lat="55.9423244" lon="49.2883600"><time>2023-06-17T06:57:13.220</time></trkpt><trkpt lat="55.9422751" lon="49.2883951"><time>2023-06-17T06:57:19.227</time></trkpt><trkpt lat="55.9422359" lon="49.2884494"><time>2023-06-17T06:57:24.213</time></trkpt><trkpt lat="55.9421945" lon="49.2884884"><time>2023-06-17T06:57:28.230</time></trkpt><trkpt lat="55.9421588" lon="49.2885416"><time>2023-06-17T06:57:33.217</time></trkpt><trkpt lat="55.9421513" lon="49.2886382"><time>2023-06-17T06:57:38.237</time></trkpt><trkpt lat="55.9421201" lon="49.2886993"><time>2023-06-17T06:57:46.233</time></trkpt><trkpt lat="55.9420743" lon="49.2887595"><time>2023-06-17T06:57:55.230</time></trkpt><trkpt lat="55.9420447" lon="49.2888370"><time>2023-06-17T06:58:00.223</time></trkpt><trkpt lat="55.9420058" lon="49.2888820"><time>2023-06-17T06:58:03.227</time></trkpt><trkpt lat="55.9419757" lon="49.2889478"><time>2023-06-17T06:58:08.217</time></trkpt><trkpt lat="55.9419475" lon="49.2890187"><time>2023-06-17T06:58:13.227</time></trkpt><trkpt lat="55.9419117" lon="49.2890696"><time>2023-06-17T06:58:18.213</time></trkpt><trkpt lat="55.9419026" lon="49.2891557"><time>2023-06-17T06:58:23.217</time></trkpt><trkpt lat="55.9419219" lon="49.2892457"><time>2023-06-17T06:58:28.227</time></trkpt><trkpt lat="55.9419141" lon="49.2893333"><time>2023-06-17T06:58:33.223</time></trkpt><trkpt lat="55.9418842" lon="49.2894136"><time>2023-06-17T06:58:38.223</time></trkpt><trkpt lat="55.9418700" lon="49.2894957"><time>2023-06-17T06:58:43.217</time></trkpt><trkpt lat="55.9418415" lon="49.2895578"><time>2023-06-17T06:58:49.220</time></trkpt><trkpt lat="55.9418516" lon="49.2896420"><time>2023-06-17T06:58:55.223</time></trkpt><trkpt lat="55.9418893" lon="49.2896970"><time>2023-06-17T06:59:01.217</time></trkpt><trkpt lat="55.9418698" lon="49.2897753"><time>2023-06-17T06:59:05.210</time></trkpt><trkpt lat="55.9418724" lon="49.2898756"><time>2023-06-17T06:59:09.230</time></trkpt><trkpt lat="55.9418958" lon="49.2899489"><time>2023-06-17T06:59:14.217</time></trkpt><trkpt lat="55.9419277" lon="49.2900119"><time>2023-06-17T06:59:19.217</time></trkpt><trkpt lat="55.9419494" lon="49.2900892"><time>2023-06-17T06:59:24.223</time></trkpt><trkpt lat="55.9419544" lon="49.2901777"><time>2023-06-17T06:59:30.213</time></trkpt><trkpt lat="55.9419649" lon="49.2902617"><time>2023-06-17T06:59:35.230</time></trkpt><trkpt lat="55.9419830" lon="49.2903356"><time>2023-06-17T06:59:39.220</time></trkpt><trkpt lat="55.9420043" lon="49.2904220"><time>2023-06-17T06:59:43.207</time></trkpt><trkpt lat="55.9420017" lon="49.2905085"><time>2023-06-17T06:59:47.230</time></trkpt><trkpt lat="55.9420222" lon="49.2905808"><time>2023-06-17T06:59:51.227</time></trkpt><trkpt lat="55.9420385" lon="49.2906736"><time>2023-06-17T06:59:56.227</time></trkpt><trkpt lat="55.9419937" lon="49.2907176"><time>2023-06-17T07:00:02.217</time></trkpt><trkpt lat="55.9419420" lon="49.2907359"><time>2023-06-17T07:00:07.220</time></trkpt><trkpt lat="55.9418889" lon="49.2907542"><time>2023-06-17T07:00:12.207</time></trkpt><trkpt lat="55.9418504" lon="49.2908064"><time>2023-06-17T07:00:17.217</time></trkpt><trkpt lat="55.9418045" lon="49.2908059"><time>2023-06-17T07:00:21.217</time></trkpt><trkpt lat="55.9417725" lon="49.2908799"><time>2023-06-17T07:00:26.233</time></trkpt><trkpt lat="55.9417364" lon="49.2909598"><time>2023-06-17T07:00:29.217</time></trkpt><trkpt lat="55.9417083" lon="49.2910365"><time>2023-06-17T07:00:35.230</time></trkpt><trkpt lat="55.9416812" lon="49.2911061"><time>2023-06-17T07:00:40.217</time></trkpt><trkpt lat="55.9416613" lon="49.2911782"><time>2023-06-17T07:00:45.237</time></trkpt><trkpt lat="55.9416904" lon="49.2912418"><time>2023-06-17T07:00:56.207</time></trkpt><trkpt lat="55.9417085" lon="49.2913172"><time>2023-06-17T07:01:02.223</time></trkpt><trkpt lat="55.9417562" lon="49.2913462"><time>2023-06-17T07:01:11.220</time></trkpt><trkpt lat="55.9418024" lon="49.2913634"><time>2023-06-17T07:01:15.223</time></trkpt><trkpt lat="55.9418394" lon="49.2914215"><time>2023-06-17T07:01:24.227</time></trkpt><trkpt lat="55.9418869" lon="49.2914448"><time>2023-06-17T07:01:29.217</time></trkpt><trkpt lat="55.9419189" lon="49.2915043"><time>2023-06-17T07:01:34.217</time></trkpt><trkpt lat="55.9419157" lon="49.2915851"><time>2023-06-17T07:01:39.223</time></trkpt><trkpt lat="55.9419181" lon="49.2916780"><time>2023-06-17T07:01:44.230</time></trkpt><trkpt lat="55.9419379" lon="49.2917560"><time>2023-06-17T07:01:48.230</time></trkpt><trkpt lat="55.9419684" lon="49.2918250"><time>2023-06-17T07:01:53.223</time></trkpt><trkpt lat="55.9419978" lon="49.2918872"><time>2023-06-17T07:02:16.230</time></trkpt><trkpt lat="55.9419997" lon="49.2919747"><time>2023-06-17T07:02:22.207</time></trkpt><trkpt lat="55.9419997" lon="49.2920681"><time>2023-06-17T07:02:27.220</time></trkpt><trkpt lat="55.9419945" lon="49.2921520"><time>2023-06-17T07:02:32.223</time></trkpt><trkpt lat="55.9419868" lon="49.2922449"><time>2023-06-17T07:02:36.227</time></trkpt><trkpt lat="55.9419969" lon="49.2923386"><time>2023-06-17T07:02:41.213</time></trkpt><trkpt lat="55.9420242" lon="49.2924182"><time>2023-06-17T07:02:48.220</time></trkpt><trkpt lat="55.9420319" lon="49.2924999"><time>2023-06-17T07:02:57.220</time></trkpt><trkpt lat="55.9419780" lon="49.2925267"><time>2023-06-17T07:03:02.227</time></trkpt><trkpt lat="55.9419532" lon="49.2926036"><time>2023-06-17T07:03:08.237</time></trkpt><trkpt lat="55.9419471" lon="49.2926923"><time>2023-06-17T07:03:13.220</time></trkpt><trkpt lat="55.9419570" lon="49.2927711"><time>2023-06-17T07:03:19.230</time></trkpt><trkpt lat="55.9419253" lon="49.2928408"><time>2023-06-17T07:03:25.223</time></trkpt><trkpt lat="55.9419091" lon="49.2929303"><time>2023-06-17T07:03:31.227</time></trkpt><trkpt lat="55.9418970" lon="49.2930201"><time>2023-06-17T07:03:36.227</time></trkpt><trkpt lat="55.9418872" lon="49.2931072"><time>2023-06-17T07:03:42.230</time></trkpt><trkpt lat="55.9418624" lon="49.2931847"><time>2023-06-17T07:03:48.227</time></trkpt><trkpt lat="55.9418415" lon="49.2932608"><time>2023-06-17T07:03:53.223</time></trkpt><trkpt lat="55.9418597" lon="49.2933386"><time>2023-06-17T07:04:00.220</time></trkpt><trkpt lat="55.9418700" lon="49.2934212"><time>2023-06-17T07:04:05.210</time></trkpt><trkpt lat="55.9418774" lon="49.2935028"><time>2023-06-17T07:04:10.223</time></trkpt><trkpt lat="55.9419101" lon="49.2935581"><time>2023-06-17T07:04:15.233</time></trkpt><trkpt lat="55.9419519" lon="49.2936074"><time>2023-06-17T07:04:20.217</time></trkpt><trkpt lat="55.9419927" lon="49.2936716"><time>2023-06-17T07:04:25.237</time></trkpt><trkpt lat="55.9419963" lon="49.2937701"><time>2023-06-17T07:04:29.227</time></trkpt><trkpt lat="55.9419968" lon="49.2938603"><time>2023-06-17T07:04:33.223</time></trkpt><trkpt lat="55.9420064" lon="49.2939528"><time>2023-06-17T07:04:38.217</time></trkpt><trkpt lat="55.9420282" lon="49.2940324"><time>2023-06-17T07:04:44.227</time></trkpt><trkpt lat="55.9420517" lon="49.2941115"><time>2023-06-17T07:04:49.220</time></trkpt><trkpt lat="55.9420582" lon="49.2942063"><time>2023-06-17T07:04:54.223</time></trkpt><trkpt lat="55.9420355" lon="49.2942850"><time>2023-06-17T07:04:59.217</time></trkpt><trkpt lat="55.9420018" lon="49.2943484"><time>2023-06-17T07:05:04.223</time></trkpt><trkpt lat="55.9419776" lon="49.2944168"><time>2023-06-17T07:05:08.200</time></trkpt><trkpt lat="55.9419673" lon="49.2945142"><time>2023-06-17T07:05:12.227</time></trkpt><trkpt lat="55.9419668" lon="49.2945992"><time>2023-06-17T07:05:16.227</time></trkpt><trkpt lat="55.9419479" lon="49.2946729"><time>2023-06-17T07:05:20.217</time></trkpt><trkpt lat="55.9419576" lon="49.2947644"><time>2023-06-17T07:05:25.213</time></trkpt><trkpt lat="55.9419517" lon="49.2948440"><time>2023-06-17T07:05:29.223</time></trkpt><trkpt lat="55.9419343" lon="49.2949372"><time>2023-06-17T07:05:33.227</time></trkpt><trkpt lat="55.9419070" lon="49.2950053"><time>2023-06-17T07:05:37.217</time></trkpt><trkpt lat="55.9418624" lon="49.2950461"><time>2023-06-17T07:05:41.220</time></trkpt><trkpt lat="55.9418465" lon="49.2951320"><time>2023-06-17T07:05:45.217</time></trkpt><trkpt lat="55.9418098" lon="49.2951928"><time>2023-06-17T07:05:52.220</time></trkpt><trkpt lat="55.9417765" lon="49.2952622"><time>2023-06-17T07:05:59.223</time></trkpt><trkpt lat="55.9417267" lon="49.2952474"><time>2023-06-17T07:06:03.227</time></trkpt><trkpt lat="55.9416748" lon="49.2952707"><time>2023-06-17T07:06:08.213</time></trkpt><trkpt lat="55.9416252" lon="49.2953064"><time>2023-06-17T07:06:12.227</time></trkpt><trkpt lat="55.9415711" lon="49.2953237"><time>2023-06-17T07:06:16.220</time></trkpt><trkpt lat="55.9415383" lon="49.2954098"><time>2023-06-17T07:06:20.217</time></trkpt><trkpt lat="55.9415349" lon="49.2954964"><time>2023-06-17T07:06:24.227</time></trkpt><trkpt lat="55.9415376" lon="49.2955963"><time>2023-06-17T07:06:28.223</time></trkpt><trkpt lat="55.9415680" lon="49.2956782"><time>2023-06-17T07:06:32.220</time></trkpt><trkpt lat="55.9415825" lon="49.2957668"><time>2023-06-17T07:06:36.223</time></trkpt><trkpt lat="55.9415323" lon="49.2957990"><time>2023-06-17T07:06:41.227</time></trkpt><trkpt lat="55.9414846" lon="49.2958301"><time>2023-06-17T07:06:45.220</time></trkpt><trkpt lat="55.9414448" lon="49.2958952"><time>2023-06-17T07:06:50.223</time></trkpt><trkpt lat="55.9414066" lon="49.2959445"><time>2023-06-17T07:06:54.227</time></trkpt><trkpt lat="55.9413614" lon="49.2959180"><time>2023-06-17T07:07:20.210</time></trkpt><trkpt lat="55.9413212" lon="49.2959659"><time>2023-06-17T07:07:27.223</time></trkpt><trkpt lat="55.9413067" lon="49.2960419"><time>2023-06-17T07:07:59.223</time></trkpt><trkpt lat="55.9412617" lon="49.2960756"><time>2023-06-17T07:08:04.203</time></trkpt><trkpt lat="55.9412220" lon="49.2961146"><time>2023-06-17T07:08:07.227</time></trkpt><trkpt lat="55.9411756" lon="49.2961525"><time>2023-06-17T07:08:11.220</time></trkpt><trkpt lat="55.9411235" lon="49.2961820"><time>2023-06-17T07:08:15.230</time></trkpt><trkpt lat="55.9410773" lon="49.2961971"><time>2023-06-17T07:08:18.230</time></trkpt><trkpt lat="55.9410227" lon="49.2962026"><time>2023-06-17T07:08:22.223</time></trkpt><trkpt lat="55.9409730" lon="49.2961914"><time>2023-06-17T07:08:26.220</time></trkpt><trkpt lat="55.9409680" lon="49.2961090"><time>2023-06-17T07:08:32.233</time></trkpt><trkpt lat="55.9410076" lon="49.2960479"><time>2023-06-17T07:08:36.230</time></trkpt><trkpt lat="55.9410569" lon="49.2960313"><time>2023-06-17T07:08:40.223</time></trkpt><trkpt lat="55.9411109" lon="49.2960149"><time>2023-06-17T07:08:45.213</time></trkpt><trkpt lat="55.9411548" lon="49.2959921"><time>2023-06-17T07:08:49.223</time></trkpt><trkpt lat="55.9412044" lon="49.2959681"><time>2023-06-17T07:08:53.210</time></trkpt><trkpt lat="55.9412471" lon="49.2959237"><time>2023-06-17T07:08:56.207</time></trkpt><trkpt lat="55.9413031" lon="49.2959092"><time>2023-06-17T07:09:00.227</time></trkpt><trkpt lat="55.9413518" lon="49.2959118"><time>2023-06-17T07:09:04.223</time></trkpt><trkpt lat="55.9414049" lon="49.2959008"><time>2023-06-17T07:09:08.220</time></trkpt><trkpt lat="55.9414534" lon="49.2958635"><time>2023-06-17T07:09:11.223</time></trkpt><trkpt lat="55.9415065" lon="49.2958133"><time>2023-06-17T07:09:14.223</time></trkpt><trkpt lat="55.9415597" lon="49.2957828"><time>2023-06-17T07:09:17.217</time></trkpt><trkpt lat="55.9416252" lon="49.2957457"><time>2023-06-17T07:09:20.313</time></trkpt><trkpt lat="55.9416736" lon="49.2957286"><time>2023-06-17T07:09:22.230</time></trkpt><trkpt lat="55.9417188" lon="49.2957217"><time>2023-06-17T07:09:24.227</time></trkpt><trkpt lat="55.9417647" lon="49.2956975"><time>2023-06-17T07:09:26.223</time></trkpt><trkpt lat="55.9418148" lon="49.2956865"><time>2023-06-17T07:09:30.217</time></trkpt><trkpt lat="55.9418685" lon="49.2956543"><time>2023-06-17T07:09:35.230</time></trkpt><trkpt lat="55.9418807" lon="49.2955653"><time>2023-06-17T07:09:40.227</time></trkpt><trkpt lat="55.9418561" lon="49.2954852"><time>2023-06-17T07:09:45.220</time></trkpt><trkpt lat="55.9418492" lon="49.2954775"><time>2023-06-17T07:09:46.240</time></trkpt><trkpt lat="55.9418734" lon="49.2955697"><time>2023-06-17T07:09:56.223</time></trkpt><trkpt lat="55.9418616" lon="49.2956556"><time>2023-06-17T07:10:01.217</time></trkpt><trkpt lat="55.9418128" lon="49.2956748"><time>2023-06-17T07:10:06.237</time></trkpt><trkpt lat="55.9417662" lon="49.2956901"><time>2023-06-17T07:10:11.223</time></trkpt><trkpt lat="55.9417222" lon="49.2957201"><time>2023-06-17T07:10:17.217</time></trkpt><trkpt lat="55.9416724" lon="49.2957351"><time>2023-06-17T07:10:19.217</time></trkpt><trkpt lat="55.9416218" lon="49.2957615"><time>2023-06-17T07:10:21.220</time></trkpt><trkpt lat="55.9415778" lon="49.2957911"><time>2023-06-17T07:10:23.217</time></trkpt><trkpt lat="55.9415334" lon="49.2958285"><time>2023-06-17T07:10:29.237</time></trkpt><trkpt lat="55.9414772" lon="49.2958465"><time>2023-06-17T07:10:32.227</time></trkpt><trkpt lat="55.9414340" lon="49.2958767"><time>2023-06-17T07:10:35.213</time></trkpt><trkpt lat="55.9413793" lon="49.2958977"><time>2023-06-17T07:10:40.230</time></trkpt><trkpt lat="55.9413349" lon="49.2959431"><time>2023-06-17T07:10:45.220</time></trkpt><trkpt lat="55.9413003" lon="49.2959954"><time>2023-06-17T07:10:49.197</time></trkpt><trkpt lat="55.9412455" lon="49.2960328"><time>2023-06-17T07:10:53.240</time></trkpt><trkpt lat="55.9411964" lon="49.2960723"><time>2023-06-17T07:10:56.217</time></trkpt><trkpt lat="55.9411328" lon="49.2960904"><time>2023-06-17T07:11:00.220</time></trkpt><trkpt lat="55.9410769" lon="49.2961050"><time>2023-06-17T07:11:02.223</time></trkpt><trkpt lat="55.9410212" lon="49.2961029"><time>2023-06-17T07:11:04.217</time></trkpt><trkpt lat="55.9409768" lon="49.2961228"><time>2023-06-17T07:11:07.220</time></trkpt><trkpt lat="55.9409294" lon="49.2961513"><time>2023-06-17T07:11:09.217</time></trkpt><trkpt lat="55.9408707" lon="49.2961920"><time>2023-06-17T07:11:12.230</time></trkpt><trkpt lat="55.9408233" lon="49.2961858"><time>2023-06-17T07:11:15.220</time></trkpt><trkpt lat="55.9407740" lon="49.2961817"><time>2023-06-17T07:11:19.220</time></trkpt><trkpt lat="55.9407559" lon="49.2962809"><time>2023-06-17T07:11:23.227</time></trkpt><trkpt lat="55.9407406" lon="49.2963653"><time>2023-06-17T07:11:27.227</time></trkpt><trkpt lat="55.9406843" lon="49.2963957"><time>2023-06-17T07:11:30.223</time></trkpt><trkpt lat="55.9406283" lon="49.2964385"><time>2023-06-17T07:11:33.213</time></trkpt><trkpt lat="55.9405661" lon="49.2964943"><time>2023-06-17T07:11:36.227</time></trkpt><trkpt lat="55.9405057" lon="49.2965289"><time>2023-06-17T07:11:39.217</time></trkpt><trkpt lat="55.9404617" lon="49.2965561"><time>2023-06-17T07:11:41.220</time></trkpt><trkpt lat="55.9404132" lon="49.2965832"><time>2023-06-17T07:11:43.217</time></trkpt><trkpt lat="55.9403714" lon="49.2966171"><time>2023-06-17T07:11:45.223</time></trkpt><trkpt lat="55.9403037" lon="49.2966426"><time>2023-06-17T07:11:48.217</time></trkpt><trkpt lat="55.9402555" lon="49.2966760"><time>2023-06-17T07:11:50.220</time></trkpt><trkpt lat="55.9402100" lon="49.2967097"><time>2023-06-17T07:11:52.213</time></trkpt><trkpt lat="55.9401688" lon="49.2967526"><time>2023-06-17T07:11:54.243</time></trkpt><trkpt lat="55.9401188" lon="49.2968012"><time>2023-06-17T07:11:57.240</time></trkpt><trkpt lat="55.9400731" lon="49.2968368"><time>2023-06-17T07:12:00.233</time></trkpt><trkpt lat="55.9400259" lon="49.2968727"><time>2023-06-17T07:12:02.227</time></trkpt><trkpt lat="55.9399822" lon="49.2968997"><time>2023-06-17T07:12:04.220</time></trkpt><trkpt lat="55.9399322" lon="49.2969543"><time>2023-06-17T07:12:08.293</time></trkpt><trkpt lat="55.9398954" lon="49.2970221"><time>2023-06-17T07:12:12.260</time></trkpt><trkpt lat="55.9399316" lon="49.2969664"><time>2023-06-17T07:12:17.237</time></trkpt><trkpt lat="55.9398775" lon="49.2969871"><time>2023-06-17T07:12:23.217</time></trkpt><trkpt lat="55.9398258" lon="49.2970272"><time>2023-06-17T07:12:25.230</time></trkpt><trkpt lat="55.9397674" lon="49.2970607"><time>2023-06-17T07:12:27.233</time></trkpt><trkpt lat="55.9397051" lon="49.2970795"><time>2023-06-17T07:12:29.337</time></trkpt><trkpt lat="55.9396572" lon="49.2971206"><time>2023-06-17T07:12:31.340</time></trkpt><trkpt lat="55.9396107" lon="49.2971532"><time>2023-06-17T07:12:33.227</time></trkpt><trkpt lat="55.9395527" lon="49.2972009"><time>2023-06-17T07:12:36.233</time></trkpt><trkpt lat="55.9395128" lon="49.2972378"><time>2023-06-17T07:12:38.207</time></trkpt><trkpt lat="55.9394554" lon="49.2972725"><time>2023-06-17T07:12:41.210</time></trkpt><trkpt lat="55.9394031" lon="49.2972739"><time>2023-06-17T07:12:45.217</time></trkpt><trkpt lat="55.9393400" lon="49.2972889"><time>2023-06-17T07:12:48.223</time></trkpt><trkpt lat="55.9392975" lon="49.2973210"><time>2023-06-17T07:12:50.217</time></trkpt><trkpt lat="55.9392550" lon="49.2973566"><time>2023-06-17T07:12:52.220</time></trkpt><trkpt lat="55.9392110" lon="49.2974001"><time>2023-06-17T07:12:54.220</time></trkpt><trkpt lat="55.9391650" lon="49.2974343"><time>2023-06-17T07:12:56.223</time></trkpt><trkpt lat="55.9391046" lon="49.2974828"><time>2023-06-17T07:12:59.217</time></trkpt><trkpt lat="55.9390642" lon="49.2975332"><time>2023-06-17T07:13:01.227</time></trkpt><trkpt lat="55.9390061" lon="49.2975860"><time>2023-06-17T07:13:04.227</time></trkpt><trkpt lat="55.9389473" lon="49.2976364"><time>2023-06-17T07:13:07.227</time></trkpt><trkpt lat="55.9388932" lon="49.2976911"><time>2023-06-17T07:13:10.230</time></trkpt><trkpt lat="55.9388440" lon="49.2977671"><time>2023-06-17T07:13:13.223</time></trkpt><trkpt lat="55.9388050" lon="49.2978691"><time>2023-06-17T07:13:16.220</time></trkpt><trkpt lat="55.9387630" lon="49.2979259"><time>2023-06-17T07:13:18.230</time></trkpt><trkpt lat="55.9387169" lon="49.2979487"><time>2023-06-17T07:13:22.220</time></trkpt><trkpt lat="55.9386714" lon="49.2979944"><time>2023-06-17T07:13:25.213</time></trkpt><trkpt lat="55.9386444" lon="49.2980718"><time>2023-06-17T07:13:28.220</time></trkpt><trkpt lat="55.9386291" lon="49.2981535"><time>2023-06-17T07:13:32.227</time></trkpt><trkpt lat="55.9386076" lon="49.2982509"><time>2023-06-17T07:13:37.230</time></trkpt><trkpt lat="55.9385707" lon="49.2983187"><time>2023-06-17T07:13:40.223</time></trkpt><trkpt lat="55.9385413" lon="49.2983854"><time>2023-06-17T07:13:43.220</time></trkpt><trkpt lat="55.9385035" lon="49.2984490"><time>2023-06-17T07:13:46.227</time></trkpt><trkpt lat="55.9384586" lon="49.2984951"><time>2023-06-17T07:13:49.220</time></trkpt><trkpt lat="55.9384123" lon="49.2985585"><time>2023-06-17T07:13:52.227</time></trkpt><trkpt lat="55.9383773" lon="49.2986157"><time>2023-06-17T07:13:54.217</time></trkpt><trkpt lat="55.9383393" lon="49.2986873"><time>2023-06-17T07:13:56.213</time></trkpt><trkpt lat="55.9383056" lon="49.2987690"><time>2023-06-17T07:13:58.227</time></trkpt><trkpt lat="55.9382672" lon="49.2988525"><time>2023-06-17T07:14:01.220</time></trkpt><trkpt lat="55.9382415" lon="49.2989283"><time>2023-06-17T07:14:04.223</time></trkpt><trkpt lat="55.9382126" lon="49.2990177"><time>2023-06-17T07:14:08.227</time></trkpt><trkpt lat="55.9381779" lon="49.2990709"><time>2023-06-17T07:14:11.240</time></trkpt><trkpt lat="55.9381299" lon="49.2991084"><time>2023-06-17T07:14:14.230</time></trkpt><trkpt lat="55.9380900" lon="49.2991474"><time>2023-06-17T07:14:17.223</time></trkpt><trkpt lat="55.9380347" lon="49.2991812"><time>2023-06-17T07:14:21.217</time></trkpt><trkpt lat="55.9379945" lon="49.2992309"><time>2023-06-17T07:14:24.223</time></trkpt><trkpt lat="55.9379507" lon="49.2992980"><time>2023-06-17T07:14:28.227</time></trkpt><trkpt lat="55.9379139" lon="49.2993636"><time>2023-06-17T07:14:31.220</time></trkpt><trkpt lat="55.9378919" lon="49.2994412"><time>2023-06-17T07:14:34.220</time></trkpt><trkpt lat="55.9378939" lon="49.2995304"><time>2023-06-17T07:14:38.223</time></trkpt><trkpt lat="55.9379373" lon="49.2995784"><time>2023-06-17T07:14:42.227</time></trkpt><trkpt lat="55.9379725" lon="49.2996423"><time>2023-06-17T07:14:46.233</time></trkpt><trkpt lat="55.9379946" lon="49.2997396"><time>2023-06-17T07:14:50.297</time></trkpt><trkpt lat="55.9380091" lon="49.2998504"><time>2023-06-17T07:14:53.230</time></trkpt><trkpt lat="55.9380072" lon="49.2999538"><time>2023-06-17T07:14:55.217</time></trkpt><trkpt lat="55.9380158" lon="49.3000413"><time>2023-06-17T07:14:57.223</time></trkpt><trkpt lat="55.9380207" lon="49.3001261"><time>2023-06-17T07:14:59.233</time></trkpt><trkpt lat="55.9380333" lon="49.3002072"><time>2023-06-17T07:15:01.233</time></trkpt><trkpt lat="55.9380564" lon="49.3002882"><time>2023-06-17T07:15:03.240</time></trkpt><trkpt lat="55.9380717" lon="49.3003955"><time>2023-06-17T07:15:06.227</time></trkpt><trkpt lat="55.9380817" lon="49.3005048"><time>2023-06-17T07:15:09.263</time></trkpt><trkpt lat="55.9380879" lon="49.3005984"><time>2023-06-17T07:15:12.427</time></trkpt><trkpt lat="55.9380758" lon="49.3006839"><time>2023-06-17T07:15:14.223</time></trkpt><trkpt lat="55.9380626" lon="49.3007818"><time>2023-06-17T07:15:16.310</time></trkpt><trkpt lat="55.9380507" lon="49.3008940"><time>2023-06-17T07:15:19.233</time></trkpt><trkpt lat="55.9380282" lon="49.3009805"><time>2023-06-17T07:15:21.303</time></trkpt><trkpt lat="55.9380260" lon="49.3010975"><time>2023-06-17T07:15:24.223</time></trkpt><trkpt lat="55.9380259" lon="49.3011872"><time>2023-06-17T07:15:26.267</time></trkpt><trkpt lat="55.9380089" lon="49.3012948"><time>2023-06-17T07:15:29.307</time></trkpt><trkpt lat="55.9379820" lon="49.3013973"><time>2023-06-17T07:15:32.233</time></trkpt><trkpt lat="55.9380032" lon="49.3015080"><time>2023-06-17T07:15:35.220</time></trkpt><trkpt lat="55.9380340" lon="49.3016045"><time>2023-06-17T07:15:38.237</time></trkpt><trkpt lat="55.9380665" lon="49.3016975"><time>2023-06-17T07:15:41.223</time></trkpt><trkpt lat="55.9380890" lon="49.3017683"><time>2023-06-17T07:15:43.227</time></trkpt><trkpt lat="55.9381047" lon="49.3018471"><time>2023-06-17T07:15:45.237</time></trkpt><trkpt lat="55.9381263" lon="49.3019207"><time>2023-06-17T07:15:47.220</time></trkpt><trkpt lat="55.9381471" lon="49.3020020"><time>2023-06-17T07:15:49.227</time></trkpt><trkpt lat="55.9381710" lon="49.3021022"><time>2023-06-17T07:15:52.233</time></trkpt><trkpt lat="55.9381793" lon="49.3022097"><time>2023-06-17T07:15:55.223</time></trkpt><trkpt lat="55.9381551" lon="49.3023153"><time>2023-06-17T07:15:58.227</time></trkpt><trkpt lat="55.9381221" lon="49.3024103"><time>2023-06-17T07:16:01.220</time></trkpt><trkpt lat="55.9381063" lon="49.3025185"><time>2023-06-17T07:16:04.220</time></trkpt><trkpt lat="55.9381051" lon="49.3025989"><time>2023-06-17T07:16:06.230</time></trkpt><trkpt lat="55.9381102" lon="49.3026912"><time>2023-06-17T07:16:09.233</time></trkpt><trkpt lat="55.9381258" lon="49.3027783"><time>2023-06-17T07:16:13.237</time></trkpt><trkpt lat="55.9381113" lon="49.3028630"><time>2023-06-17T07:16:16.320</time></trkpt><trkpt lat="55.9380688" lon="49.3029119"><time>2023-06-17T07:16:19.273</time></trkpt><trkpt lat="55.9380232" lon="49.3029510"><time>2023-06-17T07:16:22.303</time></trkpt><trkpt lat="55.9379797" lon="49.3029713"><time>2023-06-17T07:16:27.310</time></trkpt><trkpt lat="55.9379251" lon="49.3030146"><time>2023-06-17T07:16:31.260</time></trkpt><trkpt lat="55.9378768" lon="49.3030651"><time>2023-06-17T07:16:34.233</time></trkpt><trkpt lat="55.9378295" lon="49.3031046"><time>2023-06-17T07:16:37.257</time></trkpt><trkpt lat="55.9377810" lon="49.3031400"><time>2023-06-17T07:16:40.317</time></trkpt><trkpt lat="55.9377309" lon="49.3031852"><time>2023-06-17T07:16:43.230</time></trkpt><trkpt lat="55.9376767" lon="49.3032068"><time>2023-06-17T07:16:46.267</time></trkpt><trkpt lat="55.9376302" lon="49.3032177"><time>2023-06-17T07:16:48.267</time></trkpt><trkpt lat="55.9375842" lon="49.3032416"><time>2023-06-17T07:16:50.280</time></trkpt><trkpt lat="55.9375424" lon="49.3032741"><time>2023-06-17T07:16:52.290</time></trkpt><trkpt lat="55.9374975" lon="49.3033085"><time>2023-06-17T07:16:54.223</time></trkpt><trkpt lat="55.9374542" lon="49.3033397"><time>2023-06-17T07:16:56.263</time></trkpt><trkpt lat="55.9374091" lon="49.3033487"><time>2023-06-17T07:16:58.263</time></trkpt><trkpt lat="55.9373637" lon="49.3033647"><time>2023-06-17T07:17:00.267</time></trkpt><trkpt lat="55.9373188" lon="49.3033718"><time>2023-06-17T07:17:02.213</time></trkpt><trkpt lat="55.9372736" lon="49.3033689"><time>2023-06-17T07:17:04.230</time></trkpt><trkpt lat="55.9372287" lon="49.3033785"><time>2023-06-17T07:17:06.223</time></trkpt><trkpt lat="55.9371822" lon="49.3034005"><time>2023-06-17T07:17:08.297</time></trkpt><trkpt lat="55.9371378" lon="49.3034259"><time>2023-06-17T07:17:10.300</time></trkpt><trkpt lat="55.9370916" lon="49.3034569"><time>2023-06-17T07:17:12.283</time></trkpt><trkpt lat="55.9370480" lon="49.3034867"><time>2023-06-17T07:17:14.223</time></trkpt><trkpt lat="55.9370011" lon="49.3035016"><time>2023-06-17T07:17:16.223</time></trkpt><trkpt lat="55.9369586" lon="49.3035417"><time>2023-06-17T07:17:18.260</time></trkpt><trkpt lat="55.9369167" lon="49.3035816"><time>2023-06-17T07:17:20.227</time></trkpt><trkpt lat="55.9368754" lon="49.3036233"><time>2023-06-17T07:17:22.237</time></trkpt><trkpt lat="55.9368165" lon="49.3036656"><time>2023-06-17T07:17:25.227</time></trkpt><trkpt lat="55.9367666" lon="49.3037130"><time>2023-06-17T07:17:28.217</time></trkpt><trkpt lat="55.9367153" lon="49.3037620"><time>2023-06-17T07:17:30.230</time></trkpt><trkpt lat="55.9366681" lon="49.3038091"><time>2023-06-17T07:17:32.217</time></trkpt><trkpt lat="55.9366211" lon="49.3038556"><time>2023-06-17T07:17:34.230</time></trkpt><trkpt lat="55.9365763" lon="49.3039027"><time>2023-06-17T07:17:36.233</time></trkpt><trkpt lat="55.9365339" lon="49.3039428"><time>2023-06-17T07:17:38.233</time></trkpt><trkpt lat="55.9364915" lon="49.3039719"><time>2023-06-17T07:17:40.217</time></trkpt><trkpt lat="55.9364417" lon="49.3040257"><time>2023-06-17T07:17:43.217</time></trkpt><trkpt lat="55.9364149" lon="49.3040909"><time>2023-06-17T07:17:46.223</time></trkpt><trkpt lat="55.9363778" lon="49.3041529"><time>2023-06-17T07:17:50.233</time></trkpt><trkpt lat="55.9363401" lon="49.3042005"><time>2023-06-17T07:17:53.213</time></trkpt><trkpt lat="55.9362967" lon="49.3042378"><time>2023-06-17T07:17:56.220</time></trkpt><trkpt lat="55.9362348" lon="49.3042797"><time>2023-06-17T07:17:59.220</time></trkpt><trkpt lat="55.9361926" lon="49.3043235"><time>2023-06-17T07:18:01.217</time></trkpt><trkpt lat="55.9361495" lon="49.3043659"><time>2023-06-17T07:18:03.237</time></trkpt><trkpt lat="55.9361043" lon="49.3044047"><time>2023-06-17T07:18:05.227</time></trkpt><trkpt lat="55.9360635" lon="49.3044464"><time>2023-06-17T07:18:07.220</time></trkpt><trkpt lat="55.9360389" lon="49.3045505"><time>2023-06-17T07:18:10.227</time></trkpt><trkpt lat="55.9360611" lon="49.3046353"><time>2023-06-17T07:18:12.227</time></trkpt><trkpt lat="55.9360890" lon="49.3047138"><time>2023-06-17T07:18:14.230</time></trkpt><trkpt lat="55.9361103" lon="49.3047887"><time>2023-06-17T07:18:16.217</time></trkpt><trkpt lat="55.9361272" lon="49.3048687"><time>2023-06-17T07:18:18.233</time></trkpt><trkpt lat="55.9361538" lon="49.3049704"><time>2023-06-17T07:18:21.227</time></trkpt><trkpt lat="55.9361750" lon="49.3050485"><time>2023-06-17T07:18:24.243</time></trkpt><trkpt lat="55.9361872" lon="49.3051290"><time>2023-06-17T07:18:27.233</time></trkpt><trkpt lat="55.9362120" lon="49.3052067"><time>2023-06-17T07:18:30.217</time></trkpt><trkpt lat="55.9362318" lon="49.3052810"><time>2023-06-17T07:18:33.230</time></trkpt><trkpt lat="55.9362534" lon="49.3053784"><time>2023-06-17T07:18:37.230</time></trkpt><trkpt lat="55.9362738" lon="49.3054585"><time>2023-06-17T07:18:40.227</time></trkpt><trkpt lat="55.9363085" lon="49.3055373"><time>2023-06-17T07:18:43.240</time></trkpt><trkpt lat="55.9363075" lon="49.3056328"><time>2023-06-17T07:18:46.227</time></trkpt><trkpt lat="55.9363157" lon="49.3057220"><time>2023-06-17T07:18:49.233</time></trkpt><trkpt lat="55.9363304" lon="49.3058050"><time>2023-06-17T07:18:52.230</time></trkpt><trkpt lat="55.9363468" lon="49.3058975"><time>2023-06-17T07:18:55.223</time></trkpt><trkpt lat="55.9363648" lon="49.3059865"><time>2023-06-17T07:18:58.227</time></trkpt><trkpt lat="55.9363867" lon="49.3060708"><time>2023-06-17T07:19:01.230</time></trkpt><trkpt lat="55.9364064" lon="49.3061533"><time>2023-06-17T07:19:04.227</time></trkpt><trkpt lat="55.9364298" lon="49.3062355"><time>2023-06-17T07:19:07.233</time></trkpt><trkpt lat="55.9364514" lon="49.3063217"><time>2023-06-17T07:19:10.237</time></trkpt><trkpt lat="55.9364773" lon="49.3064073"><time>2023-06-17T07:19:13.227</time></trkpt><trkpt lat="55.9364961" lon="49.3064878"><time>2023-06-17T07:19:16.223</time></trkpt><trkpt lat="55.9365150" lon="49.3065655"><time>2023-06-17T07:19:19.220</time></trkpt><trkpt lat="55.9365397" lon="49.3066651"><time>2023-06-17T07:19:23.227</time></trkpt><trkpt lat="55.9365531" lon="49.3067518"><time>2023-06-17T07:19:26.233</time></trkpt><trkpt lat="55.9365724" lon="49.3068368"><time>2023-06-17T07:19:29.220</time></trkpt><trkpt lat="55.9365894" lon="49.3069169"><time>2023-06-17T07:19:32.220</time></trkpt><trkpt lat="55.9366068" lon="49.3069972"><time>2023-06-17T07:19:35.230</time></trkpt><trkpt lat="55.9366294" lon="49.3070808"><time>2023-06-17T07:19:38.223</time></trkpt><trkpt lat="55.9366502" lon="49.3071623"><time>2023-06-17T07:19:41.223</time></trkpt><trkpt lat="55.9366692" lon="49.3072433"><time>2023-06-17T07:19:44.233</time></trkpt><trkpt lat="55.9366858" lon="49.3073278"><time>2023-06-17T07:19:47.220</time></trkpt><trkpt lat="55.9367073" lon="49.3074080"><time>2023-06-17T07:19:50.307</time></trkpt><trkpt lat="55.9367189" lon="49.3075000"><time>2023-06-17T07:19:53.223</time></trkpt><trkpt lat="55.9367367" lon="49.3075835"><time>2023-06-17T07:19:56.227</time></trkpt><trkpt lat="55.9367581" lon="49.3076668"><time>2023-06-17T07:19:59.217</time></trkpt><trkpt lat="55.9367839" lon="49.3077526"><time>2023-06-17T07:20:02.240</time></trkpt><trkpt lat="55.9367963" lon="49.3078390"><time>2023-06-17T07:20:05.230</time></trkpt><trkpt lat="55.9368113" lon="49.3079243"><time>2023-06-17T07:20:08.237</time></trkpt><trkpt lat="55.9368285" lon="49.3080112"><time>2023-06-17T07:20:11.217</time></trkpt><trkpt lat="55.9368485" lon="49.3080986"><time>2023-06-17T07:20:14.227</time></trkpt><trkpt lat="55.9368653" lon="49.3081859"><time>2023-06-17T07:20:17.220</time></trkpt><trkpt lat="55.9368891" lon="49.3082641"><time>2023-06-17T07:20:20.230</time></trkpt><trkpt lat="55.9369059" lon="49.3083523"><time>2023-06-17T07:20:23.213</time></trkpt><trkpt lat="55.9369288" lon="49.3084379"><time>2023-06-17T07:20:26.213</time></trkpt><trkpt lat="55.9369461" lon="49.3085271"><time>2023-06-17T07:20:29.210</time></trkpt><trkpt lat="55.9369680" lon="49.3086108"><time>2023-06-17T07:20:32.220</time></trkpt><trkpt lat="55.9369898" lon="49.3086877"><time>2023-06-17T07:20:35.207</time></trkpt><trkpt lat="55.9370126" lon="49.3087682"><time>2023-06-17T07:20:38.220</time></trkpt><trkpt lat="55.9370310" lon="49.3088453"><time>2023-06-17T07:20:41.210</time></trkpt><trkpt lat="55.9370478" lon="49.3089298"><time>2023-06-17T07:20:44.210</time></trkpt><trkpt lat="55.9370660" lon="49.3090111"><time>2023-06-17T07:20:47.217</time></trkpt><trkpt lat="55.9370992" lon="49.3090748"><time>2023-06-17T07:20:50.227</time></trkpt><trkpt lat="55.9370973" lon="49.3091820"><time>2023-06-17T07:20:53.213</time></trkpt><trkpt lat="55.9371013" lon="49.3092636"><time>2023-06-17T07:20:55.220</time></trkpt><trkpt lat="55.9371192" lon="49.3093471"><time>2023-06-17T07:20:57.227</time></trkpt><trkpt lat="55.9371413" lon="49.3094343"><time>2023-06-17T07:20:59.230</time></trkpt><trkpt lat="55.9371635" lon="49.3095232"><time>2023-06-17T07:21:01.223</time></trkpt><trkpt lat="55.9371830" lon="49.3096078"><time>2023-06-17T07:21:03.233</time></trkpt><trkpt lat="55.9372044" lon="49.3096901"><time>2023-06-17T07:21:05.227</time></trkpt><trkpt lat="55.9372175" lon="49.3097755"><time>2023-06-17T07:21:07.223</time></trkpt><trkpt lat="55.9372352" lon="49.3098631"><time>2023-06-17T07:21:09.227</time></trkpt><trkpt lat="55.9372501" lon="49.3099520"><time>2023-06-17T07:21:11.243</time></trkpt><trkpt lat="55.9372672" lon="49.3100352"><time>2023-06-17T07:21:13.227</time></trkpt><trkpt lat="55.9372845" lon="49.3101140"><time>2023-06-17T07:21:15.223</time></trkpt><trkpt lat="55.9373056" lon="49.3101911"><time>2023-06-17T07:21:17.223</time></trkpt><trkpt lat="55.9373252" lon="49.3102754"><time>2023-06-17T07:21:19.223</time></trkpt><trkpt lat="55.9373431" lon="49.3103609"><time>2023-06-17T07:21:21.223</time></trkpt><trkpt lat="55.9373643" lon="49.3104444"><time>2023-06-17T07:21:23.217</time></trkpt><trkpt lat="55.9373820" lon="49.3105301"><time>2023-06-17T07:21:25.237</time></trkpt><trkpt lat="55.9374005" lon="49.3106160"><time>2023-06-17T07:21:27.230</time></trkpt><trkpt lat="55.9374188" lon="49.3107028"><time>2023-06-17T07:21:29.230</time></trkpt><trkpt lat="55.9374389" lon="49.3107822"><time>2023-06-17T07:21:31.237</time></trkpt><trkpt lat="55.9374628" lon="49.3108598"><time>2023-06-17T07:21:33.230</time></trkpt><trkpt lat="55.9374877" lon="49.3109407"><time>2023-06-17T07:21:35.227</time></trkpt><trkpt lat="55.9375030" lon="49.3110241"><time>2023-06-17T07:21:37.230</time></trkpt><trkpt lat="55.9375187" lon="49.3111045"><time>2023-06-17T07:21:39.220</time></trkpt><trkpt lat="55.9375354" lon="49.3111847"><time>2023-06-17T07:21:41.217</time></trkpt><trkpt lat="55.9375555" lon="49.3112681"><time>2023-06-17T07:21:43.223</time></trkpt><trkpt lat="55.9375727" lon="49.3113482"><time>2023-06-17T07:21:45.223</time></trkpt><trkpt lat="55.9375932" lon="49.3114314"><time>2023-06-17T07:21:47.220</time></trkpt><trkpt lat="55.9376137" lon="49.3115132"><time>2023-06-17T07:21:49.217</time></trkpt><trkpt lat="55.9376355" lon="49.3115935"><time>2023-06-17T07:21:51.210</time></trkpt><trkpt lat="55.9376552" lon="49.3116781"><time>2023-06-17T07:21:53.227</time></trkpt><trkpt lat="55.9376739" lon="49.3117834"><time>2023-06-17T07:21:56.230</time></trkpt><trkpt lat="55.9376877" lon="49.3118642"><time>2023-06-17T07:21:59.230</time></trkpt><trkpt lat="55.9377098" lon="49.3119573"><time>2023-06-17T07:22:03.227</time></trkpt><trkpt lat="55.9377309" lon="49.3120291"><time>2023-06-17T07:22:06.327</time></trkpt><trkpt lat="55.9377541" lon="49.3121014"><time>2023-06-17T07:22:09.223</time></trkpt><trkpt lat="55.9377748" lon="49.3121790"><time>2023-06-17T07:22:12.223</time></trkpt><trkpt lat="55.9377926" lon="49.3122655"><time>2023-06-17T07:22:15.230</time></trkpt><trkpt lat="55.9378159" lon="49.3123406"><time>2023-06-17T07:22:18.247</time></trkpt><trkpt lat="55.9378541" lon="49.3123970"><time>2023-06-17T07:22:21.223</time></trkpt><trkpt lat="55.9378651" lon="49.3124797"><time>2023-06-17T07:22:24.220</time></trkpt><trkpt lat="55.9378847" lon="49.3125584"><time>2023-06-17T07:22:27.223</time></trkpt><trkpt lat="55.9379119" lon="49.3126517"><time>2023-06-17T07:22:31.233</time></trkpt><trkpt lat="55.9379607" lon="49.3126655"><time>2023-06-17T07:22:34.240</time></trkpt><trkpt lat="55.9380104" lon="49.3126568"><time>2023-06-17T07:22:37.227</time></trkpt><trkpt lat="55.9380695" lon="49.3126452"><time>2023-06-17T07:22:40.223</time></trkpt><trkpt lat="55.9381165" lon="49.3126327"><time>2023-06-17T07:22:43.237</time></trkpt><trkpt lat="55.9381588" lon="49.3125935"><time>2023-06-17T07:22:46.223</time></trkpt><trkpt lat="55.9382159" lon="49.3125722"><time>2023-06-17T07:22:50.220</time></trkpt><trkpt lat="55.9382638" lon="49.3125595"><time>2023-06-17T07:22:53.230</time></trkpt><trkpt lat="55.9383100" lon="49.3125197"><time>2023-06-17T07:22:56.220</time></trkpt><trkpt lat="55.9383590" lon="49.3125394"><time>2023-06-17T07:22:59.227</time></trkpt><trkpt lat="55.9384072" lon="49.3125577"><time>2023-06-17T07:23:02.213</time></trkpt><trkpt lat="55.9384479" lon="49.3126035"><time>2023-06-17T07:23:05.233</time></trkpt><trkpt lat="55.9384953" lon="49.3126490"><time>2023-06-17T07:23:09.223</time></trkpt><trkpt lat="55.9385506" lon="49.3126773"><time>2023-06-17T07:23:13.227</time></trkpt><trkpt lat="55.9385981" lon="49.3127029"><time>2023-06-17T07:23:16.233</time></trkpt><trkpt lat="55.9386392" lon="49.3127627"><time>2023-06-17T07:23:19.227</time></trkpt><trkpt lat="55.9386653" lon="49.3128349"><time>2023-06-17T07:23:21.217</time></trkpt><trkpt lat="55.9386733" lon="49.3129179"><time>2023-06-17T07:23:23.217</time></trkpt><trkpt lat="55.9386955" lon="49.3130063"><time>2023-06-17T07:23:26.230</time></trkpt><trkpt lat="55.9387103" lon="49.3131249"><time>2023-06-17T07:23:29.220</time></trkpt><trkpt lat="55.9387049" lon="49.3132339"><time>2023-06-17T07:23:32.227</time></trkpt><trkpt lat="55.9386815" lon="49.3133192"><time>2023-06-17T07:23:35.217</time></trkpt><trkpt lat="55.9386803" lon="49.3134035"><time>2023-06-17T07:23:40.207</time></trkpt><trkpt lat="55.9387311" lon="49.3134271"><time>2023-06-17T07:23:46.223</time></trkpt><trkpt lat="55.9387942" lon="49.3134301"><time>2023-06-17T07:23:50.220</time></trkpt><trkpt lat="55.9388546" lon="49.3134526"><time>2023-06-17T07:23:53.237</time></trkpt><trkpt lat="55.9389094" lon="49.3134809"><time>2023-06-17T07:23:55.237</time></trkpt><trkpt lat="55.9389570" lon="49.3135063"><time>2023-06-17T07:23:57.230</time></trkpt><trkpt lat="55.9390058" lon="49.3135518"><time>2023-06-17T07:24:00.223</time></trkpt><trkpt lat="55.9390595" lon="49.3136132"><time>2023-06-17T07:24:03.233</time></trkpt><trkpt lat="55.9390986" lon="49.3136700"><time>2023-06-17T07:24:05.230</time></trkpt><trkpt lat="55.9391358" lon="49.3137283"><time>2023-06-17T07:24:07.233</time></trkpt><trkpt lat="55.9391657" lon="49.3138189"><time>2023-06-17T07:24:10.217</time></trkpt><trkpt lat="55.9391960" lon="49.3138810"><time>2023-06-17T07:24:12.227</time></trkpt><trkpt lat="55.9392301" lon="49.3139772"><time>2023-06-17T07:24:15.220</time></trkpt><trkpt lat="55.9392545" lon="49.3140514"><time>2023-06-17T07:24:17.227</time></trkpt><trkpt lat="55.9392852" lon="49.3141581"><time>2023-06-17T07:24:20.217</time></trkpt><trkpt lat="55.9392751" lon="49.3142642"><time>2023-06-17T07:24:23.227</time></trkpt><trkpt lat="55.9392692" lon="49.3143926"><time>2023-06-17T07:24:26.227</time></trkpt><trkpt lat="55.9392905" lon="49.3144667"><time>2023-06-17T07:24:28.227</time></trkpt><trkpt lat="55.9393131" lon="49.3145438"><time>2023-06-17T07:24:30.237</time></trkpt><trkpt lat="55.9393238" lon="49.3146269"><time>2023-06-17T07:24:32.213</time></trkpt><trkpt lat="55.9393262" lon="49.3147363"><time>2023-06-17T07:24:35.220</time></trkpt><trkpt lat="55.9393441" lon="49.3148188"><time>2023-06-17T07:24:37.217</time></trkpt><trkpt lat="55.9393705" lon="49.3149070"><time>2023-06-17T07:24:40.220</time></trkpt><trkpt lat="55.9393926" lon="49.3149963"><time>2023-06-17T07:24:43.223</time></trkpt><trkpt lat="55.9393919" lon="49.3150891"><time>2023-06-17T07:24:46.220</time></trkpt><trkpt lat="55.9393676" lon="49.3151721"><time>2023-06-17T07:24:49.223</time></trkpt><trkpt lat="55.9393571" lon="49.3152708"><time>2023-06-17T07:24:53.227</time></trkpt><trkpt lat="55.9393576" lon="49.3153520"><time>2023-06-17T07:24:56.220</time></trkpt><trkpt lat="55.9393627" lon="49.3154445"><time>2023-06-17T07:25:00.223</time></trkpt><trkpt lat="55.9393820" lon="49.3155373"><time>2023-06-17T07:25:08.237</time></trkpt><trkpt lat="55.9394129" lon="49.3156093"><time>2023-06-17T07:25:11.213</time></trkpt><trkpt lat="55.9394626" lon="49.3156185"><time>2023-06-17T07:25:14.220</time></trkpt><trkpt lat="55.9395065" lon="49.3155949"><time>2023-06-17T07:25:17.213</time></trkpt><trkpt lat="55.9395492" lon="49.3155698"><time>2023-06-17T07:25:19.213</time></trkpt><trkpt lat="55.9395920" lon="49.3155415"><time>2023-06-17T07:25:21.220</time></trkpt><trkpt lat="55.9396413" lon="49.3155047"><time>2023-06-17T07:25:23.220</time></trkpt><trkpt lat="55.9396901" lon="49.3154777"><time>2023-06-17T07:25:25.217</time></trkpt><trkpt lat="55.9397337" lon="49.3154361"><time>2023-06-17T07:25:27.227</time></trkpt><trkpt lat="55.9397846" lon="49.3153883"><time>2023-06-17T07:25:30.210</time></trkpt><trkpt lat="55.9398405" lon="49.3153432"><time>2023-06-17T07:25:33.223</time></trkpt><trkpt lat="55.9398854" lon="49.3153140"><time>2023-06-17T07:25:35.210</time></trkpt><trkpt lat="55.9399273" lon="49.3152849"><time>2023-06-17T07:25:37.223</time></trkpt><trkpt lat="55.9399731" lon="49.3152488"><time>2023-06-17T07:25:39.217</time></trkpt><trkpt lat="55.9400203" lon="49.3152130"><time>2023-06-17T07:25:41.230</time></trkpt><trkpt lat="55.9400656" lon="49.3151756"><time>2023-06-17T07:25:43.227</time></trkpt><trkpt lat="55.9401088" lon="49.3151529"><time>2023-06-17T07:25:45.227</time></trkpt><trkpt lat="55.9401714" lon="49.3151337"><time>2023-06-17T07:25:48.210</time></trkpt><trkpt lat="55.9402334" lon="49.3150979"><time>2023-06-17T07:25:51.217</time></trkpt><trkpt lat="55.9402942" lon="49.3150546"><time>2023-06-17T07:25:54.210</time></trkpt><trkpt lat="55.9403533" lon="49.3150114"><time>2023-06-17T07:25:57.227</time></trkpt><trkpt lat="55.9403988" lon="49.3149796"><time>2023-06-17T07:25:59.220</time></trkpt><trkpt lat="55.9404461" lon="49.3149486"><time>2023-06-17T07:26:01.210</time></trkpt><trkpt lat="55.9404885" lon="49.3149107"><time>2023-06-17T07:26:03.227</time></trkpt><trkpt lat="55.9405301" lon="49.3148761"><time>2023-06-17T07:26:05.223</time></trkpt><trkpt lat="55.9405721" lon="49.3148445"><time>2023-06-17T07:26:07.220</time></trkpt><trkpt lat="55.9406319" lon="49.3147997"><time>2023-06-17T07:26:10.213</time></trkpt><trkpt lat="55.9406864" lon="49.3147638"><time>2023-06-17T07:26:13.233</time></trkpt><trkpt lat="55.9407433" lon="49.3147224"><time>2023-06-17T07:26:16.223</time></trkpt><trkpt lat="55.9407866" lon="49.3146963"><time>2023-06-17T07:26:18.223</time></trkpt><trkpt lat="55.9408450" lon="49.3146572"><time>2023-06-17T07:26:21.233</time></trkpt><trkpt lat="55.9409066" lon="49.3146083"><time>2023-06-17T07:26:24.227</time></trkpt><trkpt lat="55.9409490" lon="49.3145691"><time>2023-06-17T07:26:26.217</time></trkpt><trkpt lat="55.9409921" lon="49.3145337"><time>2023-06-17T07:26:28.227</time></trkpt><trkpt lat="55.9410366" lon="49.3145017"><time>2023-06-17T07:26:30.243</time></trkpt><trkpt lat="55.9411007" lon="49.3144477"><time>2023-06-17T07:26:33.230</time></trkpt><trkpt lat="55.9411478" lon="49.3144060"><time>2023-06-17T07:26:35.220</time></trkpt><trkpt lat="55.9412122" lon="49.3143658"><time>2023-06-17T07:26:38.220</time></trkpt><trkpt lat="55.9412757" lon="49.3143385"><time>2023-06-17T07:26:41.217</time></trkpt><trkpt lat="55.9413330" lon="49.3143191"><time>2023-06-17T07:26:44.213</time></trkpt><trkpt lat="55.9413896" lon="49.3142880"><time>2023-06-17T07:26:47.227</time></trkpt><trkpt lat="55.9414347" lon="49.3142400"><time>2023-06-17T07:26:50.223</time></trkpt><trkpt lat="55.9414828" lon="49.3142081"><time>2023-06-17T07:26:54.207</time></trkpt><trkpt lat="55.9415106" lon="49.3142816"><time>2023-06-17T07:26:58.217</time></trkpt><trkpt lat="55.9415166" lon="49.3143653"><time>2023-06-17T07:27:00.220</time></trkpt><trkpt lat="55.9415420" lon="49.3144414"><time>2023-06-17T07:27:02.220</time></trkpt><trkpt lat="55.9415619" lon="49.3145132"><time>2023-06-17T07:27:04.213</time></trkpt><trkpt lat="55.9415827" lon="49.3145848"><time>2023-06-17T07:27:06.217</time></trkpt><trkpt lat="55.9416102" lon="49.3146580"><time>2023-06-17T07:27:08.230</time></trkpt><trkpt lat="55.9416416" lon="49.3147154"><time>2023-06-17T07:27:10.217</time></trkpt><trkpt lat="55.9416751" lon="49.3147783"><time>2023-06-17T07:27:12.223</time></trkpt><trkpt lat="55.9417094" lon="49.3148329"><time>2023-06-17T07:27:14.217</time></trkpt><trkpt lat="55.9417453" lon="49.3149107"><time>2023-06-17T07:27:17.220</time></trkpt><trkpt lat="55.9417779" lon="49.3149913"><time>2023-06-17T07:27:20.220</time></trkpt><trkpt lat="55.9418003" lon="49.3150634"><time>2023-06-17T07:27:22.243</time></trkpt><trkpt lat="55.9418404" lon="49.3151454"><time>2023-06-17T07:27:24.217</time></trkpt><trkpt lat="55.9418737" lon="49.3152224"><time>2023-06-17T07:27:26.230</time></trkpt><trkpt lat="55.9418980" lon="49.3153028"><time>2023-06-17T07:27:28.223</time></trkpt><trkpt lat="55.9419198" lon="49.3153739"><time>2023-06-17T07:27:30.223</time></trkpt><trkpt lat="55.9419601" lon="49.3154551"><time>2023-06-17T07:27:33.230</time></trkpt><trkpt lat="55.9419683" lon="49.3155383"><time>2023-06-17T07:27:36.233</time></trkpt><trkpt lat="55.9419896" lon="49.3156173"><time>2023-06-17T07:27:40.220</time></trkpt><trkpt lat="55.9420325" lon="49.3156823"><time>2023-06-17T07:27:44.230</time></trkpt><trkpt lat="55.9420821" lon="49.3157338"><time>2023-06-17T07:27:48.227</time></trkpt><trkpt lat="55.9421210" lon="49.3157896"><time>2023-06-17T07:27:51.217</time></trkpt><trkpt lat="55.9421709" lon="49.3158077"><time>2023-06-17T07:27:54.213</time></trkpt><trkpt lat="55.9422208" lon="49.3158132"><time>2023-06-17T07:27:59.223</time></trkpt><trkpt lat="55.9422658" lon="49.3158306"><time>2023-06-17T07:28:04.217</time></trkpt><trkpt lat="55.9423183" lon="49.3158672"><time>2023-06-17T07:28:08.233</time></trkpt><trkpt lat="55.9423554" lon="49.3159181"><time>2023-06-17T07:28:11.203</time></trkpt><trkpt lat="55.9424067" lon="49.3159659"><time>2023-06-17T07:28:14.220</time></trkpt><trkpt lat="55.9424566" lon="49.3160112"><time>2023-06-17T07:28:17.223</time></trkpt><trkpt lat="55.9425126" lon="49.3160595"><time>2023-06-17T07:28:22.227</time></trkpt><trkpt lat="55.9425464" lon="49.3161328"><time>2023-06-17T07:28:27.210</time></trkpt><trkpt lat="55.9425485" lon="49.3161583"><time>2023-06-17T07:28:29.177</time></trkpt><trkpt lat="55.9425308" lon="49.3162182"><time>2023-06-17T07:28:32.207</time></trkpt><trkpt lat="55.9425077" lon="49.3162967"><time>2023-06-17T07:28:36.220</time></trkpt><trkpt lat="55.9424649" lon="49.3163700"><time>2023-06-17T07:28:39.227</time></trkpt><trkpt lat="55.9424313" lon="49.3164412"><time>2023-06-17T07:28:42.227</time></trkpt><trkpt lat="55.9423996" lon="49.3165153"><time>2023-06-17T07:28:45.217</time></trkpt><trkpt lat="55.9423763" lon="49.3165898"><time>2023-06-17T07:28:48.223</time></trkpt><trkpt lat="55.9423409" lon="49.3166572"><time>2023-06-17T07:28:53.223</time></trkpt><trkpt lat="55.9423096" lon="49.3167210"><time>2023-06-17T07:28:57.220</time></trkpt><trkpt lat="55.9422614" lon="49.3167843"><time>2023-06-17T07:29:02.237</time></trkpt><trkpt lat="55.9422187" lon="49.3168420"><time>2023-06-17T07:29:06.223</time></trkpt><trkpt lat="55.9421739" lon="49.3169048"><time>2023-06-17T07:29:10.223</time></trkpt><trkpt lat="55.9421325" lon="49.3169705"><time>2023-06-17T07:29:14.223</time></trkpt><trkpt lat="55.9420822" lon="49.3170075"><time>2023-06-17T07:29:18.227</time></trkpt><trkpt lat="55.9420402" lon="49.3170535"><time>2023-06-17T07:29:22.217</time></trkpt><trkpt lat="55.9420100" lon="49.3171205"><time>2023-06-17T07:29:26.217</time></trkpt><trkpt lat="55.9419738" lon="49.3171821"><time>2023-06-17T07:29:30.223</time></trkpt><trkpt lat="55.9419309" lon="49.3172223"><time>2023-06-17T07:29:34.227</time></trkpt><trkpt lat="55.9418885" lon="49.3172798"><time>2023-06-17T07:29:37.223</time></trkpt><trkpt lat="55.9418412" lon="49.3173680"><time>2023-06-17T07:29:40.227</time></trkpt><trkpt lat="55.9417999" lon="49.3174275"><time>2023-06-17T07:29:42.230</time></trkpt><trkpt lat="55.9417687" lon="49.3174911"><time>2023-06-17T07:29:44.220</time></trkpt><trkpt lat="55.9417335" lon="49.3175494"><time>2023-06-17T07:29:46.227</time></trkpt><trkpt lat="55.9416914" lon="49.3176058"><time>2023-06-17T07:29:48.217</time></trkpt><trkpt lat="55.9416492" lon="49.3176617"><time>2023-06-17T07:29:50.217</time></trkpt><trkpt lat="55.9416131" lon="49.3177164"><time>2023-06-17T07:29:52.223</time></trkpt><trkpt lat="55.9415854" lon="49.3177826"><time>2023-06-17T07:29:58.220</time></trkpt><trkpt lat="55.9415612" lon="49.3178620"><time>2023-06-17T07:30:03.223</time></trkpt><trkpt lat="55.9415147" lon="49.3179106"><time>2023-06-17T07:30:08.227</time></trkpt><trkpt lat="55.9414792" lon="49.3179721"><time>2023-06-17T07:30:12.233</time></trkpt><trkpt lat="55.9414290" lon="49.3179402"><time>2023-06-17T07:30:16.223</time></trkpt><trkpt lat="55.9413783" lon="49.3179892"><time>2023-06-17T07:30:21.227</time></trkpt><trkpt lat="55.9413458" lon="49.3180661"><time>2023-06-17T07:30:26.223</time></trkpt><trkpt lat="55.9412989" lon="49.3181156"><time>2023-06-17T07:30:31.227</time></trkpt><trkpt lat="55.9412716" lon="49.3181918"><time>2023-06-17T07:30:36.223</time></trkpt><trkpt lat="55.9412222" lon="49.3182101"><time>2023-06-17T07:30:42.220</time></trkpt><trkpt lat="55.9411829" lon="49.3182500"><time>2023-06-17T07:30:46.240</time></trkpt><trkpt lat="55.9411517" lon="49.3183342"><time>2023-06-17T07:30:50.223</time></trkpt><trkpt lat="55.9411236" lon="49.3184265"><time>2023-06-17T07:30:54.233</time></trkpt><trkpt lat="55.9411243" lon="49.3185104"><time>2023-06-17T07:30:59.217</time></trkpt><trkpt lat="55.9411046" lon="49.3185963"><time>2023-06-17T07:31:07.243</time></trkpt><trkpt lat="55.9410562" lon="49.3186352"><time>2023-06-17T07:31:12.373</time></trkpt><trkpt lat="55.9410117" lon="49.3186639"><time>2023-06-17T07:31:15.227</time></trkpt><trkpt lat="55.9409728" lon="49.3187401"><time>2023-06-17T07:31:19.227</time></trkpt><trkpt lat="55.9409964" lon="49.3188287"><time>2023-06-17T07:31:22.217</time></trkpt><trkpt lat="55.9410152" lon="49.3189203"><time>2023-06-17T07:31:25.260</time></trkpt><trkpt lat="55.9410319" lon="49.3190159"><time>2023-06-17T07:31:28.220</time></trkpt><trkpt lat="55.9410556" lon="49.3190856"><time>2023-06-17T07:31:30.227</time></trkpt><trkpt lat="55.9410827" lon="49.3191494"><time>2023-06-17T07:31:32.227</time></trkpt><trkpt lat="55.9411050" lon="49.3192567"><time>2023-06-17T07:31:35.223</time></trkpt><trkpt lat="55.9411476" lon="49.3193530"><time>2023-06-17T07:31:38.213</time></trkpt><trkpt lat="55.9411921" lon="49.3193938"><time>2023-06-17T07:31:42.223</time></trkpt><trkpt lat="55.9412332" lon="49.3194694"><time>2023-06-17T07:31:46.237</time></trkpt><trkpt lat="55.9412714" lon="49.3195276"><time>2023-06-17T07:31:49.223</time></trkpt><trkpt lat="55.9413081" lon="49.3195796"><time>2023-06-17T07:31:52.223</time></trkpt><trkpt lat="55.9413521" lon="49.3196471"><time>2023-06-17T07:31:56.230</time></trkpt><trkpt lat="55.9413938" lon="49.3196915"><time>2023-06-17T07:31:58.223</time></trkpt><trkpt lat="55.9414455" lon="49.3197530"><time>2023-06-17T07:32:01.227</time></trkpt><trkpt lat="55.9415125" lon="49.3197939"><time>2023-06-17T07:32:04.233</time></trkpt><trkpt lat="55.9415712" lon="49.3197986"><time>2023-06-17T07:32:06.233</time></trkpt><trkpt lat="55.9416275" lon="49.3198393"><time>2023-06-17T07:32:09.213</time></trkpt><trkpt lat="55.9416819" lon="49.3198790"><time>2023-06-17T07:32:12.223</time></trkpt><trkpt lat="55.9417355" lon="49.3199149"><time>2023-06-17T07:32:16.230</time></trkpt><trkpt lat="55.9417863" lon="49.3199330"><time>2023-06-17T07:32:19.230</time></trkpt><trkpt lat="55.9418320" lon="49.3199690"><time>2023-06-17T07:32:22.227</time></trkpt><trkpt lat="55.9418753" lon="49.3200480"><time>2023-06-17T07:32:25.227</time></trkpt><trkpt lat="55.9419087" lon="49.3201163"><time>2023-06-17T07:32:27.260</time></trkpt><trkpt lat="55.9419252" lon="49.3202140"><time>2023-06-17T07:32:30.230</time></trkpt><trkpt lat="55.9419373" lon="49.3203324"><time>2023-06-17T07:32:33.227</time></trkpt><trkpt lat="55.9419571" lon="49.3204134"><time>2023-06-17T07:32:35.293</time></trkpt><trkpt lat="55.9419858" lon="49.3204901"><time>2023-06-17T07:32:37.253</time></trkpt><trkpt lat="55.9420181" lon="49.3205686"><time>2023-06-17T07:32:39.253</time></trkpt><trkpt lat="55.9420500" lon="49.3206460"><time>2023-06-17T07:32:41.223</time></trkpt><trkpt lat="55.9420874" lon="49.3206974"><time>2023-06-17T07:32:43.220</time></trkpt><trkpt lat="55.9421193" lon="49.3207572"><time>2023-06-17T07:32:45.260</time></trkpt><trkpt lat="55.9421689" lon="49.3208397"><time>2023-06-17T07:32:48.297</time></trkpt><trkpt lat="55.9422131" lon="49.3209253"><time>2023-06-17T07:32:51.227</time></trkpt><trkpt lat="55.9422541" lon="49.3209595"><time>2023-06-17T07:32:55.203</time></trkpt><trkpt lat="55.9423063" lon="49.3209635"><time>2023-06-17T07:33:00.317</time></trkpt><trkpt lat="55.9423524" lon="49.3209813"><time>2023-06-17T07:33:05.217</time></trkpt><trkpt lat="55.9424029" lon="49.3209848"><time>2023-06-17T07:33:13.217</time></trkpt><trkpt lat="55.9424555" lon="49.3209981"><time>2023-06-17T07:33:17.223</time></trkpt><trkpt lat="55.9425085" lon="49.3210243"><time>2023-06-17T07:33:21.220</time></trkpt><trkpt lat="55.9425445" lon="49.3210806"><time>2023-06-17T07:33:24.230</time></trkpt><trkpt lat="55.9426023" lon="49.3211382"><time>2023-06-17T07:33:27.223</time></trkpt><trkpt lat="55.9426526" lon="49.3211740"><time>2023-06-17T07:33:29.287</time></trkpt><trkpt lat="55.9427064" lon="49.3212207"><time>2023-06-17T07:33:31.230</time></trkpt><trkpt lat="55.9427462" lon="49.3212821"><time>2023-06-17T07:33:33.233</time></trkpt><trkpt lat="55.9427832" lon="49.3213410"><time>2023-06-17T07:33:35.260</time></trkpt><trkpt lat="55.9428289" lon="49.3214301"><time>2023-06-17T07:33:38.277</time></trkpt><trkpt lat="55.9428640" lon="49.3214903"><time>2023-06-17T07:33:40.300</time></trkpt><trkpt lat="55.9429032" lon="49.3215420"><time>2023-06-17T07:33:42.233</time></trkpt><trkpt lat="55.9429562" lon="49.3216118"><time>2023-06-17T07:33:45.277</time></trkpt><trkpt lat="55.9430038" lon="49.3216853"><time>2023-06-17T07:33:48.297</time></trkpt><trkpt lat="55.9430553" lon="49.3217472"><time>2023-06-17T07:33:51.220</time></trkpt><trkpt lat="55.9430902" lon="49.3217982"><time>2023-06-17T07:33:53.217</time></trkpt><trkpt lat="55.9431237" lon="49.3218534"><time>2023-06-17T07:33:55.207</time></trkpt><trkpt lat="55.9431502" lon="49.3219575"><time>2023-06-17T07:33:58.227</time></trkpt><trkpt lat="55.9431699" lon="49.3220509"><time>2023-06-17T07:34:01.220</time></trkpt><trkpt lat="55.9432014" lon="49.3221344"><time>2023-06-17T07:34:04.223</time></trkpt><trkpt lat="55.9432446" lon="49.3222102"><time>2023-06-17T07:34:07.220</time></trkpt><trkpt lat="55.9432919" lon="49.3222811"><time>2023-06-17T07:34:10.217</time></trkpt><trkpt lat="55.9433188" lon="49.3223522"><time>2023-06-17T07:34:13.220</time></trkpt><trkpt lat="55.9433194" lon="49.3224388"><time>2023-06-17T07:34:17.227</time></trkpt><trkpt lat="55.9433033" lon="49.3225235"><time>2023-06-17T07:34:20.207</time></trkpt><trkpt lat="55.9433147" lon="49.3226187"><time>2023-06-17T07:34:30.217</time></trkpt><trkpt lat="55.9432858" lon="49.3227129"><time>2023-06-17T07:34:32.227</time></trkpt><trkpt lat="55.9432642" lon="49.3227932"><time>2023-06-17T07:34:34.213</time></trkpt><trkpt lat="55.9432390" lon="49.3228803"><time>2023-06-17T07:34:37.227</time></trkpt><trkpt lat="55.9432171" lon="49.3229718"><time>2023-06-17T07:34:40.230</time></trkpt><trkpt lat="55.9431832" lon="49.3230730"><time>2023-06-17T07:34:43.223</time></trkpt><trkpt lat="55.9431584" lon="49.3231452"><time>2023-06-17T07:34:45.213</time></trkpt><trkpt lat="55.9431272" lon="49.3232278"><time>2023-06-17T07:34:48.220</time></trkpt><trkpt lat="55.9431123" lon="49.3233393"><time>2023-06-17T07:34:51.223</time></trkpt><trkpt lat="55.9431028" lon="49.3234314"><time>2023-06-17T07:34:53.230</time></trkpt><trkpt lat="55.9431028" lon="49.3235238"><time>2023-06-17T07:34:55.233</time></trkpt><trkpt lat="55.9430936" lon="49.3236438"><time>2023-06-17T07:34:58.223</time></trkpt><trkpt lat="55.9430959" lon="49.3237616"><time>2023-06-17T07:35:01.223</time></trkpt><trkpt lat="55.9430917" lon="49.3238734"><time>2023-06-17T07:35:04.223</time></trkpt><trkpt lat="55.9430937" lon="49.3239771"><time>2023-06-17T07:35:06.227</time></trkpt><trkpt lat="55.9430854" lon="49.3240684"><time>2023-06-17T07:35:08.230</time></trkpt><trkpt lat="55.9430637" lon="49.3241774"><time>2023-06-17T07:35:10.223</time></trkpt><trkpt lat="55.9430506" lon="49.3242827"><time>2023-06-17T07:35:12.217</time></trkpt><trkpt lat="55.9430350" lon="49.3243627"><time>2023-06-17T07:35:14.223</time></trkpt><trkpt lat="55.9430124" lon="49.3244367"><time>2023-06-17T07:35:16.217</time></trkpt><trkpt lat="55.9429921" lon="49.3245215"><time>2023-06-17T07:35:18.217</time></trkpt><trkpt lat="55.9429694" lon="49.3246271"><time>2023-06-17T07:35:21.217</time></trkpt><trkpt lat="55.9429652" lon="49.3247137"><time>2023-06-17T07:35:23.230</time></trkpt><trkpt lat="55.9429658" lon="49.3248183"><time>2023-06-17T07:35:26.217</time></trkpt><trkpt lat="55.9429864" lon="49.3248975"><time>2023-06-17T07:35:28.227</time></trkpt><trkpt lat="55.9430024" lon="49.3249753"><time>2023-06-17T07:35:30.217</time></trkpt><trkpt lat="55.9430325" lon="49.3250473"><time>2023-06-17T07:35:32.230</time></trkpt><trkpt lat="55.9430650" lon="49.3251226"><time>2023-06-17T07:35:34.217</time></trkpt><trkpt lat="55.9430887" lon="49.3252202"><time>2023-06-17T07:35:37.217</time></trkpt><trkpt lat="55.9430864" lon="49.3253113"><time>2023-06-17T07:35:39.217</time></trkpt><trkpt lat="55.9430905" lon="49.3254324"><time>2023-06-17T07:35:42.220</time></trkpt><trkpt lat="55.9430786" lon="49.3255246"><time>2023-06-17T07:35:44.233</time></trkpt><trkpt lat="55.9430588" lon="49.3256144"><time>2023-06-17T07:35:46.227</time></trkpt><trkpt lat="55.9430312" lon="49.3256843"><time>2023-06-17T07:35:48.223</time></trkpt><trkpt lat="55.9430128" lon="49.3257797"><time>2023-06-17T07:35:50.233</time></trkpt><trkpt lat="55.9430017" lon="49.3258728"><time>2023-06-17T07:35:52.217</time></trkpt><trkpt lat="55.9429731" lon="49.3259813"><time>2023-06-17T07:35:55.230</time></trkpt><trkpt lat="55.9429424" lon="49.3260637"><time>2023-06-17T07:35:57.223</time></trkpt><trkpt lat="55.9429092" lon="49.3261735"><time>2023-06-17T07:36:00.220</time></trkpt><trkpt lat="55.9428754" lon="49.3262422"><time>2023-06-17T07:36:02.220</time></trkpt><trkpt lat="55.9428493" lon="49.3263106"><time>2023-06-17T07:36:04.217</time></trkpt><trkpt lat="55.9428234" lon="49.3264011"><time>2023-06-17T07:36:07.237</time></trkpt><trkpt lat="55.9428045" lon="49.3265091"><time>2023-06-17T07:36:11.230</time></trkpt><trkpt lat="55.9427906" lon="49.3266067"><time>2023-06-17T07:36:14.217</time></trkpt><trkpt lat="55.9427855" lon="49.3267216"><time>2023-06-17T07:36:18.227</time></trkpt><trkpt lat="55.9427598" lon="49.3267936"><time>2023-06-17T07:36:21.227</time></trkpt><trkpt lat="55.9427384" lon="49.3268904"><time>2023-06-17T07:36:25.237</time></trkpt><trkpt lat="55.9427195" lon="49.3269669"><time>2023-06-17T07:36:28.237</time></trkpt><trkpt lat="55.9426849" lon="49.3270518"><time>2023-06-17T07:36:31.217</time></trkpt><trkpt lat="55.9426407" lon="49.3271083"><time>2023-06-17T07:36:34.217</time></trkpt><trkpt lat="55.9426018" lon="49.3271595"><time>2023-06-17T07:36:38.220</time></trkpt><trkpt lat="55.9425743" lon="49.3272433"><time>2023-06-17T07:36:42.217</time></trkpt><trkpt lat="55.9425598" lon="49.3271645"><time>2023-06-17T07:36:50.227</time></trkpt><trkpt lat="55.9425473" lon="49.3270744"><time>2023-06-17T07:36:55.227</time></trkpt><trkpt lat="55.9425421" lon="49.3269875"><time>2023-06-17T07:37:00.237</time></trkpt><trkpt lat="55.9425479" lon="49.3269072"><time>2023-06-17T07:37:04.227</time></trkpt><trkpt lat="55.9425599" lon="49.3269910"><time>2023-06-17T07:37:08.230</time></trkpt><trkpt lat="55.9425828" lon="49.3270916"><time>2023-06-17T07:37:11.233</time></trkpt><trkpt lat="55.9425922" lon="49.3271770"><time>2023-06-17T07:37:13.227</time></trkpt><trkpt lat="55.9425806" lon="49.3272565"><time>2023-06-17T07:37:15.230</time></trkpt><trkpt lat="55.9425486" lon="49.3273149"><time>2023-06-17T07:37:17.247</time></trkpt><trkpt lat="55.9425082" lon="49.3273638"><time>2023-06-17T07:37:19.233</time></trkpt><trkpt lat="55.9424749" lon="49.3274221"><time>2023-06-17T07:37:21.227</time></trkpt><trkpt lat="55.9424453" lon="49.3274957"><time>2023-06-17T07:37:23.220</time></trkpt><trkpt lat="55.9424209" lon="49.3275649"><time>2023-06-17T07:37:25.230</time></trkpt><trkpt lat="55.9423952" lon="49.3276641"><time>2023-06-17T07:37:28.227</time></trkpt><trkpt lat="55.9423689" lon="49.3277644"><time>2023-06-17T07:37:31.233</time></trkpt><trkpt lat="55.9423615" lon="49.3278588"><time>2023-06-17T07:37:34.217</time></trkpt><trkpt lat="55.9423456" lon="49.3279703"><time>2023-06-17T07:37:37.237</time></trkpt><trkpt lat="55.9423352" lon="49.3280632"><time>2023-06-17T07:37:40.230</time></trkpt><trkpt lat="55.9423204" lon="49.3281630"><time>2023-06-17T07:37:47.217</time></trkpt><trkpt lat="55.9423028" lon="49.3282379"><time>2023-06-17T07:37:49.223</time></trkpt><trkpt lat="55.9422921" lon="49.3283217"><time>2023-06-17T07:37:51.223</time></trkpt><trkpt lat="55.9422927" lon="49.3284111"><time>2023-06-17T07:37:54.350</time></trkpt><trkpt lat="55.9422867" lon="49.3284919"><time>2023-06-17T07:38:00.220</time></trkpt><trkpt lat="55.9422487" lon="49.3285390"><time>2023-06-17T07:38:05.223</time></trkpt><trkpt lat="55.9422792" lon="49.3284744"><time>2023-06-17T07:38:11.227</time></trkpt><trkpt lat="55.9423107" lon="49.3283880"><time>2023-06-17T07:38:14.223</time></trkpt><trkpt lat="55.9423372" lon="49.3283043"><time>2023-06-17T07:38:16.223</time></trkpt><trkpt lat="55.9423546" lon="49.3282190"><time>2023-06-17T07:38:18.220</time></trkpt><trkpt lat="55.9423732" lon="49.3281271"><time>2023-06-17T07:38:20.227</time></trkpt><trkpt lat="55.9424022" lon="49.3280608"><time>2023-06-17T07:38:22.223</time></trkpt><trkpt lat="55.9424157" lon="49.3279786"><time>2023-06-17T07:38:24.220</time></trkpt><trkpt lat="55.9424383" lon="49.3278946"><time>2023-06-17T07:38:27.227</time></trkpt><trkpt lat="55.9424555" lon="49.3277887"><time>2023-06-17T07:38:30.230</time></trkpt><trkpt lat="55.9424810" lon="49.3277006"><time>2023-06-17T07:38:33.217</time></trkpt><trkpt lat="55.9425042" lon="49.3276188"><time>2023-06-17T07:38:36.223</time></trkpt><trkpt lat="55.9425356" lon="49.3275393"><time>2023-06-17T07:38:39.223</time></trkpt><trkpt lat="55.9425707" lon="49.3274636"><time>2023-06-17T07:38:42.233</time></trkpt><trkpt lat="55.9426061" lon="49.3273819"><time>2023-06-17T07:38:45.227</time></trkpt><trkpt lat="55.9426300" lon="49.3273056"><time>2023-06-17T07:38:48.220</time></trkpt><trkpt lat="55.9426541" lon="49.3272302"><time>2023-06-17T07:38:52.227</time></trkpt><trkpt lat="55.9426555" lon="49.3271384"><time>2023-06-17T07:38:57.223</time></trkpt><trkpt lat="55.9426901" lon="49.3270631"><time>2023-06-17T07:39:02.227</time></trkpt><trkpt lat="55.9427158" lon="49.3269750"><time>2023-06-17T07:39:06.223</time></trkpt><trkpt lat="55.9427413" lon="49.3268903"><time>2023-06-17T07:39:10.230</time></trkpt><trkpt lat="55.9427630" lon="49.3268181"><time>2023-06-17T07:39:14.217</time></trkpt><trkpt lat="55.9427132" lon="49.3267800"><time>2023-06-17T07:39:20.223</time></trkpt><trkpt lat="55.9427424" lon="49.3267124"><time>2023-06-17T07:39:42.227</time></trkpt><trkpt lat="55.9427687" lon="49.3266268"><time>2023-06-17T07:39:47.227</time></trkpt><trkpt lat="55.9427849" lon="49.3265490"><time>2023-06-17T07:39:50.227</time></trkpt><trkpt lat="55.9427400" lon="49.3265137"><time>2023-06-17T07:39:59.227</time></trkpt><trkpt lat="55.9427213" lon="49.3264324"><time>2023-06-17T07:40:05.223</time></trkpt><trkpt lat="55.9427669" lon="49.3264033"><time>2023-06-17T07:40:12.223</time></trkpt><trkpt lat="55.9428110" lon="49.3264209"><time>2023-06-17T07:40:17.223</time></trkpt><trkpt lat="55.9428561" lon="49.3264022"><time>2023-06-17T07:40:22.230</time></trkpt><trkpt lat="55.9428812" lon="49.3263032"><time>2023-06-17T07:40:26.223</time></trkpt><trkpt lat="55.9429140" lon="49.3262366"><time>2023-06-17T07:40:29.217</time></trkpt><trkpt lat="55.9429404" lon="49.3261586"><time>2023-06-17T07:40:33.220</time></trkpt><trkpt lat="55.9429712" lon="49.3260734"><time>2023-06-17T07:40:37.213</time></trkpt><trkpt lat="55.9430064" lon="49.3260164"><time>2023-06-17T07:40:40.220</time></trkpt><trkpt lat="55.9430358" lon="49.3259310"><time>2023-06-17T07:40:44.213</time></trkpt><trkpt lat="55.9430448" lon="49.3258378"><time>2023-06-17T07:40:48.207</time></trkpt><trkpt lat="55.9430412" lon="49.3257469"><time>2023-06-17T07:40:55.210</time></trkpt><trkpt lat="55.9430269" lon="49.3258432"><time>2023-06-17T07:41:06.220</time></trkpt><trkpt lat="55.9430112" lon="49.3259214"><time>2023-06-17T07:41:11.223</time></trkpt><trkpt lat="55.9430015" lon="49.3260107"><time>2023-06-17T07:41:15.223</time></trkpt><trkpt lat="55.9429877" lon="49.3261007"><time>2023-06-17T07:41:19.217</time></trkpt><trkpt lat="55.9429503" lon="49.3261851"><time>2023-06-17T07:41:22.230</time></trkpt><trkpt lat="55.9429153" lon="49.3262711"><time>2023-06-17T07:41:24.213</time></trkpt><trkpt lat="55.9428847" lon="49.3263435"><time>2023-06-17T07:41:26.217</time></trkpt><trkpt lat="55.9428524" lon="49.3264224"><time>2023-06-17T07:41:28.227</time></trkpt><trkpt lat="55.9428164" lon="49.3264979"><time>2023-06-17T07:41:30.217</time></trkpt><trkpt lat="55.9427952" lon="49.3265815"><time>2023-06-17T07:41:32.223</time></trkpt><trkpt lat="55.9427870" lon="49.3266656"><time>2023-06-17T07:41:34.223</time></trkpt><trkpt lat="55.9427794" lon="49.3267446"><time>2023-06-17T07:41:38.220</time></trkpt><trkpt lat="55.9427667" lon="49.3268228"><time>2023-06-17T07:41:42.220</time></trkpt><trkpt lat="55.9427497" lon="49.3268999"><time>2023-06-17T07:41:46.220</time></trkpt><trkpt lat="55.9427272" lon="49.3269866"><time>2023-06-17T07:41:51.217</time></trkpt><trkpt lat="55.9427047" lon="49.3270823"><time>2023-06-17T07:41:55.230</time></trkpt><trkpt lat="55.9426745" lon="49.3271599"><time>2023-06-17T07:41:58.220</time></trkpt><trkpt lat="55.9426405" lon="49.3272124"><time>2023-06-17T07:42:02.210</time></trkpt><trkpt lat="55.9425984" lon="49.3271830"><time>2023-06-17T07:42:14.220</time></trkpt><trkpt lat="55.9425648" lon="49.3271295"><time>2023-06-17T07:42:21.233</time></trkpt><trkpt lat="55.9425411" lon="49.3270616"><time>2023-06-17T07:42:28.220</time></trkpt><trkpt lat="55.9425426" lon="49.3269681"><time>2023-06-17T07:42:34.220</time></trkpt><trkpt lat="55.9425226" lon="49.3268940"><time>2023-06-17T07:42:39.220</time></trkpt><trkpt lat="55.9425343" lon="49.3269744"><time>2023-06-17T07:42:47.220</time></trkpt><trkpt lat="55.9425220" lon="49.3270741"><time>2023-06-17T07:42:50.227</time></trkpt><trkpt lat="55.9424955" lon="49.3271426"><time>2023-06-17T07:42:52.213</time></trkpt><trkpt lat="55.9424811" lon="49.3272487"><time>2023-06-17T07:42:54.233</time></trkpt><trkpt lat="55.9425052" lon="49.3273168"><time>2023-06-17T07:42:56.220</time></trkpt><trkpt lat="55.9425067" lon="49.3274061"><time>2023-06-17T07:42:59.223</time></trkpt><trkpt lat="55.9424602" lon="49.3274977"><time>2023-06-17T07:43:02.217</time></trkpt><trkpt lat="55.9424274" lon="49.3275724"><time>2023-06-17T07:43:04.223</time></trkpt><trkpt lat="55.9423984" lon="49.3276482"><time>2023-06-17T07:43:06.223</time></trkpt><trkpt lat="55.9423711" lon="49.3277597"><time>2023-06-17T07:43:09.220</time></trkpt><trkpt lat="55.9423531" lon="49.3278398"><time>2023-06-17T07:43:11.220</time></trkpt><trkpt lat="55.9423349" lon="49.3279248"><time>2023-06-17T07:43:13.220</time></trkpt><trkpt lat="55.9423350" lon="49.3280134"><time>2023-06-17T07:43:15.217</time></trkpt><trkpt lat="55.9423339" lon="49.3281080"><time>2023-06-17T07:43:17.223</time></trkpt><trkpt lat="55.9423176" lon="49.3282213"><time>2023-06-17T07:43:20.207</time></trkpt><trkpt lat="55.9423117" lon="49.3283341"><time>2023-06-17T07:43:23.210</time></trkpt><trkpt lat="55.9423052" lon="49.3284139"><time>2023-06-17T07:43:25.217</time></trkpt><trkpt lat="55.9422709" lon="49.3285014"><time>2023-06-17T07:43:28.217</time></trkpt><trkpt lat="55.9422367" lon="49.3285563"><time>2023-06-17T07:43:30.217</time></trkpt><trkpt lat="55.9422104" lon="49.3286417"><time>2023-06-17T07:43:34.217</time></trkpt><trkpt lat="55.9421726" lon="49.3286989"><time>2023-06-17T07:43:38.233</time></trkpt><trkpt lat="55.9421586" lon="49.3286217"><time>2023-06-17T07:43:46.207</time></trkpt><trkpt lat="55.9422131" lon="49.3285986"><time>2023-06-17T07:43:49.203</time></trkpt><trkpt lat="55.9422425" lon="49.3285237"><time>2023-06-17T07:43:54.217</time></trkpt><trkpt lat="55.9422842" lon="49.3284709"><time>2023-06-17T07:43:59.237</time></trkpt><trkpt lat="55.9423129" lon="49.3284001"><time>2023-06-17T07:44:04.207</time></trkpt><trkpt lat="55.9423377" lon="49.3283196"><time>2023-06-17T07:44:09.213</time></trkpt><trkpt lat="55.9423499" lon="49.3282385"><time>2023-06-17T07:44:13.213</time></trkpt><trkpt lat="55.9423649" lon="49.3281620"><time>2023-06-17T07:44:17.220</time></trkpt><trkpt lat="55.9423856" lon="49.3280790"><time>2023-06-17T07:44:22.213</time></trkpt><trkpt lat="55.9423942" lon="49.3279985"><time>2023-06-17T07:44:26.213</time></trkpt><trkpt lat="55.9423851" lon="49.3279085"><time>2023-06-17T07:44:30.227</time></trkpt><trkpt lat="55.9424245" lon="49.3278534"><time>2023-06-17T07:44:35.217</time></trkpt><trkpt lat="55.9424607" lon="49.3277928"><time>2023-06-17T07:44:39.223</time></trkpt><trkpt lat="55.9424474" lon="49.3277021"><time>2023-06-17T07:44:42.217</time></trkpt><trkpt lat="55.9424507" lon="49.3276140"><time>2023-06-17T07:44:46.213</time></trkpt><trkpt lat="55.9424649" lon="49.3275315"><time>2023-06-17T07:44:50.213</time></trkpt><trkpt lat="55.9424986" lon="49.3274583"><time>2023-06-17T07:44:53.217</time></trkpt><trkpt lat="55.9425081" lon="49.3273630"><time>2023-06-17T07:44:55.210</time></trkpt><trkpt lat="55.9425247" lon="49.3272791"><time>2023-06-17T07:44:58.337</time></trkpt><trkpt lat="55.9425642" lon="49.3272327"><time>2023-06-17T07:45:01.213</time></trkpt><trkpt lat="55.9425869" lon="49.3271556"><time>2023-06-17T07:45:04.217</time></trkpt><trkpt lat="55.9425796" lon="49.3270511"><time>2023-06-17T07:45:06.210</time></trkpt><trkpt lat="55.9426006" lon="49.3269686"><time>2023-06-17T07:45:09.217</time></trkpt><trkpt lat="55.9426311" lon="49.3268724"><time>2023-06-17T07:45:13.217</time></trkpt><trkpt lat="55.9426622" lon="49.3268128"><time>2023-06-17T07:45:16.217</time></trkpt><trkpt lat="55.9427010" lon="49.3267520"><time>2023-06-17T07:45:20.217</time></trkpt><trkpt lat="55.9427307" lon="49.3268425"><time>2023-06-17T07:45:22.217</time></trkpt><trkpt lat="55.9426970" lon="49.3267676"><time>2023-06-17T07:45:34.213</time></trkpt><trkpt lat="55.9426386" lon="49.3267779"><time>2023-06-17T07:45:36.207</time></trkpt><trkpt lat="55.9426199" lon="49.3267543"><time>2023-06-17T07:45:43.927</time></trkpt><trkpt lat="55.9426920" lon="49.3267649"><time>2023-06-17T07:45:53.223</time></trkpt><trkpt lat="55.9427466" lon="49.3267813"><time>2023-06-17T07:45:57.220</time></trkpt><trkpt lat="55.9427864" lon="49.3267297"><time>2023-06-17T07:46:01.220</time></trkpt><trkpt lat="55.9428002" lon="49.3266493"><time>2023-06-17T07:46:05.217</time></trkpt><trkpt lat="55.9428179" lon="49.3265580"><time>2023-06-17T07:46:08.213</time></trkpt><trkpt lat="55.9428366" lon="49.3264578"><time>2023-06-17T07:46:12.217</time></trkpt><trkpt lat="55.9428654" lon="49.3263725"><time>2023-06-17T07:46:15.223</time></trkpt><trkpt lat="55.9428893" lon="49.3262873"><time>2023-06-17T07:46:17.220</time></trkpt><trkpt lat="55.9429293" lon="49.3262354"><time>2023-06-17T07:46:19.217</time></trkpt><trkpt lat="55.9429637" lon="49.3261331"><time>2023-06-17T07:46:22.220</time></trkpt><trkpt lat="55.9429870" lon="49.3260644"><time>2023-06-17T07:46:24.217</time></trkpt><trkpt lat="55.9430198" lon="49.3260041"><time>2023-06-17T07:46:26.213</time></trkpt><trkpt lat="55.9430528" lon="49.3259328"><time>2023-06-17T07:46:28.223</time></trkpt><trkpt lat="55.9430660" lon="49.3258083"><time>2023-06-17T07:46:31.230</time></trkpt><trkpt lat="55.9431062" lon="49.3257205"><time>2023-06-17T07:46:34.213</time></trkpt><trkpt lat="55.9431267" lon="49.3256145"><time>2023-06-17T07:46:37.227</time></trkpt><trkpt lat="55.9431296" lon="49.3254992"><time>2023-06-17T07:46:40.220</time></trkpt><trkpt lat="55.9431334" lon="49.3254138"><time>2023-06-17T07:46:42.217</time></trkpt><trkpt lat="55.9431123" lon="49.3253348"><time>2023-06-17T07:46:44.207</time></trkpt><trkpt lat="55.9430970" lon="49.3252419"><time>2023-06-17T07:46:46.213</time></trkpt><trkpt lat="55.9430702" lon="49.3251502"><time>2023-06-17T07:46:48.227</time></trkpt><trkpt lat="55.9430474" lon="49.3250677"><time>2023-06-17T07:46:50.213</time></trkpt><trkpt lat="55.9430079" lon="49.3249602"><time>2023-06-17T07:46:53.237</time></trkpt><trkpt lat="55.9430001" lon="49.3248659"><time>2023-06-17T07:46:55.223</time></trkpt><trkpt lat="55.9430161" lon="49.3247675"><time>2023-06-17T07:46:57.223</time></trkpt><trkpt lat="55.9430316" lon="49.3246648"><time>2023-06-17T07:46:59.217</time></trkpt><trkpt lat="55.9430479" lon="49.3245817"><time>2023-06-17T07:47:01.223</time></trkpt><trkpt lat="55.9430697" lon="49.3244979"><time>2023-06-17T07:47:03.213</time></trkpt><trkpt lat="55.9431059" lon="49.3244123"><time>2023-06-17T07:47:05.220</time></trkpt><trkpt lat="55.9431287" lon="49.3243314"><time>2023-06-17T07:47:07.220</time></trkpt><trkpt lat="55.9431397" lon="49.3242318"><time>2023-06-17T07:47:09.230</time></trkpt><trkpt lat="55.9431336" lon="49.3241335"><time>2023-06-17T07:47:11.217</time></trkpt><trkpt lat="55.9431371" lon="49.3240385"><time>2023-06-17T07:47:13.223</time></trkpt><trkpt lat="55.9431473" lon="49.3239522"><time>2023-06-17T07:47:15.220</time></trkpt><trkpt lat="55.9431523" lon="49.3238647"><time>2023-06-17T07:47:17.220</time></trkpt><trkpt lat="55.9431463" lon="49.3237670"><time>2023-06-17T07:47:19.233</time></trkpt><trkpt lat="55.9431421" lon="49.3236819"><time>2023-06-17T07:47:21.223</time></trkpt><trkpt lat="55.9431429" lon="49.3235712"><time>2023-06-17T07:47:24.227</time></trkpt><trkpt lat="55.9431509" lon="49.3234879"><time>2023-06-17T07:47:26.230</time></trkpt><trkpt lat="55.9431663" lon="49.3233765"><time>2023-06-17T07:47:29.217</time></trkpt><trkpt lat="55.9431893" lon="49.3232736"><time>2023-06-17T07:47:32.213</time></trkpt><trkpt lat="55.9432238" lon="49.3232172"><time>2023-06-17T07:47:34.213</time></trkpt><trkpt lat="55.9432499" lon="49.3231460"><time>2023-06-17T07:47:37.210</time></trkpt><trkpt lat="55.9432769" lon="49.3230475"><time>2023-06-17T07:47:40.220</time></trkpt><trkpt lat="55.9432969" lon="49.3229574"><time>2023-06-17T07:47:42.210</time></trkpt><trkpt lat="55.9433160" lon="49.3228619"><time>2023-06-17T07:47:44.213</time></trkpt><trkpt lat="55.9433195" lon="49.3227435"><time>2023-06-17T07:47:47.223</time></trkpt><trkpt lat="55.9433393" lon="49.3226529"><time>2023-06-17T07:47:50.223</time></trkpt><trkpt lat="55.9433382" lon="49.3225618"><time>2023-06-17T07:47:55.217</time></trkpt><trkpt lat="55.9433208" lon="49.3224801"><time>2023-06-17T07:47:59.217</time></trkpt><trkpt lat="55.9433346" lon="49.3223939"><time>2023-06-17T07:48:03.220</time></trkpt><trkpt lat="55.9433474" lon="49.3223089"><time>2023-06-17T07:48:07.220</time></trkpt><trkpt lat="55.9433892" lon="49.3222786"><time>2023-06-17T07:48:11.217</time></trkpt><trkpt lat="55.9434298" lon="49.3222372"><time>2023-06-17T07:48:15.217</time></trkpt><trkpt lat="55.9434812" lon="49.3222007"><time>2023-06-17T07:48:19.210</time></trkpt><trkpt lat="55.9435355" lon="49.3221599"><time>2023-06-17T07:48:23.213</time></trkpt><trkpt lat="55.9435887" lon="49.3221239"><time>2023-06-17T07:48:27.303</time></trkpt><trkpt lat="55.9436420" lon="49.3220882"><time>2023-06-17T07:48:31.207</time></trkpt><trkpt lat="55.9436900" lon="49.3220436"><time>2023-06-17T07:48:35.220</time></trkpt><trkpt lat="55.9437420" lon="49.3220028"><time>2023-06-17T07:48:39.227</time></trkpt><trkpt lat="55.9437934" lon="49.3220009"><time>2023-06-17T07:48:43.230</time></trkpt><trkpt lat="55.9438513" lon="49.3219879"><time>2023-06-17T07:48:47.227</time></trkpt><trkpt lat="55.9438989" lon="49.3219841"><time>2023-06-17T07:48:50.223</time></trkpt><trkpt lat="55.9439527" lon="49.3219580"><time>2023-06-17T07:48:54.217</time></trkpt><trkpt lat="55.9440002" lon="49.3219164"><time>2023-06-17T07:48:58.230</time></trkpt><trkpt lat="55.9440407" lon="49.3218499"><time>2023-06-17T07:49:02.210</time></trkpt><trkpt lat="55.9440676" lon="49.3217694"><time>2023-06-17T07:49:06.227</time></trkpt><trkpt lat="55.9441190" lon="49.3217098"><time>2023-06-17T07:49:10.300</time></trkpt><trkpt lat="55.9441669" lon="49.3216506"><time>2023-06-17T07:49:14.217</time></trkpt><trkpt lat="55.9442105" lon="49.3216181"><time>2023-06-17T07:49:17.217</time></trkpt><trkpt lat="55.9442611" lon="49.3215733"><time>2023-06-17T07:49:21.223</time></trkpt><trkpt lat="55.9443053" lon="49.3215504"><time>2023-06-17T07:49:24.220</time></trkpt><trkpt lat="55.9443637" lon="49.3215531"><time>2023-06-17T07:49:28.273</time></trkpt><trkpt lat="55.9444221" lon="49.3215554"><time>2023-06-17T07:49:32.223</time></trkpt><trkpt lat="55.9444776" lon="49.3215220"><time>2023-06-17T07:49:35.223</time></trkpt><trkpt lat="55.9445226" lon="49.3214911"><time>2023-06-17T07:49:38.210</time></trkpt><trkpt lat="55.9445766" lon="49.3214570"><time>2023-06-17T07:49:42.213</time></trkpt><trkpt lat="55.9446198" lon="49.3214268"><time>2023-06-17T07:49:45.207</time></trkpt><trkpt lat="55.9446653" lon="49.3214324"><time>2023-06-17T07:49:48.230</time></trkpt><trkpt lat="55.9447231" lon="49.3214278"><time>2023-06-17T07:49:52.223</time></trkpt><trkpt lat="55.9447764" lon="49.3214220"><time>2023-06-17T07:49:56.223</time></trkpt><trkpt lat="55.9448305" lon="49.3214197"><time>2023-06-17T07:50:00.223</time></trkpt><trkpt lat="55.9448839" lon="49.3214045"><time>2023-06-17T07:50:04.220</time></trkpt><trkpt lat="55.9449372" lon="49.3213731"><time>2023-06-17T07:50:08.220</time></trkpt><trkpt lat="55.9449866" lon="49.3213264"><time>2023-06-17T07:50:12.213</time></trkpt><trkpt lat="55.9450238" lon="49.3212769"><time>2023-06-17T07:50:15.223</time></trkpt><trkpt lat="55.9450679" lon="49.3212053"><time>2023-06-17T07:50:19.220</time></trkpt><trkpt lat="55.9451074" lon="49.3211419"><time>2023-06-17T07:50:23.223</time></trkpt><trkpt lat="55.9451527" lon="49.3210945"><time>2023-06-17T07:50:27.223</time></trkpt><trkpt lat="55.9451861" lon="49.3210361"><time>2023-06-17T07:50:30.220</time></trkpt><trkpt lat="55.9452137" lon="49.3209460"><time>2023-06-17T07:50:34.220</time></trkpt><trkpt lat="55.9452416" lon="49.3208831"><time>2023-06-17T07:50:37.220</time></trkpt><trkpt lat="55.9452721" lon="49.3208010"><time>2023-06-17T07:50:41.213</time></trkpt><trkpt lat="55.9453079" lon="49.3207433"><time>2023-06-17T07:50:44.217</time></trkpt><trkpt lat="55.9453520" lon="49.3206887"><time>2023-06-17T07:50:47.210</time></trkpt><trkpt lat="55.9454139" lon="49.3206330"><time>2023-06-17T07:50:50.217</time></trkpt><trkpt lat="55.9454594" lon="49.3206115"><time>2023-06-17T07:50:52.223</time></trkpt><trkpt lat="55.9455108" lon="49.3205848"><time>2023-06-17T07:50:55.227</time></trkpt><trkpt lat="55.9455644" lon="49.3205593"><time>2023-06-17T07:50:58.213</time></trkpt><trkpt lat="55.9456245" lon="49.3205338"><time>2023-06-17T07:51:02.223</time></trkpt><trkpt lat="55.9456722" lon="49.3205216"><time>2023-06-17T07:51:05.220</time></trkpt><trkpt lat="55.9457279" lon="49.3205153"><time>2023-06-17T07:51:08.220</time></trkpt><trkpt lat="55.9457902" lon="49.3204879"><time>2023-06-17T07:51:11.220</time></trkpt><trkpt lat="55.9458340" lon="49.3204512"><time>2023-06-17T07:51:13.230</time></trkpt><trkpt lat="55.9458913" lon="49.3204185"><time>2023-06-17T07:51:16.200</time></trkpt><trkpt lat="55.9459345" lon="49.3203762"><time>2023-06-17T07:51:18.217</time></trkpt><trkpt lat="55.9459842" lon="49.3203472"><time>2023-06-17T07:51:21.237</time></trkpt><trkpt lat="55.9460342" lon="49.3203236"><time>2023-06-17T07:51:24.223</time></trkpt><trkpt lat="55.9460798" lon="49.3203057"><time>2023-06-17T07:51:26.233</time></trkpt><trkpt lat="55.9461458" lon="49.3202858"><time>2023-06-17T07:51:29.213</time></trkpt><trkpt lat="55.9462122" lon="49.3202543"><time>2023-06-17T07:51:32.237</time></trkpt><trkpt lat="55.9462642" lon="49.3202286"><time>2023-06-17T07:51:34.227</time></trkpt><trkpt lat="55.9463042" lon="49.3201799"><time>2023-06-17T07:51:36.247</time></trkpt><trkpt lat="55.9463363" lon="49.3201161"><time>2023-06-17T07:51:38.227</time></trkpt><trkpt lat="55.9463655" lon="49.3200379"><time>2023-06-17T07:51:40.227</time></trkpt><trkpt lat="55.9463754" lon="49.3199594"><time>2023-06-17T07:51:42.233</time></trkpt><trkpt lat="55.9464194" lon="49.3198962"><time>2023-06-17T07:51:45.220</time></trkpt><trkpt lat="55.9464744" lon="49.3198595"><time>2023-06-17T07:51:48.233</time></trkpt><trkpt lat="55.9465374" lon="49.3198353"><time>2023-06-17T07:51:51.220</time></trkpt><trkpt lat="55.9465741" lon="49.3197838"><time>2023-06-17T07:51:53.233</time></trkpt><trkpt lat="55.9466200" lon="49.3197154"><time>2023-06-17T07:51:56.223</time></trkpt><trkpt lat="55.9466491" lon="49.3196366"><time>2023-06-17T07:51:58.227</time></trkpt><trkpt lat="55.9466753" lon="49.3195672"><time>2023-06-17T07:52:00.227</time></trkpt><trkpt lat="55.9467283" lon="49.3194799"><time>2023-06-17T07:52:03.230</time></trkpt><trkpt lat="55.9467534" lon="49.3194100"><time>2023-06-17T07:52:05.223</time></trkpt><trkpt lat="55.9467740" lon="49.3193359"><time>2023-06-17T07:52:07.233</time></trkpt><trkpt lat="55.9468092" lon="49.3192551"><time>2023-06-17T07:52:10.230</time></trkpt><trkpt lat="55.9468566" lon="49.3191954"><time>2023-06-17T07:52:13.233</time></trkpt><trkpt lat="55.9469130" lon="49.3191441"><time>2023-06-17T07:52:16.227</time></trkpt><trkpt lat="55.9469748" lon="49.3191077"><time>2023-06-17T07:52:19.217</time></trkpt><trkpt lat="55.9470340" lon="49.3190856"><time>2023-06-17T07:52:22.217</time></trkpt><trkpt lat="55.9470935" lon="49.3190779"><time>2023-06-17T07:52:25.217</time></trkpt><trkpt lat="55.9471547" lon="49.3190582"><time>2023-06-17T07:52:28.227</time></trkpt><trkpt lat="55.9472172" lon="49.3190410"><time>2023-06-17T07:52:31.217</time></trkpt><trkpt lat="55.9472701" lon="49.3190334"><time>2023-06-17T07:52:34.223</time></trkpt><trkpt lat="55.9473203" lon="49.3190289"><time>2023-06-17T07:52:37.237</time></trkpt><trkpt lat="55.9473642" lon="49.3190113"><time>2023-06-17T07:52:39.227</time></trkpt><trkpt lat="55.9474215" lon="49.3189918"><time>2023-06-17T07:52:42.223</time></trkpt><trkpt lat="55.9474791" lon="49.3189697"><time>2023-06-17T07:52:45.207</time></trkpt><trkpt lat="55.9475448" lon="49.3189311"><time>2023-06-17T07:52:48.243</time></trkpt><trkpt lat="55.9475886" lon="49.3189060"><time>2023-06-17T07:52:50.233</time></trkpt><trkpt lat="55.9476336" lon="49.3188826"><time>2023-06-17T07:52:52.223</time></trkpt><trkpt lat="55.9476795" lon="49.3188824"><time>2023-06-17T07:52:55.237</time></trkpt><trkpt lat="55.9477130" lon="49.3189375"><time>2023-06-17T07:53:03.227</time></trkpt><trkpt lat="55.9477391" lon="49.3190204"><time>2023-06-17T07:53:09.223</time></trkpt><trkpt lat="55.9477596" lon="49.3191305"><time>2023-06-17T07:53:13.230</time></trkpt><trkpt lat="55.9477748" lon="49.3192080"><time>2023-06-17T07:53:15.223</time></trkpt><trkpt lat="55.9478021" lon="49.3192931"><time>2023-06-17T07:53:17.230</time></trkpt><trkpt lat="55.9478001" lon="49.3193844"><time>2023-06-17T07:53:19.227</time></trkpt><trkpt lat="55.9477809" lon="49.3194571"><time>2023-06-17T07:53:21.230</time></trkpt><trkpt lat="55.9477810" lon="49.3195513"><time>2023-06-17T07:53:24.227</time></trkpt><trkpt lat="55.9477829" lon="49.3196417"><time>2023-06-17T07:53:27.220</time></trkpt><trkpt lat="55.9477711" lon="49.3197282"><time>2023-06-17T07:53:30.220</time></trkpt><trkpt lat="55.9477713" lon="49.3198334"><time>2023-06-17T07:53:33.220</time></trkpt><trkpt lat="55.9477822" lon="49.3199361"><time>2023-06-17T07:53:36.220</time></trkpt><trkpt lat="55.9477940" lon="49.3200355"><time>2023-06-17T07:53:39.217</time></trkpt><trkpt lat="55.9478034" lon="49.3201504"><time>2023-06-17T07:53:42.227</time></trkpt><trkpt lat="55.9478165" lon="49.3202386"><time>2023-06-17T07:53:45.227</time></trkpt><trkpt lat="55.9478205" lon="49.3203393"><time>2023-06-17T07:53:48.220</time></trkpt><trkpt lat="55.9478250" lon="49.3204207"><time>2023-06-17T07:53:50.213</time></trkpt><trkpt lat="55.9478341" lon="49.3205170"><time>2023-06-17T07:53:54.223</time></trkpt><trkpt lat="55.9478327" lon="49.3205977"><time>2023-06-17T07:53:57.227</time></trkpt><trkpt lat="55.9478519" lon="49.3206908"><time>2023-06-17T07:54:01.230</time></trkpt><trkpt lat="55.9478345" lon="49.3207697"><time>2023-06-17T07:54:05.213</time></trkpt><trkpt lat="55.9478382" lon="49.3208775"><time>2023-06-17T07:54:08.220</time></trkpt><trkpt lat="55.9478412" lon="49.3209933"><time>2023-06-17T07:54:11.230</time></trkpt><trkpt lat="55.9478368" lon="49.3211173"><time>2023-06-17T07:54:14.220</time></trkpt><trkpt lat="55.9478317" lon="49.3212107"><time>2023-06-17T07:54:17.213</time></trkpt><trkpt lat="55.9478578" lon="49.3212967"><time>2023-06-17T07:54:20.217</time></trkpt><trkpt lat="55.9478918" lon="49.3213760"><time>2023-06-17T07:54:23.223</time></trkpt><trkpt lat="55.9479282" lon="49.3214532"><time>2023-06-17T07:54:27.217</time></trkpt><trkpt lat="55.9479805" lon="49.3214776"><time>2023-06-17T07:54:31.223</time></trkpt><trkpt lat="55.9480270" lon="49.3214724"><time>2023-06-17T07:54:35.210</time></trkpt><trkpt lat="55.9480787" lon="49.3214628"><time>2023-06-17T07:54:38.217</time></trkpt><trkpt lat="55.9481324" lon="49.3214765"><time>2023-06-17T07:54:41.233</time></trkpt><trkpt lat="55.9481848" lon="49.3215228"><time>2023-06-17T07:54:44.240</time></trkpt><trkpt lat="55.9482216" lon="49.3215851"><time>2023-06-17T07:54:47.230</time></trkpt><trkpt lat="55.9482682" lon="49.3216334"><time>2023-06-17T07:54:50.233</time></trkpt><trkpt lat="55.9483282" lon="49.3216674"><time>2023-06-17T07:54:53.227</time></trkpt><trkpt lat="55.9483784" lon="49.3216801"><time>2023-06-17T07:54:55.230</time></trkpt><trkpt lat="55.9484292" lon="49.3216866"><time>2023-06-17T07:54:57.237</time></trkpt><trkpt lat="55.9484750" lon="49.3217065"><time>2023-06-17T07:54:59.227</time></trkpt><trkpt lat="55.9485324" lon="49.3217254"><time>2023-06-17T07:55:02.217</time></trkpt><trkpt lat="55.9485933" lon="49.3217214"><time>2023-06-17T07:55:05.217</time></trkpt><trkpt lat="55.9486393" lon="49.3217112"><time>2023-06-17T07:55:07.223</time></trkpt><trkpt lat="55.9487080" lon="49.3217028"><time>2023-06-17T07:55:10.227</time></trkpt><trkpt lat="55.9487720" lon="49.3217051"><time>2023-06-17T07:55:13.223</time></trkpt><trkpt lat="55.9488318" lon="49.3217167"><time>2023-06-17T07:55:17.230</time></trkpt><trkpt lat="55.9488943" lon="49.3217055"><time>2023-06-17T07:55:20.227</time></trkpt><trkpt lat="55.9489454" lon="49.3216983"><time>2023-06-17T07:55:22.227</time></trkpt><trkpt lat="55.9490009" lon="49.3216929"><time>2023-06-17T07:55:24.220</time></trkpt><trkpt lat="55.9490651" lon="49.3216896"><time>2023-06-17T07:55:26.217</time></trkpt><trkpt lat="55.9491266" lon="49.3216863"><time>2023-06-17T07:55:29.220</time></trkpt><trkpt lat="55.9491748" lon="49.3216756"><time>2023-06-17T07:55:32.233</time></trkpt><trkpt lat="55.9492248" lon="49.3217197"><time>2023-06-17T07:55:37.230</time></trkpt><trkpt lat="55.9492871" lon="49.3217589"><time>2023-06-17T07:55:40.227</time></trkpt><trkpt lat="55.9493368" lon="49.3217689"><time>2023-06-17T07:55:42.223</time></trkpt><trkpt lat="55.9493841" lon="49.3217907"><time>2023-06-17T07:55:44.227</time></trkpt><trkpt lat="55.9494353" lon="49.3218164"><time>2023-06-17T07:55:46.233</time></trkpt><trkpt lat="55.9494855" lon="49.3218354"><time>2023-06-17T07:55:48.220</time></trkpt><trkpt lat="55.9495570" lon="49.3218545"><time>2023-06-17T07:55:51.203</time></trkpt><trkpt lat="55.9496132" lon="49.3218861"><time>2023-06-17T07:55:54.207</time></trkpt><trkpt lat="55.9496720" lon="49.3219319"><time>2023-06-17T07:55:57.213</time></trkpt><trkpt lat="55.9496996" lon="49.3219666"><time>2023-06-17T07:56:00.803</time></trkpt><trkpt lat="55.9496945" lon="49.3220159"><time>2023-06-17T07:56:07.217</time></trkpt><trkpt lat="55.9496962" lon="49.3220991"><time>2023-06-17T07:56:10.203</time></trkpt><trkpt lat="55.9496932" lon="49.3221804"><time>2023-06-17T07:56:30.220</time></trkpt><trkpt lat="55.9496860" lon="49.3222733"><time>2023-06-17T07:56:35.220</time></trkpt><trkpt lat="55.9496962" lon="49.3223642"><time>2023-06-17T07:56:39.223</time></trkpt><trkpt lat="55.9497068" lon="49.3224637"><time>2023-06-17T07:56:43.217</time></trkpt><trkpt lat="55.9497048" lon="49.3225563"><time>2023-06-17T07:56:47.220</time></trkpt><trkpt lat="55.9496989" lon="49.3226521"><time>2023-06-17T07:56:51.217</time></trkpt><trkpt lat="55.9496865" lon="49.3227296"><time>2023-06-17T07:56:55.217</time></trkpt><trkpt lat="55.9496968" lon="49.3228160"><time>2023-06-17T07:57:03.213</time></trkpt><trkpt lat="55.9496998" lon="49.3229177"><time>2023-06-17T07:57:07.213</time></trkpt><trkpt lat="55.9497010" lon="49.3230085"><time>2023-06-17T07:57:11.217</time></trkpt><trkpt lat="55.9497114" lon="49.3230930"><time>2023-06-17T07:57:15.217</time></trkpt><trkpt lat="55.9497143" lon="49.3231805"><time>2023-06-17T07:57:19.213</time></trkpt><trkpt lat="55.9497334" lon="49.3232653"><time>2023-06-17T07:57:24.217</time></trkpt><trkpt lat="55.9497483" lon="49.3233452"><time>2023-06-17T07:57:28.227</time></trkpt><trkpt lat="55.9497697" lon="49.3234247"><time>2023-06-17T07:57:32.220</time></trkpt><trkpt lat="55.9497772" lon="49.3235133"><time>2023-06-17T07:57:36.217</time></trkpt><trkpt lat="55.9497815" lon="49.3235949"><time>2023-06-17T07:57:40.223</time></trkpt><trkpt lat="55.9497682" lon="49.3236914"><time>2023-06-17T07:57:44.217</time></trkpt><trkpt lat="55.9497537" lon="49.3237835"><time>2023-06-17T07:57:48.233</time></trkpt><trkpt lat="55.9497371" lon="49.3238995"><time>2023-06-17T07:57:52.217</time></trkpt><trkpt lat="55.9497328" lon="49.3239828"><time>2023-06-17T07:57:54.217</time></trkpt><trkpt lat="55.9497364" lon="49.3241019"><time>2023-06-17T07:57:57.220</time></trkpt><trkpt lat="55.9497278" lon="49.3242023"><time>2023-06-17T07:58:01.220</time></trkpt><trkpt lat="55.9497307" lon="49.3243016"><time>2023-06-17T07:58:04.220</time></trkpt><trkpt lat="55.9497400" lon="49.3243955"><time>2023-06-17T07:58:07.217</time></trkpt><trkpt lat="55.9497409" lon="49.3245067"><time>2023-06-17T07:58:10.227</time></trkpt><trkpt lat="55.9497734" lon="49.3246046"><time>2023-06-17T07:58:13.220</time></trkpt><trkpt lat="55.9497961" lon="49.3246812"><time>2023-06-17T07:58:16.213</time></trkpt><trkpt lat="55.9498226" lon="49.3247625"><time>2023-06-17T07:58:20.230</time></trkpt><trkpt lat="55.9498442" lon="49.3248336"><time>2023-06-17T07:58:23.227</time></trkpt><trkpt lat="55.9498625" lon="49.3249073"><time>2023-06-17T07:58:26.213</time></trkpt><trkpt lat="55.9498856" lon="49.3249982"><time>2023-06-17T07:58:30.217</time></trkpt><trkpt lat="55.9498911" lon="49.3250879"><time>2023-06-17T07:58:34.220</time></trkpt><trkpt lat="55.9499120" lon="49.3251785"><time>2023-06-17T07:58:38.220</time></trkpt><trkpt lat="55.9499331" lon="49.3252515"><time>2023-06-17T07:58:42.217</time></trkpt><trkpt lat="55.9499319" lon="49.3253354"><time>2023-06-17T07:58:46.217</time></trkpt><trkpt lat="55.9499377" lon="49.3254193"><time>2023-06-17T07:58:50.223</time></trkpt><trkpt lat="55.9499628" lon="49.3255040"><time>2023-06-17T07:58:54.217</time></trkpt><trkpt lat="55.9499871" lon="49.3255909"><time>2023-06-17T07:58:57.210</time></trkpt><trkpt lat="55.9500295" lon="49.3256698"><time>2023-06-17T07:59:00.223</time></trkpt><trkpt lat="55.9500556" lon="49.3257659"><time>2023-06-17T07:59:03.227</time></trkpt><trkpt lat="55.9500876" lon="49.3258661"><time>2023-06-17T07:59:06.220</time></trkpt><trkpt lat="55.9501230" lon="49.3259456"><time>2023-06-17T07:59:08.227</time></trkpt><trkpt lat="55.9501506" lon="49.3260299"><time>2023-06-17T07:59:11.227</time></trkpt><trkpt lat="55.9501714" lon="49.3261189"><time>2023-06-17T07:59:15.217</time></trkpt><trkpt lat="55.9501968" lon="49.3261995"><time>2023-06-17T07:59:18.227</time></trkpt><trkpt lat="55.9502147" lon="49.3263040"><time>2023-06-17T07:59:21.220</time></trkpt><trkpt lat="55.9502303" lon="49.3264063"><time>2023-06-17T07:59:24.227</time></trkpt><trkpt lat="55.9502263" lon="49.3265087"><time>2023-06-17T07:59:28.217</time></trkpt><trkpt lat="55.9502289" lon="49.3266122"><time>2023-06-17T07:59:31.240</time></trkpt><trkpt lat="55.9502476" lon="49.3267040"><time>2023-06-17T07:59:34.217</time></trkpt><trkpt lat="55.9502732" lon="49.3268087"><time>2023-06-17T07:59:37.220</time></trkpt><trkpt lat="55.9502902" lon="49.3268916"><time>2023-06-17T07:59:40.223</time></trkpt><trkpt lat="55.9503049" lon="49.3269812"><time>2023-06-17T07:59:44.223</time></trkpt><trkpt lat="55.9503191" lon="49.3270795"><time>2023-06-17T07:59:48.213</time></trkpt><trkpt lat="55.9503227" lon="49.3271697"><time>2023-06-17T07:59:52.220</time></trkpt><trkpt lat="55.9503259" lon="49.3272503"><time>2023-06-17T07:59:56.230</time></trkpt><trkpt lat="55.9503239" lon="49.3273355"><time>2023-06-17T08:00:00.227</time></trkpt><trkpt lat="55.9503255" lon="49.3274171"><time>2023-06-17T08:00:04.227</time></trkpt><trkpt lat="55.9503361" lon="49.3274995"><time>2023-06-17T08:00:08.233</time></trkpt><trkpt lat="55.9503565" lon="49.3275830"><time>2023-06-17T08:00:11.227</time></trkpt><trkpt lat="55.9503720" lon="49.3276674"><time>2023-06-17T08:00:14.227</time></trkpt><trkpt lat="55.9503983" lon="49.3277443"><time>2023-06-17T08:00:18.220</time></trkpt><trkpt lat="55.9504272" lon="49.3278238"><time>2023-06-17T08:00:22.240</time></trkpt><trkpt lat="55.9504499" lon="49.3279163"><time>2023-06-17T08:00:26.220</time></trkpt><trkpt lat="55.9504852" lon="49.3280011"><time>2023-06-17T08:00:30.217</time></trkpt><trkpt lat="55.9505102" lon="49.3280763"><time>2023-06-17T08:00:33.217</time></trkpt><trkpt lat="55.9505045" lon="49.3281716"><time>2023-06-17T08:00:37.227</time></trkpt><trkpt lat="55.9504740" lon="49.3282391"><time>2023-06-17T08:01:11.280</time></trkpt><trkpt lat="55.9504261" lon="49.3282894"><time>2023-06-17T08:01:15.237</time></trkpt><trkpt lat="55.9503830" lon="49.3283339"><time>2023-06-17T08:01:19.237</time></trkpt><trkpt lat="55.9503340" lon="49.3283764"><time>2023-06-17T08:01:22.227</time></trkpt><trkpt lat="55.9502911" lon="49.3284066"><time>2023-06-17T08:01:24.230</time></trkpt><trkpt lat="55.9502457" lon="49.3284483"><time>2023-06-17T08:01:26.230</time></trkpt><trkpt lat="55.9502003" lon="49.3284900"><time>2023-06-17T08:01:28.310</time></trkpt><trkpt lat="55.9501551" lon="49.3285300"><time>2023-06-17T08:01:30.273</time></trkpt><trkpt lat="55.9501142" lon="49.3285666"><time>2023-06-17T08:01:32.290</time></trkpt><trkpt lat="55.9500565" lon="49.3286184"><time>2023-06-17T08:01:35.230</time></trkpt><trkpt lat="55.9499967" lon="49.3286659"><time>2023-06-17T08:01:38.300</time></trkpt><trkpt lat="55.9499387" lon="49.3287259"><time>2023-06-17T08:01:41.267</time></trkpt><trkpt lat="55.9498953" lon="49.3288184"><time>2023-06-17T08:01:44.227</time></trkpt><trkpt lat="55.9498580" lon="49.3288981"><time>2023-06-17T08:01:47.243</time></trkpt><trkpt lat="55.9498316" lon="49.3289739"><time>2023-06-17T08:01:50.257</time></trkpt><trkpt lat="55.9498078" lon="49.3290574"><time>2023-06-17T08:01:54.257</time></trkpt><trkpt lat="55.9497857" lon="49.3291401"><time>2023-06-17T08:01:58.277</time></trkpt><trkpt lat="55.9497651" lon="49.3292340"><time>2023-06-17T08:02:01.247</time></trkpt><trkpt lat="55.9497437" lon="49.3293481"><time>2023-06-17T08:02:04.273</time></trkpt><trkpt lat="55.9497314" lon="49.3294325"><time>2023-06-17T08:02:06.227</time></trkpt><trkpt lat="55.9496841" lon="49.3294679"><time>2023-06-17T08:02:24.223</time></trkpt><trkpt lat="55.9496329" lon="49.3294712"><time>2023-06-17T08:02:28.200</time></trkpt><trkpt lat="55.9495875" lon="49.3295094"><time>2023-06-17T08:02:33.223</time></trkpt><trkpt lat="55.9495508" lon="49.3295609"><time>2023-06-17T08:02:35.227</time></trkpt><trkpt lat="55.9494999" lon="49.3295946"><time>2023-06-17T08:02:37.227</time></trkpt><trkpt lat="55.9494505" lon="49.3296103"><time>2023-06-17T08:02:39.220</time></trkpt><trkpt lat="55.9494012" lon="49.3296151"><time>2023-06-17T08:02:41.227</time></trkpt><trkpt lat="55.9493516" lon="49.3296289"><time>2023-06-17T08:02:43.220</time></trkpt><trkpt lat="55.9493061" lon="49.3296556"><time>2023-06-17T08:02:45.220</time></trkpt><trkpt lat="55.9492621" lon="49.3296752"><time>2023-06-17T08:02:47.223</time></trkpt><trkpt lat="55.9492048" lon="49.3296938"><time>2023-06-17T08:02:50.237</time></trkpt><trkpt lat="55.9491621" lon="49.3297227"><time>2023-06-17T08:02:52.220</time></trkpt><trkpt lat="55.9491009" lon="49.3297557"><time>2023-06-17T08:02:55.237</time></trkpt><trkpt lat="55.9490414" lon="49.3297945"><time>2023-06-17T08:02:58.223</time></trkpt><trkpt lat="55.9489861" lon="49.3298297"><time>2023-06-17T08:03:01.217</time></trkpt><trkpt lat="55.9489305" lon="49.3298636"><time>2023-06-17T08:03:04.227</time></trkpt><trkpt lat="55.9488740" lon="49.3298965"><time>2023-06-17T08:03:07.237</time></trkpt><trkpt lat="55.9488251" lon="49.3299278"><time>2023-06-17T08:03:10.220</time></trkpt><trkpt lat="55.9487787" lon="49.3299507"><time>2023-06-17T08:03:14.237</time></trkpt><trkpt lat="55.9487247" lon="49.3299756"><time>2023-06-17T08:03:19.230</time></trkpt><trkpt lat="55.9486689" lon="49.3299982"><time>2023-06-17T08:03:23.210</time></trkpt><trkpt lat="55.9486352" lon="49.3300648"><time>2023-06-17T08:03:27.217</time></trkpt><trkpt lat="55.9486636" lon="49.3301358"><time>2023-06-17T08:03:31.210</time></trkpt><trkpt lat="55.9487169" lon="49.3301511"><time>2023-06-17T08:03:35.217</time></trkpt><trkpt lat="55.9487596" lon="49.3302024"><time>2023-06-17T08:03:39.220</time></trkpt><trkpt lat="55.9488151" lon="49.3302610"><time>2023-06-17T08:03:42.217</time></trkpt><trkpt lat="55.9488545" lon="49.3303231"><time>2023-06-17T08:03:44.217</time></trkpt><trkpt lat="55.9489026" lon="49.3303858"><time>2023-06-17T08:03:47.223</time></trkpt><trkpt lat="55.9489255" lon="49.3304564"><time>2023-06-17T08:03:49.217</time></trkpt><trkpt lat="55.9489696" lon="49.3305151"><time>2023-06-17T08:03:51.220</time></trkpt><trkpt lat="55.9490159" lon="49.3305817"><time>2023-06-17T08:03:53.220</time></trkpt><trkpt lat="55.9490528" lon="49.3306620"><time>2023-06-17T08:03:56.223</time></trkpt><trkpt lat="55.9491063" lon="49.3307432"><time>2023-06-17T08:03:59.213</time></trkpt><trkpt lat="55.9491461" lon="49.3308006"><time>2023-06-17T08:04:01.220</time></trkpt><trkpt lat="55.9491859" lon="49.3308428"><time>2023-06-17T08:04:03.217</time></trkpt><trkpt lat="55.9492324" lon="49.3308645"><time>2023-06-17T08:04:05.247</time></trkpt><trkpt lat="55.9492828" lon="49.3309170"><time>2023-06-17T08:04:07.240</time></trkpt><trkpt lat="55.9493280" lon="49.3309699"><time>2023-06-17T08:04:09.220</time></trkpt><trkpt lat="55.9493678" lon="49.3310158"><time>2023-06-17T08:04:11.220</time></trkpt><trkpt lat="55.9494116" lon="49.3310690"><time>2023-06-17T08:04:14.217</time></trkpt><trkpt lat="55.9494595" lon="49.3311509"><time>2023-06-17T08:04:17.227</time></trkpt><trkpt lat="55.9495029" lon="49.3312420"><time>2023-06-17T08:04:20.210</time></trkpt><trkpt lat="55.9495458" lon="49.3313250"><time>2023-06-17T08:04:23.207</time></trkpt><trkpt lat="55.9495927" lon="49.3314012"><time>2023-06-17T08:04:26.210</time></trkpt><trkpt lat="55.9496409" lon="49.3314904"><time>2023-06-17T08:04:29.223</time></trkpt><trkpt lat="55.9496799" lon="49.3315551"><time>2023-06-17T08:04:32.220</time></trkpt><trkpt lat="55.9497208" lon="49.3315918"><time>2023-06-17T08:04:34.217</time></trkpt><trkpt lat="55.9497591" lon="49.3316353"><time>2023-06-17T08:04:36.223</time></trkpt><trkpt lat="55.9498012" lon="49.3316945"><time>2023-06-17T08:04:38.223</time></trkpt><trkpt lat="55.9498418" lon="49.3317663"><time>2023-06-17T08:04:40.233</time></trkpt><trkpt lat="55.9498764" lon="49.3318401"><time>2023-06-17T08:04:42.220</time></trkpt><trkpt lat="55.9499098" lon="49.3318944"><time>2023-06-17T08:04:44.217</time></trkpt><trkpt lat="55.9499505" lon="49.3319351"><time>2023-06-17T08:04:46.217</time></trkpt><trkpt lat="55.9499887" lon="49.3320165"><time>2023-06-17T08:04:49.227</time></trkpt><trkpt lat="55.9500340" lon="49.3320987"><time>2023-06-17T08:04:52.217</time></trkpt><trkpt lat="55.9500801" lon="49.3321705"><time>2023-06-17T08:04:55.230</time></trkpt><trkpt lat="55.9501201" lon="49.3322530"><time>2023-06-17T08:04:58.233</time></trkpt><trkpt lat="55.9501590" lon="49.3323428"><time>2023-06-17T08:05:01.247</time></trkpt><trkpt lat="55.9502059" lon="49.3324135"><time>2023-06-17T08:05:04.217</time></trkpt><trkpt lat="55.9502523" lon="49.3324936"><time>2023-06-17T08:05:07.227</time></trkpt><trkpt lat="55.9502819" lon="49.3325577"><time>2023-06-17T08:05:09.230</time></trkpt><trkpt lat="55.9503215" lon="49.3326040"><time>2023-06-17T08:05:11.237</time></trkpt><trkpt lat="55.9503643" lon="49.3326480"><time>2023-06-17T08:05:13.227</time></trkpt><trkpt lat="55.9504022" lon="49.3326995"><time>2023-06-17T08:05:15.227</time></trkpt><trkpt lat="55.9504501" lon="49.3327508"><time>2023-06-17T08:05:17.227</time></trkpt><trkpt lat="55.9504935" lon="49.3328002"><time>2023-06-17T08:05:19.227</time></trkpt><trkpt lat="55.9505319" lon="49.3328603"><time>2023-06-17T08:05:21.230</time></trkpt><trkpt lat="55.9505735" lon="49.3329246"><time>2023-06-17T08:05:23.227</time></trkpt><trkpt lat="55.9506080" lon="49.3329895"><time>2023-06-17T08:05:25.247</time></trkpt><trkpt lat="55.9506505" lon="49.3330677"><time>2023-06-17T08:05:28.247</time></trkpt><trkpt lat="55.9506953" lon="49.3331421"><time>2023-06-17T08:05:31.230</time></trkpt><trkpt lat="55.9507415" lon="49.3331637"><time>2023-06-17T08:05:38.227</time></trkpt><trkpt lat="55.9507891" lon="49.3332287"><time>2023-06-17T08:05:41.233</time></trkpt><trkpt lat="55.9508223" lon="49.3332852"><time>2023-06-17T08:05:43.227</time></trkpt><trkpt lat="55.9508571" lon="49.3333474"><time>2023-06-17T08:05:45.223</time></trkpt><trkpt lat="55.9508999" lon="49.3333959"><time>2023-06-17T08:05:47.223</time></trkpt><trkpt lat="55.9509356" lon="49.3334478"><time>2023-06-17T08:05:49.233</time></trkpt><trkpt lat="55.9509677" lon="49.3335054"><time>2023-06-17T08:05:51.223</time></trkpt><trkpt lat="55.9510177" lon="49.3335715"><time>2023-06-17T08:05:54.223</time></trkpt><trkpt lat="55.9510652" lon="49.3336315"><time>2023-06-17T08:05:57.223</time></trkpt><trkpt lat="55.9511050" lon="49.3336841"><time>2023-06-17T08:06:00.223</time></trkpt><trkpt lat="55.9511290" lon="49.3337775"><time>2023-06-17T08:06:04.220</time></trkpt><trkpt lat="55.9511634" lon="49.3338608"><time>2023-06-17T08:06:08.223</time></trkpt><trkpt lat="55.9512070" lon="49.3339105"><time>2023-06-17T08:06:12.217</time></trkpt><trkpt lat="55.9512401" lon="49.3339841"><time>2023-06-17T08:06:18.220</time></trkpt><trkpt lat="55.9512777" lon="49.3340463"><time>2023-06-17T08:06:21.220</time></trkpt><trkpt lat="55.9513072" lon="49.3341130"><time>2023-06-17T08:06:23.227</time></trkpt><trkpt lat="55.9513305" lon="49.3341900"><time>2023-06-17T08:06:25.223</time></trkpt><trkpt lat="55.9513405" lon="49.3342693"><time>2023-06-17T08:06:27.227</time></trkpt><trkpt lat="55.9513464" lon="49.3343879"><time>2023-06-17T08:06:30.230</time></trkpt><trkpt lat="55.9513655" lon="49.3344643"><time>2023-06-17T08:06:32.220</time></trkpt><trkpt lat="55.9513910" lon="49.3345394"><time>2023-06-17T08:06:34.223</time></trkpt><trkpt lat="55.9514077" lon="49.3346154"><time>2023-06-17T08:06:36.227</time></trkpt><trkpt lat="55.9514095" lon="49.3347316"><time>2023-06-17T08:06:39.217</time></trkpt><trkpt lat="55.9514273" lon="49.3348475"><time>2023-06-17T08:06:42.227</time></trkpt><trkpt lat="55.9514614" lon="49.3349157"><time>2023-06-17T08:06:45.237</time></trkpt><trkpt lat="55.9514916" lon="49.3349782"><time>2023-06-17T08:06:48.227</time></trkpt><trkpt lat="55.9515006" lon="49.3350639"><time>2023-06-17T08:06:52.230</time></trkpt><trkpt lat="55.9515132" lon="49.3351650"><time>2023-06-17T08:06:56.237</time></trkpt><trkpt lat="55.9515352" lon="49.3352640"><time>2023-06-17T08:06:59.217</time></trkpt><trkpt lat="55.9515676" lon="49.3353620"><time>2023-06-17T08:07:02.220</time></trkpt><trkpt lat="55.9515976" lon="49.3354612"><time>2023-06-17T08:07:05.227</time></trkpt><trkpt lat="55.9516132" lon="49.3355509"><time>2023-06-17T08:07:09.247</time></trkpt><trkpt lat="55.9516371" lon="49.3356379"><time>2023-06-17T08:07:14.217</time></trkpt><trkpt lat="55.9516840" lon="49.3356675"><time>2023-06-17T08:07:21.223</time></trkpt><trkpt lat="55.9516547" lon="49.3355961"><time>2023-06-17T08:07:26.220</time></trkpt><trkpt lat="55.9516942" lon="49.3355451"><time>2023-06-17T08:07:32.230</time></trkpt><trkpt lat="55.9517060" lon="49.3356390"><time>2023-06-17T08:07:37.207</time></trkpt><trkpt lat="55.9517341" lon="49.3357137"><time>2023-06-17T08:07:45.213</time></trkpt><trkpt lat="55.9517784" lon="49.3357613"><time>2023-06-17T08:07:51.220</time></trkpt><trkpt lat="55.9518156" lon="49.3356895"><time>2023-06-17T08:08:00.223</time></trkpt><trkpt lat="55.9518596" lon="49.3356383"><time>2023-06-17T08:08:04.227</time></trkpt><trkpt lat="55.9518942" lon="49.3355829"><time>2023-06-17T08:08:09.220</time></trkpt><trkpt lat="55.9519400" lon="49.3355615"><time>2023-06-17T08:08:17.217</time></trkpt><trkpt lat="55.9519712" lon="49.3356214"><time>2023-06-17T08:08:22.213</time></trkpt><trkpt lat="55.9519703" lon="49.3357028"><time>2023-06-17T08:08:32.220</time></trkpt><trkpt lat="55.9520126" lon="49.3357406"><time>2023-06-17T08:08:43.207</time></trkpt><trkpt lat="55.9520630" lon="49.3357746"><time>2023-06-17T08:08:53.223</time></trkpt><trkpt lat="55.9520716" lon="49.3358593"><time>2023-06-17T08:08:59.213</time></trkpt><trkpt lat="55.9521033" lon="49.3359265"><time>2023-06-17T08:09:03.220</time></trkpt><trkpt lat="55.9520905" lon="49.3358468"><time>2023-06-17T08:09:19.267</time></trkpt><trkpt lat="55.9520781" lon="49.3357668"><time>2023-06-17T08:09:24.213</time></trkpt><trkpt lat="55.9521067" lon="49.3356816"><time>2023-06-17T08:09:30.200</time></trkpt><trkpt lat="55.9521562" lon="49.3356548"><time>2023-06-17T08:09:36.243</time></trkpt><trkpt lat="55.9521867" lon="49.3355945"><time>2023-06-17T08:09:48.227</time></trkpt><trkpt lat="55.9522060" lon="49.3355068"><time>2023-06-17T08:09:53.213</time></trkpt><trkpt lat="55.9522359" lon="49.3354426"><time>2023-06-17T08:09:57.213</time></trkpt><trkpt lat="55.9522699" lon="49.3353786"><time>2023-06-17T08:10:01.217</time></trkpt><trkpt lat="55.9522834" lon="49.3352938"><time>2023-06-17T08:10:05.217</time></trkpt><trkpt lat="55.9522998" lon="49.3352072"><time>2023-06-17T08:10:09.217</time></trkpt><trkpt lat="55.9523250" lon="49.3351244"><time>2023-06-17T08:10:13.227</time></trkpt><trkpt lat="55.9523674" lon="49.3350836"><time>2023-06-17T08:10:17.217</time></trkpt><trkpt lat="55.9523851" lon="49.3350039"><time>2023-06-17T08:10:24.213</time></trkpt><trkpt lat="55.9524199" lon="49.3349391"><time>2023-06-17T08:10:29.217</time></trkpt><trkpt lat="55.9524586" lon="49.3348726"><time>2023-06-17T08:10:34.223</time></trkpt><trkpt lat="55.9525083" lon="49.3348935"><time>2023-06-17T08:10:41.223</time></trkpt><trkpt lat="55.9525551" lon="49.3348584"><time>2023-06-17T08:10:45.213</time></trkpt><trkpt lat="55.9526022" lon="49.3348401"><time>2023-06-17T08:10:49.217</time></trkpt><trkpt lat="55.9526451" lon="49.3348019"><time>2023-06-17T08:10:53.217</time></trkpt><trkpt lat="55.9526903" lon="49.3347606"><time>2023-06-17T08:10:57.227</time></trkpt><trkpt lat="55.9527249" lon="49.3346947"><time>2023-06-17T08:11:04.240</time></trkpt><trkpt lat="55.9527719" lon="49.3346661"><time>2023-06-17T08:11:08.260</time></trkpt><trkpt lat="55.9527794" lon="49.3345810"><time>2023-06-17T08:11:14.270</time></trkpt><trkpt lat="55.9528190" lon="49.3345405"><time>2023-06-17T08:11:20.220</time></trkpt><trkpt lat="55.9528693" lon="49.3345757"><time>2023-06-17T08:11:25.257</time></trkpt><trkpt lat="55.9529180" lon="49.3345238"><time>2023-06-17T08:11:31.217</time></trkpt><trkpt lat="55.9529628" lon="49.3344859"><time>2023-06-17T08:11:36.300</time></trkpt><trkpt lat="55.9530013" lon="49.3345342"><time>2023-06-17T08:11:41.267</time></trkpt><trkpt lat="55.9530450" lon="49.3345777"><time>2023-06-17T08:11:45.260</time></trkpt><trkpt lat="55.9530864" lon="49.3346101"><time>2023-06-17T08:11:49.243</time></trkpt><trkpt lat="55.9531386" lon="49.3346357"><time>2023-06-17T08:11:53.310</time></trkpt><trkpt lat="55.9531825" lon="49.3346866"><time>2023-06-17T08:11:57.203</time></trkpt><trkpt lat="55.9532341" lon="49.3347285"><time>2023-06-17T08:12:01.217</time></trkpt><trkpt lat="55.9532849" lon="49.3347655"><time>2023-06-17T08:12:05.220</time></trkpt><trkpt lat="55.9533369" lon="49.3347842"><time>2023-06-17T08:12:09.213</time></trkpt><trkpt lat="55.9533731" lon="49.3347197"><time>2023-06-17T08:12:16.217</time></trkpt><trkpt lat="55.9534051" lon="49.3346614"><time>2023-06-17T08:12:20.190</time></trkpt><trkpt lat="55.9534363" lon="49.3345965"><time>2023-06-17T08:12:25.210</time></trkpt><trkpt lat="55.9534008" lon="49.3345412"><time>2023-06-17T08:12:53.217</time></trkpt><trkpt lat="55.9534248" lon="49.3344608"><time>2023-06-17T08:12:58.207</time></trkpt><trkpt lat="55.9534263" lon="49.3343720"><time>2023-06-17T08:13:03.210</time></trkpt><trkpt lat="55.9534390" lon="49.3342890"><time>2023-06-17T08:13:08.213</time></trkpt><trkpt lat="55.9534567" lon="49.3342143"><time>2023-06-17T08:13:13.213</time></trkpt><trkpt lat="55.9534998" lon="49.3341743"><time>2023-06-17T08:13:18.210</time></trkpt><trkpt lat="55.9535500" lon="49.3341369"><time>2023-06-17T08:13:23.203</time></trkpt><trkpt lat="55.9535978" lon="49.3340979"><time>2023-06-17T08:13:28.213</time></trkpt><trkpt lat="55.9536281" lon="49.3340166"><time>2023-06-17T08:13:32.207</time></trkpt><trkpt lat="55.9536688" lon="49.3339546"><time>2023-06-17T08:13:36.197</time></trkpt><trkpt lat="55.9537049" lon="49.3338996"><time>2023-06-17T08:13:40.217</time></trkpt><trkpt lat="55.9537415" lon="49.3338359"><time>2023-06-17T08:13:45.217</time></trkpt><trkpt lat="55.9537699" lon="49.3337493"><time>2023-06-17T08:13:50.217</time></trkpt><trkpt lat="55.9537993" lon="49.3336623"><time>2023-06-17T08:13:54.223</time></trkpt><trkpt lat="55.9538299" lon="49.3335896"><time>2023-06-17T08:13:58.217</time></trkpt><trkpt lat="55.9538593" lon="49.3335130"><time>2023-06-17T08:14:03.203</time></trkpt><trkpt lat="55.9538912" lon="49.3334331"><time>2023-06-17T08:14:08.210</time></trkpt><trkpt lat="55.9539005" lon="49.3333441"><time>2023-06-17T08:14:12.220</time></trkpt><trkpt lat="55.9539045" lon="49.3334275"><time>2023-06-17T08:14:24.220</time></trkpt><trkpt lat="55.9539225" lon="49.3335020"><time>2023-06-17T08:14:28.210</time></trkpt><trkpt lat="55.9539201" lon="49.3335880"><time>2023-06-17T08:14:33.217</time></trkpt><trkpt lat="55.9539641" lon="49.3336342"><time>2023-06-17T08:14:38.220</time></trkpt><trkpt lat="55.9540081" lon="49.3336658"><time>2023-06-17T08:14:43.217</time></trkpt><trkpt lat="55.9540192" lon="49.3337698"><time>2023-06-17T08:14:48.210</time></trkpt><trkpt lat="55.9540132" lon="49.3338573"><time>2023-06-17T08:14:52.217</time></trkpt><trkpt lat="55.9540068" lon="49.3339482"><time>2023-06-17T08:14:57.217</time></trkpt><trkpt lat="55.9540494" lon="49.3339887"><time>2023-06-17T08:15:02.207</time></trkpt><trkpt lat="55.9540917" lon="49.3340444"><time>2023-06-17T08:15:09.220</time></trkpt><trkpt lat="55.9541364" lon="49.3340638"><time>2023-06-17T08:15:14.223</time></trkpt><trkpt lat="55.9541855" lon="49.3340858"><time>2023-06-17T08:15:19.220</time></trkpt><trkpt lat="55.9542341" lon="49.3340429"><time>2023-06-17T08:15:25.213</time></trkpt><trkpt lat="55.9542551" lon="49.3339487"><time>2023-06-17T08:15:31.213</time></trkpt><trkpt lat="55.9542940" lon="49.3339000"><time>2023-06-17T08:15:36.213</time></trkpt><trkpt lat="55.9543203" lon="49.3338092"><time>2023-06-17T08:15:41.203</time></trkpt><trkpt lat="55.9543513" lon="49.3337505"><time>2023-06-17T08:15:45.213</time></trkpt><trkpt lat="55.9544007" lon="49.3337289"><time>2023-06-17T08:15:49.217</time></trkpt><trkpt lat="55.9544205" lon="49.3336466"><time>2023-06-17T08:15:55.210</time></trkpt><trkpt lat="55.9544640" lon="49.3336210"><time>2023-06-17T08:16:04.220</time></trkpt><trkpt lat="55.9544975" lon="49.3335678"><time>2023-06-17T08:16:12.210</time></trkpt><trkpt lat="55.9544985" lon="49.3334837"><time>2023-06-17T08:16:17.240</time></trkpt><trkpt lat="55.9544960" lon="49.3333973"><time>2023-06-17T08:16:22.223</time></trkpt><trkpt lat="55.9544980" lon="49.3333088"><time>2023-06-17T08:16:26.230</time></trkpt><trkpt lat="55.9545166" lon="49.3332116"><time>2023-06-17T08:16:30.210</time></trkpt><trkpt lat="55.9545362" lon="49.3331350"><time>2023-06-17T08:16:34.223</time></trkpt><trkpt lat="55.9545406" lon="49.3330542"><time>2023-06-17T08:16:38.213</time></trkpt><trkpt lat="55.9545415" lon="49.3329710"><time>2023-06-17T08:16:42.230</time></trkpt><trkpt lat="55.9545267" lon="49.3328914"><time>2023-06-17T08:16:46.220</time></trkpt><trkpt lat="55.9545540" lon="49.3328239"><time>2023-06-17T08:16:51.210</time></trkpt><trkpt lat="55.9545907" lon="49.3328845"><time>2023-06-17T08:17:00.237</time></trkpt><trkpt lat="55.9546163" lon="49.3329570"><time>2023-06-17T08:17:06.213</time></trkpt><trkpt lat="55.9546651" lon="49.3329871"><time>2023-06-17T08:17:10.207</time></trkpt><trkpt lat="55.9547156" lon="49.3329967"><time>2023-06-17T08:17:14.220</time></trkpt><trkpt lat="55.9547600" lon="49.3330472"><time>2023-06-17T08:17:20.220</time></trkpt><trkpt lat="55.9547957" lon="49.3331059"><time>2023-06-17T08:17:26.207</time></trkpt><trkpt lat="55.9548321" lon="49.3331642"><time>2023-06-17T08:17:33.220</time></trkpt><trkpt lat="55.9548492" lon="49.3332528"><time>2023-06-17T08:17:38.223</time></trkpt><trkpt lat="55.9548822" lon="49.3333116"><time>2023-06-17T08:17:44.207</time></trkpt><trkpt lat="55.9549279" lon="49.3333618"><time>2023-06-17T08:17:49.210</time></trkpt><trkpt lat="55.9549630" lon="49.3334340"><time>2023-06-17T08:17:53.210</time></trkpt><trkpt lat="55.9550013" lon="49.3334900"><time>2023-06-17T08:17:59.217</time></trkpt><trkpt lat="55.9550512" lon="49.3334585"><time>2023-06-17T08:18:06.210</time></trkpt><trkpt lat="55.9550940" lon="49.3334086"><time>2023-06-17T08:18:12.223</time></trkpt><trkpt lat="55.9551258" lon="49.3333432"><time>2023-06-17T08:18:16.233</time></trkpt><trkpt lat="55.9551483" lon="49.3332648"><time>2023-06-17T08:18:21.223</time></trkpt><trkpt lat="55.9551600" lon="49.3331732"><time>2023-06-17T08:18:27.207</time></trkpt><trkpt lat="55.9552045" lon="49.3331486"><time>2023-06-17T08:18:33.220</time></trkpt><trkpt lat="55.9552522" lon="49.3331815"><time>2023-06-17T08:18:38.213</time></trkpt><trkpt lat="55.9552974" lon="49.3332406"><time>2023-06-17T08:18:42.217</time></trkpt><trkpt lat="55.9553461" lon="49.3332824"><time>2023-06-17T08:18:45.230</time></trkpt><trkpt lat="55.9554042" lon="49.3333174"><time>2023-06-17T08:18:48.217</time></trkpt><trkpt lat="55.9554468" lon="49.3333537"><time>2023-06-17T08:18:51.213</time></trkpt><trkpt lat="55.9554886" lon="49.3333933"><time>2023-06-17T08:18:54.237</time></trkpt><trkpt lat="55.9555288" lon="49.3334370"><time>2023-06-17T08:18:57.230</time></trkpt><trkpt lat="55.9555581" lon="49.3335146"><time>2023-06-17T08:19:05.223</time></trkpt><trkpt lat="55.9555957" lon="49.3335783"><time>2023-06-17T08:19:09.220</time></trkpt><trkpt lat="55.9556198" lon="49.3336674"><time>2023-06-17T08:19:13.220</time></trkpt><trkpt lat="55.9556733" lon="49.3336990"><time>2023-06-17T08:19:17.247</time></trkpt><trkpt lat="55.9557031" lon="49.3337661"><time>2023-06-17T08:19:20.217</time></trkpt><trkpt lat="55.9557321" lon="49.3338329"><time>2023-06-17T08:19:24.230</time></trkpt><trkpt lat="55.9557703" lon="49.3338932"><time>2023-06-17T08:19:48.220</time></trkpt><trkpt lat="55.9558054" lon="49.3339615"><time>2023-06-17T08:19:52.223</time></trkpt><trkpt lat="55.9558486" lon="49.3340127"><time>2023-06-17T08:19:56.223</time></trkpt><trkpt lat="55.9558994" lon="49.3340209"><time>2023-06-17T08:19:59.227</time></trkpt><trkpt lat="55.9559591" lon="49.3340541"><time>2023-06-17T08:20:02.227</time></trkpt><trkpt lat="55.9560181" lon="49.3340773"><time>2023-06-17T08:20:05.227</time></trkpt><trkpt lat="55.9560755" lon="49.3341012"><time>2023-06-17T08:20:08.220</time></trkpt><trkpt lat="55.9561301" lon="49.3341355"><time>2023-06-17T08:20:11.223</time></trkpt><trkpt lat="55.9561746" lon="49.3342172"><time>2023-06-17T08:20:14.223</time></trkpt><trkpt lat="55.9562204" lon="49.3342587"><time>2023-06-17T08:20:16.223</time></trkpt><trkpt lat="55.9562608" lon="49.3342950"><time>2023-06-17T08:20:18.223</time></trkpt><trkpt lat="55.9563043" lon="49.3343274"><time>2023-06-17T08:20:20.240</time></trkpt><trkpt lat="55.9563626" lon="49.3343534"><time>2023-06-17T08:20:23.227</time></trkpt><trkpt lat="55.9563889" lon="49.3342779"><time>2023-06-17T08:20:40.227</time></trkpt><trkpt lat="55.9563993" lon="49.3341752"><time>2023-06-17T08:20:44.223</time></trkpt><trkpt lat="55.9563969" lon="49.3340730"><time>2023-06-17T08:20:48.197</time></trkpt><trkpt lat="55.9563927" lon="49.3339787"><time>2023-06-17T08:20:52.217</time></trkpt><trkpt lat="55.9563938" lon="49.3338981"><time>2023-06-17T08:20:56.223</time></trkpt><trkpt lat="55.9564045" lon="49.3338166"><time>2023-06-17T08:20:59.230</time></trkpt><trkpt lat="55.9564267" lon="49.3337370"><time>2023-06-17T08:21:02.213</time></trkpt><trkpt lat="55.9564327" lon="49.3336535"><time>2023-06-17T08:21:05.223</time></trkpt><trkpt lat="55.9564395" lon="49.3335638"><time>2023-06-17T08:21:08.230</time></trkpt><trkpt lat="55.9564469" lon="49.3334762"><time>2023-06-17T08:21:11.223</time></trkpt><trkpt lat="55.9564392" lon="49.3333958"><time>2023-06-17T08:21:14.227</time></trkpt><trkpt lat="55.9564495" lon="49.3332974"><time>2023-06-17T08:21:18.223</time></trkpt><trkpt lat="55.9564543" lon="49.3332162"><time>2023-06-17T08:21:21.220</time></trkpt><trkpt lat="55.9564513" lon="49.3331248"><time>2023-06-17T08:21:25.227</time></trkpt><trkpt lat="55.9564129" lon="49.3331873"><time>2023-06-17T08:21:42.223</time></trkpt><trkpt lat="55.9563579" lon="49.3331880"><time>2023-06-17T08:21:47.210</time></trkpt><trkpt lat="55.9563133" lon="49.3331484"><time>2023-06-17T08:21:51.213</time></trkpt><trkpt lat="55.9562636" lon="49.3331001"><time>2023-06-17T08:21:56.227</time></trkpt><trkpt lat="55.9562155" lon="49.3330582"><time>2023-06-17T08:22:01.233</time></trkpt><trkpt lat="55.9561651" lon="49.3330220"><time>2023-06-17T08:22:06.217</time></trkpt><trkpt lat="55.9561666" lon="49.3329842"><time>2023-06-17T08:22:12.823</time></trkpt><trkpt lat="55.9561996" lon="49.3330837"><time>2023-06-17T08:22:23.230</time></trkpt><trkpt lat="55.9562469" lon="49.3330830"><time>2023-06-17T08:22:27.233</time></trkpt><trkpt lat="55.9562924" lon="49.3331031"><time>2023-06-17T08:22:32.227</time></trkpt><trkpt lat="55.9563372" lon="49.3331598"><time>2023-06-17T08:22:37.220</time></trkpt><trkpt lat="55.9563900" lon="49.3331775"><time>2023-06-17T08:22:42.220</time></trkpt><trkpt lat="55.9564376" lon="49.3331137"><time>2023-06-17T08:22:45.223</time></trkpt><trkpt lat="55.9564838" lon="49.3331550"><time>2023-06-17T08:22:51.223</time></trkpt><trkpt lat="55.9564750" lon="49.3332338"><time>2023-06-17T08:22:54.220</time></trkpt><trkpt lat="55.9564653" lon="49.3333276"><time>2023-06-17T08:22:58.223</time></trkpt><trkpt lat="55.9564581" lon="49.3334173"><time>2023-06-17T08:23:01.210</time></trkpt><trkpt lat="55.9564481" lon="49.3334955"><time>2023-06-17T08:23:04.230</time></trkpt><trkpt lat="55.9564464" lon="49.3335960"><time>2023-06-17T08:23:08.223</time></trkpt><trkpt lat="55.9564223" lon="49.3336908"><time>2023-06-17T08:23:12.230</time></trkpt><trkpt lat="55.9564032" lon="49.3337914"><time>2023-06-17T08:23:16.217</time></trkpt><trkpt lat="55.9563893" lon="49.3338734"><time>2023-06-17T08:23:19.220</time></trkpt><trkpt lat="55.9563799" lon="49.3339559"><time>2023-06-17T08:23:22.230</time></trkpt><trkpt lat="55.9563883" lon="49.3340582"><time>2023-06-17T08:23:26.233</time></trkpt><trkpt lat="55.9564048" lon="49.3341499"><time>2023-06-17T08:23:30.223</time></trkpt><trkpt lat="55.9563996" lon="49.3342413"><time>2023-06-17T08:23:34.233</time></trkpt><trkpt lat="55.9564052" lon="49.3343238"><time>2023-06-17T08:23:37.253</time></trkpt><trkpt lat="55.9563711" lon="49.3344108"><time>2023-06-17T08:23:41.230</time></trkpt><trkpt lat="55.9563444" lon="49.3344863"><time>2023-06-17T08:23:44.233</time></trkpt><trkpt lat="55.9563216" lon="49.3345873"><time>2023-06-17T08:23:47.237</time></trkpt><trkpt lat="55.9563065" lon="49.3347059"><time>2023-06-17T08:23:50.227</time></trkpt><trkpt lat="55.9562906" lon="49.3348207"><time>2023-06-17T08:23:53.230</time></trkpt><trkpt lat="55.9562489" lon="49.3348843"><time>2023-06-17T08:23:55.220</time></trkpt><trkpt lat="55.9562211" lon="49.3349883"><time>2023-06-17T08:23:58.217</time></trkpt><trkpt lat="55.9561937" lon="49.3350846"><time>2023-06-17T08:24:01.213</time></trkpt><trkpt lat="55.9561722" lon="49.3351860"><time>2023-06-17T08:24:04.220</time></trkpt><trkpt lat="55.9561712" lon="49.3352844"><time>2023-06-17T08:24:07.217</time></trkpt><trkpt lat="55.9561606" lon="49.3353902"><time>2023-06-17T08:24:12.220</time></trkpt><trkpt lat="55.9561836" lon="49.3354640"><time>2023-06-17T08:24:16.227</time></trkpt><trkpt lat="55.9562003" lon="49.3355466"><time>2023-06-17T08:24:20.223</time></trkpt><trkpt lat="55.9561846" lon="49.3356460"><time>2023-06-17T08:24:23.267</time></trkpt><trkpt lat="55.9561649" lon="49.3357338"><time>2023-06-17T08:24:27.327</time></trkpt><trkpt lat="55.9561527" lon="49.3358155"><time>2023-06-17T08:24:31.227</time></trkpt><trkpt lat="55.9561877" lon="49.3358660"><time>2023-06-17T08:24:35.220</time></trkpt><trkpt lat="55.9562049" lon="49.3359622"><time>2023-06-17T08:24:39.217</time></trkpt><trkpt lat="55.9562046" lon="49.3360505"><time>2023-06-17T08:24:42.230</time></trkpt><trkpt lat="55.9562255" lon="49.3361213"><time>2023-06-17T08:25:00.220</time></trkpt><trkpt lat="55.9562469" lon="49.3362018"><time>2023-06-17T08:26:04.227</time></trkpt><trkpt lat="55.9562554" lon="49.3362858"><time>2023-06-17T08:26:09.217</time></trkpt><trkpt lat="55.9562671" lon="49.3363784"><time>2023-06-17T08:26:15.227</time></trkpt><trkpt lat="55.9563020" lon="49.3364477"><time>2023-06-17T08:26:19.217</time></trkpt><trkpt lat="55.9563351" lon="49.3365182"><time>2023-06-17T08:26:22.223</time></trkpt><trkpt lat="55.9563541" lon="49.3366116"><time>2023-06-17T08:26:25.220</time></trkpt><trkpt lat="55.9563547" lon="49.3367203"><time>2023-06-17T08:26:27.220</time></trkpt><trkpt lat="55.9563426" lon="49.3368404"><time>2023-06-17T08:26:30.243</time></trkpt><trkpt lat="55.9563271" lon="49.3369212"><time>2023-06-17T08:26:32.227</time></trkpt><trkpt lat="55.9563146" lon="49.3370303"><time>2023-06-17T08:26:35.213</time></trkpt><trkpt lat="55.9563013" lon="49.3371147"><time>2023-06-17T08:26:37.220</time></trkpt><trkpt lat="55.9562807" lon="49.3372296"><time>2023-06-17T08:26:40.223</time></trkpt><trkpt lat="55.9562639" lon="49.3373365"><time>2023-06-17T08:26:43.217</time></trkpt><trkpt lat="55.9562341" lon="49.3374405"><time>2023-06-17T08:26:46.213</time></trkpt><trkpt lat="55.9562012" lon="49.3375291"><time>2023-06-17T08:26:49.227</time></trkpt><trkpt lat="55.9561835" lon="49.3376133"><time>2023-06-17T08:26:52.223</time></trkpt><trkpt lat="55.9561614" lon="49.3376915"><time>2023-06-17T08:26:55.223</time></trkpt><trkpt lat="55.9562151" lon="49.3377836"><time>2023-06-17T08:26:58.220</time></trkpt><trkpt lat="55.9562399" lon="49.3378580"><time>2023-06-17T08:27:00.217</time></trkpt><trkpt lat="55.9562239" lon="49.3379590"><time>2023-06-17T08:27:03.220</time></trkpt><trkpt lat="55.9562088" lon="49.3380664"><time>2023-06-17T08:27:06.217</time></trkpt><trkpt lat="55.9562122" lon="49.3381535"><time>2023-06-17T08:27:09.210</time></trkpt><trkpt lat="55.9561952" lon="49.3382486"><time>2023-06-17T08:27:12.220</time></trkpt><trkpt lat="55.9561944" lon="49.3383301"><time>2023-06-17T08:27:16.217</time></trkpt><trkpt lat="55.9562028" lon="49.3384193"><time>2023-06-17T08:27:20.227</time></trkpt><trkpt lat="55.9562008" lon="49.3385037"><time>2023-06-17T08:27:24.227</time></trkpt><trkpt lat="55.9561971" lon="49.3385962"><time>2023-06-17T08:27:29.230</time></trkpt><trkpt lat="55.9562219" lon="49.3386742"><time>2023-06-17T08:27:40.227</time></trkpt><trkpt lat="55.9562310" lon="49.3387636"><time>2023-06-17T08:27:45.223</time></trkpt><trkpt lat="55.9562245" lon="49.3388527"><time>2023-06-17T08:27:49.223</time></trkpt><trkpt lat="55.9562169" lon="49.3389388"><time>2023-06-17T08:27:52.217</time></trkpt><trkpt lat="55.9562227" lon="49.3390358"><time>2023-06-17T08:27:56.220</time></trkpt><trkpt lat="55.9562326" lon="49.3391312"><time>2023-06-17T08:27:59.217</time></trkpt><trkpt lat="55.9562483" lon="49.3392179"><time>2023-06-17T08:28:03.223</time></trkpt><trkpt lat="55.9562713" lon="49.3393052"><time>2023-06-17T08:28:08.220</time></trkpt><trkpt lat="55.9562858" lon="49.3393875"><time>2023-06-17T08:28:12.223</time></trkpt><trkpt lat="55.9563100" lon="49.3394838"><time>2023-06-17T08:28:16.213</time></trkpt><trkpt lat="55.9563170" lon="49.3395666"><time>2023-06-17T08:28:18.223</time></trkpt><trkpt lat="55.9563120" lon="49.3396718"><time>2023-06-17T08:28:21.220</time></trkpt><trkpt lat="55.9562942" lon="49.3397716"><time>2023-06-17T08:28:24.223</time></trkpt><trkpt lat="55.9562717" lon="49.3398489"><time>2023-06-17T08:28:27.220</time></trkpt><trkpt lat="55.9562282" lon="49.3399107"><time>2023-06-17T08:28:30.217</time></trkpt><trkpt lat="55.9562015" lon="49.3399755"><time>2023-06-17T08:28:32.210</time></trkpt><trkpt lat="55.9561963" lon="49.3400554"><time>2023-06-17T08:28:34.220</time></trkpt><trkpt lat="55.9561959" lon="49.3401594"><time>2023-06-17T08:28:37.227</time></trkpt><trkpt lat="55.9562043" lon="49.3402548"><time>2023-06-17T08:28:40.223</time></trkpt><trkpt lat="55.9562213" lon="49.3403414"><time>2023-06-17T08:28:43.237</time></trkpt><trkpt lat="55.9562065" lon="49.3404314"><time>2023-06-17T08:28:47.217</time></trkpt><trkpt lat="55.9561756" lon="49.3404946"><time>2023-06-17T08:28:50.240</time></trkpt><trkpt lat="55.9561686" lon="49.3405902"><time>2023-06-17T08:28:54.267</time></trkpt><trkpt lat="55.9561975" lon="49.3406547"><time>2023-06-17T08:28:58.270</time></trkpt><trkpt lat="55.9561890" lon="49.3407398"><time>2023-06-17T08:29:03.330</time></trkpt><trkpt lat="55.9561948" lon="49.3408219"><time>2023-06-17T08:29:07.223</time></trkpt><trkpt lat="55.9561685" lon="49.3408981"><time>2023-06-17T08:29:10.203</time></trkpt><trkpt lat="55.9561455" lon="49.3409710"><time>2023-06-17T08:29:12.217</time></trkpt><trkpt lat="55.9560994" lon="49.3410314"><time>2023-06-17T08:29:15.213</time></trkpt><trkpt lat="55.9560775" lon="49.3411118"><time>2023-06-17T08:29:19.223</time></trkpt><trkpt lat="55.9560691" lon="49.3411999"><time>2023-06-17T08:29:23.213</time></trkpt><trkpt lat="55.9560587" lon="49.3412951"><time>2023-06-17T08:29:27.233</time></trkpt><trkpt lat="55.9560299" lon="49.3413696"><time>2023-06-17T08:29:32.223</time></trkpt><trkpt lat="55.9560102" lon="49.3414577"><time>2023-06-17T08:29:36.293</time></trkpt><trkpt lat="55.9559886" lon="49.3415306"><time>2023-06-17T08:29:39.240</time></trkpt><trkpt lat="55.9559359" lon="49.3415524"><time>2023-06-17T08:29:45.253</time></trkpt><trkpt lat="55.9558849" lon="49.3415336"><time>2023-06-17T08:29:49.253</time></trkpt><trkpt lat="55.9558282" lon="49.3415744"><time>2023-06-17T08:29:52.210</time></trkpt><trkpt lat="55.9557877" lon="49.3416144"><time>2023-06-17T08:29:54.260</time></trkpt><trkpt lat="55.9557470" lon="49.3417046"><time>2023-06-17T08:29:57.287</time></trkpt><trkpt lat="55.9557117" lon="49.3418036"><time>2023-06-17T08:30:00.257</time></trkpt><trkpt lat="55.9556962" lon="49.3419131"><time>2023-06-17T08:30:03.220</time></trkpt><trkpt lat="55.9557083" lon="49.3420162"><time>2023-06-17T08:30:06.227</time></trkpt><trkpt lat="55.9557421" lon="49.3421030"><time>2023-06-17T08:30:09.217</time></trkpt><trkpt lat="55.9557530" lon="49.3421868"><time>2023-06-17T08:30:11.220</time></trkpt><trkpt lat="55.9557415" lon="49.3422779"><time>2023-06-17T08:30:13.213</time></trkpt><trkpt lat="55.9557152" lon="49.3423626"><time>2023-06-17T08:30:16.217</time></trkpt><trkpt lat="55.9556812" lon="49.3424196"><time>2023-06-17T08:30:20.227</time></trkpt><trkpt lat="55.9556170" lon="49.3424560"><time>2023-06-17T08:30:23.213</time></trkpt><trkpt lat="55.9555593" lon="49.3424865"><time>2023-06-17T08:30:26.257</time></trkpt><trkpt lat="55.9555097" lon="49.3424846"><time>2023-06-17T08:30:29.237</time></trkpt><trkpt lat="55.9554491" lon="49.3424867"><time>2023-06-17T08:30:31.237</time></trkpt><trkpt lat="55.9554002" lon="49.3424787"><time>2023-06-17T08:30:34.310</time></trkpt><trkpt lat="55.9553474" lon="49.3424734"><time>2023-06-17T08:30:38.313</time></trkpt><trkpt lat="55.9552975" lon="49.3424695"><time>2023-06-17T08:30:42.223</time></trkpt><trkpt lat="55.9552481" lon="49.3424608"><time>2023-06-17T08:30:46.223</time></trkpt><trkpt lat="55.9551935" lon="49.3424977"><time>2023-06-17T08:30:51.220</time></trkpt><trkpt lat="55.9551544" lon="49.3425616"><time>2023-06-17T08:30:57.293</time></trkpt><trkpt lat="55.9551325" lon="49.3426452"><time>2023-06-17T08:31:18.230</time></trkpt><trkpt lat="55.9551055" lon="49.3427303"><time>2023-06-17T08:31:22.220</time></trkpt><trkpt lat="55.9550924" lon="49.3428281"><time>2023-06-17T08:31:26.227</time></trkpt><trkpt lat="55.9550545" lon="49.3428956"><time>2023-06-17T08:31:30.223</time></trkpt><trkpt lat="55.9550293" lon="49.3429657"><time>2023-06-17T08:31:34.223</time></trkpt><trkpt lat="55.9550159" lon="49.3430472"><time>2023-06-17T08:31:37.217</time></trkpt><trkpt lat="55.9549927" lon="49.3431304"><time>2023-06-17T08:31:40.220</time></trkpt><trkpt lat="55.9549703" lon="49.3432035"><time>2023-06-17T08:31:42.223</time></trkpt><trkpt lat="55.9549509" lon="49.3432851"><time>2023-06-17T08:31:44.217</time></trkpt><trkpt lat="55.9549409" lon="49.3433677"><time>2023-06-17T08:31:46.210</time></trkpt><trkpt lat="55.9549326" lon="49.3434481"><time>2023-06-17T08:31:48.217</time></trkpt><trkpt lat="55.9549227" lon="49.3435338"><time>2023-06-17T08:31:50.227</time></trkpt><trkpt lat="55.9549153" lon="49.3436221"><time>2023-06-17T08:31:52.217</time></trkpt><trkpt lat="55.9549114" lon="49.3437059"><time>2023-06-17T08:31:54.220</time></trkpt><trkpt lat="55.9549224" lon="49.3437949"><time>2023-06-17T08:31:56.283</time></trkpt><trkpt lat="55.9549425" lon="49.3438685"><time>2023-06-17T08:31:58.220</time></trkpt><trkpt lat="55.9549592" lon="49.3439455"><time>2023-06-17T08:32:00.220</time></trkpt><trkpt lat="55.9549687" lon="49.3440250"><time>2023-06-17T08:32:02.223</time></trkpt><trkpt lat="55.9549813" lon="49.3441040"><time>2023-06-17T08:32:04.217</time></trkpt><trkpt lat="55.9549963" lon="49.3441883"><time>2023-06-17T08:32:06.217</time></trkpt><trkpt lat="55.9550104" lon="49.3442694"><time>2023-06-17T08:32:08.217</time></trkpt><trkpt lat="55.9550163" lon="49.3443555"><time>2023-06-17T08:32:10.220</time></trkpt><trkpt lat="55.9550235" lon="49.3444415"><time>2023-06-17T08:32:12.217</time></trkpt><trkpt lat="55.9550279" lon="49.3445546"><time>2023-06-17T08:32:15.217</time></trkpt><trkpt lat="55.9550401" lon="49.3446377"><time>2023-06-17T08:32:18.223</time></trkpt><trkpt lat="55.9550292" lon="49.3447219"><time>2023-06-17T08:32:23.227</time></trkpt><trkpt lat="55.9550242" lon="49.3448040"><time>2023-06-17T08:32:28.217</time></trkpt><trkpt lat="55.9550088" lon="49.3449002"><time>2023-06-17T08:32:32.227</time></trkpt><trkpt lat="55.9549876" lon="49.3449815"><time>2023-06-17T08:32:35.217</time></trkpt><trkpt lat="55.9549821" lon="49.3450651"><time>2023-06-17T08:32:38.223</time></trkpt><trkpt lat="55.9549638" lon="49.3451467"><time>2023-06-17T08:32:41.220</time></trkpt><trkpt lat="55.9549532" lon="49.3452333"><time>2023-06-17T08:32:44.227</time></trkpt><trkpt lat="55.9549437" lon="49.3453258"><time>2023-06-17T08:32:47.213</time></trkpt><trkpt lat="55.9549166" lon="49.3453960"><time>2023-06-17T08:32:50.213</time></trkpt><trkpt lat="55.9548805" lon="49.3454555"><time>2023-06-17T08:32:53.227</time></trkpt><trkpt lat="55.9548311" lon="49.3454622"><time>2023-06-17T08:32:58.210</time></trkpt><trkpt lat="55.9547800" lon="49.3454510"><time>2023-06-17T08:33:09.230</time></trkpt><trkpt lat="55.9547344" lon="49.3454174"><time>2023-06-17T08:33:13.230</time></trkpt><trkpt lat="55.9546871" lon="49.3453960"><time>2023-06-17T08:33:16.270</time></trkpt><trkpt lat="55.9546253" lon="49.3453544"><time>2023-06-17T08:33:19.260</time></trkpt><trkpt lat="55.9545833" lon="49.3453170"><time>2023-06-17T08:33:21.227</time></trkpt><trkpt lat="55.9545376" lon="49.3452352"><time>2023-06-17T08:33:24.293</time></trkpt><trkpt lat="55.9544898" lon="49.3451535"><time>2023-06-17T08:33:27.257</time></trkpt><trkpt lat="55.9544438" lon="49.3450714"><time>2023-06-17T08:33:30.263</time></trkpt><trkpt lat="55.9544034" lon="49.3449946"><time>2023-06-17T08:33:33.223</time></trkpt><trkpt lat="55.9543549" lon="49.3449197"><time>2023-06-17T08:33:36.313</time></trkpt><trkpt lat="55.9543175" lon="49.3448742"><time>2023-06-17T08:33:39.237</time></trkpt><trkpt lat="55.9542754" lon="49.3448274"><time>2023-06-17T08:33:40.297</time></trkpt><trkpt lat="55.9542354" lon="49.3447848"><time>2023-06-17T08:33:42.207</time></trkpt><trkpt lat="55.9541990" lon="49.3447347"><time>2023-06-17T08:33:44.220</time></trkpt><trkpt lat="55.9541495" lon="49.3446518"><time>2023-06-17T08:33:47.267</time></trkpt><trkpt lat="55.9541076" lon="49.3446020"><time>2023-06-17T08:33:49.247</time></trkpt><trkpt lat="55.9540532" lon="49.3445635"><time>2023-06-17T08:33:51.233</time></trkpt><trkpt lat="55.9539988" lon="49.3445529"><time>2023-06-17T08:33:53.217</time></trkpt><trkpt lat="55.9539411" lon="49.3445366"><time>2023-06-17T08:33:55.297</time></trkpt><trkpt lat="55.9538878" lon="49.3445165"><time>2023-06-17T08:33:57.257</time></trkpt><trkpt lat="55.9538406" lon="49.3444871"><time>2023-06-17T08:33:59.260</time></trkpt><trkpt lat="55.9537947" lon="49.3444683"><time>2023-06-17T08:34:01.233</time></trkpt><trkpt lat="55.9537427" lon="49.3444574"><time>2023-06-17T08:34:03.217</time></trkpt><trkpt lat="55.9536946" lon="49.3444470"><time>2023-06-17T08:34:05.213</time></trkpt><trkpt lat="55.9536332" lon="49.3444037"><time>2023-06-17T08:34:08.253</time></trkpt><trkpt lat="55.9535681" lon="49.3443762"><time>2023-06-17T08:34:11.200</time></trkpt><trkpt lat="55.9535220" lon="49.3443510"><time>2023-06-17T08:34:13.227</time></trkpt><trkpt lat="55.9534782" lon="49.3443330"><time>2023-06-17T08:34:15.260</time></trkpt><trkpt lat="55.9534126" lon="49.3443270"><time>2023-06-17T08:34:18.253</time></trkpt><trkpt lat="55.9533640" lon="49.3443509"><time>2023-06-17T08:34:20.250</time></trkpt><trkpt lat="55.9533096" lon="49.3443632"><time>2023-06-17T08:34:22.217</time></trkpt><trkpt lat="55.9532596" lon="49.3443607"><time>2023-06-17T08:34:24.257</time></trkpt><trkpt lat="55.9532100" lon="49.3443408"><time>2023-06-17T08:34:26.267</time></trkpt><trkpt lat="55.9531680" lon="49.3443056"><time>2023-06-17T08:34:28.263</time></trkpt><trkpt lat="55.9531123" lon="49.3442517"><time>2023-06-17T08:34:31.217</time></trkpt><trkpt lat="55.9530490" lon="49.3442105"><time>2023-06-17T08:34:34.220</time></trkpt><trkpt lat="55.9530025" lon="49.3441807"><time>2023-06-17T08:34:36.247</time></trkpt><trkpt lat="55.9529604" lon="49.3441370"><time>2023-06-17T08:34:38.217</time></trkpt><trkpt lat="55.9529163" lon="49.3440977"><time>2023-06-17T08:34:40.260</time></trkpt><trkpt lat="55.9528684" lon="49.3440716"><time>2023-06-17T08:34:42.233</time></trkpt><trkpt lat="55.9528212" lon="49.3440543"><time>2023-06-17T08:34:44.263</time></trkpt><trkpt lat="55.9527763" lon="49.3440314"><time>2023-06-17T08:34:46.253</time></trkpt><trkpt lat="55.9527288" lon="49.3440180"><time>2023-06-17T08:34:48.253</time></trkpt><trkpt lat="55.9526802" lon="49.3440164"><time>2023-06-17T08:34:50.303</time></trkpt><trkpt lat="55.9526332" lon="49.3440121"><time>2023-06-17T08:34:52.217</time></trkpt><trkpt lat="55.9525860" lon="49.3440144"><time>2023-06-17T08:34:54.257</time></trkpt><trkpt lat="55.9525345" lon="49.3440276"><time>2023-06-17T08:34:56.263</time></trkpt><trkpt lat="55.9524830" lon="49.3440435"><time>2023-06-17T08:34:58.230</time></trkpt><trkpt lat="55.9524324" lon="49.3440770"><time>2023-06-17T08:35:00.207</time></trkpt><trkpt lat="55.9523793" lon="49.3440400"><time>2023-06-17T08:35:02.253</time></trkpt><trkpt lat="55.9523279" lon="49.3440173"><time>2023-06-17T08:35:04.257</time></trkpt><trkpt lat="55.9522720" lon="49.3439931"><time>2023-06-17T08:35:06.307</time></trkpt><trkpt lat="55.9522225" lon="49.3439646"><time>2023-06-17T08:35:08.293</time></trkpt><trkpt lat="55.9521737" lon="49.3439424"><time>2023-06-17T08:35:10.450</time></trkpt><trkpt lat="55.9521250" lon="49.3439296"><time>2023-06-17T08:35:12.230</time></trkpt><trkpt lat="55.9520816" lon="49.3438985"><time>2023-06-17T08:35:14.640</time></trkpt><trkpt lat="55.9520321" lon="49.3438757"><time>2023-06-17T08:35:16.263</time></trkpt><trkpt lat="55.9519814" lon="49.3438466"><time>2023-06-17T08:35:18.267</time></trkpt><trkpt lat="55.9519197" lon="49.3438044"><time>2023-06-17T08:35:20.233</time></trkpt><trkpt lat="55.9518654" lon="49.3437801"><time>2023-06-17T08:35:22.220</time></trkpt><trkpt lat="55.9518220" lon="49.3437551"><time>2023-06-17T08:35:24.277</time></trkpt><trkpt lat="55.9517666" lon="49.3437245"><time>2023-06-17T08:35:26.300</time></trkpt><trkpt lat="55.9517060" lon="49.3436931"><time>2023-06-17T08:35:28.253</time></trkpt><trkpt lat="55.9516446" lon="49.3436515"><time>2023-06-17T08:35:31.223</time></trkpt><trkpt lat="55.9515973" lon="49.3436214"><time>2023-06-17T08:35:33.213</time></trkpt><trkpt lat="55.9515511" lon="49.3435889"><time>2023-06-17T08:35:35.217</time></trkpt><trkpt lat="55.9515005" lon="49.3435566"><time>2023-06-17T08:35:37.220</time></trkpt><trkpt lat="55.9514521" lon="49.3435267"><time>2023-06-17T08:35:39.217</time></trkpt><trkpt lat="55.9514014" lon="49.3435114"><time>2023-06-17T08:35:41.217</time></trkpt><trkpt lat="55.9513485" lon="49.3435103"><time>2023-06-17T08:35:44.223</time></trkpt><trkpt lat="55.9513202" lon="49.3435770"><time>2023-06-17T08:36:08.233</time></trkpt><trkpt lat="55.9513057" lon="49.3436562"><time>2023-06-17T08:36:11.213</time></trkpt><trkpt lat="55.9512764" lon="49.3437365"><time>2023-06-17T08:36:15.230</time></trkpt><trkpt lat="55.9512473" lon="49.3438106"><time>2023-06-17T08:36:19.223</time></trkpt><trkpt lat="55.9512226" lon="49.3438987"><time>2023-06-17T08:36:22.217</time></trkpt><trkpt lat="55.9511801" lon="49.3439889"><time>2023-06-17T08:36:25.220</time></trkpt><trkpt lat="55.9511386" lon="49.3440435"><time>2023-06-17T08:36:27.227</time></trkpt><trkpt lat="55.9510996" lon="49.3440979"><time>2023-06-17T08:36:29.217</time></trkpt><trkpt lat="55.9510635" lon="49.3441626"><time>2023-06-17T08:36:31.217</time></trkpt><trkpt lat="55.9510371" lon="49.3442397"><time>2023-06-17T08:36:33.227</time></trkpt><trkpt lat="55.9510054" lon="49.3443216"><time>2023-06-17T08:36:35.220</time></trkpt><trkpt lat="55.9509715" lon="49.3443914"><time>2023-06-17T08:36:37.217</time></trkpt><trkpt lat="55.9509403" lon="49.3444504"><time>2023-06-17T08:36:39.227</time></trkpt><trkpt lat="55.9509068" lon="49.3445189"><time>2023-06-17T08:36:41.227</time></trkpt><trkpt lat="55.9508646" lon="49.3445890"><time>2023-06-17T08:36:43.217</time></trkpt><trkpt lat="55.9508299" lon="49.3446582"><time>2023-06-17T08:36:45.220</time></trkpt><trkpt lat="55.9507904" lon="49.3447111"><time>2023-06-17T08:36:47.217</time></trkpt><trkpt lat="55.9507444" lon="49.3448036"><time>2023-06-17T08:36:50.213</time></trkpt><trkpt lat="55.9507153" lon="49.3448753"><time>2023-06-17T08:36:52.207</time></trkpt><trkpt lat="55.9506874" lon="49.3449517"><time>2023-06-17T08:36:54.220</time></trkpt><trkpt lat="55.9506520" lon="49.3450357"><time>2023-06-17T08:36:56.213</time></trkpt><trkpt lat="55.9506136" lon="49.3451097"><time>2023-06-17T08:36:58.220</time></trkpt><trkpt lat="55.9505770" lon="49.3451858"><time>2023-06-17T08:37:00.213</time></trkpt><trkpt lat="55.9505410" lon="49.3452535"><time>2023-06-17T08:37:02.210</time></trkpt><trkpt lat="55.9505064" lon="49.3453187"><time>2023-06-17T08:37:04.227</time></trkpt><trkpt lat="55.9504774" lon="49.3453836"><time>2023-06-17T08:37:06.227</time></trkpt><trkpt lat="55.9504511" lon="49.3454514"><time>2023-06-17T08:37:08.207</time></trkpt><trkpt lat="55.9504194" lon="49.3455227"><time>2023-06-17T08:37:10.217</time></trkpt><trkpt lat="55.9503887" lon="49.3455880"><time>2023-06-17T08:37:12.217</time></trkpt><trkpt lat="55.9503576" lon="49.3456563"><time>2023-06-17T08:37:14.217</time></trkpt><trkpt lat="55.9503244" lon="49.3457215"><time>2023-06-17T08:37:16.217</time></trkpt><trkpt lat="55.9502828" lon="49.3458136"><time>2023-06-17T08:37:19.223</time></trkpt><trkpt lat="55.9502569" lon="49.3458829"><time>2023-06-17T08:37:21.220</time></trkpt><trkpt lat="55.9502142" lon="49.3459628"><time>2023-06-17T08:37:24.213</time></trkpt><trkpt lat="55.9501752" lon="49.3460113"><time>2023-06-17T08:37:26.223</time></trkpt><trkpt lat="55.9501409" lon="49.3460651"><time>2023-06-17T08:37:28.223</time></trkpt><trkpt lat="55.9500949" lon="49.3461583"><time>2023-06-17T08:37:31.213</time></trkpt><trkpt lat="55.9500739" lon="49.3462330"><time>2023-06-17T08:37:33.223</time></trkpt><trkpt lat="55.9500378" lon="49.3462998"><time>2023-06-17T08:37:36.210</time></trkpt><trkpt lat="55.9500021" lon="49.3463674"><time>2023-06-17T08:37:39.220</time></trkpt><trkpt lat="55.9499584" lon="49.3464351"><time>2023-06-17T08:37:42.223</time></trkpt><trkpt lat="55.9499299" lon="49.3464976"><time>2023-06-17T08:37:44.217</time></trkpt><trkpt lat="55.9499032" lon="49.3465666"><time>2023-06-17T08:37:46.223</time></trkpt><trkpt lat="55.9498735" lon="49.3466341"><time>2023-06-17T08:37:48.217</time></trkpt><trkpt lat="55.9498414" lon="49.3467085"><time>2023-06-17T08:37:50.220</time></trkpt><trkpt lat="55.9498058" lon="49.3467708"><time>2023-06-17T08:37:52.220</time></trkpt><trkpt lat="55.9497679" lon="49.3468327"><time>2023-06-17T08:37:54.210</time></trkpt><trkpt lat="55.9497357" lon="49.3468995"><time>2023-06-17T08:37:56.213</time></trkpt><trkpt lat="55.9497112" lon="49.3469725"><time>2023-06-17T08:37:58.210</time></trkpt><trkpt lat="55.9496798" lon="49.3470324"><time>2023-06-17T08:38:00.207</time></trkpt><trkpt lat="55.9496462" lon="49.3470876"><time>2023-06-17T08:38:02.217</time></trkpt><trkpt lat="55.9496069" lon="49.3471802"><time>2023-06-17T08:38:05.227</time></trkpt><trkpt lat="55.9495711" lon="49.3472792"><time>2023-06-17T08:38:08.217</time></trkpt><trkpt lat="55.9495412" lon="49.3473826"><time>2023-06-17T08:38:11.223</time></trkpt><trkpt lat="55.9495098" lon="49.3474832"><time>2023-06-17T08:38:14.217</time></trkpt><trkpt lat="55.9494746" lon="49.3475406"><time>2023-06-17T08:38:16.227</time></trkpt><trkpt lat="55.9494442" lon="49.3476018"><time>2023-06-17T08:38:18.213</time></trkpt><trkpt lat="55.9494074" lon="49.3476503"><time>2023-06-17T08:38:20.210</time></trkpt><trkpt lat="55.9493606" lon="49.3477332"><time>2023-06-17T08:38:23.203</time></trkpt><trkpt lat="55.9493330" lon="49.3478006"><time>2023-06-17T08:38:25.223</time></trkpt><trkpt lat="55.9493058" lon="49.3478705"><time>2023-06-17T08:38:27.220</time></trkpt><trkpt lat="55.9492781" lon="49.3479440"><time>2023-06-17T08:38:29.213</time></trkpt><trkpt lat="55.9492436" lon="49.3480028"><time>2023-06-17T08:38:31.223</time></trkpt><trkpt lat="55.9492199" lon="49.3480747"><time>2023-06-17T08:38:35.223</time></trkpt><trkpt lat="55.9491725" lon="49.3481369"><time>2023-06-17T08:38:45.220</time></trkpt><trkpt lat="55.9491243" lon="49.3481947"><time>2023-06-17T08:38:48.223</time></trkpt><trkpt lat="55.9490730" lon="49.3482429"><time>2023-06-17T08:38:51.217</time></trkpt><trkpt lat="55.9490272" lon="49.3483287"><time>2023-06-17T08:38:54.217</time></trkpt><trkpt lat="55.9489948" lon="49.3484031"><time>2023-06-17T08:38:56.217</time></trkpt><trkpt lat="55.9489595" lon="49.3485008"><time>2023-06-17T08:38:59.227</time></trkpt><trkpt lat="55.9489272" lon="49.3485739"><time>2023-06-17T08:39:01.217</time></trkpt><trkpt lat="55.9488958" lon="49.3486334"><time>2023-06-17T08:39:03.217</time></trkpt><trkpt lat="55.9488541" lon="49.3487017"><time>2023-06-17T08:39:05.240</time></trkpt><trkpt lat="55.9488135" lon="49.3487639"><time>2023-06-17T08:39:07.223</time></trkpt><trkpt lat="55.9487824" lon="49.3488235"><time>2023-06-17T08:39:09.213</time></trkpt><trkpt lat="55.9487537" lon="49.3488862"><time>2023-06-17T08:39:11.230</time></trkpt><trkpt lat="55.9487165" lon="49.3489779"><time>2023-06-17T08:39:14.227</time></trkpt><trkpt lat="55.9486789" lon="49.3490479"><time>2023-06-17T08:39:16.223</time></trkpt><trkpt lat="55.9486498" lon="49.3491250"><time>2023-06-17T08:39:18.217</time></trkpt><trkpt lat="55.9486274" lon="49.3492019"><time>2023-06-17T08:39:20.223</time></trkpt><trkpt lat="55.9485968" lon="49.3492671"><time>2023-06-17T08:39:22.220</time></trkpt><trkpt lat="55.9485674" lon="49.3493370"><time>2023-06-17T08:39:24.227</time></trkpt><trkpt lat="55.9485338" lon="49.3493973"><time>2023-06-17T08:39:26.223</time></trkpt><trkpt lat="55.9484911" lon="49.3494850"><time>2023-06-17T08:39:29.220</time></trkpt><trkpt lat="55.9484543" lon="49.3495472"><time>2023-06-17T08:39:31.223</time></trkpt><trkpt lat="55.9484241" lon="49.3496320"><time>2023-06-17T08:39:37.223</time></trkpt><trkpt lat="55.9484692" lon="49.3496247"><time>2023-06-17T08:39:47.217</time></trkpt><trkpt lat="55.9484946" lon="49.3495542"><time>2023-06-17T08:39:49.220</time></trkpt><trkpt lat="55.9485157" lon="49.3494765"><time>2023-06-17T08:39:51.217</time></trkpt><trkpt lat="55.9485350" lon="49.3493988"><time>2023-06-17T08:39:53.220</time></trkpt><trkpt lat="55.9485784" lon="49.3493046"><time>2023-06-17T08:39:56.220</time></trkpt><trkpt lat="55.9486142" lon="49.3492300"><time>2023-06-17T08:39:58.210</time></trkpt><trkpt lat="55.9486579" lon="49.3491681"><time>2023-06-17T08:40:01.217</time></trkpt><trkpt lat="55.9486829" lon="49.3490932"><time>2023-06-17T08:40:03.217</time></trkpt><trkpt lat="55.9487081" lon="49.3490195"><time>2023-06-17T08:40:05.227</time></trkpt><trkpt lat="55.9487296" lon="49.3489396"><time>2023-06-17T08:40:07.230</time></trkpt><trkpt lat="55.9487564" lon="49.3488513"><time>2023-06-17T08:40:09.230</time></trkpt><trkpt lat="55.9487938" lon="49.3487846"><time>2023-06-17T08:40:11.223</time></trkpt><trkpt lat="55.9488314" lon="49.3487274"><time>2023-06-17T08:40:13.220</time></trkpt><trkpt lat="55.9488751" lon="49.3486774"><time>2023-06-17T08:40:15.217</time></trkpt><trkpt lat="55.9489055" lon="49.3486105"><time>2023-06-17T08:40:17.223</time></trkpt><trkpt lat="55.9489384" lon="49.3485407"><time>2023-06-17T08:40:19.213</time></trkpt><trkpt lat="55.9489756" lon="49.3484706"><time>2023-06-17T08:40:21.220</time></trkpt><trkpt lat="55.9490087" lon="49.3483897"><time>2023-06-17T08:40:23.203</time></trkpt><trkpt lat="55.9490404" lon="49.3483067"><time>2023-06-17T08:40:25.230</time></trkpt><trkpt lat="55.9490874" lon="49.3482325"><time>2023-06-17T08:40:27.217</time></trkpt><trkpt lat="55.9491248" lon="49.3481649"><time>2023-06-17T08:40:29.223</time></trkpt><trkpt lat="55.9491746" lon="49.3480825"><time>2023-06-17T08:40:32.213</time></trkpt><trkpt lat="55.9492183" lon="49.3480228"><time>2023-06-17T08:40:35.227</time></trkpt><trkpt lat="55.9492514" lon="49.3481013"><time>2023-06-17T08:40:38.217</time></trkpt><trkpt lat="55.9492717" lon="49.3482089"><time>2023-06-17T08:40:41.227</time></trkpt><trkpt lat="55.9492976" lon="49.3483072"><time>2023-06-17T08:40:44.217</time></trkpt><trkpt lat="55.9493291" lon="49.3483967"><time>2023-06-17T08:40:47.223</time></trkpt><trkpt lat="55.9493637" lon="49.3484841"><time>2023-06-17T08:40:50.237</time></trkpt><trkpt lat="55.9494026" lon="49.3485705"><time>2023-06-17T08:40:53.223</time></trkpt><trkpt lat="55.9494336" lon="49.3486386"><time>2023-06-17T08:40:55.223</time></trkpt><trkpt lat="55.9494916" lon="49.3486945"><time>2023-06-17T08:40:58.223</time></trkpt><trkpt lat="55.9495323" lon="49.3487884"><time>2023-06-17T08:41:00.230</time></trkpt><trkpt lat="55.9495770" lon="49.3488699"><time>2023-06-17T08:41:03.230</time></trkpt><trkpt lat="55.9496165" lon="49.3489618"><time>2023-06-17T08:41:06.233</time></trkpt><trkpt lat="55.9496469" lon="49.3490218"><time>2023-06-17T08:41:08.223</time></trkpt><trkpt lat="55.9496921" lon="49.3491117"><time>2023-06-17T08:41:11.227</time></trkpt><trkpt lat="55.9497282" lon="49.3491678"><time>2023-06-17T08:41:13.203</time></trkpt><trkpt lat="55.9497710" lon="49.3492598"><time>2023-06-17T08:41:16.233</time></trkpt><trkpt lat="55.9497982" lon="49.3493362"><time>2023-06-17T08:41:19.220</time></trkpt><trkpt lat="55.9498357" lon="49.3494003"><time>2023-06-17T08:41:23.230</time></trkpt><trkpt lat="55.9498605" lon="49.3494695"><time>2023-06-17T08:41:26.237</time></trkpt><trkpt lat="55.9498668" lon="49.3495503"><time>2023-06-17T08:41:29.217</time></trkpt><trkpt lat="55.9499057" lon="49.3496338"><time>2023-06-17T08:41:32.223</time></trkpt><trkpt lat="55.9499414" lon="49.3497257"><time>2023-06-17T08:41:35.223</time></trkpt><trkpt lat="55.9499745" lon="49.3498264"><time>2023-06-17T08:41:38.217</time></trkpt><trkpt lat="55.9500139" lon="49.3499172"><time>2023-06-17T08:41:41.227</time></trkpt><trkpt lat="55.9500504" lon="49.3500120"><time>2023-06-17T08:41:44.227</time></trkpt><trkpt lat="55.9500867" lon="49.3500969"><time>2023-06-17T08:41:47.237</time></trkpt><trkpt lat="55.9501219" lon="49.3501957"><time>2023-06-17T08:41:50.237</time></trkpt><trkpt lat="55.9501402" lon="49.3502694"><time>2023-06-17T08:41:52.213</time></trkpt><trkpt lat="55.9501664" lon="49.3503451"><time>2023-06-17T08:41:54.217</time></trkpt><trkpt lat="55.9501933" lon="49.3504156"><time>2023-06-17T08:41:56.240</time></trkpt><trkpt lat="55.9502022" lon="49.3505077"><time>2023-06-17T08:41:59.217</time></trkpt><trkpt lat="55.9502427" lon="49.3505643"><time>2023-06-17T08:42:03.227</time></trkpt><trkpt lat="55.9502818" lon="49.3506511"><time>2023-06-17T08:42:07.227</time></trkpt><trkpt lat="55.9503065" lon="49.3507372"><time>2023-06-17T08:42:10.227</time></trkpt><trkpt lat="55.9503294" lon="49.3508070"><time>2023-06-17T08:42:13.220</time></trkpt><trkpt lat="55.9503573" lon="49.3508798"><time>2023-06-17T08:42:16.227</time></trkpt><trkpt lat="55.9503832" lon="49.3509619"><time>2023-06-17T08:42:19.217</time></trkpt><trkpt lat="55.9504237" lon="49.3510511"><time>2023-06-17T08:42:22.217</time></trkpt><trkpt lat="55.9504691" lon="49.3510966"><time>2023-06-17T08:42:24.217</time></trkpt><trkpt lat="55.9505077" lon="49.3511783"><time>2023-06-17T08:42:27.227</time></trkpt><trkpt lat="55.9505390" lon="49.3512363"><time>2023-06-17T08:42:30.220</time></trkpt><trkpt lat="55.9505564" lon="49.3513119"><time>2023-06-17T08:42:33.207</time></trkpt><trkpt lat="55.9505900" lon="49.3513827"><time>2023-06-17T08:42:37.217</time></trkpt><trkpt lat="55.9506163" lon="49.3514550"><time>2023-06-17T08:42:40.220</time></trkpt><trkpt lat="55.9506556" lon="49.3515630"><time>2023-06-17T08:42:43.217</time></trkpt><trkpt lat="55.9506790" lon="49.3516470"><time>2023-06-17T08:42:45.223</time></trkpt><trkpt lat="55.9506926" lon="49.3517344"><time>2023-06-17T08:42:47.227</time></trkpt><trkpt lat="55.9507081" lon="49.3518256"><time>2023-06-17T08:42:49.217</time></trkpt><trkpt lat="55.9507195" lon="49.3519104"><time>2023-06-17T08:42:51.210</time></trkpt><trkpt lat="55.9507270" lon="49.3519968"><time>2023-06-17T08:42:53.217</time></trkpt><trkpt lat="55.9507261" lon="49.3520791"><time>2023-06-17T08:42:55.230</time></trkpt><trkpt lat="55.9507259" lon="49.3521644"><time>2023-06-17T08:42:57.240</time></trkpt><trkpt lat="55.9507214" lon="49.3522823"><time>2023-06-17T08:43:00.230</time></trkpt><trkpt lat="55.9507274" lon="49.3523640"><time>2023-06-17T08:43:02.237</time></trkpt><trkpt lat="55.9507450" lon="49.3524408"><time>2023-06-17T08:43:04.223</time></trkpt><trkpt lat="55.9507768" lon="49.3525487"><time>2023-06-17T08:43:07.223</time></trkpt><trkpt lat="55.9508164" lon="49.3526427"><time>2023-06-17T08:43:10.230</time></trkpt><trkpt lat="55.9508536" lon="49.3527243"><time>2023-06-17T08:43:13.223</time></trkpt><trkpt lat="55.9508900" lon="49.3528127"><time>2023-06-17T08:43:16.233</time></trkpt><trkpt lat="55.9509289" lon="49.3529057"><time>2023-06-17T08:43:19.237</time></trkpt><trkpt lat="55.9509447" lon="49.3529819"><time>2023-06-17T08:43:21.223</time></trkpt><trkpt lat="55.9509637" lon="49.3530947"><time>2023-06-17T08:43:24.220</time></trkpt><trkpt lat="55.9509822" lon="49.3531684"><time>2023-06-17T08:43:26.233</time></trkpt><trkpt lat="55.9510036" lon="49.3532811"><time>2023-06-17T08:43:29.223</time></trkpt><trkpt lat="55.9510152" lon="49.3533618"><time>2023-06-17T08:43:31.227</time></trkpt><trkpt lat="55.9510237" lon="49.3534789"><time>2023-06-17T08:43:34.227</time></trkpt><trkpt lat="55.9510244" lon="49.3535667"><time>2023-06-17T08:43:36.223</time></trkpt><trkpt lat="55.9510255" lon="49.3536564"><time>2023-06-17T08:43:38.227</time></trkpt><trkpt lat="55.9510367" lon="49.3537367"><time>2023-06-17T08:43:40.237</time></trkpt><trkpt lat="55.9510350" lon="49.3538557"><time>2023-06-17T08:43:43.223</time></trkpt><trkpt lat="55.9510526" lon="49.3539702"><time>2023-06-17T08:43:46.227</time></trkpt><trkpt lat="55.9510912" lon="49.3540648"><time>2023-06-17T08:43:49.313</time></trkpt><trkpt lat="55.9511164" lon="49.3541381"><time>2023-06-17T08:43:51.267</time></trkpt><trkpt lat="55.9511490" lon="49.3542105"><time>2023-06-17T08:43:53.230</time></trkpt><trkpt lat="55.9511692" lon="49.3542936"><time>2023-06-17T08:43:55.223</time></trkpt><trkpt lat="55.9511820" lon="49.3543710"><time>2023-06-17T08:43:57.223</time></trkpt><trkpt lat="55.9511924" lon="49.3544825"><time>2023-06-17T08:44:00.223</time></trkpt><trkpt lat="55.9512162" lon="49.3545783"><time>2023-06-17T08:44:03.227</time></trkpt><trkpt lat="55.9512235" lon="49.3546916"><time>2023-06-17T08:44:06.237</time></trkpt><trkpt lat="55.9512301" lon="49.3548057"><time>2023-06-17T08:44:09.227</time></trkpt><trkpt lat="55.9512435" lon="49.3549172"><time>2023-06-17T08:44:12.227</time></trkpt><trkpt lat="55.9512438" lon="49.3550245"><time>2023-06-17T08:44:15.220</time></trkpt><trkpt lat="55.9512590" lon="49.3551001"><time>2023-06-17T08:44:17.220</time></trkpt><trkpt lat="55.9512659" lon="49.3551800"><time>2023-06-17T08:44:19.213</time></trkpt><trkpt lat="55.9512916" lon="49.3552735"><time>2023-06-17T08:44:22.230</time></trkpt><trkpt lat="55.9512943" lon="49.3553776"><time>2023-06-17T08:44:25.230</time></trkpt><trkpt lat="55.9513222" lon="49.3554407"><time>2023-06-17T08:44:28.227</time></trkpt><trkpt lat="55.9513337" lon="49.3555364"><time>2023-06-17T08:44:32.237</time></trkpt><trkpt lat="55.9513307" lon="49.3556163"><time>2023-06-17T08:44:36.227</time></trkpt><trkpt lat="55.9513406" lon="49.3556956"><time>2023-06-17T08:44:40.227</time></trkpt><trkpt lat="55.9513532" lon="49.3557934"><time>2023-06-17T08:44:45.227</time></trkpt><trkpt lat="55.9513484" lon="49.3558908"><time>2023-06-17T08:44:49.237</time></trkpt><trkpt lat="55.9513416" lon="49.3559952"><time>2023-06-17T08:44:53.227</time></trkpt><trkpt lat="55.9513530" lon="49.3560921"><time>2023-06-17T08:44:57.217</time></trkpt><trkpt lat="55.9513751" lon="49.3561909"><time>2023-06-17T08:45:01.227</time></trkpt><trkpt lat="55.9513944" lon="49.3562742"><time>2023-06-17T08:45:04.223</time></trkpt><trkpt lat="55.9514216" lon="49.3563581"><time>2023-06-17T08:45:08.243</time></trkpt><trkpt lat="55.9514359" lon="49.3564485"><time>2023-06-17T08:45:12.230</time></trkpt><trkpt lat="55.9514197" lon="49.3565304"><time>2023-06-17T08:45:15.233</time></trkpt><trkpt lat="55.9513886" lon="49.3566066"><time>2023-06-17T08:45:18.223</time></trkpt><trkpt lat="55.9513594" lon="49.3566736"><time>2023-06-17T08:45:21.237</time></trkpt><trkpt lat="55.9513193" lon="49.3567556"><time>2023-06-17T08:45:24.217</time></trkpt><trkpt lat="55.9512831" lon="49.3568263"><time>2023-06-17T08:45:26.220</time></trkpt><trkpt lat="55.9512450" lon="49.3569057"><time>2023-06-17T08:45:28.227</time></trkpt><trkpt lat="55.9512053" lon="49.3569873"><time>2023-06-17T08:45:30.237</time></trkpt><trkpt lat="55.9511672" lon="49.3570600"><time>2023-06-17T08:45:32.243</time></trkpt><trkpt lat="55.9511294" lon="49.3571328"><time>2023-06-17T08:45:34.223</time></trkpt><trkpt lat="55.9510927" lon="49.3572034"><time>2023-06-17T08:45:36.223</time></trkpt><trkpt lat="55.9510562" lon="49.3572678"><time>2023-06-17T08:45:38.210</time></trkpt><trkpt lat="55.9510247" lon="49.3573325"><time>2023-06-17T08:45:40.223</time></trkpt><trkpt lat="55.9509921" lon="49.3573961"><time>2023-06-17T08:45:42.223</time></trkpt><trkpt lat="55.9509477" lon="49.3574900"><time>2023-06-17T08:45:45.210</time></trkpt><trkpt lat="55.9509202" lon="49.3575631"><time>2023-06-17T08:45:47.223</time></trkpt><trkpt lat="55.9508986" lon="49.3576396"><time>2023-06-17T08:45:49.223</time></trkpt><trkpt lat="55.9508977" lon="49.3577225"><time>2023-06-17T08:45:51.227</time></trkpt><trkpt lat="55.9509215" lon="49.3577947"><time>2023-06-17T08:45:53.220</time></trkpt><trkpt lat="55.9509600" lon="49.3578549"><time>2023-06-17T08:45:55.220</time></trkpt><trkpt lat="55.9510039" lon="49.3578924"><time>2023-06-17T08:45:57.220</time></trkpt><trkpt lat="55.9510527" lon="49.3579064"><time>2023-06-17T08:45:59.227</time></trkpt><trkpt lat="55.9510957" lon="49.3579298"><time>2023-06-17T08:46:01.227</time></trkpt><trkpt lat="55.9511367" lon="49.3579717"><time>2023-06-17T08:46:03.223</time></trkpt><trkpt lat="55.9511811" lon="49.3580074"><time>2023-06-17T08:46:05.223</time></trkpt><trkpt lat="55.9512168" lon="49.3580661"><time>2023-06-17T08:46:07.220</time></trkpt><trkpt lat="55.9512513" lon="49.3581253"><time>2023-06-17T08:46:09.213</time></trkpt><trkpt lat="55.9512870" lon="49.3581873"><time>2023-06-17T08:46:11.227</time></trkpt><trkpt lat="55.9513277" lon="49.3582363"><time>2023-06-17T08:46:13.223</time></trkpt><trkpt lat="55.9513685" lon="49.3582830"><time>2023-06-17T08:46:15.237</time></trkpt><trkpt lat="55.9514057" lon="49.3583292"><time>2023-06-17T08:46:17.227</time></trkpt><trkpt lat="55.9514474" lon="49.3583602"><time>2023-06-17T08:46:19.247</time></trkpt><trkpt lat="55.9514970" lon="49.3583712"><time>2023-06-17T08:46:21.223</time></trkpt><trkpt lat="55.9515459" lon="49.3583912"><time>2023-06-17T08:46:23.237</time></trkpt><trkpt lat="55.9515924" lon="49.3584193"><time>2023-06-17T08:46:25.230</time></trkpt><trkpt lat="55.9516367" lon="49.3584515"><time>2023-06-17T08:46:27.250</time></trkpt><trkpt lat="55.9516791" lon="49.3584822"><time>2023-06-17T08:46:29.237</time></trkpt><trkpt lat="55.9517207" lon="49.3585195"><time>2023-06-17T08:46:31.233</time></trkpt><trkpt lat="55.9517612" lon="49.3585618"><time>2023-06-17T08:46:33.237</time></trkpt><trkpt lat="55.9518028" lon="49.3586015"><time>2023-06-17T08:46:35.227</time></trkpt><trkpt lat="55.9518552" lon="49.3586498"><time>2023-06-17T08:46:38.223</time></trkpt><trkpt lat="55.9519122" lon="49.3587000"><time>2023-06-17T08:46:41.223</time></trkpt><trkpt lat="55.9519519" lon="49.3587515"><time>2023-06-17T08:46:43.220</time></trkpt><trkpt lat="55.9520016" lon="49.3587927"><time>2023-06-17T08:46:45.237</time></trkpt><trkpt lat="55.9520473" lon="49.3588234"><time>2023-06-17T08:46:47.227</time></trkpt><trkpt lat="55.9520967" lon="49.3588457"><time>2023-06-17T08:46:49.223</time></trkpt><trkpt lat="55.9521465" lon="49.3588697"><time>2023-06-17T08:46:51.227</time></trkpt><trkpt lat="55.9521948" lon="49.3589044"><time>2023-06-17T08:46:53.227</time></trkpt><trkpt lat="55.9522334" lon="49.3589659"><time>2023-06-17T08:46:55.223</time></trkpt><trkpt lat="55.9522613" lon="49.3590560"><time>2023-06-17T08:46:57.223</time></trkpt><trkpt lat="55.9523058" lon="49.3591162"><time>2023-06-17T08:46:59.217</time></trkpt><trkpt lat="55.9523398" lon="49.3591792"><time>2023-06-17T08:47:01.213</time></trkpt><trkpt lat="55.9523785" lon="49.3592323"><time>2023-06-17T08:47:03.207</time></trkpt><trkpt lat="55.9524134" lon="49.3592998"><time>2023-06-17T08:47:05.223</time></trkpt><trkpt lat="55.9524540" lon="49.3593737"><time>2023-06-17T08:47:07.223</time></trkpt><trkpt lat="55.9524922" lon="49.3594572"><time>2023-06-17T08:47:09.243</time></trkpt><trkpt lat="55.9525354" lon="49.3595294"><time>2023-06-17T08:47:11.217</time></trkpt><trkpt lat="55.9525625" lon="49.3596035"><time>2023-06-17T08:47:13.217</time></trkpt><trkpt lat="55.9525836" lon="49.3596772"><time>2023-06-17T08:47:15.220</time></trkpt><trkpt lat="55.9526077" lon="49.3597621"><time>2023-06-17T08:47:17.223</time></trkpt><trkpt lat="55.9526428" lon="49.3598381"><time>2023-06-17T08:47:19.220</time></trkpt><trkpt lat="55.9526738" lon="49.3599064"><time>2023-06-17T08:47:21.217</time></trkpt><trkpt lat="55.9527026" lon="49.3599813"><time>2023-06-17T08:47:23.227</time></trkpt><trkpt lat="55.9527324" lon="49.3600540"><time>2023-06-17T08:47:25.223</time></trkpt><trkpt lat="55.9527635" lon="49.3601219"><time>2023-06-17T08:47:27.213</time></trkpt><trkpt lat="55.9527956" lon="49.3601863"><time>2023-06-17T08:47:29.213</time></trkpt><trkpt lat="55.9528325" lon="49.3602461"><time>2023-06-17T08:47:31.217</time></trkpt><trkpt lat="55.9528736" lon="49.3603017"><time>2023-06-17T08:47:33.210</time></trkpt><trkpt lat="55.9529161" lon="49.3603439"><time>2023-06-17T08:47:35.220</time></trkpt><trkpt lat="55.9529607" lon="49.3603789"><time>2023-06-17T08:47:37.220</time></trkpt><trkpt lat="55.9530054" lon="49.3604184"><time>2023-06-17T08:47:39.217</time></trkpt><trkpt lat="55.9530485" lon="49.3604552"><time>2023-06-17T08:47:41.220</time></trkpt><trkpt lat="55.9530911" lon="49.3604935"><time>2023-06-17T08:47:43.220</time></trkpt><trkpt lat="55.9531462" lon="49.3605355"><time>2023-06-17T08:47:46.243</time></trkpt><trkpt lat="55.9531913" lon="49.3605822"><time>2023-06-17T08:47:49.227</time></trkpt><trkpt lat="55.9532434" lon="49.3606358"><time>2023-06-17T08:47:52.227</time></trkpt><trkpt lat="55.9532901" lon="49.3606673"><time>2023-06-17T08:47:54.213</time></trkpt><trkpt lat="55.9533425" lon="49.3607098"><time>2023-06-17T08:47:57.227</time></trkpt><trkpt lat="55.9533937" lon="49.3607468"><time>2023-06-17T08:48:00.217</time></trkpt><trkpt lat="55.9534455" lon="49.3607908"><time>2023-06-17T08:48:02.217</time></trkpt><trkpt lat="55.9535018" lon="49.3608345"><time>2023-06-17T08:48:04.220</time></trkpt><trkpt lat="55.9535495" lon="49.3608234"><time>2023-06-17T08:48:06.237</time></trkpt><trkpt lat="55.9535867" lon="49.3607780"><time>2023-06-17T08:48:08.220</time></trkpt><trkpt lat="55.9536269" lon="49.3607111"><time>2023-06-17T08:48:10.217</time></trkpt><trkpt lat="55.9536621" lon="49.3606444"><time>2023-06-17T08:48:12.233</time></trkpt><trkpt lat="55.9537006" lon="49.3605788"><time>2023-06-17T08:48:14.220</time></trkpt><trkpt lat="55.9537391" lon="49.3605248"><time>2023-06-17T08:48:16.220</time></trkpt><trkpt lat="55.9537746" lon="49.3604585"><time>2023-06-17T08:48:18.227</time></trkpt><trkpt lat="55.9538257" lon="49.3603807"><time>2023-06-17T08:48:21.220</time></trkpt><trkpt lat="55.9538641" lon="49.3603281"><time>2023-06-17T08:48:23.230</time></trkpt><trkpt lat="55.9539024" lon="49.3602845"><time>2023-06-17T08:48:25.237</time></trkpt><trkpt lat="55.9539479" lon="49.3602196"><time>2023-06-17T08:48:28.223</time></trkpt><trkpt lat="55.9540059" lon="49.3601525"><time>2023-06-17T08:48:31.220</time></trkpt><trkpt lat="55.9540536" lon="49.3601162"><time>2023-06-17T08:48:33.230</time></trkpt><trkpt lat="55.9541017" lon="49.3600830"><time>2023-06-17T08:48:35.233</time></trkpt><trkpt lat="55.9541464" lon="49.3600455"><time>2023-06-17T08:48:37.223</time></trkpt><trkpt lat="55.9541921" lon="49.3600362"><time>2023-06-17T08:48:39.227</time></trkpt><trkpt lat="55.9542439" lon="49.3599734"><time>2023-06-17T08:48:42.227</time></trkpt><trkpt lat="55.9542920" lon="49.3599637"><time>2023-06-17T08:48:46.230</time></trkpt><trkpt lat="55.9543405" lon="49.3599173"><time>2023-06-17T08:48:59.237</time></trkpt><trkpt lat="55.9543861" lon="49.3598849"><time>2023-06-17T08:49:03.227</time></trkpt><trkpt lat="55.9544087" lon="49.3598142"><time>2023-06-17T08:49:11.233</time></trkpt><trkpt lat="55.9544248" lon="49.3597366"><time>2023-06-17T08:49:16.233</time></trkpt><trkpt lat="55.9544721" lon="49.3596828"><time>2023-06-17T08:49:23.227</time></trkpt><trkpt lat="55.9545173" lon="49.3596251"><time>2023-06-17T08:49:28.227</time></trkpt><trkpt lat="55.9545635" lon="49.3595803"><time>2023-06-17T08:49:32.213</time></trkpt><trkpt lat="55.9545881" lon="49.3595061"><time>2023-06-17T08:49:36.220</time></trkpt><trkpt lat="55.9546070" lon="49.3594262"><time>2023-06-17T08:49:40.223</time></trkpt><trkpt lat="55.9546162" lon="49.3593460"><time>2023-06-17T08:49:44.217</time></trkpt><trkpt lat="55.9546141" lon="49.3592646"><time>2023-06-17T08:49:48.227</time></trkpt><trkpt lat="55.9546274" lon="49.3591762"><time>2023-06-17T08:49:55.230</time></trkpt><trkpt lat="55.9546487" lon="49.3590884"><time>2023-06-17T08:49:59.233</time></trkpt><trkpt lat="55.9546965" lon="49.3590434"><time>2023-06-17T08:50:03.207</time></trkpt><trkpt lat="55.9547284" lon="49.3589664"><time>2023-06-17T08:50:06.213</time></trkpt><trkpt lat="55.9547461" lon="49.3589174"><time>2023-06-17T08:50:08.247</time></trkpt><trkpt lat="55.9547627" lon="49.3589014"><time>2023-06-17T08:50:09.230</time></trkpt><trkpt lat="55.9547331" lon="49.3589688"><time>2023-06-17T08:50:15.217</time></trkpt><trkpt lat="55.9547163" lon="49.3590464"><time>2023-06-17T08:50:19.220</time></trkpt><trkpt lat="55.9546739" lon="49.3591135"><time>2023-06-17T08:50:23.213</time></trkpt><trkpt lat="55.9546382" lon="49.3591784"><time>2023-06-17T08:50:27.220</time></trkpt><trkpt lat="55.9545898" lon="49.3592192"><time>2023-06-17T08:50:32.230</time></trkpt><trkpt lat="55.9545414" lon="49.3592179"><time>2023-06-17T08:50:37.217</time></trkpt><trkpt lat="55.9545887" lon="49.3592433"><time>2023-06-17T08:50:40.217</time></trkpt><trkpt lat="55.9545766" lon="49.3591487"><time>2023-06-17T08:50:44.227</time></trkpt><trkpt lat="55.9545598" lon="49.3590578"><time>2023-06-17T08:50:49.220</time></trkpt><trkpt lat="55.9545298" lon="49.3589738"><time>2023-06-17T08:50:53.217</time></trkpt><trkpt lat="55.9545058" lon="49.3588960"><time>2023-06-17T08:50:56.213</time></trkpt><trkpt lat="55.9544899" lon="49.3588083"><time>2023-06-17T08:51:00.227</time></trkpt><trkpt lat="55.9544687" lon="49.3587200"><time>2023-06-17T08:51:03.220</time></trkpt><trkpt lat="55.9544416" lon="49.3586178"><time>2023-06-17T08:51:06.223</time></trkpt><trkpt lat="55.9544236" lon="49.3585383"><time>2023-06-17T08:51:08.227</time></trkpt><trkpt lat="55.9544003" lon="49.3584641"><time>2023-06-17T08:51:10.217</time></trkpt><trkpt lat="55.9543777" lon="49.3583576"><time>2023-06-17T08:51:13.207</time></trkpt><trkpt lat="55.9543536" lon="49.3582858"><time>2023-06-17T08:51:16.233</time></trkpt><trkpt lat="55.9543386" lon="49.3581967"><time>2023-06-17T08:51:19.223</time></trkpt><trkpt lat="55.9543267" lon="49.3581004"><time>2023-06-17T08:51:22.220</time></trkpt><trkpt lat="55.9543266" lon="49.3580027"><time>2023-06-17T08:51:26.213</time></trkpt><trkpt lat="55.9543091" lon="49.3579235"><time>2023-06-17T08:51:29.223</time></trkpt><trkpt lat="55.9542794" lon="49.3578627"><time>2023-06-17T08:51:34.227</time></trkpt><trkpt lat="55.9542564" lon="49.3577817"><time>2023-06-17T08:51:38.227</time></trkpt><trkpt lat="55.9542550" lon="49.3576980"><time>2023-06-17T08:51:42.230</time></trkpt><trkpt lat="55.9543053" lon="49.3577208"><time>2023-06-17T08:51:53.220</time></trkpt><trkpt lat="55.9543431" lon="49.3578004"><time>2023-06-17T08:51:59.210</time></trkpt><trkpt lat="55.9543542" lon="49.3579059"><time>2023-06-17T08:52:02.227</time></trkpt><trkpt lat="55.9543516" lon="49.3579917"><time>2023-06-17T08:52:04.227</time></trkpt><trkpt lat="55.9543410" lon="49.3580745"><time>2023-06-17T08:52:06.230</time></trkpt><trkpt lat="55.9543386" lon="49.3581957"><time>2023-06-17T08:52:09.220</time></trkpt><trkpt lat="55.9543533" lon="49.3582740"><time>2023-06-17T08:52:11.260</time></trkpt><trkpt lat="55.9543597" lon="49.3583684"><time>2023-06-17T08:52:13.220</time></trkpt><trkpt lat="55.9543803" lon="49.3584503"><time>2023-06-17T08:52:15.227</time></trkpt><trkpt lat="55.9543969" lon="49.3585306"><time>2023-06-17T08:52:17.227</time></trkpt><trkpt lat="55.9544188" lon="49.3586045"><time>2023-06-17T08:52:19.227</time></trkpt><trkpt lat="55.9544460" lon="49.3586802"><time>2023-06-17T08:52:21.247</time></trkpt><trkpt lat="55.9544540" lon="49.3587653"><time>2023-06-17T08:52:23.227</time></trkpt><trkpt lat="55.9544674" lon="49.3588470"><time>2023-06-17T08:52:25.230</time></trkpt><trkpt lat="55.9544852" lon="49.3589269"><time>2023-06-17T08:52:27.233</time></trkpt><trkpt lat="55.9545109" lon="49.3590108"><time>2023-06-17T08:52:29.227</time></trkpt><trkpt lat="55.9545264" lon="49.3590971"><time>2023-06-17T08:52:31.237</time></trkpt><trkpt lat="55.9545291" lon="49.3592057"><time>2023-06-17T08:52:34.237</time></trkpt><trkpt lat="55.9545391" lon="49.3592839"><time>2023-06-17T08:52:36.230</time></trkpt><trkpt lat="55.9545557" lon="49.3593606"><time>2023-06-17T08:52:38.227</time></trkpt><trkpt lat="55.9545796" lon="49.3594375"><time>2023-06-17T08:52:41.280</time></trkpt><trkpt lat="55.9545967" lon="49.3595140"><time>2023-06-17T08:52:44.217</time></trkpt><trkpt lat="55.9546508" lon="49.3595274"><time>2023-06-17T08:52:55.230</time></trkpt><trkpt lat="55.9546969" lon="49.3594839"><time>2023-06-17T08:53:00.257</time></trkpt><trkpt lat="55.9547447" lon="49.3594539"><time>2023-06-17T08:53:03.233</time></trkpt><trkpt lat="55.9548076" lon="49.3593993"><time>2023-06-17T08:53:06.223</time></trkpt><trkpt lat="55.9548558" lon="49.3593433"><time>2023-06-17T08:53:09.303</time></trkpt><trkpt lat="55.9549001" lon="49.3593006"><time>2023-06-17T08:53:11.267</time></trkpt><trkpt lat="55.9549435" lon="49.3592536"><time>2023-06-17T08:53:13.233</time></trkpt><trkpt lat="55.9549869" lon="49.3592163"><time>2023-06-17T08:53:15.233</time></trkpt><trkpt lat="55.9550340" lon="49.3592046"><time>2023-06-17T08:53:17.767</time></trkpt><trkpt lat="55.9550945" lon="49.3591669"><time>2023-06-17T08:53:20.227</time></trkpt><trkpt lat="55.9551611" lon="49.3591235"><time>2023-06-17T08:53:23.220</time></trkpt><trkpt lat="55.9552062" lon="49.3591021"><time>2023-06-17T08:53:25.217</time></trkpt><trkpt lat="55.9552496" lon="49.3590542"><time>2023-06-17T08:53:27.303</time></trkpt><trkpt lat="55.9552952" lon="49.3590343"><time>2023-06-17T08:53:29.300</time></trkpt><trkpt lat="55.9553472" lon="49.3590004"><time>2023-06-17T08:53:32.263</time></trkpt><trkpt lat="55.9554055" lon="49.3589699"><time>2023-06-17T08:53:35.217</time></trkpt><trkpt lat="55.9554735" lon="49.3589410"><time>2023-06-17T08:53:38.293</time></trkpt><trkpt lat="55.9555246" lon="49.3589090"><time>2023-06-17T08:53:40.263</time></trkpt><trkpt lat="55.9555719" lon="49.3588606"><time>2023-06-17T08:53:42.310</time></trkpt><trkpt lat="55.9556261" lon="49.3588057"><time>2023-06-17T08:53:45.220</time></trkpt><trkpt lat="55.9556747" lon="49.3587813"><time>2023-06-17T08:53:48.220</time></trkpt><trkpt lat="55.9557232" lon="49.3587465"><time>2023-06-17T08:53:51.263</time></trkpt><trkpt lat="55.9557788" lon="49.3587051"><time>2023-06-17T08:53:53.237</time></trkpt><trkpt lat="55.9558435" lon="49.3586552"><time>2023-06-17T08:53:56.260</time></trkpt><trkpt lat="55.9558886" lon="49.3586258"><time>2023-06-17T08:53:58.220</time></trkpt><trkpt lat="55.9559552" lon="49.3585670"><time>2023-06-17T08:54:01.310</time></trkpt><trkpt lat="55.9560028" lon="49.3585224"><time>2023-06-17T08:54:03.227</time></trkpt><trkpt lat="55.9560557" lon="49.3584877"><time>2023-06-17T08:54:05.223</time></trkpt><trkpt lat="55.9561071" lon="49.3584527"><time>2023-06-17T08:54:07.300</time></trkpt><trkpt lat="55.9561701" lon="49.3584172"><time>2023-06-17T08:54:10.253</time></trkpt><trkpt lat="55.9562316" lon="49.3583772"><time>2023-06-17T08:54:13.223</time></trkpt><trkpt lat="55.9562928" lon="49.3583360"><time>2023-06-17T08:54:16.210</time></trkpt><trkpt lat="55.9563479" lon="49.3582935"><time>2023-06-17T08:54:19.223</time></trkpt><trkpt lat="55.9563907" lon="49.3582676"><time>2023-06-17T08:54:21.220</time></trkpt><trkpt lat="55.9564372" lon="49.3582442"><time>2023-06-17T08:54:23.233</time></trkpt><trkpt lat="55.9564874" lon="49.3582135"><time>2023-06-17T08:54:25.223</time></trkpt><trkpt lat="55.9565295" lon="49.3581771"><time>2023-06-17T08:54:27.220</time></trkpt><trkpt lat="55.9565752" lon="49.3581365"><time>2023-06-17T08:54:30.227</time></trkpt><trkpt lat="55.9566283" lon="49.3580880"><time>2023-06-17T08:54:33.227</time></trkpt><trkpt lat="55.9566863" lon="49.3580471"><time>2023-06-17T08:54:36.223</time></trkpt><trkpt lat="55.9567298" lon="49.3580243"><time>2023-06-17T08:54:38.220</time></trkpt><trkpt lat="55.9567786" lon="49.3580027"><time>2023-06-17T08:54:40.217</time></trkpt><trkpt lat="55.9568389" lon="49.3579741"><time>2023-06-17T08:54:43.220</time></trkpt><trkpt lat="55.9568755" lon="49.3579231"><time>2023-06-17T08:54:45.217</time></trkpt><trkpt lat="55.9569357" lon="49.3578917"><time>2023-06-17T08:54:48.210</time></trkpt><trkpt lat="55.9569991" lon="49.3578790"><time>2023-06-17T08:54:51.277</time></trkpt><trkpt lat="55.9570474" lon="49.3578242"><time>2023-06-17T08:54:54.217</time></trkpt><trkpt lat="55.9571010" lon="49.3577811"><time>2023-06-17T08:54:57.227</time></trkpt><trkpt lat="55.9571597" lon="49.3577354"><time>2023-06-17T08:55:00.217</time></trkpt><trkpt lat="55.9572039" lon="49.3577121"><time>2023-06-17T08:55:02.220</time></trkpt><trkpt lat="55.9572602" lon="49.3576678"><time>2023-06-17T08:55:05.217</time></trkpt><trkpt lat="55.9573200" lon="49.3576569"><time>2023-06-17T08:55:08.217</time></trkpt><trkpt lat="55.9573761" lon="49.3576266"><time>2023-06-17T08:55:11.220</time></trkpt><trkpt lat="55.9574241" lon="49.3575998"><time>2023-06-17T08:55:13.220</time></trkpt><trkpt lat="55.9574690" lon="49.3575690"><time>2023-06-17T08:55:15.223</time></trkpt><trkpt lat="55.9575068" lon="49.3575224"><time>2023-06-17T08:55:18.257</time></trkpt><trkpt lat="55.9575589" lon="49.3574630"><time>2023-06-17T08:55:21.310</time></trkpt><trkpt lat="55.9576045" lon="49.3574282"><time>2023-06-17T08:55:23.213</time></trkpt><trkpt lat="55.9576584" lon="49.3573943"><time>2023-06-17T08:55:26.227</time></trkpt><trkpt lat="55.9577079" lon="49.3573212"><time>2023-06-17T08:55:29.223</time></trkpt><trkpt lat="55.9577595" lon="49.3572947"><time>2023-06-17T08:55:32.217</time></trkpt><trkpt lat="55.9577997" lon="49.3572581"><time>2023-06-17T08:55:34.223</time></trkpt><trkpt lat="55.9578454" lon="49.3572385"><time>2023-06-17T08:55:36.227</time></trkpt><trkpt lat="55.9578894" lon="49.3572177"><time>2023-06-17T08:55:38.227</time></trkpt><trkpt lat="55.9579304" lon="49.3571844"><time>2023-06-17T08:55:40.297</time></trkpt><trkpt lat="55.9579731" lon="49.3571434"><time>2023-06-17T08:55:42.430</time></trkpt><trkpt lat="55.9580192" lon="49.3571185"><time>2023-06-17T08:55:44.230</time></trkpt><trkpt lat="55.9580677" lon="49.3570907"><time>2023-06-17T08:55:46.260</time></trkpt><trkpt lat="55.9581137" lon="49.3570584"><time>2023-06-17T08:55:48.287</time></trkpt><trkpt lat="55.9581785" lon="49.3570213"><time>2023-06-17T08:55:51.307</time></trkpt><trkpt lat="55.9582231" lon="49.3569793"><time>2023-06-17T08:55:53.293</time></trkpt><trkpt lat="55.9582811" lon="49.3569426"><time>2023-06-17T08:55:56.240</time></trkpt><trkpt lat="55.9583232" lon="49.3569141"><time>2023-06-17T08:55:58.227</time></trkpt><trkpt lat="55.9583692" lon="49.3568824"><time>2023-06-17T08:56:00.293</time></trkpt><trkpt lat="55.9584140" lon="49.3568574"><time>2023-06-17T08:56:02.297</time></trkpt><trkpt lat="55.9584553" lon="49.3568083"><time>2023-06-17T08:56:04.217</time></trkpt><trkpt lat="55.9585136" lon="49.3567608"><time>2023-06-17T08:56:07.270</time></trkpt><trkpt lat="55.9585618" lon="49.3567245"><time>2023-06-17T08:56:10.213</time></trkpt><trkpt lat="55.9586050" lon="49.3567026"><time>2023-06-17T08:56:12.230</time></trkpt><trkpt lat="55.9586588" lon="49.3566584"><time>2023-06-17T08:56:15.237</time></trkpt><trkpt lat="55.9587136" lon="49.3566108"><time>2023-06-17T08:56:18.250</time></trkpt><trkpt lat="55.9587554" lon="49.3565651"><time>2023-06-17T08:56:20.277</time></trkpt><trkpt lat="55.9588118" lon="49.3565238"><time>2023-06-17T08:56:23.277</time></trkpt><trkpt lat="55.9588708" lon="49.3564915"><time>2023-06-17T08:56:26.280</time></trkpt><trkpt lat="55.9589295" lon="49.3564601"><time>2023-06-17T08:56:29.250</time></trkpt><trkpt lat="55.9589898" lon="49.3564240"><time>2023-06-17T08:56:32.307</time></trkpt><trkpt lat="55.9590461" lon="49.3564001"><time>2023-06-17T08:56:35.223</time></trkpt><trkpt lat="55.9591026" lon="49.3563603"><time>2023-06-17T08:56:38.220</time></trkpt><trkpt lat="55.9591468" lon="49.3563189"><time>2023-06-17T08:56:40.307</time></trkpt><trkpt lat="55.9591919" lon="49.3562807"><time>2023-06-17T08:56:42.303</time></trkpt><trkpt lat="55.9592471" lon="49.3562476"><time>2023-06-17T08:56:45.230</time></trkpt><trkpt lat="55.9593017" lon="49.3562145"><time>2023-06-17T08:56:48.233</time></trkpt><trkpt lat="55.9593547" lon="49.3561718"><time>2023-06-17T08:56:50.257</time></trkpt><trkpt lat="55.9594015" lon="49.3561191"><time>2023-06-17T08:56:54.227</time></trkpt><trkpt lat="55.9594589" lon="49.3560856"><time>2023-06-17T08:56:58.260</time></trkpt><trkpt lat="55.9595220" lon="49.3560599"><time>2023-06-17T08:57:01.303</time></trkpt><trkpt lat="55.9595682" lon="49.3560334"><time>2023-06-17T08:57:03.293</time></trkpt><trkpt lat="55.9596219" lon="49.3560020"><time>2023-06-17T08:57:05.240</time></trkpt><trkpt lat="55.9596671" lon="49.3559804"><time>2023-06-17T08:57:07.267</time></trkpt><trkpt lat="55.9597250" lon="49.3559298"><time>2023-06-17T08:57:10.297</time></trkpt><trkpt lat="55.9597826" lon="49.3558792"><time>2023-06-17T08:57:13.257</time></trkpt><trkpt lat="55.9598497" lon="49.3558432"><time>2023-06-17T08:57:16.247</time></trkpt><trkpt lat="55.9598955" lon="49.3558179"><time>2023-06-17T08:57:18.230</time></trkpt><trkpt lat="55.9599398" lon="49.3557917"><time>2023-06-17T08:57:20.223</time></trkpt><trkpt lat="55.9599919" lon="49.3557393"><time>2023-06-17T08:57:23.223</time></trkpt><trkpt lat="55.9600374" lon="49.3557153"><time>2023-06-17T08:57:25.227</time></trkpt><trkpt lat="55.9600858" lon="49.3556770"><time>2023-06-17T08:57:28.203</time></trkpt><trkpt lat="55.9601439" lon="49.3556361"><time>2023-06-17T08:57:31.227</time></trkpt><trkpt lat="55.9602022" lon="49.3555906"><time>2023-06-17T08:57:34.237</time></trkpt><trkpt lat="55.9602412" lon="49.3555501"><time>2023-06-17T08:57:36.227</time></trkpt><trkpt lat="55.9602835" lon="49.3555052"><time>2023-06-17T08:57:38.227</time></trkpt><trkpt lat="55.9603338" lon="49.3554660"><time>2023-06-17T08:57:40.293</time></trkpt><trkpt lat="55.9603845" lon="49.3554403"><time>2023-06-17T08:57:42.290</time></trkpt><trkpt lat="55.9604354" lon="49.3554154"><time>2023-06-17T08:57:44.227</time></trkpt><trkpt lat="55.9604886" lon="49.3553699"><time>2023-06-17T08:57:46.273</time></trkpt><trkpt lat="55.9605450" lon="49.3553151"><time>2023-06-17T08:57:48.283</time></trkpt><trkpt lat="55.9605896" lon="49.3552802"><time>2023-06-17T08:57:50.290</time></trkpt><trkpt lat="55.9606354" lon="49.3552456"><time>2023-06-17T08:57:53.260</time></trkpt><trkpt lat="55.9606809" lon="49.3552007"><time>2023-06-17T08:57:57.213</time></trkpt><trkpt lat="55.9607293" lon="49.3551842"><time>2023-06-17T08:57:59.223</time></trkpt><trkpt lat="55.9607802" lon="49.3551421"><time>2023-06-17T08:58:01.270</time></trkpt><trkpt lat="55.9608243" lon="49.3551025"><time>2023-06-17T08:58:03.313</time></trkpt><trkpt lat="55.9608760" lon="49.3550783"><time>2023-06-17T08:58:05.217</time></trkpt><trkpt lat="55.9609232" lon="49.3550476"><time>2023-06-17T08:58:07.297</time></trkpt><trkpt lat="55.9609614" lon="49.3550019"><time>2023-06-17T08:58:09.303</time></trkpt><trkpt lat="55.9610031" lon="49.3549708"><time>2023-06-17T08:58:11.227</time></trkpt><trkpt lat="55.9610545" lon="49.3549033"><time>2023-06-17T08:58:14.233</time></trkpt><trkpt lat="55.9611090" lon="49.3548530"><time>2023-06-17T08:58:17.273</time></trkpt><trkpt lat="55.9611720" lon="49.3548389"><time>2023-06-17T08:58:20.250</time></trkpt><trkpt lat="55.9612319" lon="49.3547898"><time>2023-06-17T08:58:23.297</time></trkpt><trkpt lat="55.9612784" lon="49.3547639"><time>2023-06-17T08:58:25.233</time></trkpt><trkpt lat="55.9613356" lon="49.3547441"><time>2023-06-17T08:58:28.253</time></trkpt><trkpt lat="55.9613932" lon="49.3547030"><time>2023-06-17T08:58:31.257</time></trkpt><trkpt lat="55.9614543" lon="49.3546609"><time>2023-06-17T08:58:34.227</time></trkpt><trkpt lat="55.9614935" lon="49.3546147"><time>2023-06-17T08:58:37.260</time></trkpt><trkpt lat="55.9615457" lon="49.3545834"><time>2023-06-17T08:58:39.253</time></trkpt><trkpt lat="55.9615939" lon="49.3545488"><time>2023-06-17T08:58:42.303</time></trkpt><trkpt lat="55.9616364" lon="49.3544965"><time>2023-06-17T08:58:45.207</time></trkpt><trkpt lat="55.9616874" lon="49.3544512"><time>2023-06-17T08:58:50.220</time></trkpt><trkpt lat="55.9617345" lon="49.3543966"><time>2023-06-17T08:58:54.227</time></trkpt><trkpt lat="55.9617991" lon="49.3543713"><time>2023-06-17T08:58:57.223</time></trkpt><trkpt lat="55.9618438" lon="49.3543561"><time>2023-06-17T08:59:05.227</time></trkpt><trkpt lat="55.9618914" lon="49.3543491"><time>2023-06-17T08:59:08.247</time></trkpt><trkpt lat="55.9619360" lon="49.3543371"><time>2023-06-17T08:59:10.270</time></trkpt><trkpt lat="55.9619797" lon="49.3543181"><time>2023-06-17T08:59:12.257</time></trkpt><trkpt lat="55.9620232" lon="49.3542553"><time>2023-06-17T08:59:15.217</time></trkpt><trkpt lat="55.9620672" lon="49.3542214"><time>2023-06-17T08:59:18.297</time></trkpt><trkpt lat="55.9621317" lon="49.3541777"><time>2023-06-17T08:59:21.320</time></trkpt><trkpt lat="55.9621783" lon="49.3541485"><time>2023-06-17T08:59:23.257</time></trkpt><trkpt lat="55.9622248" lon="49.3541243"><time>2023-06-17T08:59:25.230</time></trkpt><trkpt lat="55.9622880" lon="49.3540826"><time>2023-06-17T08:59:28.257</time></trkpt><trkpt lat="55.9623336" lon="49.3540387"><time>2023-06-17T08:59:30.257</time></trkpt><trkpt lat="55.9623798" lon="49.3540025"><time>2023-06-17T08:59:32.220</time></trkpt><trkpt lat="55.9624262" lon="49.3539698"><time>2023-06-17T08:59:34.220</time></trkpt><trkpt lat="55.9624839" lon="49.3539015"><time>2023-06-17T08:59:39.413</time></trkpt><trkpt lat="55.9625454" lon="49.3538793"><time>2023-06-17T08:59:41.213</time></trkpt><trkpt lat="55.9625859" lon="49.3538384"><time>2023-06-17T08:59:44.220</time></trkpt><trkpt lat="55.9626301" lon="49.3537896"><time>2023-06-17T08:59:46.220</time></trkpt><trkpt lat="55.9626781" lon="49.3537550"><time>2023-06-17T08:59:48.223</time></trkpt><trkpt lat="55.9627251" lon="49.3537328"><time>2023-06-17T08:59:50.250</time></trkpt><trkpt lat="55.9627726" lon="49.3537113"><time>2023-06-17T08:59:52.297</time></trkpt><trkpt lat="55.9628245" lon="49.3537175"><time>2023-06-17T08:59:55.213</time></trkpt><trkpt lat="55.9628826" lon="49.3536827"><time>2023-06-17T09:00:00.297</time></trkpt><trkpt lat="55.9629310" lon="49.3536523"><time>2023-06-17T09:00:03.257</time></trkpt><trkpt lat="55.9629786" lon="49.3536411"><time>2023-06-17T09:00:06.227</time></trkpt><trkpt lat="55.9630303" lon="49.3535990"><time>2023-06-17T09:00:13.263</time></trkpt><trkpt lat="55.9630818" lon="49.3535581"><time>2023-06-17T09:00:17.247</time></trkpt><trkpt lat="55.9631231" lon="49.3535020"><time>2023-06-17T09:00:21.263</time></trkpt><trkpt lat="55.9631460" lon="49.3534291"><time>2023-06-17T09:00:25.217</time></trkpt><trkpt lat="55.9631209" lon="49.3533470"><time>2023-06-17T09:00:30.257</time></trkpt><trkpt lat="55.9630881" lon="49.3532845"><time>2023-06-17T09:00:34.223</time></trkpt><trkpt lat="55.9630369" lon="49.3533223"><time>2023-06-17T09:00:45.223</time></trkpt><trkpt lat="55.9629907" lon="49.3533062"><time>2023-06-17T09:00:49.227</time></trkpt><trkpt lat="55.9629462" lon="49.3532679"><time>2023-06-17T09:00:52.293</time></trkpt><trkpt lat="55.9629002" lon="49.3532232"><time>2023-06-17T09:00:55.223</time></trkpt><trkpt lat="55.9628802" lon="49.3531468"><time>2023-06-17T09:01:08.267</time></trkpt><trkpt lat="55.9628309" lon="49.3531112"><time>2023-06-17T09:01:12.257</time></trkpt><trkpt lat="55.9627860" lon="49.3530688"><time>2023-06-17T09:01:17.227</time></trkpt><trkpt lat="55.9627780" lon="49.3529885"><time>2023-06-17T09:01:20.220</time></trkpt><trkpt lat="55.9627556" lon="49.3529146"><time>2023-06-17T09:01:24.227</time></trkpt><trkpt lat="55.9627317" lon="49.3528392"><time>2023-06-17T09:01:28.257</time></trkpt><trkpt lat="55.9626995" lon="49.3527659"><time>2023-06-17T09:01:32.230</time></trkpt><trkpt lat="55.9626605" lon="49.3526878"><time>2023-06-17T09:01:36.233</time></trkpt><trkpt lat="55.9626363" lon="49.3525927"><time>2023-06-17T09:01:39.247</time></trkpt><trkpt lat="55.9626130" lon="49.3525198"><time>2023-06-17T09:01:42.243</time></trkpt><trkpt lat="55.9625976" lon="49.3524282"><time>2023-06-17T09:01:46.237</time></trkpt><trkpt lat="55.9625988" lon="49.3523441"><time>2023-06-17T09:01:51.230</time></trkpt><trkpt lat="55.9625786" lon="49.3522581"><time>2023-06-17T09:01:55.227</time></trkpt><trkpt lat="55.9625525" lon="49.3521715"><time>2023-06-17T09:01:59.227</time></trkpt><trkpt lat="55.9625335" lon="49.3520899"><time>2023-06-17T09:02:03.263</time></trkpt><trkpt lat="55.9624988" lon="49.3520317"><time>2023-06-17T09:02:07.267</time></trkpt><trkpt lat="55.9624674" lon="49.3519669"><time>2023-06-17T09:02:11.253</time></trkpt><trkpt lat="55.9624302" lon="49.3519138"><time>2023-06-17T09:02:15.230</time></trkpt><trkpt lat="55.9624077" lon="49.3518422"><time>2023-06-17T09:02:19.217</time></trkpt><trkpt lat="55.9623777" lon="49.3517626"><time>2023-06-17T09:02:23.223</time></trkpt><trkpt lat="55.9623758" lon="49.3516703"><time>2023-06-17T09:02:27.227</time></trkpt><trkpt lat="55.9623587" lon="49.3515849"><time>2023-06-17T09:02:32.260</time></trkpt><trkpt lat="55.9623823" lon="49.3515113"><time>2023-06-17T09:02:43.263</time></trkpt><trkpt lat="55.9623551" lon="49.3514264"><time>2023-06-17T09:02:47.250</time></trkpt><trkpt lat="55.9623571" lon="49.3513343"><time>2023-06-17T09:02:51.267</time></trkpt><trkpt lat="55.9623664" lon="49.3512556"><time>2023-06-17T09:02:56.227</time></trkpt><trkpt lat="55.9623676" lon="49.3511702"><time>2023-06-17T09:03:00.220</time></trkpt><trkpt lat="55.9623558" lon="49.3510908"><time>2023-06-17T09:03:05.220</time></trkpt><trkpt lat="55.9623296" lon="49.3510040"><time>2023-06-17T09:03:09.220</time></trkpt><trkpt lat="55.9623320" lon="49.3509109"><time>2023-06-17T09:03:14.237</time></trkpt><trkpt lat="55.9623568" lon="49.3508298"><time>2023-06-17T09:03:18.213</time></trkpt><trkpt lat="55.9623539" lon="49.3507288"><time>2023-06-17T09:03:22.227</time></trkpt><trkpt lat="55.9623250" lon="49.3506428"><time>2023-06-17T09:03:27.227</time></trkpt><trkpt lat="55.9623101" lon="49.3505494"><time>2023-06-17T09:03:32.267</time></trkpt><trkpt lat="55.9622954" lon="49.3504719"><time>2023-06-17T09:03:36.237</time></trkpt><trkpt lat="55.9622947" lon="49.3503793"><time>2023-06-17T09:03:40.223</time></trkpt><trkpt lat="55.9622808" lon="49.3502883"><time>2023-06-17T09:03:45.230</time></trkpt><trkpt lat="55.9622828" lon="49.3501998"><time>2023-06-17T09:03:49.227</time></trkpt><trkpt lat="55.9622701" lon="49.3501060"><time>2023-06-17T09:03:55.207</time></trkpt><trkpt lat="55.9622365" lon="49.3500282"><time>2023-06-17T09:03:59.223</time></trkpt><trkpt lat="55.9622019" lon="49.3499708"><time>2023-06-17T09:04:03.233</time></trkpt><trkpt lat="55.9621853" lon="49.3498848"><time>2023-06-17T09:04:09.257</time></trkpt><trkpt lat="55.9621549" lon="49.3498221"><time>2023-06-17T09:04:20.267</time></trkpt><trkpt lat="55.9621224" lon="49.3497589"><time>2023-06-17T09:04:23.307</time></trkpt><trkpt lat="55.9620999" lon="49.3496683"><time>2023-06-17T09:04:28.317</time></trkpt><trkpt lat="55.9620938" lon="49.3495875"><time>2023-06-17T09:04:36.217</time></trkpt><trkpt lat="55.9620717" lon="49.3495092"><time>2023-06-17T09:04:43.267</time></trkpt><trkpt lat="55.9620555" lon="49.3494240"><time>2023-06-17T09:04:49.283</time></trkpt><trkpt lat="55.9620400" lon="49.3493303"><time>2023-06-17T09:04:54.283</time></trkpt><trkpt lat="55.9620194" lon="49.3492445"><time>2023-06-17T09:04:59.263</time></trkpt><trkpt lat="55.9619837" lon="49.3491877"><time>2023-06-17T09:05:03.257</time></trkpt><trkpt lat="55.9619372" lon="49.3491853"><time>2023-06-17T09:05:09.227</time></trkpt><trkpt lat="55.9619001" lon="49.3491177"><time>2023-06-17T09:05:16.227</time></trkpt><trkpt lat="55.9618878" lon="49.3490279"><time>2023-06-17T09:05:20.293</time></trkpt><trkpt lat="55.9618810" lon="49.3489428"><time>2023-06-17T09:05:25.223</time></trkpt><trkpt lat="55.9618795" lon="49.3488450"><time>2023-06-17T09:05:32.213</time></trkpt><trkpt lat="55.9618602" lon="49.3487635"><time>2023-06-17T09:05:36.230</time></trkpt><trkpt lat="55.9618499" lon="49.3486547"><time>2023-06-17T09:05:40.243</time></trkpt><trkpt lat="55.9618426" lon="49.3485617"><time>2023-06-17T09:05:44.237</time></trkpt><trkpt lat="55.9618421" lon="49.3484760"><time>2023-06-17T09:05:48.217</time></trkpt><trkpt lat="55.9618168" lon="49.3483965"><time>2023-06-17T09:05:55.227</time></trkpt><trkpt lat="55.9617652" lon="49.3483722"><time>2023-06-17T09:06:00.257</time></trkpt><trkpt lat="55.9617180" lon="49.3483477"><time>2023-06-17T09:06:04.210</time></trkpt><trkpt lat="55.9616750" lon="49.3483148"><time>2023-06-17T09:06:29.250</time></trkpt><trkpt lat="55.9616299" lon="49.3483520"><time>2023-06-17T09:06:35.220</time></trkpt><trkpt lat="55.9615866" lon="49.3483258"><time>2023-06-17T09:06:45.227</time></trkpt><trkpt lat="55.9615402" lon="49.3483458"><time>2023-06-17T09:06:50.293</time></trkpt><trkpt lat="55.9614891" lon="49.3483555"><time>2023-06-17T09:06:55.223</time></trkpt><trkpt lat="55.9614374" lon="49.3483484"><time>2023-06-17T09:06:59.230</time></trkpt><trkpt lat="55.9613942" lon="49.3482807"><time>2023-06-17T09:07:03.217</time></trkpt><trkpt lat="55.9613952" lon="49.3481981"><time>2023-06-17T09:07:06.220</time></trkpt><trkpt lat="55.9613797" lon="49.3481192"><time>2023-06-17T09:07:15.230</time></trkpt><trkpt lat="55.9613684" lon="49.3480367"><time>2023-06-17T09:07:48.223</time></trkpt><trkpt lat="55.9613933" lon="49.3479512"><time>2023-06-17T09:07:52.220</time></trkpt><trkpt lat="55.9614082" lon="49.3478581"><time>2023-06-17T09:07:57.210</time></trkpt><trkpt lat="55.9614275" lon="49.3478485"><time>2023-06-17T09:08:01.180</time></trkpt><trkpt lat="55.9614123" lon="49.3479457"><time>2023-06-17T09:08:08.237</time></trkpt><trkpt lat="55.9614093" lon="49.3480284"><time>2023-06-17T09:08:14.230</time></trkpt><trkpt lat="55.9613954" lon="49.3481051"><time>2023-06-17T09:08:18.223</time></trkpt><trkpt lat="55.9614072" lon="49.3481886"><time>2023-06-17T09:08:25.220</time></trkpt><trkpt lat="55.9614396" lon="49.3482682"><time>2023-06-17T09:08:31.223</time></trkpt><trkpt lat="55.9614666" lon="49.3483479"><time>2023-06-17T09:08:37.227</time></trkpt><trkpt lat="55.9615134" lon="49.3483188"><time>2023-06-17T09:08:41.227</time></trkpt><trkpt lat="55.9615723" lon="49.3483299"><time>2023-06-17T09:08:45.220</time></trkpt><trkpt lat="55.9616248" lon="49.3483458"><time>2023-06-17T09:10:05.230</time></trkpt><trkpt lat="55.9616785" lon="49.3483448"><time>2023-06-17T09:10:08.220</time></trkpt><trkpt lat="55.9617310" lon="49.3483396"><time>2023-06-17T09:10:11.220</time></trkpt><trkpt lat="55.9617822" lon="49.3483508"><time>2023-06-17T09:10:14.213</time></trkpt><trkpt lat="55.9618526" lon="49.3483520"><time>2023-06-17T09:10:17.230</time></trkpt><trkpt lat="55.9619078" lon="49.3483554"><time>2023-06-17T09:10:19.227</time></trkpt><trkpt lat="55.9619573" lon="49.3483592"><time>2023-06-17T09:10:21.220</time></trkpt><trkpt lat="55.9620041" lon="49.3483742"><time>2023-06-17T09:10:23.227</time></trkpt><trkpt lat="55.9620704" lon="49.3483892"><time>2023-06-17T09:10:26.220</time></trkpt><trkpt lat="55.9621200" lon="49.3483896"><time>2023-06-17T09:10:28.213</time></trkpt><trkpt lat="55.9621691" lon="49.3483830"><time>2023-06-17T09:10:30.217</time></trkpt><trkpt lat="55.9622277" lon="49.3483677"><time>2023-06-17T09:10:32.227</time></trkpt><trkpt lat="55.9622860" lon="49.3483625"><time>2023-06-17T09:10:34.223</time></trkpt><trkpt lat="55.9623428" lon="49.3483698"><time>2023-06-17T09:10:36.217</time></trkpt><trkpt lat="55.9624028" lon="49.3483612"><time>2023-06-17T09:10:38.223</time></trkpt><trkpt lat="55.9624694" lon="49.3483334"><time>2023-06-17T09:10:41.217</time></trkpt><trkpt lat="55.9625270" lon="49.3483217"><time>2023-06-17T09:10:43.220</time></trkpt><trkpt lat="55.9625807" lon="49.3483183"><time>2023-06-17T09:10:45.227</time></trkpt><trkpt lat="55.9626298" lon="49.3483263"><time>2023-06-17T09:10:47.223</time></trkpt><trkpt lat="55.9626798" lon="49.3483313"><time>2023-06-17T09:10:49.220</time></trkpt><trkpt lat="55.9627258" lon="49.3483329"><time>2023-06-17T09:10:51.217</time></trkpt><trkpt lat="55.9627768" lon="49.3483211"><time>2023-06-17T09:10:53.217</time></trkpt><trkpt lat="55.9628257" lon="49.3483331"><time>2023-06-17T09:10:55.220</time></trkpt><trkpt lat="55.9628757" lon="49.3483491"><time>2023-06-17T09:10:57.213</time></trkpt><trkpt lat="55.9629301" lon="49.3483736"><time>2023-06-17T09:10:59.223</time></trkpt><trkpt lat="55.9629839" lon="49.3483997"><time>2023-06-17T09:11:01.217</time></trkpt><trkpt lat="55.9630275" lon="49.3484417"><time>2023-06-17T09:11:03.220</time></trkpt><trkpt lat="55.9630717" lon="49.3484769"><time>2023-06-17T09:11:05.220</time></trkpt><trkpt lat="55.9631128" lon="49.3485227"><time>2023-06-17T09:11:07.220</time></trkpt><trkpt lat="55.9631510" lon="49.3485769"><time>2023-06-17T09:11:09.220</time></trkpt><trkpt lat="55.9631851" lon="49.3486485"><time>2023-06-17T09:11:11.220</time></trkpt><trkpt lat="55.9632178" lon="49.3487176"><time>2023-06-17T09:11:13.217</time></trkpt><trkpt lat="55.9632501" lon="49.3487759"><time>2023-06-17T09:11:15.223</time></trkpt><trkpt lat="55.9632936" lon="49.3488197"><time>2023-06-17T09:11:17.220</time></trkpt><trkpt lat="55.9633340" lon="49.3488564"><time>2023-06-17T09:11:19.223</time></trkpt><trkpt lat="55.9633872" lon="49.3488695"><time>2023-06-17T09:11:49.217</time></trkpt><trkpt lat="55.9634300" lon="49.3489479"><time>2023-06-17T09:11:52.220</time></trkpt><trkpt lat="55.9634722" lon="49.3490407"><time>2023-06-17T09:11:55.220</time></trkpt><trkpt lat="55.9635069" lon="49.3490916"><time>2023-06-17T09:11:57.207</time></trkpt><trkpt lat="55.9635484" lon="49.3491767"><time>2023-06-17T09:12:00.217</time></trkpt><trkpt lat="55.9635811" lon="49.3492378"><time>2023-06-17T09:12:02.223</time></trkpt><trkpt lat="55.9636136" lon="49.3492940"><time>2023-06-17T09:12:04.230</time></trkpt><trkpt lat="55.9636619" lon="49.3493730"><time>2023-06-17T09:12:07.217</time></trkpt><trkpt lat="55.9637113" lon="49.3494447"><time>2023-06-17T09:12:10.227</time></trkpt><trkpt lat="55.9637458" lon="49.3495003"><time>2023-06-17T09:12:12.217</time></trkpt><trkpt lat="55.9637814" lon="49.3495587"><time>2023-06-17T09:12:14.220</time></trkpt><trkpt lat="55.9638151" lon="49.3496211"><time>2023-06-17T09:12:16.217</time></trkpt><trkpt lat="55.9638476" lon="49.3496845"><time>2023-06-17T09:12:18.223</time></trkpt><trkpt lat="55.9638846" lon="49.3497328"><time>2023-06-17T09:12:20.213</time></trkpt><trkpt lat="55.9639224" lon="49.3497815"><time>2023-06-17T09:12:22.207</time></trkpt><trkpt lat="55.9639636" lon="49.3498355"><time>2023-06-17T09:12:24.213</time></trkpt><trkpt lat="55.9640003" lon="49.3499030"><time>2023-06-17T09:12:26.210</time></trkpt><trkpt lat="55.9640331" lon="49.3499690"><time>2023-06-17T09:12:28.220</time></trkpt><trkpt lat="55.9640718" lon="49.3500290"><time>2023-06-17T09:12:30.207</time></trkpt><trkpt lat="55.9641111" lon="49.3500850"><time>2023-06-17T09:12:32.217</time></trkpt><trkpt lat="55.9641527" lon="49.3501414"><time>2023-06-17T09:12:34.223</time></trkpt><trkpt lat="55.9641867" lon="49.3502084"><time>2023-06-17T09:12:36.213</time></trkpt><trkpt lat="55.9642120" lon="49.3502790"><time>2023-06-17T09:12:38.210</time></trkpt><trkpt lat="55.9642467" lon="49.3503433"><time>2023-06-17T09:12:40.220</time></trkpt><trkpt lat="55.9642823" lon="49.3503957"><time>2023-06-17T09:12:42.210</time></trkpt><trkpt lat="55.9643169" lon="49.3504479"><time>2023-06-17T09:12:44.217</time></trkpt><trkpt lat="55.9643505" lon="49.3505053"><time>2023-06-17T09:12:46.217</time></trkpt><trkpt lat="55.9643832" lon="49.3505715"><time>2023-06-17T09:12:48.223</time></trkpt><trkpt lat="55.9644173" lon="49.3506544"><time>2023-06-17T09:12:50.227</time></trkpt><trkpt lat="55.9644451" lon="49.3507399"><time>2023-06-17T09:12:52.220</time></trkpt><trkpt lat="55.9644752" lon="49.3508019"><time>2023-06-17T09:12:54.223</time></trkpt><trkpt lat="55.9645169" lon="49.3508899"><time>2023-06-17T09:12:57.223</time></trkpt><trkpt lat="55.9645613" lon="49.3509551"><time>2023-06-17T09:13:00.220</time></trkpt><trkpt lat="55.9646016" lon="49.3509923"><time>2023-06-17T09:13:02.210</time></trkpt><trkpt lat="55.9646369" lon="49.3510466"><time>2023-06-17T09:13:04.220</time></trkpt><trkpt lat="55.9646847" lon="49.3511231"><time>2023-06-17T09:13:07.200</time></trkpt><trkpt lat="55.9647178" lon="49.3511852"><time>2023-06-17T09:13:09.217</time></trkpt><trkpt lat="55.9647487" lon="49.3512443"><time>2023-06-17T09:13:11.223</time></trkpt><trkpt lat="55.9647935" lon="49.3513253"><time>2023-06-17T09:13:14.220</time></trkpt><trkpt lat="55.9648367" lon="49.3514012"><time>2023-06-17T09:13:17.217</time></trkpt><trkpt lat="55.9648834" lon="49.3514803"><time>2023-06-17T09:13:20.210</time></trkpt><trkpt lat="55.9649393" lon="49.3515259"><time>2023-06-17T09:13:23.217</time></trkpt><trkpt lat="55.9649924" lon="49.3515815"><time>2023-06-17T09:13:26.227</time></trkpt><trkpt lat="55.9650406" lon="49.3516554"><time>2023-06-17T09:13:29.223</time></trkpt><trkpt lat="55.9650886" lon="49.3517276"><time>2023-06-17T09:13:32.220</time></trkpt><trkpt lat="55.9651456" lon="49.3517862"><time>2023-06-17T09:13:35.210</time></trkpt><trkpt lat="55.9651801" lon="49.3518406"><time>2023-06-17T09:13:37.220</time></trkpt><trkpt lat="55.9652322" lon="49.3519150"><time>2023-06-17T09:13:40.220</time></trkpt><trkpt lat="55.9652814" lon="49.3519960"><time>2023-06-17T09:13:43.223</time></trkpt><trkpt lat="55.9653182" lon="49.3520443"><time>2023-06-17T09:13:45.220</time></trkpt><trkpt lat="55.9653533" lon="49.3520996"><time>2023-06-17T09:13:47.217</time></trkpt><trkpt lat="55.9653847" lon="49.3521568"><time>2023-06-17T09:13:49.230</time></trkpt><trkpt lat="55.9654312" lon="49.3522257"><time>2023-06-17T09:13:52.230</time></trkpt><trkpt lat="55.9654844" lon="49.3522865"><time>2023-06-17T09:13:55.220</time></trkpt><trkpt lat="55.9655244" lon="49.3523284"><time>2023-06-17T09:13:57.217</time></trkpt><trkpt lat="55.9655675" lon="49.3523681"><time>2023-06-17T09:13:59.220</time></trkpt><trkpt lat="55.9656068" lon="49.3524123"><time>2023-06-17T09:14:01.220</time></trkpt><trkpt lat="55.9656425" lon="49.3524618"><time>2023-06-17T09:14:03.217</time></trkpt><trkpt lat="55.9656785" lon="49.3525168"><time>2023-06-17T09:14:05.220</time></trkpt><trkpt lat="55.9657168" lon="49.3525650"><time>2023-06-17T09:14:07.217</time></trkpt><trkpt lat="55.9657686" lon="49.3526365"><time>2023-06-17T09:14:10.223</time></trkpt><trkpt lat="55.9658170" lon="49.3527180"><time>2023-06-17T09:14:13.220</time></trkpt><trkpt lat="55.9658693" lon="49.3527892"><time>2023-06-17T09:14:16.230</time></trkpt><trkpt lat="55.9659055" lon="49.3528648"><time>2023-06-17T09:14:19.220</time></trkpt><trkpt lat="55.9659484" lon="49.3529480"><time>2023-06-17T09:14:22.220</time></trkpt><trkpt lat="55.9659912" lon="49.3530201"><time>2023-06-17T09:14:25.213</time></trkpt><trkpt lat="55.9660267" lon="49.3530761"><time>2023-06-17T09:14:27.217</time></trkpt><trkpt lat="55.9660650" lon="49.3531187"><time>2023-06-17T09:14:29.213</time></trkpt><trkpt lat="55.9661130" lon="49.3531918"><time>2023-06-17T09:14:32.213</time></trkpt><trkpt lat="55.9661506" lon="49.3532407"><time>2023-06-17T09:14:34.227</time></trkpt><trkpt lat="55.9661851" lon="49.3532925"><time>2023-06-17T09:14:36.223</time></trkpt><trkpt lat="55.9662302" lon="49.3533483"><time>2023-06-17T09:14:39.230</time></trkpt><trkpt lat="55.9662747" lon="49.3533788"><time>2023-06-17T09:14:42.227</time></trkpt><trkpt lat="55.9663104" lon="49.3534501"><time>2023-06-17T09:14:45.227</time></trkpt><trkpt lat="55.9663559" lon="49.3535047"><time>2023-06-17T09:14:48.230</time></trkpt><trkpt lat="55.9663878" lon="49.3535647"><time>2023-06-17T09:14:50.283</time></trkpt><trkpt lat="55.9664294" lon="49.3536526"><time>2023-06-17T09:14:53.230</time></trkpt><trkpt lat="55.9664660" lon="49.3537103"><time>2023-06-17T09:14:55.220</time></trkpt><trkpt lat="55.9665108" lon="49.3538024"><time>2023-06-17T09:14:58.240</time></trkpt><trkpt lat="55.9665404" lon="49.3538629"><time>2023-06-17T09:15:00.223</time></trkpt><trkpt lat="55.9665860" lon="49.3539480"><time>2023-06-17T09:15:03.230</time></trkpt><trkpt lat="55.9666186" lon="49.3540050"><time>2023-06-17T09:15:05.213</time></trkpt><trkpt lat="55.9666563" lon="49.3540894"><time>2023-06-17T09:15:08.220</time></trkpt><trkpt lat="55.9666945" lon="49.3541562"><time>2023-06-17T09:15:10.230</time></trkpt><trkpt lat="55.9667256" lon="49.3542213"><time>2023-06-17T09:15:12.227</time></trkpt><trkpt lat="55.9667577" lon="49.3542793"><time>2023-06-17T09:15:14.227</time></trkpt><trkpt lat="55.9667942" lon="49.3543282"><time>2023-06-17T09:15:16.220</time></trkpt><trkpt lat="55.9668233" lon="49.3543912"><time>2023-06-17T09:15:18.223</time></trkpt><trkpt lat="55.9668587" lon="49.3544811"><time>2023-06-17T09:15:21.230</time></trkpt><trkpt lat="55.9669271" lon="49.3544956"><time>2023-06-17T09:15:25.227</time></trkpt><trkpt lat="55.9669741" lon="49.3545583"><time>2023-06-17T09:15:27.220</time></trkpt><trkpt lat="55.9670231" lon="49.3546147"><time>2023-06-17T09:15:29.220</time></trkpt><trkpt lat="55.9670612" lon="49.3546600"><time>2023-06-17T09:15:31.227</time></trkpt><trkpt lat="55.9670979" lon="49.3547067"><time>2023-06-17T09:15:33.217</time></trkpt><trkpt lat="55.9671342" lon="49.3547987"><time>2023-06-17T09:15:36.220</time></trkpt><trkpt lat="55.9671914" lon="49.3548543"><time>2023-06-17T09:15:39.220</time></trkpt><trkpt lat="55.9672391" lon="49.3549285"><time>2023-06-17T09:15:42.213</time></trkpt><trkpt lat="55.9672805" lon="49.3550006"><time>2023-06-17T09:15:45.227</time></trkpt><trkpt lat="55.9673228" lon="49.3550637"><time>2023-06-17T09:15:48.223</time></trkpt><trkpt lat="55.9673530" lon="49.3551250"><time>2023-06-17T09:15:50.230</time></trkpt><trkpt lat="55.9673899" lon="49.3551857"><time>2023-06-17T09:15:52.227</time></trkpt><trkpt lat="55.9674338" lon="49.3552718"><time>2023-06-17T09:15:55.217</time></trkpt><trkpt lat="55.9674744" lon="49.3553693"><time>2023-06-17T09:15:58.220</time></trkpt><trkpt lat="55.9675189" lon="49.3554512"><time>2023-06-17T09:16:01.223</time></trkpt><trkpt lat="55.9675681" lon="49.3555212"><time>2023-06-17T09:16:04.223</time></trkpt><trkpt lat="55.9676198" lon="49.3555980"><time>2023-06-17T09:16:07.223</time></trkpt><trkpt lat="55.9676671" lon="49.3556747"><time>2023-06-17T09:16:10.223</time></trkpt><trkpt lat="55.9677178" lon="49.3557441"><time>2023-06-17T09:16:13.217</time></trkpt><trkpt lat="55.9677673" lon="49.3558256"><time>2023-06-17T09:16:16.227</time></trkpt><trkpt lat="55.9678148" lon="49.3559046"><time>2023-06-17T09:16:19.227</time></trkpt><trkpt lat="55.9678620" lon="49.3559674"><time>2023-06-17T09:16:22.220</time></trkpt><trkpt lat="55.9679099" lon="49.3560498"><time>2023-06-17T09:16:25.230</time></trkpt><trkpt lat="55.9679552" lon="49.3561338"><time>2023-06-17T09:16:28.220</time></trkpt><trkpt lat="55.9679911" lon="49.3561978"><time>2023-06-17T09:16:30.220</time></trkpt><trkpt lat="55.9680271" lon="49.3562919"><time>2023-06-17T09:16:33.223</time></trkpt><trkpt lat="55.9680782" lon="49.3563508"><time>2023-06-17T09:16:36.223</time></trkpt><trkpt lat="55.9681353" lon="49.3563935"><time>2023-06-17T09:16:39.217</time></trkpt><trkpt lat="55.9681708" lon="49.3564425"><time>2023-06-17T09:16:41.220</time></trkpt><trkpt lat="55.9682049" lon="49.3564952"><time>2023-06-17T09:16:43.217</time></trkpt><trkpt lat="55.9682364" lon="49.3565531"><time>2023-06-17T09:16:45.217</time></trkpt><trkpt lat="55.9682794" lon="49.3566003"><time>2023-06-17T09:16:48.220</time></trkpt><trkpt lat="55.9683163" lon="49.3566468"><time>2023-06-17T09:16:52.227</time></trkpt><trkpt lat="55.9683547" lon="49.3566914"><time>2023-06-17T09:16:55.223</time></trkpt><trkpt lat="55.9684025" lon="49.3567566"><time>2023-06-17T09:16:59.227</time></trkpt><trkpt lat="55.9684356" lon="49.3568267"><time>2023-06-17T09:17:03.230</time></trkpt><trkpt lat="55.9684782" lon="49.3568972"><time>2023-06-17T09:17:07.227</time></trkpt><trkpt lat="55.9685093" lon="49.3569702"><time>2023-06-17T09:17:11.223</time></trkpt><trkpt lat="55.9685401" lon="49.3570383"><time>2023-06-17T09:17:15.220</time></trkpt><trkpt lat="55.9685878" lon="49.3570453"><time>2023-06-17T09:17:24.207</time></trkpt><trkpt lat="55.9686256" lon="49.3571105"><time>2023-06-17T09:17:29.223</time></trkpt><trkpt lat="55.9686588" lon="49.3571659"><time>2023-06-17T09:17:33.227</time></trkpt><trkpt lat="55.9686928" lon="49.3572188"><time>2023-06-17T09:17:36.210</time></trkpt><trkpt lat="55.9687225" lon="49.3573049"><time>2023-06-17T09:17:40.223</time></trkpt><trkpt lat="55.9687029" lon="49.3573794"><time>2023-06-17T09:17:43.223</time></trkpt><trkpt lat="55.9686536" lon="49.3574414"><time>2023-06-17T09:17:47.220</time></trkpt><trkpt lat="55.9685940" lon="49.3574502"><time>2023-06-17T09:17:49.223</time></trkpt><trkpt lat="55.9685456" lon="49.3574565"><time>2023-06-17T09:17:51.217</time></trkpt><trkpt lat="55.9684810" lon="49.3574901"><time>2023-06-17T09:17:54.220</time></trkpt><trkpt lat="55.9684253" lon="49.3575335"><time>2023-06-17T09:17:57.210</time></trkpt><trkpt lat="55.9683652" lon="49.3575706"><time>2023-06-17T09:18:00.223</time></trkpt><trkpt lat="55.9683322" lon="49.3576398"><time>2023-06-17T09:18:02.220</time></trkpt><trkpt lat="55.9682926" lon="49.3577000"><time>2023-06-17T09:18:04.213</time></trkpt><trkpt lat="55.9682377" lon="49.3577650"><time>2023-06-17T09:18:07.227</time></trkpt><trkpt lat="55.9681879" lon="49.3578138"><time>2023-06-17T09:18:10.220</time></trkpt><trkpt lat="55.9681353" lon="49.3578262"><time>2023-06-17T09:18:14.207</time></trkpt><trkpt lat="55.9680825" lon="49.3578379"><time>2023-06-17T09:18:18.223</time></trkpt><trkpt lat="55.9680283" lon="49.3578298"><time>2023-06-17T09:18:22.207</time></trkpt><trkpt lat="55.9679683" lon="49.3578251"><time>2023-06-17T09:18:26.210</time></trkpt><trkpt lat="55.9679214" lon="49.3578020"><time>2023-06-17T09:18:29.207</time></trkpt><trkpt lat="55.9678751" lon="49.3577803"><time>2023-06-17T09:18:32.227</time></trkpt><trkpt lat="55.9678236" lon="49.3577561"><time>2023-06-17T09:18:35.220</time></trkpt><trkpt lat="55.9677738" lon="49.3577292"><time>2023-06-17T09:18:38.227</time></trkpt><trkpt lat="55.9677602" lon="49.3577140"><time>2023-06-17T09:18:39.703</time></trkpt><trkpt lat="55.9678226" lon="49.3577499"><time>2023-06-17T09:18:48.227</time></trkpt><trkpt lat="55.9678698" lon="49.3577573"><time>2023-06-17T09:18:52.223</time></trkpt><trkpt lat="55.9679210" lon="49.3577535"><time>2023-06-17T09:18:56.227</time></trkpt><trkpt lat="55.9679673" lon="49.3577676"><time>2023-06-17T09:18:59.217</time></trkpt><trkpt lat="55.9680231" lon="49.3577831"><time>2023-06-17T09:19:03.223</time></trkpt><trkpt lat="55.9680830" lon="49.3578143"><time>2023-06-17T09:19:07.227</time></trkpt><trkpt lat="55.9681375" lon="49.3578380"><time>2023-06-17T09:19:10.223</time></trkpt><trkpt lat="55.9681915" lon="49.3578530"><time>2023-06-17T09:19:14.217</time></trkpt><trkpt lat="55.9682365" lon="49.3578088"><time>2023-06-17T09:19:18.220</time></trkpt><trkpt lat="55.9682782" lon="49.3577763"><time>2023-06-17T09:19:21.217</time></trkpt><trkpt lat="55.9683250" lon="49.3577152"><time>2023-06-17T09:19:25.223</time></trkpt><trkpt lat="55.9683460" lon="49.3576425"><time>2023-06-17T09:19:28.217</time></trkpt><trkpt lat="55.9683901" lon="49.3575927"><time>2023-06-17T09:19:32.227</time></trkpt><trkpt lat="55.9684453" lon="49.3575748"><time>2023-06-17T09:19:36.220</time></trkpt><trkpt lat="55.9684968" lon="49.3575521"><time>2023-06-17T09:19:39.213</time></trkpt><trkpt lat="55.9685540" lon="49.3575465"><time>2023-06-17T09:19:42.223</time></trkpt><trkpt lat="55.9685989" lon="49.3575190"><time>2023-06-17T09:19:45.217</time></trkpt><trkpt lat="55.9686591" lon="49.3574992"><time>2023-06-17T09:19:49.217</time></trkpt><trkpt lat="55.9687129" lon="49.3574780"><time>2023-06-17T09:19:53.253</time></trkpt><trkpt lat="55.9687588" lon="49.3574687"><time>2023-06-17T09:19:56.217</time></trkpt><trkpt lat="55.9688056" lon="49.3574720"><time>2023-06-17T09:19:59.220</time></trkpt><trkpt lat="55.9688573" lon="49.3575323"><time>2023-06-17T09:20:03.220</time></trkpt><trkpt lat="55.9689009" lon="49.3575845"><time>2023-06-17T09:20:06.227</time></trkpt><trkpt lat="55.9689455" lon="49.3576538"><time>2023-06-17T09:20:10.217</time></trkpt><trkpt lat="55.9689900" lon="49.3577158"><time>2023-06-17T09:20:14.217</time></trkpt><trkpt lat="55.9690268" lon="49.3577653"><time>2023-06-17T09:20:17.223</time></trkpt><trkpt lat="55.9690663" lon="49.3578137"><time>2023-06-17T09:20:20.217</time></trkpt><trkpt lat="55.9690999" lon="49.3578771"><time>2023-06-17T09:20:23.230</time></trkpt><trkpt lat="55.9691356" lon="49.3579473"><time>2023-06-17T09:20:26.220</time></trkpt><trkpt lat="55.9691701" lon="49.3580061"><time>2023-06-17T09:20:29.217</time></trkpt><trkpt lat="55.9692170" lon="49.3580670"><time>2023-06-17T09:20:33.220</time></trkpt><trkpt lat="55.9692553" lon="49.3581125"><time>2023-06-17T09:20:36.223</time></trkpt><trkpt lat="55.9692960" lon="49.3581846"><time>2023-06-17T09:20:40.213</time></trkpt><trkpt lat="55.9693314" lon="49.3582346"><time>2023-06-17T09:20:43.227</time></trkpt><trkpt lat="55.9693646" lon="49.3582972"><time>2023-06-17T09:20:46.220</time></trkpt><trkpt lat="55.9694000" lon="49.3583660"><time>2023-06-17T09:20:49.217</time></trkpt><trkpt lat="55.9694472" lon="49.3584135"><time>2023-06-17T09:20:52.217</time></trkpt><trkpt lat="55.9695022" lon="49.3584281"><time>2023-06-17T09:20:55.213</time></trkpt><trkpt lat="55.9695513" lon="49.3583963"><time>2023-06-17T09:20:58.220</time></trkpt><trkpt lat="55.9696000" lon="49.3583506"><time>2023-06-17T09:21:02.220</time></trkpt><trkpt lat="55.9696379" lon="49.3582676"><time>2023-06-17T09:21:06.217</time></trkpt><trkpt lat="55.9696690" lon="49.3581997"><time>2023-06-17T09:21:09.217</time></trkpt><trkpt lat="55.9696991" lon="49.3581340"><time>2023-06-17T09:21:12.213</time></trkpt><trkpt lat="55.9697296" lon="49.3580724"><time>2023-06-17T09:21:15.227</time></trkpt><trkpt lat="55.9697688" lon="49.3580138"><time>2023-06-17T09:21:18.217</time></trkpt><trkpt lat="55.9698129" lon="49.3579400"><time>2023-06-17T09:21:22.217</time></trkpt><trkpt lat="55.9698436" lon="49.3578726"><time>2023-06-17T09:21:25.223</time></trkpt><trkpt lat="55.9698811" lon="49.3578170"><time>2023-06-17T09:21:29.227</time></trkpt><trkpt lat="55.9699147" lon="49.3577576"><time>2023-06-17T09:21:33.223</time></trkpt><trkpt lat="55.9699440" lon="49.3576665"><time>2023-06-17T09:21:37.230</time></trkpt><trkpt lat="55.9699787" lon="49.3575885"><time>2023-06-17T09:21:41.223</time></trkpt><trkpt lat="55.9700143" lon="49.3575026"><time>2023-06-17T09:21:45.227</time></trkpt><trkpt lat="55.9700361" lon="49.3574279"><time>2023-06-17T09:21:48.213</time></trkpt><trkpt lat="55.9700792" lon="49.3573696"><time>2023-06-17T09:21:52.220</time></trkpt><trkpt lat="55.9701089" lon="49.3573062"><time>2023-06-17T09:21:55.217</time></trkpt><trkpt lat="55.9701495" lon="49.3572358"><time>2023-06-17T09:21:59.210</time></trkpt><trkpt lat="55.9701841" lon="49.3571815"><time>2023-06-17T09:22:02.220</time></trkpt><trkpt lat="55.9702311" lon="49.3571432"><time>2023-06-17T09:22:05.220</time></trkpt><trkpt lat="55.9702677" lon="49.3570663"><time>2023-06-17T09:22:08.223</time></trkpt><trkpt lat="55.9702946" lon="49.3569811"><time>2023-06-17T09:22:11.217</time></trkpt><trkpt lat="55.9703259" lon="49.3568945"><time>2023-06-17T09:22:14.220</time></trkpt><trkpt lat="55.9703638" lon="49.3568346"><time>2023-06-17T09:22:16.227</time></trkpt><trkpt lat="55.9704020" lon="49.3567613"><time>2023-06-17T09:22:18.217</time></trkpt><trkpt lat="55.9704401" lon="49.3566854"><time>2023-06-17T09:22:20.220</time></trkpt><trkpt lat="55.9704805" lon="49.3566260"><time>2023-06-17T09:22:22.220</time></trkpt><trkpt lat="55.9705118" lon="49.3565546"><time>2023-06-17T09:22:24.237</time></trkpt><trkpt lat="55.9705400" lon="49.3564887"><time>2023-06-17T09:22:26.220</time></trkpt><trkpt lat="55.9705699" lon="49.3564224"><time>2023-06-17T09:22:28.220</time></trkpt><trkpt lat="55.9706014" lon="49.3563447"><time>2023-06-17T09:22:30.220</time></trkpt><trkpt lat="55.9706287" lon="49.3562778"><time>2023-06-17T09:22:32.223</time></trkpt><trkpt lat="55.9706610" lon="49.3562217"><time>2023-06-17T09:22:34.220</time></trkpt><trkpt lat="55.9706960" lon="49.3561628"><time>2023-06-17T09:22:36.213</time></trkpt><trkpt lat="55.9707281" lon="49.3560995"><time>2023-06-17T09:22:38.220</time></trkpt><trkpt lat="55.9707598" lon="49.3560418"><time>2023-06-17T09:22:40.220</time></trkpt><trkpt lat="55.9707961" lon="49.3559441"><time>2023-06-17T09:22:43.210</time></trkpt><trkpt lat="55.9708226" lon="49.3558741"><time>2023-06-17T09:22:45.227</time></trkpt><trkpt lat="55.9708559" lon="49.3558151"><time>2023-06-17T09:22:47.220</time></trkpt><trkpt lat="55.9708893" lon="49.3557389"><time>2023-06-17T09:22:51.217</time></trkpt><trkpt lat="55.9709111" lon="49.3556578"><time>2023-06-17T09:22:55.223</time></trkpt><trkpt lat="55.9709301" lon="49.3555827"><time>2023-06-17T09:22:59.243</time></trkpt><trkpt lat="55.9709675" lon="49.3555135"><time>2023-06-17T09:23:03.220</time></trkpt><trkpt lat="55.9710012" lon="49.3554594"><time>2023-06-17T09:23:07.220</time></trkpt><trkpt lat="55.9710409" lon="49.3553973"><time>2023-06-17T09:23:11.230</time></trkpt><trkpt lat="55.9710726" lon="49.3553330"><time>2023-06-17T09:23:14.223</time></trkpt><trkpt lat="55.9711100" lon="49.3552537"><time>2023-06-17T09:23:18.223</time></trkpt><trkpt lat="55.9711417" lon="49.3551678"><time>2023-06-17T09:23:21.203</time></trkpt><trkpt lat="55.9711733" lon="49.3551078"><time>2023-06-17T09:23:23.240</time></trkpt><trkpt lat="55.9712029" lon="49.3550362"><time>2023-06-17T09:23:25.227</time></trkpt><trkpt lat="55.9712377" lon="49.3549663"><time>2023-06-17T09:23:27.227</time></trkpt><trkpt lat="55.9712782" lon="49.3549179"><time>2023-06-17T09:23:29.223</time></trkpt><trkpt lat="55.9713149" lon="49.3548514"><time>2023-06-17T09:23:31.223</time></trkpt><trkpt lat="55.9713590" lon="49.3547759"><time>2023-06-17T09:23:34.227</time></trkpt><trkpt lat="55.9714011" lon="49.3546913"><time>2023-06-17T09:23:37.227</time></trkpt><trkpt lat="55.9714455" lon="49.3546161"><time>2023-06-17T09:23:40.217</time></trkpt><trkpt lat="55.9714871" lon="49.3545419"><time>2023-06-17T09:23:43.227</time></trkpt><trkpt lat="55.9715243" lon="49.3544887"><time>2023-06-17T09:23:45.260</time></trkpt><trkpt lat="55.9715563" lon="49.3544215"><time>2023-06-17T09:23:47.227</time></trkpt><trkpt lat="55.9715919" lon="49.3543592"><time>2023-06-17T09:23:50.223</time></trkpt><trkpt lat="55.9716316" lon="49.3542756"><time>2023-06-17T09:23:53.313</time></trkpt><trkpt lat="55.9716584" lon="49.3541884"><time>2023-06-17T09:23:56.230</time></trkpt><trkpt lat="55.9716980" lon="49.3541075"><time>2023-06-17T09:23:59.220</time></trkpt><trkpt lat="55.9717318" lon="49.3540411"><time>2023-06-17T09:24:01.237</time></trkpt><trkpt lat="55.9717674" lon="49.3539864"><time>2023-06-17T09:24:03.220</time></trkpt><trkpt lat="55.9718001" lon="49.3539257"><time>2023-06-17T09:24:05.287</time></trkpt><trkpt lat="55.9718341" lon="49.3538639"><time>2023-06-17T09:24:07.240</time></trkpt><trkpt lat="55.9718694" lon="49.3537608"><time>2023-06-17T09:24:10.227</time></trkpt><trkpt lat="55.9718962" lon="49.3536956"><time>2023-06-17T09:24:12.267</time></trkpt><trkpt lat="55.9719454" lon="49.3536338"><time>2023-06-17T09:24:15.223</time></trkpt><trkpt lat="55.9719894" lon="49.3535507"><time>2023-06-17T09:24:18.223</time></trkpt><trkpt lat="55.9720287" lon="49.3534608"><time>2023-06-17T09:24:21.253</time></trkpt><trkpt lat="55.9720559" lon="49.3533739"><time>2023-06-17T09:24:24.303</time></trkpt><trkpt lat="55.9720781" lon="49.3533040"><time>2023-06-17T09:24:27.220</time></trkpt><trkpt lat="55.9721065" lon="49.3532404"><time>2023-06-17T09:24:29.333</time></trkpt><trkpt lat="55.9721390" lon="49.3531748"><time>2023-06-17T09:24:32.240</time></trkpt><trkpt lat="55.9721855" lon="49.3530853"><time>2023-06-17T09:24:34.253</time></trkpt><trkpt lat="55.9722216" lon="49.3530229"><time>2023-06-17T09:24:36.307</time></trkpt><trkpt lat="55.9722587" lon="49.3529657"><time>2023-06-17T09:24:38.230</time></trkpt><trkpt lat="55.9722999" lon="49.3529085"><time>2023-06-17T09:24:41.267</time></trkpt><trkpt lat="55.9723402" lon="49.3528676"><time>2023-06-17T09:24:43.260</time></trkpt><trkpt lat="55.9723688" lon="49.3527806"><time>2023-06-17T09:24:47.220</time></trkpt><trkpt lat="55.9723919" lon="49.3526850"><time>2023-06-17T09:24:50.223</time></trkpt><trkpt lat="55.9724221" lon="49.3526144"><time>2023-06-17T09:24:53.257</time></trkpt><trkpt lat="55.9724632" lon="49.3525435"><time>2023-06-17T09:24:57.230</time></trkpt><trkpt lat="55.9725037" lon="49.3524668"><time>2023-06-17T09:25:00.223</time></trkpt><trkpt lat="55.9725586" lon="49.3524071"><time>2023-06-17T09:25:03.227</time></trkpt><trkpt lat="55.9725834" lon="49.3523354"><time>2023-06-17T09:25:05.227</time></trkpt><trkpt lat="55.9726190" lon="49.3522722"><time>2023-06-17T09:25:07.220</time></trkpt><trkpt lat="55.9726595" lon="49.3521850"><time>2023-06-17T09:25:10.250</time></trkpt><trkpt lat="55.9726767" lon="49.3521012"><time>2023-06-17T09:25:13.250</time></trkpt><trkpt lat="55.9726510" lon="49.3520309"><time>2023-06-17T09:25:16.220</time></trkpt><trkpt lat="55.9726110" lon="49.3519836"><time>2023-06-17T09:25:19.237</time></trkpt><trkpt lat="55.9725750" lon="49.3519346"><time>2023-06-17T09:25:22.263</time></trkpt><trkpt lat="55.9725384" lon="49.3518659"><time>2023-06-17T09:25:25.287</time></trkpt><trkpt lat="55.9725076" lon="49.3517949"><time>2023-06-17T09:25:27.220</time></trkpt><trkpt lat="55.9724739" lon="49.3517404"><time>2023-06-17T09:25:29.250</time></trkpt><trkpt lat="55.9724366" lon="49.3516772"><time>2023-06-17T09:25:31.250</time></trkpt><trkpt lat="55.9724033" lon="49.3516134"><time>2023-06-17T09:25:33.260</time></trkpt><trkpt lat="55.9723608" lon="49.3515583"><time>2023-06-17T09:25:35.267</time></trkpt><trkpt lat="55.9723278" lon="49.3514959"><time>2023-06-17T09:25:38.243</time></trkpt><trkpt lat="55.9722814" lon="49.3514545"><time>2023-06-17T09:25:41.320</time></trkpt><trkpt lat="55.9722268" lon="49.3513874"><time>2023-06-17T09:25:44.260</time></trkpt><trkpt lat="55.9721884" lon="49.3513032"><time>2023-06-17T09:25:47.227</time></trkpt><trkpt lat="55.9721464" lon="49.3512222"><time>2023-06-17T09:25:50.247</time></trkpt><trkpt lat="55.9720904" lon="49.3511547"><time>2023-06-17T09:25:53.250</time></trkpt><trkpt lat="55.9720527" lon="49.3511057"><time>2023-06-17T09:25:55.237</time></trkpt><trkpt lat="55.9720010" lon="49.3510586"><time>2023-06-17T09:25:58.217</time></trkpt><trkpt lat="55.9719757" lon="49.3509828"><time>2023-06-17T09:26:01.227</time></trkpt><trkpt lat="55.9719604" lon="49.3509002"><time>2023-06-17T09:26:04.213</time></trkpt><trkpt lat="55.9719237" lon="49.3508399"><time>2023-06-17T09:26:07.227</time></trkpt><trkpt lat="55.9718834" lon="49.3507814"><time>2023-06-17T09:26:11.243</time></trkpt><trkpt lat="55.9718494" lon="49.3507250"><time>2023-06-17T09:26:13.257</time></trkpt><trkpt lat="55.9718169" lon="49.3506636"><time>2023-06-17T09:26:16.267</time></trkpt><trkpt lat="55.9717723" lon="49.3506190"><time>2023-06-17T09:26:19.213</time></trkpt><trkpt lat="55.9717327" lon="49.3505754"><time>2023-06-17T09:26:22.213</time></trkpt><trkpt lat="55.9716947" lon="49.3505132"><time>2023-06-17T09:26:26.230</time></trkpt><trkpt lat="55.9716605" lon="49.3504579"><time>2023-06-17T09:26:30.207</time></trkpt><trkpt lat="55.9716136" lon="49.3503973"><time>2023-06-17T09:26:34.217</time></trkpt><trkpt lat="55.9715704" lon="49.3503306"><time>2023-06-17T09:26:38.210</time></trkpt><trkpt lat="55.9715307" lon="49.3502687"><time>2023-06-17T09:26:42.220</time></trkpt><trkpt lat="55.9714907" lon="49.3502024"><time>2023-06-17T09:26:46.213</time></trkpt><trkpt lat="55.9714464" lon="49.3501608"><time>2023-06-17T09:26:50.217</time></trkpt><trkpt lat="55.9714039" lon="49.3501104"><time>2023-06-17T09:26:54.213</time></trkpt><trkpt lat="55.9713659" lon="49.3500450"><time>2023-06-17T09:26:58.227</time></trkpt><trkpt lat="55.9713307" lon="49.3499804"><time>2023-06-17T09:27:01.230</time></trkpt><trkpt lat="55.9712837" lon="49.3499184"><time>2023-06-17T09:27:04.220</time></trkpt><trkpt lat="55.9712408" lon="49.3498476"><time>2023-06-17T09:27:08.223</time></trkpt><trkpt lat="55.9711972" lon="49.3497880"><time>2023-06-17T09:27:12.217</time></trkpt><trkpt lat="55.9711658" lon="49.3497123"><time>2023-06-17T09:27:15.203</time></trkpt><trkpt lat="55.9711243" lon="49.3496443"><time>2023-06-17T09:27:19.217</time></trkpt><trkpt lat="55.9710801" lon="49.3495932"><time>2023-06-17T09:27:23.223</time></trkpt><trkpt lat="55.9710402" lon="49.3495422"><time>2023-06-17T09:27:26.223</time></trkpt><trkpt lat="55.9710082" lon="49.3494822"><time>2023-06-17T09:27:29.227</time></trkpt><trkpt lat="55.9709630" lon="49.3494118"><time>2023-06-17T09:27:33.230</time></trkpt><trkpt lat="55.9709290" lon="49.3493543"><time>2023-06-17T09:27:36.227</time></trkpt><trkpt lat="55.9708836" lon="49.3492910"><time>2023-06-17T09:27:39.220</time></trkpt><trkpt lat="55.9708465" lon="49.3492345"><time>2023-06-17T09:27:42.227</time></trkpt><trkpt lat="55.9708106" lon="49.3491814"><time>2023-06-17T09:27:45.200</time></trkpt><trkpt lat="55.9707748" lon="49.3491227"><time>2023-06-17T09:27:48.213</time></trkpt><trkpt lat="55.9707292" lon="49.3490604"><time>2023-06-17T09:27:52.217</time></trkpt><trkpt lat="55.9706823" lon="49.3489926"><time>2023-06-17T09:27:56.227</time></trkpt><trkpt lat="55.9706480" lon="49.3489350"><time>2023-06-17T09:27:59.223</time></trkpt><trkpt lat="55.9706168" lon="49.3488694"><time>2023-06-17T09:28:02.207</time></trkpt><trkpt lat="55.9705799" lon="49.3488088"><time>2023-06-17T09:28:06.230</time></trkpt><trkpt lat="55.9705388" lon="49.3487537"><time>2023-06-17T09:28:10.227</time></trkpt><trkpt lat="55.9704982" lon="49.3487024"><time>2023-06-17T09:28:14.223</time></trkpt><trkpt lat="55.9704614" lon="49.3486489"><time>2023-06-17T09:28:17.217</time></trkpt><trkpt lat="55.9704245" lon="49.3485872"><time>2023-06-17T09:28:21.220</time></trkpt><trkpt lat="55.9703857" lon="49.3485271"><time>2023-06-17T09:28:24.217</time></trkpt><trkpt lat="55.9703378" lon="49.3484696"><time>2023-06-17T09:28:27.213</time></trkpt><trkpt lat="55.9702917" lon="49.3483956"><time>2023-06-17T09:28:31.220</time></trkpt><trkpt lat="55.9702609" lon="49.3483362"><time>2023-06-17T09:28:34.227</time></trkpt><trkpt lat="55.9702191" lon="49.3482635"><time>2023-06-17T09:28:38.220</time></trkpt><trkpt lat="55.9701874" lon="49.3481880"><time>2023-06-17T09:28:42.227</time></trkpt><trkpt lat="55.9701472" lon="49.3481311"><time>2023-06-17T09:28:45.227</time></trkpt><trkpt lat="55.9701114" lon="49.3480660"><time>2023-06-17T09:28:48.223</time></trkpt><trkpt lat="55.9700749" lon="49.3480094"><time>2023-06-17T09:28:50.217</time></trkpt><trkpt lat="55.9700257" lon="49.3479404"><time>2023-06-17T09:28:53.227</time></trkpt><trkpt lat="55.9699881" lon="49.3478538"><time>2023-06-17T09:28:56.223</time></trkpt><trkpt lat="55.9699540" lon="49.3477922"><time>2023-06-17T09:28:58.220</time></trkpt><trkpt lat="55.9699193" lon="49.3477214"><time>2023-06-17T09:29:01.220</time></trkpt><trkpt lat="55.9698670" lon="49.3476479"><time>2023-06-17T09:29:04.223</time></trkpt><trkpt lat="55.9698217" lon="49.3475901"><time>2023-06-17T09:29:06.227</time></trkpt><trkpt lat="55.9697681" lon="49.3475183"><time>2023-06-17T09:29:09.217</time></trkpt><trkpt lat="55.9697267" lon="49.3474661"><time>2023-06-17T09:29:11.213</time></trkpt><trkpt lat="55.9696809" lon="49.3473956"><time>2023-06-17T09:29:15.227</time></trkpt><trkpt lat="55.9696303" lon="49.3473325"><time>2023-06-17T09:29:18.223</time></trkpt><trkpt lat="55.9695904" lon="49.3472749"><time>2023-06-17T09:29:20.240</time></trkpt><trkpt lat="55.9695355" lon="49.3472080"><time>2023-06-17T09:29:23.220</time></trkpt><trkpt lat="55.9694892" lon="49.3471298"><time>2023-06-17T09:29:26.303</time></trkpt><trkpt lat="55.9694434" lon="49.3470552"><time>2023-06-17T09:29:29.257</time></trkpt><trkpt lat="55.9694009" lon="49.3469927"><time>2023-06-17T09:29:32.297</time></trkpt><trkpt lat="55.9693661" lon="49.3469356"><time>2023-06-17T09:29:35.227</time></trkpt><trkpt lat="55.9693331" lon="49.3468710"><time>2023-06-17T09:29:38.280</time></trkpt><trkpt lat="55.9692881" lon="49.3468339"><time>2023-06-17T09:29:42.243</time></trkpt><trkpt lat="55.9692621" lon="49.3467599"><time>2023-06-17T09:29:45.220</time></trkpt><trkpt lat="55.9692309" lon="49.3466977"><time>2023-06-17T09:29:48.253</time></trkpt><trkpt lat="55.9691886" lon="49.3466440"><time>2023-06-17T09:29:51.297</time></trkpt><trkpt lat="55.9691543" lon="49.3465877"><time>2023-06-17T09:29:54.227</time></trkpt><trkpt lat="55.9691188" lon="49.3465187"><time>2023-06-17T09:29:57.247</time></trkpt><trkpt lat="55.9691079" lon="49.3464325"><time>2023-06-17T09:30:00.243</time></trkpt><trkpt lat="55.9691183" lon="49.3463488"><time>2023-06-17T09:30:03.270</time></trkpt><trkpt lat="55.9691377" lon="49.3462696"><time>2023-06-17T09:30:06.320</time></trkpt><trkpt lat="55.9691710" lon="49.3462060"><time>2023-06-17T09:30:09.217</time></trkpt><trkpt lat="55.9692112" lon="49.3461403"><time>2023-06-17T09:30:14.227</time></trkpt><trkpt lat="55.9692480" lon="49.3460495"><time>2023-06-17T09:30:18.257</time></trkpt><trkpt lat="55.9692743" lon="49.3459784"><time>2023-06-17T09:30:20.247</time></trkpt><trkpt lat="55.9693170" lon="49.3459132"><time>2023-06-17T09:30:22.260</time></trkpt><trkpt lat="55.9693544" lon="49.3458384"><time>2023-06-17T09:30:24.210</time></trkpt><trkpt lat="55.9693938" lon="49.3457776"><time>2023-06-17T09:30:27.263</time></trkpt><trkpt lat="55.9694354" lon="49.3456873"><time>2023-06-17T09:30:30.303</time></trkpt><trkpt lat="55.9694828" lon="49.3456291"><time>2023-06-17T09:30:33.253</time></trkpt><trkpt lat="55.9695241" lon="49.3455417"><time>2023-06-17T09:30:36.223</time></trkpt><trkpt lat="55.9695458" lon="49.3454672"><time>2023-06-17T09:30:38.227</time></trkpt><trkpt lat="55.9695676" lon="49.3453925"><time>2023-06-17T09:30:40.223</time></trkpt><trkpt lat="55.9695991" lon="49.3453255"><time>2023-06-17T09:30:42.227</time></trkpt><trkpt lat="55.9696247" lon="49.3452400"><time>2023-06-17T09:30:44.223</time></trkpt><trkpt lat="55.9696546" lon="49.3451740"><time>2023-06-17T09:30:46.217</time></trkpt><trkpt lat="55.9696886" lon="49.3451178"><time>2023-06-17T09:30:48.230</time></trkpt><trkpt lat="55.9697240" lon="49.3450457"><time>2023-06-17T09:30:51.227</time></trkpt><trkpt lat="55.9697599" lon="49.3449755"><time>2023-06-17T09:30:54.233</time></trkpt><trkpt lat="55.9698040" lon="49.3448915"><time>2023-06-17T09:30:57.217</time></trkpt><trkpt lat="55.9698390" lon="49.3448274"><time>2023-06-17T09:31:00.227</time></trkpt><trkpt lat="55.9698787" lon="49.3447632"><time>2023-06-17T09:31:03.230</time></trkpt><trkpt lat="55.9699146" lon="49.3446838"><time>2023-06-17T09:31:06.223</time></trkpt><trkpt lat="55.9699479" lon="49.3446209"><time>2023-06-17T09:31:08.223</time></trkpt><trkpt lat="55.9699785" lon="49.3445564"><time>2023-06-17T09:31:10.227</time></trkpt><trkpt lat="55.9700101" lon="49.3444969"><time>2023-06-17T09:31:12.213</time></trkpt><trkpt lat="55.9700416" lon="49.3444138"><time>2023-06-17T09:31:15.227</time></trkpt><trkpt lat="55.9700869" lon="49.3443273"><time>2023-06-17T09:31:18.223</time></trkpt><trkpt lat="55.9701206" lon="49.3442690"><time>2023-06-17T09:31:20.217</time></trkpt><trkpt lat="55.9701598" lon="49.3441843"><time>2023-06-17T09:31:23.230</time></trkpt><trkpt lat="55.9702005" lon="49.3441037"><time>2023-06-17T09:31:26.233</time></trkpt><trkpt lat="55.9702399" lon="49.3440225"><time>2023-06-17T09:31:29.227</time></trkpt><trkpt lat="55.9702538" lon="49.3439458"><time>2023-06-17T09:31:32.223</time></trkpt><trkpt lat="55.9702787" lon="49.3438723"><time>2023-06-17T09:31:36.217</time></trkpt><trkpt lat="55.9703089" lon="49.3438011"><time>2023-06-17T09:31:41.250</time></trkpt><trkpt lat="55.9703409" lon="49.3437201"><time>2023-06-17T09:31:45.223</time></trkpt><trkpt lat="55.9703839" lon="49.3436736"><time>2023-06-17T09:31:48.250</time></trkpt><trkpt lat="55.9704283" lon="49.3436033"><time>2023-06-17T09:31:51.283</time></trkpt><trkpt lat="55.9704591" lon="49.3435177"><time>2023-06-17T09:31:54.213</time></trkpt><trkpt lat="55.9704889" lon="49.3434540"><time>2023-06-17T09:31:57.250</time></trkpt><trkpt lat="55.9705192" lon="49.3433837"><time>2023-06-17T09:32:00.287</time></trkpt><trkpt lat="55.9705547" lon="49.3432984"><time>2023-06-17T09:32:04.227</time></trkpt><trkpt lat="55.9705829" lon="49.3432360"><time>2023-06-17T09:32:07.250</time></trkpt><trkpt lat="55.9706124" lon="49.3431504"><time>2023-06-17T09:32:11.300</time></trkpt><trkpt lat="55.9706442" lon="49.3430662"><time>2023-06-17T09:32:15.233</time></trkpt><trkpt lat="55.9706809" lon="49.3429950"><time>2023-06-17T09:32:19.223</time></trkpt><trkpt lat="55.9707273" lon="49.3429239"><time>2023-06-17T09:32:23.227</time></trkpt><trkpt lat="55.9707514" lon="49.3428555"><time>2023-06-17T09:32:26.220</time></trkpt><trkpt lat="55.9707806" lon="49.3427632"><time>2023-06-17T09:32:30.297</time></trkpt><trkpt lat="55.9708209" lon="49.3426893"><time>2023-06-17T09:32:34.233</time></trkpt><trkpt lat="55.9708622" lon="49.3426539"><time>2023-06-17T09:32:37.317</time></trkpt><trkpt lat="55.9708991" lon="49.3425917"><time>2023-06-17T09:32:41.290</time></trkpt><trkpt lat="55.9709350" lon="49.3425408"><time>2023-06-17T09:32:45.247</time></trkpt><trkpt lat="55.9709568" lon="49.3424650"><time>2023-06-17T09:32:49.230</time></trkpt><trkpt lat="55.9709561" lon="49.3423762"><time>2023-06-17T09:32:53.257</time></trkpt><trkpt lat="55.9709500" lon="49.3422964"><time>2023-06-17T09:32:56.233</time></trkpt><trkpt lat="55.9709212" lon="49.3422044"><time>2023-06-17T09:33:00.227</time></trkpt><trkpt lat="55.9709011" lon="49.3421251"><time>2023-06-17T09:33:03.250</time></trkpt><trkpt lat="55.9708672" lon="49.3420469"><time>2023-06-17T09:33:07.287</time></trkpt><trkpt lat="55.9708366" lon="49.3419692"><time>2023-06-17T09:33:11.253</time></trkpt><trkpt lat="55.9708190" lon="49.3418799"><time>2023-06-17T09:33:15.227</time></trkpt><trkpt lat="55.9707956" lon="49.3417884"><time>2023-06-17T09:33:19.250</time></trkpt><trkpt lat="55.9707725" lon="49.3416986"><time>2023-06-17T09:33:23.287</time></trkpt><trkpt lat="55.9707505" lon="49.3416098"><time>2023-06-17T09:33:28.230</time></trkpt><trkpt lat="55.9707332" lon="49.3415101"><time>2023-06-17T09:33:31.283</time></trkpt><trkpt lat="55.9707117" lon="49.3414163"><time>2023-06-17T09:33:35.220</time></trkpt><trkpt lat="55.9706902" lon="49.3413381"><time>2023-06-17T09:33:39.223</time></trkpt><trkpt lat="55.9706790" lon="49.3412487"><time>2023-06-17T09:33:43.227</time></trkpt><trkpt lat="55.9706661" lon="49.3411561"><time>2023-06-17T09:33:47.300</time></trkpt><trkpt lat="55.9706448" lon="49.3410583"><time>2023-06-17T09:33:51.310</time></trkpt><trkpt lat="55.9706293" lon="49.3409606"><time>2023-06-17T09:33:55.220</time></trkpt><trkpt lat="55.9706136" lon="49.3408822"><time>2023-06-17T09:33:59.290</time></trkpt><trkpt lat="55.9705998" lon="49.3407897"><time>2023-06-17T09:34:02.253</time></trkpt><trkpt lat="55.9705686" lon="49.3407129"><time>2023-06-17T09:34:05.227</time></trkpt><trkpt lat="55.9705380" lon="49.3406298"><time>2023-06-17T09:34:08.237</time></trkpt><trkpt lat="55.9705079" lon="49.3405421"><time>2023-06-17T09:34:12.270</time></trkpt><trkpt lat="55.9704863" lon="49.3404482"><time>2023-06-17T09:34:16.230</time></trkpt><trkpt lat="55.9704593" lon="49.3403546"><time>2023-06-17T09:34:20.253</time></trkpt><trkpt lat="55.9704451" lon="49.3402660"><time>2023-06-17T09:34:23.273</time></trkpt><trkpt lat="55.9704377" lon="49.3401848"><time>2023-06-17T09:34:26.237</time></trkpt><trkpt lat="55.9704252" lon="49.3401059"><time>2023-06-17T09:34:29.323</time></trkpt><trkpt lat="55.9704037" lon="49.3400157"><time>2023-06-17T09:34:33.253</time></trkpt><trkpt lat="55.9703773" lon="49.3399430"><time>2023-06-17T09:34:37.267</time></trkpt><trkpt lat="55.9703710" lon="49.3398633"><time>2023-06-17T09:34:40.230</time></trkpt><trkpt lat="55.9703351" lon="49.3398125"><time>2023-06-17T09:34:43.213</time></trkpt><trkpt lat="55.9703314" lon="49.3397131"><time>2023-06-17T09:34:47.213</time></trkpt><trkpt lat="55.9703303" lon="49.3396111"><time>2023-06-17T09:34:50.297</time></trkpt><trkpt lat="55.9703131" lon="49.3395256"><time>2023-06-17T09:34:54.223</time></trkpt><trkpt lat="55.9702986" lon="49.3394386"><time>2023-06-17T09:35:05.230</time></trkpt><trkpt lat="55.9702932" lon="49.3393568"><time>2023-06-17T09:35:15.227</time></trkpt><trkpt lat="55.9702753" lon="49.3392790"><time>2023-06-17T09:35:19.227</time></trkpt><trkpt lat="55.9702510" lon="49.3391885"><time>2023-06-17T09:35:24.230</time></trkpt><trkpt lat="55.9702248" lon="49.3391064"><time>2023-06-17T09:35:28.257</time></trkpt><trkpt lat="55.9701959" lon="49.3390238"><time>2023-06-17T09:35:32.250</time></trkpt><trkpt lat="55.9701721" lon="49.3389490"><time>2023-06-17T09:35:35.233</time></trkpt><trkpt lat="55.9701501" lon="49.3388615"><time>2023-06-17T09:35:38.250</time></trkpt><trkpt lat="55.9701359" lon="49.3387786"><time>2023-06-17T09:35:41.263</time></trkpt><trkpt lat="55.9701226" lon="49.3386954"><time>2023-06-17T09:35:44.233</time></trkpt><trkpt lat="55.9700992" lon="49.3386114"><time>2023-06-17T09:35:48.247</time></trkpt><trkpt lat="55.9700790" lon="49.3385184"><time>2023-06-17T09:35:52.267</time></trkpt><trkpt lat="55.9700552" lon="49.3384363"><time>2023-06-17T09:35:56.230</time></trkpt><trkpt lat="55.9700351" lon="49.3383427"><time>2023-06-17T09:36:00.277</time></trkpt><trkpt lat="55.9700137" lon="49.3382475"><time>2023-06-17T09:36:04.250</time></trkpt><trkpt lat="55.9699873" lon="49.3381822"><time>2023-06-17T09:36:07.300</time></trkpt><trkpt lat="55.9699742" lon="49.3380973"><time>2023-06-17T09:36:15.230</time></trkpt><trkpt lat="55.9699487" lon="49.3380234"><time>2023-06-17T09:36:19.253</time></trkpt><trkpt lat="55.9699325" lon="49.3379266"><time>2023-06-17T09:36:23.270</time></trkpt><trkpt lat="55.9699407" lon="49.3378373"><time>2023-06-17T09:36:27.287</time></trkpt><trkpt lat="55.9699185" lon="49.3377461"><time>2023-06-17T09:36:31.277</time></trkpt><trkpt lat="55.9698945" lon="49.3376668"><time>2023-06-17T09:36:35.227</time></trkpt><trkpt lat="55.9698759" lon="49.3375682"><time>2023-06-17T09:36:39.250</time></trkpt><trkpt lat="55.9698493" lon="49.3374968"><time>2023-06-17T09:36:43.303</time></trkpt><trkpt lat="55.9698289" lon="49.3374109"><time>2023-06-17T09:36:47.247</time></trkpt><trkpt lat="55.9698092" lon="49.3373116"><time>2023-06-17T09:36:51.267</time></trkpt><trkpt lat="55.9697764" lon="49.3372227"><time>2023-06-17T09:36:55.227</time></trkpt><trkpt lat="55.9697578" lon="49.3371403"><time>2023-06-17T09:36:59.300</time></trkpt><trkpt lat="55.9697415" lon="49.3370654"><time>2023-06-17T09:37:04.220</time></trkpt><trkpt lat="55.9697290" lon="49.3369673"><time>2023-06-17T09:37:08.260</time></trkpt><trkpt lat="55.9697059" lon="49.3368711"><time>2023-06-17T09:37:12.270</time></trkpt><trkpt lat="55.9696898" lon="49.3367751"><time>2023-06-17T09:37:15.227</time></trkpt><trkpt lat="55.9696713" lon="49.3366825"><time>2023-06-17T09:37:18.230</time></trkpt><trkpt lat="55.9696509" lon="49.3366078"><time>2023-06-17T09:37:21.277</time></trkpt><trkpt lat="55.9696235" lon="49.3365240"><time>2023-06-17T09:37:25.227</time></trkpt><trkpt lat="55.9696000" lon="49.3364326"><time>2023-06-17T09:37:29.267</time></trkpt><trkpt lat="55.9696039" lon="49.3363324"><time>2023-06-17T09:37:32.313</time></trkpt><trkpt lat="55.9695977" lon="49.3362272"><time>2023-06-17T09:37:38.220</time></trkpt><trkpt lat="55.9695730" lon="49.3361410"><time>2023-06-17T09:37:40.223</time></trkpt><trkpt lat="55.9695370" lon="49.3360847"><time>2023-06-17T09:37:43.310</time></trkpt><trkpt lat="55.9695118" lon="49.3360156"><time>2023-06-17T09:37:46.237</time></trkpt><trkpt lat="55.9694992" lon="49.3359302"><time>2023-06-17T09:37:50.310</time></trkpt><trkpt lat="55.9694726" lon="49.3358372"><time>2023-06-17T09:37:54.267</time></trkpt><trkpt lat="55.9694456" lon="49.3357562"><time>2023-06-17T09:37:58.290</time></trkpt><trkpt lat="55.9694258" lon="49.3356809"><time>2023-06-17T09:38:03.253</time></trkpt><trkpt lat="55.9693851" lon="49.3356207"><time>2023-06-17T09:38:08.347</time></trkpt><trkpt lat="55.9693491" lon="49.3355658"><time>2023-06-17T09:38:14.240</time></trkpt><trkpt lat="55.9693144" lon="49.3355069"><time>2023-06-17T09:38:17.257</time></trkpt><trkpt lat="55.9692770" lon="49.3354398"><time>2023-06-17T09:38:21.297</time></trkpt><trkpt lat="55.9692326" lon="49.3353915"><time>2023-06-17T09:38:25.240</time></trkpt><trkpt lat="55.9691909" lon="49.3353325"><time>2023-06-17T09:38:29.307</time></trkpt><trkpt lat="55.9691659" lon="49.3352620"><time>2023-06-17T09:38:32.270</time></trkpt><trkpt lat="55.9691356" lon="49.3351774"><time>2023-06-17T09:38:36.233</time></trkpt><trkpt lat="55.9691000" lon="49.3351149"><time>2023-06-17T09:38:40.250</time></trkpt><trkpt lat="55.9690559" lon="49.3350838"><time>2023-06-17T09:38:44.227</time></trkpt><trkpt lat="55.9690120" lon="49.3350579"><time>2023-06-17T09:38:48.323</time></trkpt><trkpt lat="55.9689707" lon="49.3349956"><time>2023-06-17T09:38:52.217</time></trkpt><trkpt lat="55.9689398" lon="49.3349336"><time>2023-06-17T09:39:19.213</time></trkpt><trkpt lat="55.9689014" lon="49.3348827"><time>2023-06-17T09:39:24.240</time></trkpt><trkpt lat="55.9688643" lon="49.3348248"><time>2023-06-17T09:39:28.290</time></trkpt><trkpt lat="55.9688323" lon="49.3347647"><time>2023-06-17T09:39:33.233</time></trkpt><trkpt lat="55.9687969" lon="49.3347014"><time>2023-06-17T09:39:38.230</time></trkpt><trkpt lat="55.9687619" lon="49.3346506"><time>2023-06-17T09:39:42.227</time></trkpt><trkpt lat="55.9687183" lon="49.3345872"><time>2023-06-17T09:39:47.243</time></trkpt><trkpt lat="55.9686796" lon="49.3345344"><time>2023-06-17T09:39:51.253</time></trkpt><trkpt lat="55.9686363" lon="49.3344703"><time>2023-06-17T09:39:54.230</time></trkpt><trkpt lat="55.9685968" lon="49.3344151"><time>2023-06-17T09:39:57.267</time></trkpt><trkpt lat="55.9685624" lon="49.3343461"><time>2023-06-17T09:40:00.287</time></trkpt><trkpt lat="55.9685287" lon="49.3342793"><time>2023-06-17T09:40:03.240</time></trkpt><trkpt lat="55.9684863" lon="49.3342456"><time>2023-06-17T09:40:06.290</time></trkpt><trkpt lat="55.9684546" lon="49.3341784"><time>2023-06-17T09:40:09.257</time></trkpt><trkpt lat="55.9684056" lon="49.3341362"><time>2023-06-17T09:40:13.227</time></trkpt><trkpt lat="55.9683623" lon="49.3340720"><time>2023-06-17T09:40:18.303</time></trkpt><trkpt lat="55.9683178" lon="49.3340193"><time>2023-06-17T09:40:22.237</time></trkpt><trkpt lat="55.9682891" lon="49.3339410"><time>2023-06-17T09:40:26.227</time></trkpt><trkpt lat="55.9682388" lon="49.3339123"><time>2023-06-17T09:40:36.253</time></trkpt><trkpt lat="55.9682048" lon="49.3338582"><time>2023-06-17T09:40:40.257</time></trkpt><trkpt lat="55.9681728" lon="49.3337759"><time>2023-06-17T09:40:44.227</time></trkpt><trkpt lat="55.9681387" lon="49.3336992"><time>2023-06-17T09:40:48.267</time></trkpt><trkpt lat="55.9680988" lon="49.3336206"><time>2023-06-17T09:40:52.233</time></trkpt><trkpt lat="55.9680522" lon="49.3335570"><time>2023-06-17T09:40:56.230</time></trkpt><trkpt lat="55.9680083" lon="49.3334919"><time>2023-06-17T09:41:00.223</time></trkpt><trkpt lat="55.9679715" lon="49.3334152"><time>2023-06-17T09:41:04.217</time></trkpt><trkpt lat="55.9679290" lon="49.3333607"><time>2023-06-17T09:41:08.250</time></trkpt><trkpt lat="55.9679007" lon="49.3332901"><time>2023-06-17T09:41:11.263</time></trkpt><trkpt lat="55.9678544" lon="49.3332309"><time>2023-06-17T09:41:14.217</time></trkpt><trkpt lat="55.9678056" lon="49.3331797"><time>2023-06-17T09:41:17.250</time></trkpt><trkpt lat="55.9677576" lon="49.3331036"><time>2023-06-17T09:41:20.250</time></trkpt><trkpt lat="55.9677222" lon="49.3330457"><time>2023-06-17T09:41:22.237</time></trkpt><trkpt lat="55.9676747" lon="49.3329710"><time>2023-06-17T09:41:25.257</time></trkpt><trkpt lat="55.9676441" lon="49.3329003"><time>2023-06-17T09:41:28.247</time></trkpt><trkpt lat="55.9676027" lon="49.3328229"><time>2023-06-17T09:41:31.257</time></trkpt><trkpt lat="55.9675484" lon="49.3327518"><time>2023-06-17T09:41:34.237</time></trkpt><trkpt lat="55.9675080" lon="49.3326998"><time>2023-06-17T09:41:36.253</time></trkpt><trkpt lat="55.9674594" lon="49.3326325"><time>2023-06-17T09:41:39.307</time></trkpt><trkpt lat="55.9674104" lon="49.3325774"><time>2023-06-17T09:41:42.233</time></trkpt><trkpt lat="55.9673628" lon="49.3325269"><time>2023-06-17T09:41:46.290</time></trkpt><trkpt lat="55.9673403" lon="49.3324557"><time>2023-06-17T09:41:50.280</time></trkpt><trkpt lat="55.9673210" lon="49.3323808"><time>2023-06-17T09:41:54.237</time></trkpt><trkpt lat="55.9672755" lon="49.3323636"><time>2023-06-17T09:41:58.280</time></trkpt><trkpt lat="55.9672376" lon="49.3323001"><time>2023-06-17T09:42:03.230</time></trkpt><trkpt lat="55.9671960" lon="49.3322584"><time>2023-06-17T09:42:15.307</time></trkpt><trkpt lat="55.9672468" lon="49.3322469"><time>2023-06-17T09:42:19.257</time></trkpt><trkpt lat="55.9672985" lon="49.3322138"><time>2023-06-17T09:42:24.233</time></trkpt><trkpt lat="55.9673454" lon="49.3321814"><time>2023-06-17T09:42:28.297</time></trkpt><trkpt lat="55.9673844" lon="49.3321234"><time>2023-06-17T09:42:33.227</time></trkpt><trkpt lat="55.9674258" lon="49.3320865"><time>2023-06-17T09:42:40.233</time></trkpt><trkpt lat="55.9674714" lon="49.3320397"><time>2023-06-17T09:42:45.227</time></trkpt><trkpt lat="55.9675164" lon="49.3320005"><time>2023-06-17T09:42:50.227</time></trkpt><trkpt lat="55.9675602" lon="49.3319807"><time>2023-06-17T09:42:54.247</time></trkpt><trkpt lat="55.9676111" lon="49.3319793"><time>2023-06-17T09:43:14.237</time></trkpt><trkpt lat="55.9676555" lon="49.3319322"><time>2023-06-17T09:43:19.247</time></trkpt><trkpt lat="55.9677022" lon="49.3318902"><time>2023-06-17T09:43:23.227</time></trkpt><trkpt lat="55.9677524" lon="49.3318513"><time>2023-06-17T09:43:27.297</time></trkpt><trkpt lat="55.9677973" lon="49.3318184"><time>2023-06-17T09:43:31.267</time></trkpt><trkpt lat="55.9678476" lon="49.3317955"><time>2023-06-17T09:43:35.277</time></trkpt><trkpt lat="55.9679041" lon="49.3317675"><time>2023-06-17T09:43:39.247</time></trkpt><trkpt lat="55.9679461" lon="49.3317387"><time>2023-06-17T09:43:42.410</time></trkpt><trkpt lat="55.9679915" lon="49.3317187"><time>2023-06-17T09:43:45.277</time></trkpt><trkpt lat="55.9680398" lon="49.3316722"><time>2023-06-17T09:43:49.253</time></trkpt><trkpt lat="55.9680897" lon="49.3316504"><time>2023-06-17T09:43:53.240</time></trkpt><trkpt lat="55.9681329" lon="49.3316248"><time>2023-06-17T09:43:57.320</time></trkpt><trkpt lat="55.9681683" lon="49.3315608"><time>2023-06-17T09:44:01.290</time></trkpt><trkpt lat="55.9682143" lon="49.3315074"><time>2023-06-17T09:44:06.250</time></trkpt><trkpt lat="55.9682554" lon="49.3314674"><time>2023-06-17T09:44:10.303</time></trkpt><trkpt lat="55.9683075" lon="49.3314557"><time>2023-06-17T09:44:14.243</time></trkpt><trkpt lat="55.9683614" lon="49.3314171"><time>2023-06-17T09:44:18.257</time></trkpt><trkpt lat="55.9684024" lon="49.3313703"><time>2023-06-17T09:44:21.267</time></trkpt><trkpt lat="55.9684462" lon="49.3313455"><time>2023-06-17T09:44:24.243</time></trkpt><trkpt lat="55.9684933" lon="49.3313322"><time>2023-06-17T09:44:29.257</time></trkpt><trkpt lat="55.9685124" lon="49.3314144"><time>2023-06-17T09:44:40.253</time></trkpt><trkpt lat="55.9685485" lon="49.3314726"><time>2023-06-17T09:44:46.247</time></trkpt><trkpt lat="55.9685827" lon="49.3315264"><time>2023-06-17T09:44:50.267</time></trkpt><trkpt lat="55.9686071" lon="49.3315970"><time>2023-06-17T09:44:54.230</time></trkpt><trkpt lat="55.9686278" lon="49.3316931"><time>2023-06-17T09:45:00.277</time></trkpt><trkpt lat="55.9686570" lon="49.3317722"><time>2023-06-17T09:45:04.233</time></trkpt><trkpt lat="55.9686197" lon="49.3317195"><time>2023-06-17T09:45:15.237</time></trkpt><trkpt lat="55.9685919" lon="49.3316379"><time>2023-06-17T09:45:20.250</time></trkpt><trkpt lat="55.9685718" lon="49.3315540"><time>2023-06-17T09:45:24.230</time></trkpt><trkpt lat="55.9685508" lon="49.3314540"><time>2023-06-17T09:45:29.297</time></trkpt><trkpt lat="55.9685400" lon="49.3313663"><time>2023-06-17T09:45:33.230</time></trkpt><trkpt lat="55.9685679" lon="49.3313024"><time>2023-06-17T09:45:42.257</time></trkpt><trkpt lat="55.9686162" lon="49.3312560"><time>2023-06-17T09:45:46.253</time></trkpt><trkpt lat="55.9686616" lon="49.3312114"><time>2023-06-17T09:45:51.257</time></trkpt><trkpt lat="55.9687113" lon="49.3311834"><time>2023-06-17T09:45:57.293</time></trkpt><trkpt lat="55.9687322" lon="49.3311326"><time>2023-06-17T09:46:04.017</time></trkpt><trkpt lat="55.9687370" lon="49.3311177"><time>2023-06-17T09:46:06.217</time></trkpt><trkpt lat="55.9687845" lon="49.3311291"><time>2023-06-17T09:46:10.317</time></trkpt><trkpt lat="55.9688297" lon="49.3311108"><time>2023-06-17T09:46:15.230</time></trkpt><trkpt lat="55.9688761" lon="49.3310808"><time>2023-06-17T09:46:20.240</time></trkpt><trkpt lat="55.9689312" lon="49.3310642"><time>2023-06-17T09:46:25.280</time></trkpt><trkpt lat="55.9689760" lon="49.3310113"><time>2023-06-17T09:46:30.267</time></trkpt><trkpt lat="55.9690151" lon="49.3309543"><time>2023-06-17T09:46:35.227</time></trkpt><trkpt lat="55.9690638" lon="49.3309102"><time>2023-06-17T09:46:41.297</time></trkpt><trkpt lat="55.9691165" lon="49.3309076"><time>2023-06-17T09:46:46.253</time></trkpt><trkpt lat="55.9691655" lon="49.3308643"><time>2023-06-17T09:46:51.250</time></trkpt><trkpt lat="55.9692066" lon="49.3308125"><time>2023-06-17T09:46:55.250</time></trkpt><trkpt lat="55.9692563" lon="49.3307768"><time>2023-06-17T09:46:59.253</time></trkpt><trkpt lat="55.9693056" lon="49.3307544"><time>2023-06-17T09:47:03.230</time></trkpt><trkpt lat="55.9693608" lon="49.3307392"><time>2023-06-17T09:47:07.263</time></trkpt><trkpt lat="55.9694094" lon="49.3307113"><time>2023-06-17T09:47:11.253</time></trkpt><trkpt lat="55.9694632" lon="49.3306800"><time>2023-06-17T09:47:16.267</time></trkpt><trkpt lat="55.9695192" lon="49.3306428"><time>2023-06-17T09:47:19.263</time></trkpt><trkpt lat="55.9695783" lon="49.3305974"><time>2023-06-17T09:47:22.267</time></trkpt><trkpt lat="55.9696190" lon="49.3305627"><time>2023-06-17T09:47:24.233</time></trkpt><trkpt lat="55.9696635" lon="49.3305370"><time>2023-06-17T09:47:26.313</time></trkpt><trkpt lat="55.9697108" lon="49.3305143"><time>2023-06-17T09:47:28.307</time></trkpt><trkpt lat="55.9697694" lon="49.3304698"><time>2023-06-17T09:47:31.260</time></trkpt><trkpt lat="55.9698080" lon="49.3304279"><time>2023-06-17T09:47:33.233</time></trkpt><trkpt lat="55.9698692" lon="49.3303825"><time>2023-06-17T09:47:36.223</time></trkpt><trkpt lat="55.9699205" lon="49.3303593"><time>2023-06-17T09:47:39.237</time></trkpt><trkpt lat="55.9699698" lon="49.3303418"><time>2023-06-17T09:47:42.233</time></trkpt><trkpt lat="55.9700147" lon="49.3303230"><time>2023-06-17T09:47:46.223</time></trkpt><trkpt lat="55.9700555" lon="49.3302723"><time>2023-06-17T09:47:50.243</time></trkpt><trkpt lat="55.9701037" lon="49.3302178"><time>2023-06-17T09:47:54.237</time></trkpt><trkpt lat="55.9701555" lon="49.3301867"><time>2023-06-17T09:47:57.230</time></trkpt><trkpt lat="55.9702157" lon="49.3301559"><time>2023-06-17T09:48:00.227</time></trkpt><trkpt lat="55.9702592" lon="49.3301284"><time>2023-06-17T09:48:02.233</time></trkpt><trkpt lat="55.9703203" lon="49.3300903"><time>2023-06-17T09:48:05.217</time></trkpt><trkpt lat="55.9703611" lon="49.3300558"><time>2023-06-17T09:48:07.223</time></trkpt><trkpt lat="55.9704210" lon="49.3300302"><time>2023-06-17T09:48:10.237</time></trkpt><trkpt lat="55.9704825" lon="49.3299884"><time>2023-06-17T09:48:13.220</time></trkpt><trkpt lat="55.9705374" lon="49.3299340"><time>2023-06-17T09:48:16.227</time></trkpt><trkpt lat="55.9705963" lon="49.3298976"><time>2023-06-17T09:48:19.227</time></trkpt><trkpt lat="55.9706474" lon="49.3298565"><time>2023-06-17T09:48:22.247</time></trkpt><trkpt lat="55.9707020" lon="49.3298100"><time>2023-06-17T09:48:25.223</time></trkpt><trkpt lat="55.9707575" lon="49.3297751"><time>2023-06-17T09:48:28.233</time></trkpt><trkpt lat="55.9708190" lon="49.3297297"><time>2023-06-17T09:48:31.243</time></trkpt><trkpt lat="55.9708686" lon="49.3296913"><time>2023-06-17T09:48:34.237</time></trkpt><trkpt lat="55.9709309" lon="49.3296519"><time>2023-06-17T09:48:37.230</time></trkpt><trkpt lat="55.9709928" lon="49.3296118"><time>2023-06-17T09:48:40.223</time></trkpt><trkpt lat="55.9710534" lon="49.3295708"><time>2023-06-17T09:48:43.220</time></trkpt><trkpt lat="55.9711150" lon="49.3295238"><time>2023-06-17T09:48:46.223</time></trkpt><trkpt lat="55.9711639" lon="49.3294949"><time>2023-06-17T09:48:49.223</time></trkpt><trkpt lat="55.9712083" lon="49.3294610"><time>2023-06-17T09:48:52.237</time></trkpt><trkpt lat="55.9712608" lon="49.3294116"><time>2023-06-17T09:48:56.247</time></trkpt><trkpt lat="55.9713035" lon="49.3293449"><time>2023-06-17T09:49:00.237</time></trkpt><trkpt lat="55.9713421" lon="49.3292906"><time>2023-06-17T09:49:04.223</time></trkpt><trkpt lat="55.9713885" lon="49.3292508"><time>2023-06-17T09:49:08.237</time></trkpt><trkpt lat="55.9714393" lon="49.3292177"><time>2023-06-17T09:49:12.237</time></trkpt><trkpt lat="55.9714859" lon="49.3292088"><time>2023-06-17T09:49:15.247</time></trkpt><trkpt lat="55.9715329" lon="49.3291956"><time>2023-06-17T09:49:18.233</time></trkpt><trkpt lat="55.9715791" lon="49.3291689"><time>2023-06-17T09:49:21.227</time></trkpt><trkpt lat="55.9716309" lon="49.3291351"><time>2023-06-17T09:49:25.230</time></trkpt><trkpt lat="55.9716727" lon="49.3291011"><time>2023-06-17T09:49:28.223</time></trkpt><trkpt lat="55.9717186" lon="49.3290638"><time>2023-06-17T09:49:31.237</time></trkpt><trkpt lat="55.9717677" lon="49.3290334"><time>2023-06-17T09:49:34.240</time></trkpt><trkpt lat="55.9718104" lon="49.3289991"><time>2023-06-17T09:49:37.240</time></trkpt><trkpt lat="55.9718538" lon="49.3289611"><time>2023-06-17T09:49:40.233</time></trkpt><trkpt lat="55.9719063" lon="49.3289296"><time>2023-06-17T09:49:44.243</time></trkpt><trkpt lat="55.9719571" lon="49.3288970"><time>2023-06-17T09:49:48.230</time></trkpt><trkpt lat="55.9719989" lon="49.3288603"><time>2023-06-17T09:49:51.220</time></trkpt><trkpt lat="55.9720378" lon="49.3288141"><time>2023-06-17T09:49:54.230</time></trkpt><trkpt lat="55.9720902" lon="49.3287687"><time>2023-06-17T09:49:58.237</time></trkpt><trkpt lat="55.9721281" lon="49.3287256"><time>2023-06-17T09:50:01.230</time></trkpt><trkpt lat="55.9721654" lon="49.3286583"><time>2023-06-17T09:50:05.237</time></trkpt><trkpt lat="55.9722210" lon="49.3286369"><time>2023-06-17T09:50:09.237</time></trkpt><trkpt lat="55.9722818" lon="49.3286307"><time>2023-06-17T09:50:13.223</time></trkpt><trkpt lat="55.9723352" lon="49.3286158"><time>2023-06-17T09:50:17.237</time></trkpt><trkpt lat="55.9723346" lon="49.3287032"><time>2023-06-17T09:50:20.230</time></trkpt><trkpt lat="55.9723595" lon="49.3287920"><time>2023-06-17T09:50:25.237</time></trkpt><trkpt lat="55.9724061" lon="49.3288366"><time>2023-06-17T09:50:29.233</time></trkpt><trkpt lat="55.9724506" lon="49.3288859"><time>2023-06-17T09:50:33.250</time></trkpt><trkpt lat="55.9724820" lon="49.3289618"><time>2023-06-17T09:50:37.237</time></trkpt><trkpt lat="55.9725093" lon="49.3290298"><time>2023-06-17T09:50:40.227</time></trkpt><trkpt lat="55.9725382" lon="49.3290924"><time>2023-06-17T09:50:43.227</time></trkpt><trkpt lat="55.9725739" lon="49.3291712"><time>2023-06-17T09:50:47.227</time></trkpt><trkpt lat="55.9725924" lon="49.3292459"><time>2023-06-17T09:50:50.230</time></trkpt><trkpt lat="55.9726162" lon="49.3293333"><time>2023-06-17T09:50:54.223</time></trkpt><trkpt lat="55.9726556" lon="49.3293946"><time>2023-06-17T09:50:58.240</time></trkpt><trkpt lat="55.9726857" lon="49.3294553"><time>2023-06-17T09:51:01.240</time></trkpt><trkpt lat="55.9727222" lon="49.3295094"><time>2023-06-17T09:51:04.240</time></trkpt><trkpt lat="55.9727669" lon="49.3295271"><time>2023-06-17T09:51:07.237</time></trkpt><trkpt lat="55.9728193" lon="49.3295663"><time>2023-06-17T09:51:12.227</time></trkpt><trkpt lat="55.9728605" lon="49.3296292"><time>2023-06-17T09:51:16.233</time></trkpt><trkpt lat="55.9728966" lon="49.3297004"><time>2023-06-17T09:51:20.230</time></trkpt><trkpt lat="55.9729473" lon="49.3297361"><time>2023-06-17T09:51:24.237</time></trkpt><trkpt lat="55.9729860" lon="49.3298100"><time>2023-06-17T09:51:28.233</time></trkpt><trkpt lat="55.9730170" lon="49.3298792"><time>2023-06-17T09:51:31.240</time></trkpt><trkpt lat="55.9730503" lon="49.3299339"><time>2023-06-17T09:51:34.237</time></trkpt><trkpt lat="55.9730985" lon="49.3299691"><time>2023-06-17T09:51:38.237</time></trkpt><trkpt lat="55.9731478" lon="49.3300210"><time>2023-06-17T09:51:42.237</time></trkpt><trkpt lat="55.9731769" lon="49.3300900"><time>2023-06-17T09:51:45.243</time></trkpt><trkpt lat="55.9732269" lon="49.3301475"><time>2023-06-17T09:51:49.237</time></trkpt><trkpt lat="55.9732671" lon="49.3301874"><time>2023-06-17T09:51:52.237</time></trkpt><trkpt lat="55.9733059" lon="49.3302563"><time>2023-06-17T09:51:56.233</time></trkpt><trkpt lat="55.9733349" lon="49.3303404"><time>2023-06-17T09:52:00.227</time></trkpt><trkpt lat="55.9733760" lon="49.3304140"><time>2023-06-17T09:52:04.247</time></trkpt><trkpt lat="55.9734151" lon="49.3304858"><time>2023-06-17T09:52:08.230</time></trkpt><trkpt lat="55.9734568" lon="49.3305492"><time>2023-06-17T09:52:12.227</time></trkpt><trkpt lat="55.9735066" lon="49.3305961"><time>2023-06-17T09:52:16.227</time></trkpt><trkpt lat="55.9735573" lon="49.3306437"><time>2023-06-17T09:52:20.230</time></trkpt><trkpt lat="55.9736026" lon="49.3306944"><time>2023-06-17T09:52:24.227</time></trkpt><trkpt lat="55.9736448" lon="49.3307437"><time>2023-06-17T09:52:28.213</time></trkpt><trkpt lat="55.9736953" lon="49.3307871"><time>2023-06-17T09:52:32.230</time></trkpt><trkpt lat="55.9737451" lon="49.3308286"><time>2023-06-17T09:52:36.217</time></trkpt><trkpt lat="55.9737860" lon="49.3308926"><time>2023-06-17T09:52:40.237</time></trkpt><trkpt lat="55.9738256" lon="49.3309429"><time>2023-06-17T09:52:43.220</time></trkpt><trkpt lat="55.9738529" lon="49.3310075"><time>2023-06-17T09:52:46.233</time></trkpt><trkpt lat="55.9738873" lon="49.3310717"><time>2023-06-17T09:52:49.230</time></trkpt><trkpt lat="55.9739096" lon="49.3311572"><time>2023-06-17T09:52:53.237</time></trkpt><trkpt lat="55.9739476" lon="49.3312291"><time>2023-06-17T09:52:57.257</time></trkpt><trkpt lat="55.9739985" lon="49.3312745"><time>2023-06-17T09:53:01.297</time></trkpt><trkpt lat="55.9740368" lon="49.3313473"><time>2023-06-17T09:53:06.270</time></trkpt><trkpt lat="55.9740769" lon="49.3314099"><time>2023-06-17T09:53:10.293</time></trkpt><trkpt lat="55.9741091" lon="49.3314682"><time>2023-06-17T09:53:24.243</time></trkpt><trkpt lat="55.9741473" lon="49.3315218"><time>2023-06-17T09:53:28.260</time></trkpt><trkpt lat="55.9741890" lon="49.3315858"><time>2023-06-17T09:53:33.287</time></trkpt><trkpt lat="55.9742284" lon="49.3316529"><time>2023-06-17T09:53:37.293</time></trkpt><trkpt lat="55.9742641" lon="49.3317307"><time>2023-06-17T09:53:41.310</time></trkpt><trkpt lat="55.9742955" lon="49.3317972"><time>2023-06-17T09:53:44.237</time></trkpt><trkpt lat="55.9743364" lon="49.3318374"><time>2023-06-17T09:53:48.307</time></trkpt><trkpt lat="55.9743723" lon="49.3318918"><time>2023-06-17T09:53:51.267</time></trkpt><trkpt lat="55.9744081" lon="49.3319586"><time>2023-06-17T09:53:54.240</time></trkpt><trkpt lat="55.9744434" lon="49.3320309"><time>2023-06-17T09:53:58.283</time></trkpt><trkpt lat="55.9744843" lon="49.3320874"><time>2023-06-17T09:54:02.300</time></trkpt><trkpt lat="55.9745254" lon="49.3321254"><time>2023-06-17T09:54:05.227</time></trkpt><trkpt lat="55.9745614" lon="49.3321996"><time>2023-06-17T09:54:09.240</time></trkpt><trkpt lat="55.9745886" lon="49.3322740"><time>2023-06-17T09:54:12.293</time></trkpt><trkpt lat="55.9746268" lon="49.3323184"><time>2023-06-17T09:54:15.243</time></trkpt><trkpt lat="55.9746674" lon="49.3323543"><time>2023-06-17T09:54:18.273</time></trkpt><trkpt lat="55.9747190" lon="49.3323967"><time>2023-06-17T09:54:22.267</time></trkpt><trkpt lat="55.9747580" lon="49.3324449"><time>2023-06-17T09:54:25.237</time></trkpt><trkpt lat="55.9747956" lon="49.3324901"><time>2023-06-17T09:54:28.257</time></trkpt><trkpt lat="55.9748176" lon="49.3325642"><time>2023-06-17T09:54:33.267</time></trkpt><trkpt lat="55.9748423" lon="49.3326477"><time>2023-06-17T09:54:38.283</time></trkpt><trkpt lat="55.9748704" lon="49.3327155"><time>2023-06-17T09:54:41.253</time></trkpt><trkpt lat="55.9749056" lon="49.3327754"><time>2023-06-17T09:54:44.240</time></trkpt><trkpt lat="55.9749411" lon="49.3328317"><time>2023-06-17T09:54:47.247</time></trkpt><trkpt lat="55.9749818" lon="49.3328845"><time>2023-06-17T09:54:50.290</time></trkpt><trkpt lat="55.9750234" lon="49.3329625"><time>2023-06-17T09:54:54.233</time></trkpt><trkpt lat="55.9750648" lon="49.3330088"><time>2023-06-17T09:54:57.307</time></trkpt><trkpt lat="55.9751042" lon="49.3330489"><time>2023-06-17T09:55:00.287</time></trkpt><trkpt lat="55.9751444" lon="49.3330968"><time>2023-06-17T09:55:03.307</time></trkpt><trkpt lat="55.9751903" lon="49.3331344"><time>2023-06-17T09:55:06.250</time></trkpt><trkpt lat="55.9752212" lon="49.3332083"><time>2023-06-17T09:55:09.300</time></trkpt><trkpt lat="55.9752591" lon="49.3332749"><time>2023-06-17T09:55:12.263</time></trkpt><trkpt lat="55.9752871" lon="49.3333516"><time>2023-06-17T09:55:15.247</time></trkpt><trkpt lat="55.9753144" lon="49.3334178"><time>2023-06-17T09:55:18.253</time></trkpt><trkpt lat="55.9753522" lon="49.3334933"><time>2023-06-17T09:55:22.240</time></trkpt><trkpt lat="55.9753629" lon="49.3335720"><time>2023-06-17T09:55:25.237</time></trkpt><trkpt lat="55.9753998" lon="49.3336414"><time>2023-06-17T09:55:29.293</time></trkpt><trkpt lat="55.9754420" lon="49.3337047"><time>2023-06-17T09:55:33.260</time></trkpt><trkpt lat="55.9754895" lon="49.3337497"><time>2023-06-17T09:55:37.257</time></trkpt><trkpt lat="55.9755316" lon="49.3337897"><time>2023-06-17T09:55:40.290</time></trkpt><trkpt lat="55.9755697" lon="49.3338456"><time>2023-06-17T09:55:43.283</time></trkpt><trkpt lat="55.9756229" lon="49.3338927"><time>2023-06-17T09:55:46.270</time></trkpt><trkpt lat="55.9756686" lon="49.3339553"><time>2023-06-17T09:55:49.297</time></trkpt><trkpt lat="55.9757241" lon="49.3340195"><time>2023-06-17T09:55:52.263</time></trkpt><trkpt lat="55.9757731" lon="49.3340844"><time>2023-06-17T09:55:55.223</time></trkpt><trkpt lat="55.9757980" lon="49.3341516"><time>2023-06-17T09:55:58.270</time></trkpt><trkpt lat="55.9758343" lon="49.3342139"><time>2023-06-17T09:56:02.257</time></trkpt><trkpt lat="55.9758746" lon="49.3342663"><time>2023-06-17T09:56:06.230</time></trkpt><trkpt lat="55.9759210" lon="49.3343083"><time>2023-06-17T09:56:10.253</time></trkpt><trkpt lat="55.9759644" lon="49.3343706"><time>2023-06-17T09:56:14.237</time></trkpt><trkpt lat="55.9759969" lon="49.3344353"><time>2023-06-17T09:56:17.277</time></trkpt><trkpt lat="55.9760351" lon="49.3344998"><time>2023-06-17T09:56:20.280</time></trkpt><trkpt lat="55.9760749" lon="49.3345388"><time>2023-06-17T09:56:23.263</time></trkpt><trkpt lat="55.9760368" lon="49.3344838"><time>2023-06-17T09:56:40.287</time></trkpt><trkpt lat="55.9760001" lon="49.3344185"><time>2023-06-17T09:56:44.237</time></trkpt><trkpt lat="55.9760190" lon="49.3344937"><time>2023-06-17T09:56:52.313</time></trkpt><trkpt lat="55.9759855" lon="49.3345489"><time>2023-06-17T09:56:57.297</time></trkpt><trkpt lat="55.9759439" lon="49.3346154"><time>2023-06-17T09:57:02.257</time></trkpt><trkpt lat="55.9759377" lon="49.3347064"><time>2023-06-17T09:57:07.280</time></trkpt><trkpt lat="55.9759132" lon="49.3347854"><time>2023-06-17T09:57:13.250</time></trkpt><trkpt lat="55.9759265" lon="49.3348772"><time>2023-06-17T09:57:18.247</time></trkpt><trkpt lat="55.9759238" lon="49.3349684"><time>2023-06-17T09:57:23.250</time></trkpt><trkpt lat="55.9759051" lon="49.3350460"><time>2023-06-17T09:57:27.247</time></trkpt><trkpt lat="55.9758828" lon="49.3351350"><time>2023-06-17T09:57:30.263</time></trkpt><trkpt lat="55.9758494" lon="49.3352224"><time>2023-06-17T09:57:34.243</time></trkpt><trkpt lat="55.9758122" lon="49.3352821"><time>2023-06-17T09:57:38.267</time></trkpt><trkpt lat="55.9757650" lon="49.3352436"><time>2023-06-17T09:57:42.263</time></trkpt><trkpt lat="55.9757162" lon="49.3352411"><time>2023-06-17T09:57:50.287</time></trkpt><trkpt lat="55.9756750" lon="49.3352996"><time>2023-06-17T09:57:56.227</time></trkpt><trkpt lat="55.9756520" lon="49.3353960"><time>2023-06-17T09:58:02.210</time></trkpt><trkpt lat="55.9756044" lon="49.3354378"><time>2023-06-17T09:58:07.227</time></trkpt><trkpt lat="55.9755811" lon="49.3354805"><time>2023-06-17T09:58:11.233</time></trkpt><trkpt lat="55.9756269" lon="49.3355106"><time>2023-06-17T09:58:19.307</time></trkpt><trkpt lat="55.9756796" lon="49.3354940"><time>2023-06-17T09:58:26.240</time></trkpt><trkpt lat="55.9757202" lon="49.3354224"><time>2023-06-17T09:58:34.237</time></trkpt><trkpt lat="55.9757723" lon="49.3354148"><time>2023-06-17T09:58:39.307</time></trkpt><trkpt lat="55.9758048" lon="49.3353375"><time>2023-06-17T09:58:45.237</time></trkpt><trkpt lat="55.9758041" lon="49.3352560"><time>2023-06-17T09:58:48.253</time></trkpt><trkpt lat="55.9758298" lon="49.3351761"><time>2023-06-17T09:58:52.267</time></trkpt><trkpt lat="55.9758583" lon="49.3351049"><time>2023-06-17T09:58:58.267</time></trkpt><trkpt lat="55.9758567" lon="49.3350179"><time>2023-06-17T09:59:02.310</time></trkpt><trkpt lat="55.9758689" lon="49.3349331"><time>2023-06-17T09:59:07.260</time></trkpt><trkpt lat="55.9758740" lon="49.3348486"><time>2023-06-17T09:59:11.257</time></trkpt><trkpt lat="55.9758773" lon="49.3347671"><time>2023-06-17T09:59:15.233</time></trkpt><trkpt lat="55.9759138" lon="49.3347071"><time>2023-06-17T09:59:20.317</time></trkpt><trkpt lat="55.9759606" lon="49.3347107"><time>2023-06-17T09:59:24.240</time></trkpt><trkpt lat="55.9759970" lon="49.3346537"><time>2023-06-17T09:59:29.317</time></trkpt><trkpt lat="55.9760379" lon="49.3346100"><time>2023-06-17T09:59:34.233</time></trkpt><trkpt lat="55.9760941" lon="49.3346048"><time>2023-06-17T09:59:40.280</time></trkpt><trkpt lat="55.9761303" lon="49.3346573"><time>2023-06-17T09:59:44.240</time></trkpt><trkpt lat="55.9761817" lon="49.3347097"><time>2023-06-17T09:59:48.257</time></trkpt><trkpt lat="55.9762241" lon="49.3347598"><time>2023-06-17T09:59:52.197</time></trkpt><trkpt lat="55.9762520" lon="49.3348359"><time>2023-06-17T09:59:56.240</time></trkpt><trkpt lat="55.9762881" lon="49.3349045"><time>2023-06-17T10:00:00.307</time></trkpt><trkpt lat="55.9763172" lon="49.3349779"><time>2023-06-17T10:00:04.250</time></trkpt><trkpt lat="55.9763288" lon="49.3350751"><time>2023-06-17T10:00:08.227</time></trkpt><trkpt lat="55.9763710" lon="49.3351091"><time>2023-06-17T10:00:29.337</time></trkpt><trkpt lat="55.9763890" lon="49.3350325"><time>2023-06-17T10:00:33.313</time></trkpt><trkpt lat="55.9764111" lon="49.3349525"><time>2023-06-17T10:00:37.227</time></trkpt><trkpt lat="55.9764258" lon="49.3348557"><time>2023-06-17T10:00:41.257</time></trkpt><trkpt lat="55.9764422" lon="49.3347583"><time>2023-06-17T10:00:45.237</time></trkpt><trkpt lat="55.9764605" lon="49.3346650"><time>2023-06-17T10:00:48.420</time></trkpt><trkpt lat="55.9764548" lon="49.3345821"><time>2023-06-17T10:00:51.300</time></trkpt><trkpt lat="55.9764389" lon="49.3345050"><time>2023-06-17T10:00:54.237</time></trkpt><trkpt lat="55.9764387" lon="49.3344219"><time>2023-06-17T10:00:57.240</time></trkpt><trkpt lat="55.9764429" lon="49.3343177"><time>2023-06-17T10:01:01.273</time></trkpt><trkpt lat="55.9764422" lon="49.3342355"><time>2023-06-17T10:01:04.237</time></trkpt><trkpt lat="55.9764286" lon="49.3341441"><time>2023-06-17T10:01:08.213</time></trkpt><trkpt lat="55.9764084" lon="49.3340678"><time>2023-06-17T10:01:12.240</time></trkpt><trkpt lat="55.9763949" lon="49.3339706"><time>2023-06-17T10:01:17.230</time></trkpt><trkpt lat="55.9763841" lon="49.3338874"><time>2023-06-17T10:01:21.217</time></trkpt><trkpt lat="55.9763714" lon="49.3337872"><time>2023-06-17T10:01:25.227</time></trkpt><trkpt lat="55.9763644" lon="49.3336843"><time>2023-06-17T10:01:29.237</time></trkpt><trkpt lat="55.9763557" lon="49.3335797"><time>2023-06-17T10:01:33.227</time></trkpt><trkpt lat="55.9763413" lon="49.3334867"><time>2023-06-17T10:01:37.227</time></trkpt><trkpt lat="55.9763213" lon="49.3333928"><time>2023-06-17T10:01:42.237</time></trkpt><trkpt lat="55.9763028" lon="49.3333184"><time>2023-06-17T10:01:45.240</time></trkpt><trkpt lat="55.9763009" lon="49.3332346"><time>2023-06-17T10:01:48.217</time></trkpt><trkpt lat="55.9762908" lon="49.3331409"><time>2023-06-17T10:01:52.217</time></trkpt><trkpt lat="55.9762823" lon="49.3330464"><time>2023-06-17T10:01:56.217</time></trkpt><trkpt lat="55.9762793" lon="49.3329495"><time>2023-06-17T10:02:00.237</time></trkpt><trkpt lat="55.9762771" lon="49.3328546"><time>2023-06-17T10:02:04.230</time></trkpt><trkpt lat="55.9762700" lon="49.3327574"><time>2023-06-17T10:02:08.227</time></trkpt><trkpt lat="55.9762584" lon="49.3326652"><time>2023-06-17T10:02:12.217</time></trkpt><trkpt lat="55.9762306" lon="49.3325743"><time>2023-06-17T10:02:16.230</time></trkpt><trkpt lat="55.9762055" lon="49.3324936"><time>2023-06-17T10:02:20.220</time></trkpt><trkpt lat="55.9761806" lon="49.3324226"><time>2023-06-17T10:02:24.207</time></trkpt><trkpt lat="55.9761418" lon="49.3323698"><time>2023-06-17T10:02:28.237</time></trkpt><trkpt lat="55.9761116" lon="49.3322995"><time>2023-06-17T10:02:32.237</time></trkpt><trkpt lat="55.9760717" lon="49.3322505"><time>2023-06-17T10:02:36.230</time></trkpt><trkpt lat="55.9760542" lon="49.3321624"><time>2023-06-17T10:02:40.223</time></trkpt><trkpt lat="55.9760542" lon="49.3320791"><time>2023-06-17T10:02:43.233</time></trkpt><trkpt lat="55.9760510" lon="49.3319921"><time>2023-06-17T10:02:46.233</time></trkpt><trkpt lat="55.9760277" lon="49.3319164"><time>2023-06-17T10:02:49.233</time></trkpt><trkpt lat="55.9760035" lon="49.3318462"><time>2023-06-17T10:02:52.243</time></trkpt><trkpt lat="55.9759698" lon="49.3317659"><time>2023-06-17T10:02:56.233</time></trkpt><trkpt lat="55.9759506" lon="49.3316882"><time>2023-06-17T10:02:59.243</time></trkpt><trkpt lat="55.9759236" lon="49.3316083"><time>2023-06-17T10:03:02.210</time></trkpt><trkpt lat="55.9759016" lon="49.3315248"><time>2023-06-17T10:03:16.227</time></trkpt><trkpt lat="55.9758682" lon="49.3314524"><time>2023-06-17T10:03:21.243</time></trkpt><trkpt lat="55.9758389" lon="49.3313909"><time>2023-06-17T10:03:25.237</time></trkpt><trkpt lat="55.9758099" lon="49.3313159"><time>2023-06-17T10:03:29.230</time></trkpt><trkpt lat="55.9757893" lon="49.3312444"><time>2023-06-17T10:03:32.233</time></trkpt><trkpt lat="55.9757605" lon="49.3311478"><time>2023-06-17T10:03:36.233</time></trkpt><trkpt lat="55.9757208" lon="49.3310769"><time>2023-06-17T10:03:40.223</time></trkpt><trkpt lat="55.9756986" lon="49.3310013"><time>2023-06-17T10:03:45.233</time></trkpt><trkpt lat="55.9756630" lon="49.3309208"><time>2023-06-17T10:03:49.223</time></trkpt><trkpt lat="55.9756484" lon="49.3308437"><time>2023-06-17T10:03:51.223</time></trkpt><trkpt lat="55.9756343" lon="49.3307517"><time>2023-06-17T10:03:54.227</time></trkpt><trkpt lat="55.9756177" lon="49.3306665"><time>2023-06-17T10:03:57.233</time></trkpt><trkpt lat="55.9756072" lon="49.3305605"><time>2023-06-17T10:04:00.237</time></trkpt><trkpt lat="55.9755992" lon="49.3304514"><time>2023-06-17T10:04:03.233</time></trkpt><trkpt lat="55.9755997" lon="49.3303591"><time>2023-06-17T10:04:06.237</time></trkpt><trkpt lat="55.9755955" lon="49.3302440"><time>2023-06-17T10:04:09.230</time></trkpt><trkpt lat="55.9755882" lon="49.3301219"><time>2023-06-17T10:04:12.230</time></trkpt><trkpt lat="55.9755827" lon="49.3300423"><time>2023-06-17T10:04:14.243</time></trkpt><trkpt lat="55.9755803" lon="49.3299446"><time>2023-06-17T10:04:17.237</time></trkpt><trkpt lat="55.9755810" lon="49.3298628"><time>2023-06-17T10:04:19.227</time></trkpt><trkpt lat="55.9756002" lon="49.3297506"><time>2023-06-17T10:04:22.220</time></trkpt><trkpt lat="55.9756004" lon="49.3296684"><time>2023-06-17T10:04:24.220</time></trkpt><trkpt lat="55.9756075" lon="49.3295716"><time>2023-06-17T10:04:27.240</time></trkpt><trkpt lat="55.9756223" lon="49.3294853"><time>2023-06-17T10:04:29.227</time></trkpt><trkpt lat="55.9756482" lon="49.3293879"><time>2023-06-17T10:04:32.237</time></trkpt><trkpt lat="55.9756639" lon="49.3293032"><time>2023-06-17T10:04:34.233</time></trkpt><trkpt lat="55.9756828" lon="49.3292229"><time>2023-06-17T10:04:36.240</time></trkpt><trkpt lat="55.9757103" lon="49.3291425"><time>2023-06-17T10:04:38.227</time></trkpt><trkpt lat="55.9757217" lon="49.3290488"><time>2023-06-17T10:04:41.227</time></trkpt><trkpt lat="55.9757271" lon="49.3289670"><time>2023-06-17T10:04:44.230</time></trkpt><trkpt lat="55.9757363" lon="49.3288636"><time>2023-06-17T10:04:47.223</time></trkpt><trkpt lat="55.9757422" lon="49.3287494"><time>2023-06-17T10:04:50.227</time></trkpt><trkpt lat="55.9757354" lon="49.3286620"><time>2023-06-17T10:04:53.233</time></trkpt><trkpt lat="55.9757156" lon="49.3285569"><time>2023-06-17T10:04:56.233</time></trkpt><trkpt lat="55.9756984" lon="49.3284800"><time>2023-06-17T10:04:58.230</time></trkpt><trkpt lat="55.9757147" lon="49.3283856"><time>2023-06-17T10:05:05.230</time></trkpt><trkpt lat="55.9757041" lon="49.3283071"><time>2023-06-17T10:05:09.223</time></trkpt><trkpt lat="55.9756591" lon="49.3282706"><time>2023-06-17T10:05:13.227</time></trkpt><trkpt lat="55.9756163" lon="49.3281937"><time>2023-06-17T10:05:17.243</time></trkpt><trkpt lat="55.9755793" lon="49.3281129"><time>2023-06-17T10:05:21.230</time></trkpt><trkpt lat="55.9755467" lon="49.3280249"><time>2023-06-17T10:05:25.220</time></trkpt><trkpt lat="55.9755164" lon="49.3279536"><time>2023-06-17T10:05:29.227</time></trkpt><trkpt lat="55.9754820" lon="49.3278737"><time>2023-06-17T10:05:33.227</time></trkpt><trkpt lat="55.9754630" lon="49.3277849"><time>2023-06-17T10:05:37.230</time></trkpt><trkpt lat="55.9754592" lon="49.3276972"><time>2023-06-17T10:05:41.233</time></trkpt><trkpt lat="55.9754630" lon="49.3276045"><time>2023-06-17T10:05:45.233</time></trkpt><trkpt lat="55.9754636" lon="49.3275100"><time>2023-06-17T10:05:49.223</time></trkpt><trkpt lat="55.9754564" lon="49.3274225"><time>2023-06-17T10:05:53.237</time></trkpt><trkpt lat="55.9754549" lon="49.3273380"><time>2023-06-17T10:06:00.237</time></trkpt><trkpt lat="55.9754565" lon="49.3272374"><time>2023-06-17T10:06:04.250</time></trkpt><trkpt lat="55.9754752" lon="49.3271620"><time>2023-06-17T10:06:08.237</time></trkpt><trkpt lat="55.9754758" lon="49.3270700"><time>2023-06-17T10:06:12.233</time></trkpt><trkpt lat="55.9754804" lon="49.3269699"><time>2023-06-17T10:06:16.233</time></trkpt><trkpt lat="55.9754681" lon="49.3268807"><time>2023-06-17T10:06:19.237</time></trkpt><trkpt lat="55.9754438" lon="49.3268018"><time>2023-06-17T10:06:22.237</time></trkpt><trkpt lat="55.9754141" lon="49.3267256"><time>2023-06-17T10:06:26.237</time></trkpt><trkpt lat="55.9753801" lon="49.3266418"><time>2023-06-17T10:06:31.227</time></trkpt><trkpt lat="55.9753460" lon="49.3265605"><time>2023-06-17T10:06:35.230</time></trkpt><trkpt lat="55.9753142" lon="49.3265033"><time>2023-06-17T10:06:39.233</time></trkpt><trkpt lat="55.9752801" lon="49.3264264"><time>2023-06-17T10:06:45.240</time></trkpt><trkpt lat="55.9752545" lon="49.3263572"><time>2023-06-17T10:06:48.237</time></trkpt><trkpt lat="55.9752302" lon="49.3262801"><time>2023-06-17T10:06:51.227</time></trkpt><trkpt lat="55.9751970" lon="49.3261975"><time>2023-06-17T10:06:55.227</time></trkpt><trkpt lat="55.9751585" lon="49.3261415"><time>2023-06-17T10:06:59.230</time></trkpt><trkpt lat="55.9751239" lon="49.3260622"><time>2023-06-17T10:07:02.230</time></trkpt><trkpt lat="55.9750867" lon="49.3259927"><time>2023-06-17T10:07:06.253</time></trkpt><trkpt lat="55.9750623" lon="49.3259236"><time>2023-06-17T10:07:09.230</time></trkpt><trkpt lat="55.9750486" lon="49.3258459"><time>2023-06-17T10:07:13.233</time></trkpt><trkpt lat="55.9750402" lon="49.3257555"><time>2023-06-17T10:07:16.227</time></trkpt><trkpt lat="55.9750327" lon="49.3256676"><time>2023-06-17T10:07:20.230</time></trkpt><trkpt lat="55.9749978" lon="49.3256065"><time>2023-06-17T10:07:25.233</time></trkpt><trkpt lat="55.9749605" lon="49.3255550"><time>2023-06-17T10:07:29.233</time></trkpt><trkpt lat="55.9749178" lon="49.3255160"><time>2023-06-17T10:07:33.237</time></trkpt><trkpt lat="55.9748804" lon="49.3254509"><time>2023-06-17T10:07:38.237</time></trkpt><trkpt lat="55.9748456" lon="49.3253788"><time>2023-06-17T10:07:42.230</time></trkpt><trkpt lat="55.9748044" lon="49.3253364"><time>2023-06-17T10:07:46.243</time></trkpt><trkpt lat="55.9747550" lon="49.3253061"><time>2023-06-17T10:07:50.247</time></trkpt><trkpt lat="55.9747159" lon="49.3252265"><time>2023-06-17T10:07:54.237</time></trkpt><trkpt lat="55.9746787" lon="49.3251487"><time>2023-06-17T10:07:58.243</time></trkpt><trkpt lat="55.9746624" lon="49.3250653"><time>2023-06-17T10:08:01.237</time></trkpt><trkpt lat="55.9746372" lon="49.3249945"><time>2023-06-17T10:08:04.250</time></trkpt><trkpt lat="55.9746058" lon="49.3249298"><time>2023-06-17T10:08:07.247</time></trkpt><trkpt lat="55.9745797" lon="49.3248554"><time>2023-06-17T10:08:10.240</time></trkpt><trkpt lat="55.9745556" lon="49.3247699"><time>2023-06-17T10:08:14.237</time></trkpt><trkpt lat="55.9745271" lon="49.3246837"><time>2023-06-17T10:08:18.227</time></trkpt><trkpt lat="55.9744988" lon="49.3246195"><time>2023-06-17T10:08:21.237</time></trkpt><trkpt lat="55.9744663" lon="49.3245463"><time>2023-06-17T10:08:25.233</time></trkpt><trkpt lat="55.9744296" lon="49.3244821"><time>2023-06-17T10:08:29.230</time></trkpt><trkpt lat="55.9743922" lon="49.3244342"><time>2023-06-17T10:08:32.230</time></trkpt><trkpt lat="55.9743702" lon="49.3243627"><time>2023-06-17T10:08:36.227</time></trkpt><trkpt lat="55.9743596" lon="49.3242747"><time>2023-06-17T10:08:40.227</time></trkpt><trkpt lat="55.9743457" lon="49.3241774"><time>2023-06-17T10:08:44.237</time></trkpt><trkpt lat="55.9743143" lon="49.3241011"><time>2023-06-17T10:08:49.227</time></trkpt><trkpt lat="55.9742810" lon="49.3240238"><time>2023-06-17T10:08:53.227</time></trkpt><trkpt lat="55.9742439" lon="49.3239527"><time>2023-06-17T10:08:57.227</time></trkpt><trkpt lat="55.9742085" lon="49.3238827"><time>2023-06-17T10:09:01.227</time></trkpt><trkpt lat="55.9741710" lon="49.3238083"><time>2023-06-17T10:09:05.233</time></trkpt><trkpt lat="55.9741672" lon="49.3237204"><time>2023-06-17T10:09:09.223</time></trkpt><trkpt lat="55.9741105" lon="49.3236730"><time>2023-06-17T10:09:13.233</time></trkpt><trkpt lat="55.9740638" lon="49.3236233"><time>2023-06-17T10:09:17.237</time></trkpt><trkpt lat="55.9740234" lon="49.3235511"><time>2023-06-17T10:09:21.243</time></trkpt><trkpt lat="55.9739942" lon="49.3234874"><time>2023-06-17T10:09:24.233</time></trkpt><trkpt lat="55.9739464" lon="49.3234433"><time>2023-06-17T10:09:28.213</time></trkpt><trkpt lat="55.9739046" lon="49.3234097"><time>2023-06-17T10:09:31.240</time></trkpt><trkpt lat="55.9738641" lon="49.3233588"><time>2023-06-17T10:09:34.240</time></trkpt><trkpt lat="55.9738301" lon="49.3232868"><time>2023-06-17T10:09:38.227</time></trkpt><trkpt lat="55.9737955" lon="49.3232087"><time>2023-06-17T10:09:42.223</time></trkpt><trkpt lat="55.9737546" lon="49.3231675"><time>2023-06-17T10:09:47.233</time></trkpt><trkpt lat="55.9737160" lon="49.3231083"><time>2023-06-17T10:09:51.210</time></trkpt><trkpt lat="55.9736798" lon="49.3230477"><time>2023-06-17T10:09:55.223</time></trkpt><trkpt lat="55.9736579" lon="49.3229550"><time>2023-06-17T10:10:00.227</time></trkpt><trkpt lat="55.9736227" lon="49.3228803"><time>2023-06-17T10:10:04.233</time></trkpt><trkpt lat="55.9735885" lon="49.3228160"><time>2023-06-17T10:10:08.227</time></trkpt><trkpt lat="55.9735600" lon="49.3227366"><time>2023-06-17T10:10:12.220</time></trkpt><trkpt lat="55.9735202" lon="49.3226706"><time>2023-06-17T10:10:16.230</time></trkpt><trkpt lat="55.9734824" lon="49.3226229"><time>2023-06-17T10:10:20.220</time></trkpt><trkpt lat="55.9734486" lon="49.3225537"><time>2023-06-17T10:10:24.223</time></trkpt><trkpt lat="55.9734037" lon="49.3225111"><time>2023-06-17T10:10:28.227</time></trkpt><trkpt lat="55.9733674" lon="49.3224491"><time>2023-06-17T10:10:32.223</time></trkpt><trkpt lat="55.9733265" lon="49.3223998"><time>2023-06-17T10:10:36.230</time></trkpt><trkpt lat="55.9732866" lon="49.3223578"><time>2023-06-17T10:10:40.227</time></trkpt><trkpt lat="55.9732431" lon="49.3223078"><time>2023-06-17T10:10:44.223</time></trkpt><trkpt lat="55.9731917" lon="49.3222574"><time>2023-06-17T10:10:48.227</time></trkpt><trkpt lat="55.9731612" lon="49.3221936"><time>2023-06-17T10:10:51.230</time></trkpt><trkpt lat="55.9731268" lon="49.3221222"><time>2023-06-17T10:10:55.227</time></trkpt><trkpt lat="55.9730820" lon="49.3220672"><time>2023-06-17T10:10:59.237</time></trkpt><trkpt lat="55.9730439" lon="49.3220112"><time>2023-06-17T10:11:02.220</time></trkpt><trkpt lat="55.9730110" lon="49.3219540"><time>2023-06-17T10:11:06.227</time></trkpt><trkpt lat="55.9729788" lon="49.3218941"><time>2023-06-17T10:11:10.227</time></trkpt><trkpt lat="55.9729512" lon="49.3218167"><time>2023-06-17T10:11:14.227</time></trkpt><trkpt lat="55.9729014" lon="49.3217888"><time>2023-06-17T10:11:18.240</time></trkpt><trkpt lat="55.9728817" lon="49.3217147"><time>2023-06-17T10:11:23.227</time></trkpt><trkpt lat="55.9729258" lon="49.3216713"><time>2023-06-17T10:11:34.230</time></trkpt><trkpt lat="55.9729769" lon="49.3216586"><time>2023-06-17T10:11:38.237</time></trkpt><trkpt lat="55.9730253" lon="49.3216767"><time>2023-06-17T10:11:42.230</time></trkpt><trkpt lat="55.9730698" lon="49.3216526"><time>2023-06-17T10:11:46.223</time></trkpt><trkpt lat="55.9731180" lon="49.3216498"><time>2023-06-17T10:11:50.240</time></trkpt><trkpt lat="55.9731551" lon="49.3215815"><time>2023-06-17T10:11:54.220</time></trkpt><trkpt lat="55.9732091" lon="49.3215526"><time>2023-06-17T10:11:59.210</time></trkpt><trkpt lat="55.9732616" lon="49.3215175"><time>2023-06-17T10:12:03.227</time></trkpt><trkpt lat="55.9733192" lon="49.3215079"><time>2023-06-17T10:12:08.223</time></trkpt><trkpt lat="55.9733710" lon="49.3214844"><time>2023-06-17T10:12:12.227</time></trkpt><trkpt lat="55.9734152" lon="49.3214639"><time>2023-06-17T10:12:16.223</time></trkpt><trkpt lat="55.9733702" lon="49.3214593"><time>2023-06-17T10:12:24.240</time></trkpt><trkpt lat="55.9733207" lon="49.3214173"><time>2023-06-17T10:12:28.220</time></trkpt><trkpt lat="55.9732726" lon="49.3214548"><time>2023-06-17T10:12:32.207</time></trkpt><trkpt lat="55.9732227" lon="49.3214827"><time>2023-06-17T10:12:36.237</time></trkpt><trkpt lat="55.9731746" lon="49.3215096"><time>2023-06-17T10:12:40.220</time></trkpt><trkpt lat="55.9731212" lon="49.3215172"><time>2023-06-17T10:12:44.217</time></trkpt><trkpt lat="55.9730647" lon="49.3215106"><time>2023-06-17T10:12:49.223</time></trkpt><trkpt lat="55.9730134" lon="49.3214939"><time>2023-06-17T10:12:53.223</time></trkpt><trkpt lat="55.9729642" lon="49.3214661"><time>2023-06-17T10:12:57.237</time></trkpt><trkpt lat="55.9729132" lon="49.3214395"><time>2023-06-17T10:13:01.230</time></trkpt><trkpt lat="55.9728672" lon="49.3214029"><time>2023-06-17T10:13:05.223</time></trkpt><trkpt lat="55.9728282" lon="49.3213506"><time>2023-06-17T10:13:09.233</time></trkpt><trkpt lat="55.9727797" lon="49.3212929"><time>2023-06-17T10:13:13.237</time></trkpt><trkpt lat="55.9727345" lon="49.3212435"><time>2023-06-17T10:13:17.227</time></trkpt><trkpt lat="55.9726886" lon="49.3211942"><time>2023-06-17T10:13:21.220</time></trkpt><trkpt lat="55.9726479" lon="49.3211440"><time>2023-06-17T10:13:25.233</time></trkpt><trkpt lat="55.9726071" lon="49.3210998"><time>2023-06-17T10:13:29.227</time></trkpt><trkpt lat="55.9725652" lon="49.3210489"><time>2023-06-17T10:13:33.233</time></trkpt><trkpt lat="55.9725205" lon="49.3210131"><time>2023-06-17T10:13:37.227</time></trkpt><trkpt lat="55.9724803" lon="49.3209653"><time>2023-06-17T10:13:41.233</time></trkpt><trkpt lat="55.9724403" lon="49.3209194"><time>2023-06-17T10:13:45.213</time></trkpt><trkpt lat="55.9724023" lon="49.3208542"><time>2023-06-17T10:13:49.217</time></trkpt><trkpt lat="55.9724228" lon="49.3207633"><time>2023-06-17T10:13:53.237</time></trkpt><trkpt lat="55.9724279" lon="49.3206796"><time>2023-06-17T10:13:57.367</time></trkpt><trkpt lat="55.9724159" lon="49.3205768"><time>2023-06-17T10:14:01.223</time></trkpt><trkpt lat="55.9724149" lon="49.3204827"><time>2023-06-17T10:14:05.223</time></trkpt><trkpt lat="55.9724157" lon="49.3203882"><time>2023-06-17T10:14:09.227</time></trkpt><trkpt lat="55.9724338" lon="49.3202974"><time>2023-06-17T10:14:13.220</time></trkpt><trkpt lat="55.9724471" lon="49.3202105"><time>2023-06-17T10:14:17.320</time></trkpt><trkpt lat="55.9724569" lon="49.3201152"><time>2023-06-17T10:14:21.223</time></trkpt><trkpt lat="55.9724647" lon="49.3200213"><time>2023-06-17T10:14:25.220</time></trkpt><trkpt lat="55.9724943" lon="49.3199396"><time>2023-06-17T10:14:29.230</time></trkpt><trkpt lat="55.9725166" lon="49.3198535"><time>2023-06-17T10:14:33.240</time></trkpt><trkpt lat="55.9725484" lon="49.3197691"><time>2023-06-17T10:14:39.217</time></trkpt><trkpt lat="55.9725792" lon="49.3196872"><time>2023-06-17T10:14:43.230</time></trkpt><trkpt lat="55.9726226" lon="49.3196289"><time>2023-06-17T10:14:47.223</time></trkpt><trkpt lat="55.9726457" lon="49.3195538"><time>2023-06-17T10:14:50.227</time></trkpt><trkpt lat="55.9726579" lon="49.3194766"><time>2023-06-17T10:14:53.217</time></trkpt><trkpt lat="55.9726682" lon="49.3193843"><time>2023-06-17T10:14:57.213</time></trkpt><trkpt lat="55.9726924" lon="49.3192978"><time>2023-06-17T10:15:01.227</time></trkpt><trkpt lat="55.9727096" lon="49.3192149"><time>2023-06-17T10:15:05.223</time></trkpt><trkpt lat="55.9727215" lon="49.3191228"><time>2023-06-17T10:15:09.230</time></trkpt><trkpt lat="55.9727309" lon="49.3190202"><time>2023-06-17T10:15:14.237</time></trkpt><trkpt lat="55.9727327" lon="49.3189347"><time>2023-06-17T10:15:20.233</time></trkpt><trkpt lat="55.9727594" lon="49.3188613"><time>2023-06-17T10:15:24.203</time></trkpt><trkpt lat="55.9727970" lon="49.3188005"><time>2023-06-17T10:15:28.220</time></trkpt><trkpt lat="55.9728428" lon="49.3187602"><time>2023-06-17T10:15:32.230</time></trkpt><trkpt lat="55.9728758" lon="49.3187020"><time>2023-06-17T10:15:35.233</time></trkpt><trkpt lat="55.9729140" lon="49.3186455"><time>2023-06-17T10:15:39.227</time></trkpt><trkpt lat="55.9729573" lon="49.3185975"><time>2023-06-17T10:15:43.223</time></trkpt><trkpt lat="55.9730103" lon="49.3186053"><time>2023-06-17T10:15:48.230</time></trkpt><trkpt lat="55.9730455" lon="49.3185476"><time>2023-06-17T10:15:52.227</time></trkpt><trkpt lat="55.9730794" lon="49.3184862"><time>2023-06-17T10:15:56.227</time></trkpt><trkpt lat="55.9731130" lon="49.3184223"><time>2023-06-17T10:15:59.217</time></trkpt><trkpt lat="55.9731383" lon="49.3183351"><time>2023-06-17T10:16:03.223</time></trkpt><trkpt lat="55.9731570" lon="49.3182404"><time>2023-06-17T10:16:07.230</time></trkpt><trkpt lat="55.9731766" lon="49.3181496"><time>2023-06-17T10:16:11.227</time></trkpt><trkpt lat="55.9731890" lon="49.3180606"><time>2023-06-17T10:16:15.217</time></trkpt><trkpt lat="55.9732099" lon="49.3179858"><time>2023-06-17T10:16:19.223</time></trkpt><trkpt lat="55.9732336" lon="49.3179109"><time>2023-06-17T10:16:23.230</time></trkpt><trkpt lat="55.9732472" lon="49.3178312"><time>2023-06-17T10:16:27.230</time></trkpt><trkpt lat="55.9732757" lon="49.3177662"><time>2023-06-17T10:16:31.217</time></trkpt><trkpt lat="55.9733001" lon="49.3176805"><time>2023-06-17T10:16:35.230</time></trkpt><trkpt lat="55.9733505" lon="49.3176364"><time>2023-06-17T10:16:40.223</time></trkpt><trkpt lat="55.9733725" lon="49.3175492"><time>2023-06-17T10:16:45.230</time></trkpt><trkpt lat="55.9734034" lon="49.3174705"><time>2023-06-17T10:16:49.210</time></trkpt><trkpt lat="55.9734323" lon="49.3174021"><time>2023-06-17T10:16:53.210</time></trkpt><trkpt lat="55.9734506" lon="49.3173136"><time>2023-06-17T10:16:57.227</time></trkpt><trkpt lat="55.9734639" lon="49.3172236"><time>2023-06-17T10:17:01.227</time></trkpt><trkpt lat="55.9734797" lon="49.3171357"><time>2023-06-17T10:17:06.227</time></trkpt><trkpt lat="55.9734788" lon="49.3170330"><time>2023-06-17T10:17:10.227</time></trkpt><trkpt lat="55.9735072" lon="49.3169653"><time>2023-06-17T10:17:14.230</time></trkpt><trkpt lat="55.9735182" lon="49.3168825"><time>2023-06-17T10:17:18.227</time></trkpt><trkpt lat="55.9735245" lon="49.3167905"><time>2023-06-17T10:17:22.227</time></trkpt><trkpt lat="55.9735171" lon="49.3167070"><time>2023-06-17T10:17:26.230</time></trkpt><trkpt lat="55.9735309" lon="49.3166176"><time>2023-06-17T10:17:31.237</time></trkpt><trkpt lat="55.9735359" lon="49.3165326"><time>2023-06-17T10:17:35.223</time></trkpt><trkpt lat="55.9735535" lon="49.3164473"><time>2023-06-17T10:17:39.243</time></trkpt><trkpt lat="55.9735679" lon="49.3163616"><time>2023-06-17T10:17:43.237</time></trkpt><trkpt lat="55.9735687" lon="49.3162638"><time>2023-06-17T10:17:48.223</time></trkpt><trkpt lat="55.9735927" lon="49.3161961"><time>2023-06-17T10:17:52.217</time></trkpt><trkpt lat="55.9736068" lon="49.3161179"><time>2023-06-17T10:17:57.230</time></trkpt><trkpt lat="55.9736328" lon="49.3160443"><time>2023-06-17T10:18:02.227</time></trkpt><trkpt lat="55.9736512" lon="49.3159549"><time>2023-06-17T10:18:10.227</time></trkpt><trkpt lat="55.9736694" lon="49.3158805"><time>2023-06-17T10:18:15.233</time></trkpt><trkpt lat="55.9737182" lon="49.3158364"><time>2023-06-17T10:18:24.217</time></trkpt><trkpt lat="55.9737738" lon="49.3158630"><time>2023-06-17T10:18:30.197</time></trkpt><trkpt lat="55.9738275" lon="49.3159034"><time>2023-06-17T10:18:34.220</time></trkpt><trkpt lat="55.9738736" lon="49.3158917"><time>2023-06-17T10:18:39.230</time></trkpt><trkpt lat="55.9739119" lon="49.3158300"><time>2023-06-17T10:18:42.227</time></trkpt><trkpt lat="55.9739598" lon="49.3157996"><time>2023-06-17T10:18:46.223</time></trkpt><trkpt lat="55.9740053" lon="49.3157904"><time>2023-06-17T10:18:50.233</time></trkpt><trkpt lat="55.9740608" lon="49.3158073"><time>2023-06-17T10:18:54.223</time></trkpt><trkpt lat="55.9741107" lon="49.3158164"><time>2023-06-17T10:18:58.227</time></trkpt><trkpt lat="55.9741632" lon="49.3158340"><time>2023-06-17T10:19:02.227</time></trkpt><trkpt lat="55.9742039" lon="49.3158695"><time>2023-06-17T10:19:05.237</time></trkpt><trkpt lat="55.9742566" lon="49.3158982"><time>2023-06-17T10:19:10.227</time></trkpt><trkpt lat="55.9743048" lon="49.3159393"><time>2023-06-17T10:19:14.230</time></trkpt><trkpt lat="55.9743548" lon="49.3159615"><time>2023-06-17T10:19:18.217</time></trkpt><trkpt lat="55.9744014" lon="49.3159756"><time>2023-06-17T10:19:22.223</time></trkpt><trkpt lat="55.9744510" lon="49.3160075"><time>2023-06-17T10:19:26.230</time></trkpt><trkpt lat="55.9745007" lon="49.3160356"><time>2023-06-17T10:19:30.227</time></trkpt><trkpt lat="55.9745452" lon="49.3160568"><time>2023-06-17T10:19:34.237</time></trkpt><trkpt lat="55.9745983" lon="49.3160823"><time>2023-06-17T10:19:38.227</time></trkpt><trkpt lat="55.9746427" lon="49.3161194"><time>2023-06-17T10:20:02.223</time></trkpt><trkpt lat="55.9746928" lon="49.3161469"><time>2023-06-17T10:20:06.223</time></trkpt><trkpt lat="55.9747486" lon="49.3161671"><time>2023-06-17T10:20:10.227</time></trkpt><trkpt lat="55.9748001" lon="49.3161916"><time>2023-06-17T10:20:14.237</time></trkpt><trkpt lat="55.9748471" lon="49.3162120"><time>2023-06-17T10:20:18.227</time></trkpt><trkpt lat="55.9749012" lon="49.3162416"><time>2023-06-17T10:20:23.233</time></trkpt><trkpt lat="55.9749467" lon="49.3162656"><time>2023-06-17T10:20:27.213</time></trkpt><trkpt lat="55.9749912" lon="49.3162940"><time>2023-06-17T10:20:31.230</time></trkpt><trkpt lat="55.9750386" lon="49.3163270"><time>2023-06-17T10:20:35.230</time></trkpt><trkpt lat="55.9750851" lon="49.3163504"><time>2023-06-17T10:20:39.217</time></trkpt><trkpt lat="55.9751318" lon="49.3163764"><time>2023-06-17T10:20:43.230</time></trkpt><trkpt lat="55.9751855" lon="49.3163831"><time>2023-06-17T10:20:48.227</time></trkpt><trkpt lat="55.9751985" lon="49.3163044"><time>2023-06-17T10:20:53.217</time></trkpt><trkpt lat="55.9751916" lon="49.3162217"><time>2023-06-17T10:20:59.230</time></trkpt><trkpt lat="55.9751972" lon="49.3161323"><time>2023-06-17T10:21:07.223</time></trkpt><trkpt lat="55.9752511" lon="49.3160968"><time>2023-06-17T10:21:14.217</time></trkpt><trkpt lat="55.9753012" lon="49.3161313"><time>2023-06-17T10:21:18.240</time></trkpt><trkpt lat="55.9753460" lon="49.3161574"><time>2023-06-17T10:21:22.237</time></trkpt><trkpt lat="55.9753975" lon="49.3162028"><time>2023-06-17T10:21:26.227</time></trkpt><trkpt lat="55.9754443" lon="49.3162142"><time>2023-06-17T10:21:30.230</time></trkpt><trkpt lat="55.9754959" lon="49.3162386"><time>2023-06-17T10:21:34.240</time></trkpt><trkpt lat="55.9755438" lon="49.3162583"><time>2023-06-17T10:21:38.220</time></trkpt><trkpt lat="55.9755985" lon="49.3162889"><time>2023-06-17T10:21:42.227</time></trkpt><trkpt lat="55.9756495" lon="49.3163124"><time>2023-06-17T10:21:46.220</time></trkpt><trkpt lat="55.9756992" lon="49.3163423"><time>2023-06-17T10:21:50.227</time></trkpt><trkpt lat="55.9757461" lon="49.3163734"><time>2023-06-17T10:21:54.337</time></trkpt><trkpt lat="55.9757969" lon="49.3164194"><time>2023-06-17T10:21:59.227</time></trkpt><trkpt lat="55.9758406" lon="49.3164403"><time>2023-06-17T10:22:04.220</time></trkpt><trkpt lat="55.9758909" lon="49.3164592"><time>2023-06-17T10:22:16.220</time></trkpt><trkpt lat="55.9759370" lon="49.3164942"><time>2023-06-17T10:22:20.250</time></trkpt><trkpt lat="55.9759823" lon="49.3165071"><time>2023-06-17T10:22:24.223</time></trkpt><trkpt lat="55.9760323" lon="49.3165409"><time>2023-06-17T10:22:28.237</time></trkpt><trkpt lat="55.9760786" lon="49.3165755"><time>2023-06-17T10:22:32.230</time></trkpt><trkpt lat="55.9761207" lon="49.3166075"><time>2023-06-17T10:22:36.217</time></trkpt><trkpt lat="55.9761670" lon="49.3166357"><time>2023-06-17T10:22:40.237</time></trkpt><trkpt lat="55.9762160" lon="49.3166265"><time>2023-06-17T10:22:44.230</time></trkpt><trkpt lat="55.9762635" lon="49.3166081"><time>2023-06-17T10:22:48.227</time></trkpt><trkpt lat="55.9763117" lon="49.3166442"><time>2023-06-17T10:22:52.227</time></trkpt><trkpt lat="55.9763641" lon="49.3166772"><time>2023-06-17T10:22:57.233</time></trkpt><trkpt lat="55.9764095" lon="49.3166724"><time>2023-06-17T10:23:01.227</time></trkpt><trkpt lat="55.9764642" lon="49.3166608"><time>2023-06-17T10:23:06.233</time></trkpt><trkpt lat="55.9765125" lon="49.3166662"><time>2023-06-17T10:23:10.230</time></trkpt><trkpt lat="55.9765676" lon="49.3166599"><time>2023-06-17T10:23:15.223</time></trkpt><trkpt lat="55.9766186" lon="49.3166506"><time>2023-06-17T10:23:19.227</time></trkpt><trkpt lat="55.9766659" lon="49.3166165"><time>2023-06-17T10:23:23.237</time></trkpt><trkpt lat="55.9767083" lon="49.3165730"><time>2023-06-17T10:23:27.227</time></trkpt><trkpt lat="55.9767600" lon="49.3165489"><time>2023-06-17T10:23:31.230</time></trkpt><trkpt lat="55.9768041" lon="49.3165069"><time>2023-06-17T10:23:35.240</time></trkpt><trkpt lat="55.9768455" lon="49.3164706"><time>2023-06-17T10:23:39.233</time></trkpt><trkpt lat="55.9768857" lon="49.3164131"><time>2023-06-17T10:23:43.217</time></trkpt><trkpt lat="55.9769231" lon="49.3163476"><time>2023-06-17T10:23:47.227</time></trkpt><trkpt lat="55.9769621" lon="49.3162843"><time>2023-06-17T10:23:51.213</time></trkpt><trkpt lat="55.9769972" lon="49.3162162"><time>2023-06-17T10:23:55.247</time></trkpt><trkpt lat="55.9770426" lon="49.3161634"><time>2023-06-17T10:23:59.217</time></trkpt><trkpt lat="55.9770898" lon="49.3161208"><time>2023-06-17T10:24:03.220</time></trkpt><trkpt lat="55.9771364" lon="49.3160763"><time>2023-06-17T10:24:07.227</time></trkpt><trkpt lat="55.9771735" lon="49.3160116"><time>2023-06-17T10:24:11.230</time></trkpt><trkpt lat="55.9772121" lon="49.3159449"><time>2023-06-17T10:24:15.213</time></trkpt><trkpt lat="55.9772623" lon="49.3158856"><time>2023-06-17T10:24:19.230</time></trkpt><trkpt lat="55.9773146" lon="49.3158459"><time>2023-06-17T10:24:23.230</time></trkpt><trkpt lat="55.9773568" lon="49.3158040"><time>2023-06-17T10:24:27.230</time></trkpt><trkpt lat="55.9774077" lon="49.3157695"><time>2023-06-17T10:24:31.227</time></trkpt><trkpt lat="55.9774552" lon="49.3157359"><time>2023-06-17T10:24:35.220</time></trkpt><trkpt lat="55.9774964" lon="49.3156880"><time>2023-06-17T10:24:39.237</time></trkpt><trkpt lat="55.9775285" lon="49.3156196"><time>2023-06-17T10:24:43.233</time></trkpt><trkpt lat="55.9775491" lon="49.3155377"><time>2023-06-17T10:24:47.230</time></trkpt><trkpt lat="55.9775738" lon="49.3154617"><time>2023-06-17T10:24:51.220</time></trkpt><trkpt lat="55.9776029" lon="49.3153861"><time>2023-06-17T10:24:55.230</time></trkpt><trkpt lat="55.9776361" lon="49.3153226"><time>2023-06-17T10:24:59.227</time></trkpt><trkpt lat="55.9776651" lon="49.3152415"><time>2023-06-17T10:25:04.233</time></trkpt><trkpt lat="55.9776994" lon="49.3151833"><time>2023-06-17T10:25:07.237</time></trkpt><trkpt lat="55.9777452" lon="49.3151350"><time>2023-06-17T10:25:10.227</time></trkpt><trkpt lat="55.9777814" lon="49.3150854"><time>2023-06-17T10:25:13.233</time></trkpt><trkpt lat="55.9778213" lon="49.3150384"><time>2023-06-17T10:25:17.223</time></trkpt><trkpt lat="55.9778727" lon="49.3149987"><time>2023-06-17T10:25:21.230</time></trkpt><trkpt lat="55.9779138" lon="49.3149590"><time>2023-06-17T10:25:24.237</time></trkpt><trkpt lat="55.9779633" lon="49.3149017"><time>2023-06-17T10:25:28.233</time></trkpt><trkpt lat="55.9780047" lon="49.3148385"><time>2023-06-17T10:25:32.227</time></trkpt><trkpt lat="55.9780498" lon="49.3147846"><time>2023-06-17T10:25:36.217</time></trkpt><trkpt lat="55.9780945" lon="49.3147298"><time>2023-06-17T10:25:40.237</time></trkpt><trkpt lat="55.9781388" lon="49.3146642"><time>2023-06-17T10:25:44.230</time></trkpt><trkpt lat="55.9781903" lon="49.3146313"><time>2023-06-17T10:25:48.213</time></trkpt><trkpt lat="55.9782393" lon="49.3145895"><time>2023-06-17T10:25:52.217</time></trkpt><trkpt lat="55.9782809" lon="49.3145562"><time>2023-06-17T10:25:55.233</time></trkpt><trkpt lat="55.9783368" lon="49.3145238"><time>2023-06-17T10:25:59.230</time></trkpt><trkpt lat="55.9783896" lon="49.3144966"><time>2023-06-17T10:26:03.227</time></trkpt><trkpt lat="55.9784397" lon="49.3144800"><time>2023-06-17T10:26:07.223</time></trkpt><trkpt lat="55.9784963" lon="49.3144690"><time>2023-06-17T10:26:11.213</time></trkpt><trkpt lat="55.9785519" lon="49.3144635"><time>2023-06-17T10:26:15.227</time></trkpt><trkpt lat="55.9786067" lon="49.3144659"><time>2023-06-17T10:26:19.227</time></trkpt><trkpt lat="55.9786536" lon="49.3144625"><time>2023-06-17T10:26:23.233</time></trkpt><trkpt lat="55.9787030" lon="49.3144758"><time>2023-06-17T10:26:26.233</time></trkpt><trkpt lat="55.9787590" lon="49.3144749"><time>2023-06-17T10:26:31.230</time></trkpt><trkpt lat="55.9788093" lon="49.3144792"><time>2023-06-17T10:26:34.227</time></trkpt><trkpt lat="55.9788658" lon="49.3144930"><time>2023-06-17T10:26:38.237</time></trkpt><trkpt lat="55.9789121" lon="49.3145085"><time>2023-06-17T10:26:41.227</time></trkpt><trkpt lat="55.9789686" lon="49.3145154"><time>2023-06-17T10:26:45.240</time></trkpt><trkpt lat="55.9790145" lon="49.3145361"><time>2023-06-17T10:26:49.240</time></trkpt><trkpt lat="55.9790676" lon="49.3145698"><time>2023-06-17T10:26:53.213</time></trkpt><trkpt lat="55.9791188" lon="49.3146004"><time>2023-06-17T10:26:57.223</time></trkpt><trkpt lat="55.9791724" lon="49.3146282"><time>2023-06-17T10:27:01.227</time></trkpt><trkpt lat="55.9792227" lon="49.3146543"><time>2023-06-17T10:27:05.227</time></trkpt><trkpt lat="55.9792725" lon="49.3146835"><time>2023-06-17T10:27:09.213</time></trkpt><trkpt lat="55.9793227" lon="49.3147104"><time>2023-06-17T10:27:13.220</time></trkpt><trkpt lat="55.9793708" lon="49.3147500"><time>2023-06-17T10:27:17.227</time></trkpt><trkpt lat="55.9794177" lon="49.3147761"><time>2023-06-17T10:27:21.237</time></trkpt><trkpt lat="55.9794663" lon="49.3148076"><time>2023-06-17T10:27:25.227</time></trkpt><trkpt lat="55.9795203" lon="49.3148515"><time>2023-06-17T10:27:29.227</time></trkpt><trkpt lat="55.9795721" lon="49.3148823"><time>2023-06-17T10:27:33.227</time></trkpt><trkpt lat="55.9796280" lon="49.3149102"><time>2023-06-17T10:27:37.237</time></trkpt><trkpt lat="55.9796705" lon="49.3149373"><time>2023-06-17T10:27:40.237</time></trkpt><trkpt lat="55.9797225" lon="49.3149728"><time>2023-06-17T10:27:44.223</time></trkpt><trkpt lat="55.9797704" lon="49.3149925"><time>2023-06-17T10:27:48.337</time></trkpt><trkpt lat="55.9798235" lon="49.3150255"><time>2023-06-17T10:27:52.233</time></trkpt><trkpt lat="55.9798776" lon="49.3150529"><time>2023-06-17T10:27:56.227</time></trkpt><trkpt lat="55.9799294" lon="49.3150759"><time>2023-06-17T10:28:00.243</time></trkpt><trkpt lat="55.9799802" lon="49.3151030"><time>2023-06-17T10:28:04.223</time></trkpt><trkpt lat="55.9800320" lon="49.3151211"><time>2023-06-17T10:28:08.223</time></trkpt><trkpt lat="55.9800854" lon="49.3151431"><time>2023-06-17T10:28:12.220</time></trkpt><trkpt lat="55.9801333" lon="49.3151708"><time>2023-06-17T10:28:16.220</time></trkpt><trkpt lat="55.9801854" lon="49.3151922"><time>2023-06-17T10:28:20.230</time></trkpt><trkpt lat="55.9802385" lon="49.3152068"><time>2023-06-17T10:28:24.230</time></trkpt><trkpt lat="55.9802899" lon="49.3152275"><time>2023-06-17T10:28:28.243</time></trkpt><trkpt lat="55.9803442" lon="49.3152510"><time>2023-06-17T10:28:32.223</time></trkpt><trkpt lat="55.9803912" lon="49.3152661"><time>2023-06-17T10:28:36.237</time></trkpt><trkpt lat="55.9804433" lon="49.3152862"><time>2023-06-17T10:28:40.237</time></trkpt><trkpt lat="55.9804989" lon="49.3153047"><time>2023-06-17T10:28:44.233</time></trkpt><trkpt lat="55.9805497" lon="49.3153230"><time>2023-06-17T10:28:48.217</time></trkpt><trkpt lat="55.9806024" lon="49.3153401"><time>2023-06-17T10:28:52.227</time></trkpt><trkpt lat="55.9806525" lon="49.3153562"><time>2023-06-17T10:28:56.227</time></trkpt><trkpt lat="55.9807043" lon="49.3153364"><time>2023-06-17T10:29:00.237</time></trkpt><trkpt lat="55.9807595" lon="49.3153029"><time>2023-06-17T10:29:04.230</time></trkpt><trkpt lat="55.9807960" lon="49.3152482"><time>2023-06-17T10:29:07.230</time></trkpt><trkpt lat="55.9808373" lon="49.3151858"><time>2023-06-17T10:29:11.237</time></trkpt><trkpt lat="55.9808831" lon="49.3151272"><time>2023-06-17T10:29:15.237</time></trkpt><trkpt lat="55.9809343" lon="49.3150793"><time>2023-06-17T10:29:19.237</time></trkpt><trkpt lat="55.9809862" lon="49.3150848"><time>2023-06-17T10:29:23.230</time></trkpt><trkpt lat="55.9810318" lon="49.3151150"><time>2023-06-17T10:29:27.223</time></trkpt><trkpt lat="55.9810812" lon="49.3151442"><time>2023-06-17T10:29:32.233</time></trkpt><trkpt lat="55.9811190" lon="49.3151931"><time>2023-06-17T10:29:36.210</time></trkpt><trkpt lat="55.9811234" lon="49.3151862"><time>2023-06-17T10:29:39.547</time></trkpt><trkpt lat="55.9810781" lon="49.3151177"><time>2023-06-17T10:29:52.220</time></trkpt><trkpt lat="55.9810552" lon="49.3150485"><time>2023-06-17T10:29:58.237</time></trkpt><trkpt lat="55.9810489" lon="49.3149613"><time>2023-06-17T10:30:03.230</time></trkpt><trkpt lat="55.9810504" lon="49.3148687"><time>2023-06-17T10:30:07.227</time></trkpt><trkpt lat="55.9810610" lon="49.3147800"><time>2023-06-17T10:30:11.237</time></trkpt><trkpt lat="55.9810899" lon="49.3147039"><time>2023-06-17T10:30:15.227</time></trkpt><trkpt lat="55.9811099" lon="49.3146235"><time>2023-06-17T10:30:19.230</time></trkpt><trkpt lat="55.9811484" lon="49.3145437"><time>2023-06-17T10:30:23.227</time></trkpt><trkpt lat="55.9811796" lon="49.3144481"><time>2023-06-17T10:30:27.227</time></trkpt><trkpt lat="55.9812113" lon="49.3143598"><time>2023-06-17T10:30:31.227</time></trkpt><trkpt lat="55.9812421" lon="49.3142766"><time>2023-06-17T10:30:35.227</time></trkpt><trkpt lat="55.9812782" lon="49.3141925"><time>2023-06-17T10:30:39.220</time></trkpt><trkpt lat="55.9813097" lon="49.3141269"><time>2023-06-17T10:30:42.237</time></trkpt><trkpt lat="55.9813504" lon="49.3140916"><time>2023-06-17T10:30:45.223</time></trkpt><trkpt lat="55.9813945" lon="49.3140437"><time>2023-06-17T10:30:49.230</time></trkpt><trkpt lat="55.9814395" lon="49.3139883"><time>2023-06-17T10:30:53.230</time></trkpt><trkpt lat="55.9814747" lon="49.3139386"><time>2023-06-17T10:30:56.383</time></trkpt><trkpt lat="55.9815217" lon="49.3138834"><time>2023-06-17T10:31:00.230</time></trkpt><trkpt lat="55.9815401" lon="49.3138047"><time>2023-06-17T10:31:03.227</time></trkpt><trkpt lat="55.9815472" lon="49.3137082"><time>2023-06-17T10:31:07.227</time></trkpt><trkpt lat="55.9815453" lon="49.3136054"><time>2023-06-17T10:31:11.230</time></trkpt><trkpt lat="55.9815335" lon="49.3135278"><time>2023-06-17T10:31:14.233</time></trkpt><trkpt lat="55.9815375" lon="49.3134279"><time>2023-06-17T10:31:18.227</time></trkpt><trkpt lat="55.9815357" lon="49.3133257"><time>2023-06-17T10:31:22.223</time></trkpt><trkpt lat="55.9815282" lon="49.3132226"><time>2023-06-17T10:31:26.227</time></trkpt><trkpt lat="55.9814976" lon="49.3131473"><time>2023-06-17T10:31:30.227</time></trkpt><trkpt lat="55.9814485" lon="49.3131136"><time>2023-06-17T10:31:34.220</time></trkpt><trkpt lat="55.9814050" lon="49.3131504"><time>2023-06-17T10:31:37.227</time></trkpt><trkpt lat="55.9813611" lon="49.3131747"><time>2023-06-17T10:31:41.217</time></trkpt><trkpt lat="55.9813555" lon="49.3132548"><time>2023-06-17T10:31:44.227</time></trkpt><trkpt lat="55.9813477" lon="49.3133353"><time>2023-06-17T10:31:48.220</time></trkpt><trkpt lat="55.9813906" lon="49.3132918"><time>2023-06-17T10:31:55.220</time></trkpt><trkpt lat="55.9814424" lon="49.3132700"><time>2023-06-17T10:32:01.213</time></trkpt><trkpt lat="55.9814702" lon="49.3132046"><time>2023-06-17T10:35:03.203</time></trkpt><trkpt lat="55.9814846" lon="49.3131065"><time>2023-06-17T10:35:11.210</time></trkpt><trkpt lat="55.9815136" lon="49.3130320"><time>2023-06-17T10:35:15.220</time></trkpt><trkpt lat="55.9815471" lon="49.3129556"><time>2023-06-17T10:35:19.223</time></trkpt><trkpt lat="55.9815880" lon="49.3128872"><time>2023-06-17T10:35:23.220</time></trkpt><trkpt lat="55.9816335" lon="49.3128289"><time>2023-06-17T10:35:27.217</time></trkpt><trkpt lat="55.9816674" lon="49.3127598"><time>2023-06-17T10:35:31.223</time></trkpt><trkpt lat="55.9816993" lon="49.3127005"><time>2023-06-17T10:35:34.210</time></trkpt><trkpt lat="55.9817155" lon="49.3126143"><time>2023-06-17T10:35:37.220</time></trkpt><trkpt lat="55.9816883" lon="49.3125255"><time>2023-06-17T10:35:42.220</time></trkpt><trkpt lat="55.9816550" lon="49.3124589"><time>2023-06-17T10:35:46.217</time></trkpt><trkpt lat="55.9816135" lon="49.3123829"><time>2023-06-17T10:35:50.230</time></trkpt><trkpt lat="55.9815772" lon="49.3123086"><time>2023-06-17T10:35:53.227</time></trkpt><trkpt lat="55.9815396" lon="49.3122277"><time>2023-06-17T10:35:57.217</time></trkpt><trkpt lat="55.9815007" lon="49.3121502"><time>2023-06-17T10:36:01.223</time></trkpt><trkpt lat="55.9814664" lon="49.3120732"><time>2023-06-17T10:36:05.227</time></trkpt><trkpt lat="55.9814367" lon="49.3119941"><time>2023-06-17T10:36:09.227</time></trkpt><trkpt lat="55.9814077" lon="49.3119033"><time>2023-06-17T10:36:13.203</time></trkpt><trkpt lat="55.9813866" lon="49.3118306"><time>2023-06-17T10:36:16.203</time></trkpt><trkpt lat="55.9813616" lon="49.3117577"><time>2023-06-17T10:36:19.213</time></trkpt><trkpt lat="55.9813355" lon="49.3116888"><time>2023-06-17T10:36:22.210</time></trkpt><trkpt lat="55.9813045" lon="49.3116066"><time>2023-06-17T10:36:26.207</time></trkpt><trkpt lat="55.9812674" lon="49.3115282"><time>2023-06-17T10:36:30.203</time></trkpt><trkpt lat="55.9812362" lon="49.3114453"><time>2023-06-17T10:36:34.223</time></trkpt><trkpt lat="55.9812128" lon="49.3113572"><time>2023-06-17T10:36:38.223</time></trkpt><trkpt lat="55.9811893" lon="49.3112614"><time>2023-06-17T10:36:42.217</time></trkpt><trkpt lat="55.9811639" lon="49.3111681"><time>2023-06-17T10:36:46.233</time></trkpt><trkpt lat="55.9811502" lon="49.3110739"><time>2023-06-17T10:36:50.217</time></trkpt><trkpt lat="55.9811393" lon="49.3109845"><time>2023-06-17T10:36:54.227</time></trkpt><trkpt lat="55.9811201" lon="49.3108831"><time>2023-06-17T10:36:58.223</time></trkpt><trkpt lat="55.9811084" lon="49.3107999"><time>2023-06-17T10:37:01.217</time></trkpt><trkpt lat="55.9810993" lon="49.3107019"><time>2023-06-17T10:37:05.227</time></trkpt><trkpt lat="55.9810863" lon="49.3105972"><time>2023-06-17T10:37:09.210</time></trkpt><trkpt lat="55.9810686" lon="49.3104989"><time>2023-06-17T10:37:13.210</time></trkpt><trkpt lat="55.9810537" lon="49.3104020"><time>2023-06-17T10:37:17.220</time></trkpt><trkpt lat="55.9810452" lon="49.3103005"><time>2023-06-17T10:37:21.220</time></trkpt><trkpt lat="55.9810392" lon="49.3102070"><time>2023-06-17T10:37:25.227</time></trkpt><trkpt lat="55.9810264" lon="49.3101129"><time>2023-06-17T10:37:29.220</time></trkpt><trkpt lat="55.9810220" lon="49.3100308"><time>2023-06-17T10:37:32.233</time></trkpt><trkpt lat="55.9810170" lon="49.3099471"><time>2023-06-17T10:37:35.230</time></trkpt><trkpt lat="55.9810061" lon="49.3098652"><time>2023-06-17T10:37:38.223</time></trkpt><trkpt lat="55.9809972" lon="49.3097806"><time>2023-06-17T10:37:41.223</time></trkpt><trkpt lat="55.9809946" lon="49.3096774"><time>2023-06-17T10:37:45.223</time></trkpt><trkpt lat="55.9809873" lon="49.3095982"><time>2023-06-17T10:37:49.220</time></trkpt><trkpt lat="55.9809855" lon="49.3094970"><time>2023-06-17T10:38:00.210</time></trkpt><trkpt lat="55.9809595" lon="49.3094065"><time>2023-06-17T10:38:04.217</time></trkpt><trkpt lat="55.9809470" lon="49.3093109"><time>2023-06-17T10:38:08.223</time></trkpt><trkpt lat="55.9809287" lon="49.3092368"><time>2023-06-17T10:38:11.237</time></trkpt><trkpt lat="55.9809130" lon="49.3091309"><time>2023-06-17T10:38:14.227</time></trkpt><trkpt lat="55.9809041" lon="49.3090375"><time>2023-06-17T10:38:17.230</time></trkpt><trkpt lat="55.9808792" lon="49.3089426"><time>2023-06-17T10:38:21.217</time></trkpt><trkpt lat="55.9808595" lon="49.3088387"><time>2023-06-17T10:38:24.210</time></trkpt><trkpt lat="55.9808456" lon="49.3087566"><time>2023-06-17T10:38:26.223</time></trkpt><trkpt lat="55.9808193" lon="49.3086761"><time>2023-06-17T10:38:28.223</time></trkpt><trkpt lat="55.9807880" lon="49.3086017"><time>2023-06-17T10:38:30.227</time></trkpt><trkpt lat="55.9807546" lon="49.3085351"><time>2023-06-17T10:38:32.233</time></trkpt><trkpt lat="55.9807219" lon="49.3084729"><time>2023-06-17T10:38:34.217</time></trkpt><trkpt lat="55.9806938" lon="49.3084089"><time>2023-06-17T10:38:36.217</time></trkpt><trkpt lat="55.9806674" lon="49.3083404"><time>2023-06-17T10:38:38.237</time></trkpt><trkpt lat="55.9806383" lon="49.3082716"><time>2023-06-17T10:38:40.217</time></trkpt><trkpt lat="55.9805954" lon="49.3081976"><time>2023-06-17T10:38:43.220</time></trkpt><trkpt lat="55.9805639" lon="49.3081201"><time>2023-06-17T10:38:46.227</time></trkpt><trkpt lat="55.9805353" lon="49.3080562"><time>2023-06-17T10:38:48.227</time></trkpt><trkpt lat="55.9804891" lon="49.3079981"><time>2023-06-17T10:38:51.227</time></trkpt><trkpt lat="55.9804485" lon="49.3079194"><time>2023-06-17T10:38:54.230</time></trkpt><trkpt lat="55.9803997" lon="49.3078484"><time>2023-06-17T10:38:57.220</time></trkpt><trkpt lat="55.9803491" lon="49.3077744"><time>2023-06-17T10:39:00.217</time></trkpt><trkpt lat="55.9803138" lon="49.3077184"><time>2023-06-17T10:39:02.227</time></trkpt><trkpt lat="55.9802723" lon="49.3076755"><time>2023-06-17T10:39:04.220</time></trkpt><trkpt lat="55.9802334" lon="49.3076332"><time>2023-06-17T10:39:06.237</time></trkpt><trkpt lat="55.9801941" lon="49.3075879"><time>2023-06-17T10:39:08.223</time></trkpt><trkpt lat="55.9801541" lon="49.3075435"><time>2023-06-17T10:39:10.267</time></trkpt><trkpt lat="55.9800988" lon="49.3074800"><time>2023-06-17T10:39:13.230</time></trkpt><trkpt lat="55.9800595" lon="49.3074309"><time>2023-06-17T10:39:15.223</time></trkpt><trkpt lat="55.9800198" lon="49.3073881"><time>2023-06-17T10:39:17.237</time></trkpt><trkpt lat="55.9799668" lon="49.3073417"><time>2023-06-17T10:39:20.227</time></trkpt><trkpt lat="55.9799082" lon="49.3072935"><time>2023-06-17T10:39:23.220</time></trkpt><trkpt lat="55.9798502" lon="49.3072325"><time>2023-06-17T10:39:26.220</time></trkpt><trkpt lat="55.9798119" lon="49.3071860"><time>2023-06-17T10:39:28.227</time></trkpt><trkpt lat="55.9797557" lon="49.3071208"><time>2023-06-17T10:39:31.237</time></trkpt><trkpt lat="55.9797201" lon="49.3070684"><time>2023-06-17T10:39:33.227</time></trkpt><trkpt lat="55.9796919" lon="49.3070053"><time>2023-06-17T10:39:35.280</time></trkpt><trkpt lat="55.9796539" lon="49.3069102"><time>2023-06-17T10:39:38.223</time></trkpt><trkpt lat="55.9796079" lon="49.3068309"><time>2023-06-17T10:39:41.230</time></trkpt><trkpt lat="55.9795719" lon="49.3067813"><time>2023-06-17T10:39:43.233</time></trkpt><trkpt lat="55.9795198" lon="49.3067122"><time>2023-06-17T10:39:46.237</time></trkpt><trkpt lat="55.9794799" lon="49.3066752"><time>2023-06-17T10:39:48.230</time></trkpt><trkpt lat="55.9794245" lon="49.3066139"><time>2023-06-17T10:39:51.233</time></trkpt><trkpt lat="55.9793690" lon="49.3065475"><time>2023-06-17T10:39:54.230</time></trkpt><trkpt lat="55.9793314" lon="49.3065027"><time>2023-06-17T10:39:56.230</time></trkpt><trkpt lat="55.9792818" lon="49.3064807"><time>2023-06-17T10:40:00.223</time></trkpt><trkpt lat="55.9792405" lon="49.3064438"><time>2023-06-17T10:40:04.237</time></trkpt><trkpt lat="55.9791999" lon="49.3064075"><time>2023-06-17T10:40:08.247</time></trkpt><trkpt lat="55.9791548" lon="49.3063669"><time>2023-06-17T10:40:12.220</time></trkpt><trkpt lat="55.9791077" lon="49.3063093"><time>2023-06-17T10:40:17.227</time></trkpt><trkpt lat="55.9790647" lon="49.3062759"><time>2023-06-17T10:40:21.230</time></trkpt><trkpt lat="55.9790117" lon="49.3062377"><time>2023-06-17T10:40:26.243</time></trkpt><trkpt lat="55.9789654" lon="49.3061884"><time>2023-06-17T10:40:30.227</time></trkpt><trkpt lat="55.9789192" lon="49.3061438"><time>2023-06-17T10:40:34.237</time></trkpt><trkpt lat="55.9788673" lon="49.3061093"><time>2023-06-17T10:40:38.233</time></trkpt><trkpt lat="55.9788272" lon="49.3060723"><time>2023-06-17T10:40:41.217</time></trkpt><trkpt lat="55.9787850" lon="49.3060364"><time>2023-06-17T10:40:44.227</time></trkpt><trkpt lat="55.9787289" lon="49.3060070"><time>2023-06-17T10:40:48.230</time></trkpt><trkpt lat="55.9786796" lon="49.3059541"><time>2023-06-17T10:40:52.213</time></trkpt><trkpt lat="55.9786334" lon="49.3058977"><time>2023-06-17T10:40:56.220</time></trkpt><trkpt lat="55.9785804" lon="49.3058698"><time>2023-06-17T10:41:01.233</time></trkpt><trkpt lat="55.9785312" lon="49.3058758"><time>2023-06-17T10:41:06.230</time></trkpt><trkpt lat="55.9784757" lon="49.3058543"><time>2023-06-17T10:41:12.230</time></trkpt><trkpt lat="55.9784237" lon="49.3058737"><time>2023-06-17T10:41:16.233</time></trkpt><trkpt lat="55.9783750" lon="49.3059139"><time>2023-06-17T10:41:20.217</time></trkpt><trkpt lat="55.9783255" lon="49.3059427"><time>2023-06-17T10:41:24.223</time></trkpt><trkpt lat="55.9782755" lon="49.3059926"><time>2023-06-17T10:41:28.220</time></trkpt><trkpt lat="55.9782334" lon="49.3060552"><time>2023-06-17T10:41:32.220</time></trkpt><trkpt lat="55.9781980" lon="49.3061183"><time>2023-06-17T10:41:36.220</time></trkpt><trkpt lat="55.9781543" lon="49.3061784"><time>2023-06-17T10:41:40.240</time></trkpt><trkpt lat="55.9781183" lon="49.3062312"><time>2023-06-17T10:41:43.230</time></trkpt><trkpt lat="55.9780874" lon="49.3062895"><time>2023-06-17T10:41:46.237</time></trkpt><trkpt lat="55.9780441" lon="49.3063584"><time>2023-06-17T10:41:50.230</time></trkpt><trkpt lat="55.9779984" lon="49.3064271"><time>2023-06-17T10:41:54.237</time></trkpt><trkpt lat="55.9779605" lon="49.3064713"><time>2023-06-17T10:41:57.250</time></trkpt><trkpt lat="55.9779179" lon="49.3065368"><time>2023-06-17T10:42:01.230</time></trkpt><trkpt lat="55.9778771" lon="49.3065988"><time>2023-06-17T10:42:05.217</time></trkpt><trkpt lat="55.9778317" lon="49.3066642"><time>2023-06-17T10:42:09.227</time></trkpt><trkpt lat="55.9777832" lon="49.3067276"><time>2023-06-17T10:42:13.230</time></trkpt><trkpt lat="55.9777467" lon="49.3067749"><time>2023-06-17T10:42:16.220</time></trkpt><trkpt lat="55.9777069" lon="49.3068159"><time>2023-06-17T10:42:19.250</time></trkpt><trkpt lat="55.9776492" lon="49.3068326"><time>2023-06-17T10:42:23.230</time></trkpt><trkpt lat="55.9776003" lon="49.3068327"><time>2023-06-17T10:42:27.220</time></trkpt><trkpt lat="55.9775482" lon="49.3068080"><time>2023-06-17T10:42:31.220</time></trkpt><trkpt lat="55.9774897" lon="49.3068041"><time>2023-06-17T10:42:35.230</time></trkpt><trkpt lat="55.9774456" lon="49.3068313"><time>2023-06-17T10:42:38.223</time></trkpt><trkpt lat="55.9773999" lon="49.3068469"><time>2023-06-17T10:42:41.233</time></trkpt><trkpt lat="55.9773498" lon="49.3068315"><time>2023-06-17T10:42:44.233</time></trkpt><trkpt lat="55.9773003" lon="49.3068082"><time>2023-06-17T10:42:47.237</time></trkpt><trkpt lat="55.9772499" lon="49.3067909"><time>2023-06-17T10:42:50.237</time></trkpt><trkpt lat="55.9771990" lon="49.3067746"><time>2023-06-17T10:42:53.230</time></trkpt><trkpt lat="55.9771480" lon="49.3067520"><time>2023-06-17T10:42:56.233</time></trkpt><trkpt lat="55.9770982" lon="49.3067281"><time>2023-06-17T10:42:59.230</time></trkpt><trkpt lat="55.9770524" lon="49.3067071"><time>2023-06-17T10:43:02.223</time></trkpt><trkpt lat="55.9769983" lon="49.3066665"><time>2023-06-17T10:43:06.230</time></trkpt><trkpt lat="55.9769588" lon="49.3066231"><time>2023-06-17T10:43:09.227</time></trkpt><trkpt lat="55.9769053" lon="49.3065861"><time>2023-06-17T10:43:13.243</time></trkpt><trkpt lat="55.9768523" lon="49.3065592"><time>2023-06-17T10:43:17.233</time></trkpt><trkpt lat="55.9767969" lon="49.3065216"><time>2023-06-17T10:43:21.243</time></trkpt><trkpt lat="55.9767442" lon="49.3064712"><time>2023-06-17T10:43:35.233</time></trkpt><trkpt lat="55.9767023" lon="49.3064386"><time>2023-06-17T10:43:38.220</time></trkpt><trkpt lat="55.9766552" lon="49.3064057"><time>2023-06-17T10:43:41.220</time></trkpt><trkpt lat="55.9766127" lon="49.3063779"><time>2023-06-17T10:43:44.223</time></trkpt><trkpt lat="55.9765580" lon="49.3063466"><time>2023-06-17T10:43:48.220</time></trkpt><trkpt lat="55.9765077" lon="49.3063196"><time>2023-06-17T10:43:52.210</time></trkpt><trkpt lat="55.9764640" lon="49.3062997"><time>2023-06-17T10:43:55.210</time></trkpt><trkpt lat="55.9764105" lon="49.3062736"><time>2023-06-17T10:43:59.217</time></trkpt><trkpt lat="55.9763597" lon="49.3062337"><time>2023-06-17T10:44:03.217</time></trkpt><trkpt lat="55.9763153" lon="49.3062142"><time>2023-06-17T10:44:06.240</time></trkpt><trkpt lat="55.9762583" lon="49.3061828"><time>2023-06-17T10:44:10.240</time></trkpt><trkpt lat="55.9762146" lon="49.3061528"><time>2023-06-17T10:44:13.227</time></trkpt><trkpt lat="55.9761571" lon="49.3061201"><time>2023-06-17T10:44:17.243</time></trkpt><trkpt lat="55.9761123" lon="49.3061073"><time>2023-06-17T10:44:20.233</time></trkpt><trkpt lat="55.9760646" lon="49.3060904"><time>2023-06-17T10:44:23.227</time></trkpt><trkpt lat="55.9760195" lon="49.3060798"><time>2023-06-17T10:44:26.233</time></trkpt><trkpt lat="55.9759656" lon="49.3060726"><time>2023-06-17T10:44:30.220</time></trkpt><trkpt lat="55.9759096" lon="49.3060820"><time>2023-06-17T10:44:34.240</time></trkpt><trkpt lat="55.9758547" lon="49.3061021"><time>2023-06-17T10:44:38.223</time></trkpt><trkpt lat="55.9758103" lon="49.3061148"><time>2023-06-17T10:44:41.227</time></trkpt><trkpt lat="55.9757653" lon="49.3061322"><time>2023-06-17T10:44:44.223</time></trkpt><trkpt lat="55.9757227" lon="49.3061587"><time>2023-06-17T10:44:47.227</time></trkpt><trkpt lat="55.9756688" lon="49.3061981"><time>2023-06-17T10:44:51.213</time></trkpt><trkpt lat="55.9756191" lon="49.3062494"><time>2023-06-17T10:44:55.213</time></trkpt><trkpt lat="55.9755607" lon="49.3062389"><time>2023-06-17T10:44:59.227</time></trkpt><trkpt lat="55.9755075" lon="49.3062206"><time>2023-06-17T10:45:03.233</time></trkpt><trkpt lat="55.9754553" lon="49.3061975"><time>2023-06-17T10:45:07.213</time></trkpt><trkpt lat="55.9754101" lon="49.3061837"><time>2023-06-17T10:45:10.243</time></trkpt><trkpt lat="55.9753616" lon="49.3061636"><time>2023-06-17T10:45:13.227</time></trkpt><trkpt lat="55.9753049" lon="49.3061401"><time>2023-06-17T10:45:17.220</time></trkpt><trkpt lat="55.9752539" lon="49.3061371"><time>2023-06-17T10:45:20.227</time></trkpt><trkpt lat="55.9752087" lon="49.3061310"><time>2023-06-17T10:45:23.230</time></trkpt><trkpt lat="55.9751623" lon="49.3061401"><time>2023-06-17T10:45:26.227</time></trkpt><trkpt lat="55.9751163" lon="49.3061468"><time>2023-06-17T10:45:29.237</time></trkpt><trkpt lat="55.9750700" lon="49.3061365"><time>2023-06-17T10:45:32.227</time></trkpt><trkpt lat="55.9750145" lon="49.3061380"><time>2023-06-17T10:45:36.230</time></trkpt><trkpt lat="55.9749601" lon="49.3061400"><time>2023-06-17T10:45:40.217</time></trkpt><trkpt lat="55.9749017" lon="49.3061430"><time>2023-06-17T10:45:44.220</time></trkpt><trkpt lat="55.9748427" lon="49.3061460"><time>2023-06-17T10:45:48.217</time></trkpt><trkpt lat="55.9747873" lon="49.3061437"><time>2023-06-17T10:45:52.230</time></trkpt><trkpt lat="55.9747285" lon="49.3061291"><time>2023-06-17T10:45:56.217</time></trkpt><trkpt lat="55.9746687" lon="49.3061264"><time>2023-06-17T10:46:00.227</time></trkpt><trkpt lat="55.9746120" lon="49.3061357"><time>2023-06-17T10:46:04.217</time></trkpt><trkpt lat="55.9745522" lon="49.3061509"><time>2023-06-17T10:46:08.227</time></trkpt><trkpt lat="55.9744946" lon="49.3061654"><time>2023-06-17T10:46:12.237</time></trkpt><trkpt lat="55.9744458" lon="49.3062126"><time>2023-06-17T10:46:16.277</time></trkpt><trkpt lat="55.9744510" lon="49.3063035"><time>2023-06-17T10:46:19.227</time></trkpt><trkpt lat="55.9743981" lon="49.3063005"><time>2023-06-17T10:46:23.220</time></trkpt><trkpt lat="55.9744429" lon="49.3062225"><time>2023-06-17T10:46:26.223</time></trkpt><trkpt lat="55.9743945" lon="49.3062260"><time>2023-06-17T10:49:52.230</time></trkpt><trkpt lat="55.9743453" lon="49.3062087"><time>2023-06-17T10:49:56.223</time></trkpt><trkpt lat="55.9742894" lon="49.3062480"><time>2023-06-17T10:50:00.223</time></trkpt><trkpt lat="55.9742379" lon="49.3062840"><time>2023-06-17T10:50:04.233</time></trkpt><trkpt lat="55.9741849" lon="49.3063016"><time>2023-06-17T10:50:08.230</time></trkpt><trkpt lat="55.9741307" lon="49.3063200"><time>2023-06-17T10:50:12.223</time></trkpt><trkpt lat="55.9740779" lon="49.3063233"><time>2023-06-17T10:50:16.233</time></trkpt><trkpt lat="55.9740226" lon="49.3063270"><time>2023-06-17T10:50:20.227</time></trkpt><trkpt lat="55.9739721" lon="49.3063638"><time>2023-06-17T10:50:24.217</time></trkpt><trkpt lat="55.9739164" lon="49.3063960"><time>2023-06-17T10:50:28.227</time></trkpt><trkpt lat="55.9738742" lon="49.3064353"><time>2023-06-17T10:50:31.227</time></trkpt><trkpt lat="55.9738260" lon="49.3064910"><time>2023-06-17T10:50:35.213</time></trkpt><trkpt lat="55.9737725" lon="49.3065343"><time>2023-06-17T10:50:39.220</time></trkpt><trkpt lat="55.9737302" lon="49.3065633"><time>2023-06-17T10:50:42.227</time></trkpt><trkpt lat="55.9736790" lon="49.3065907"><time>2023-06-17T10:50:46.220</time></trkpt><trkpt lat="55.9736316" lon="49.3066195"><time>2023-06-17T10:50:50.227</time></trkpt><trkpt lat="55.9735782" lon="49.3066350"><time>2023-06-17T10:50:54.210</time></trkpt><trkpt lat="55.9735308" lon="49.3066374"><time>2023-06-17T10:50:57.237</time></trkpt><trkpt lat="55.9734822" lon="49.3066291"><time>2023-06-17T10:51:00.237</time></trkpt><trkpt lat="55.9734296" lon="49.3066006"><time>2023-06-17T10:51:04.233</time></trkpt><trkpt lat="55.9733763" lon="49.3065710"><time>2023-06-17T10:51:08.227</time></trkpt><trkpt lat="55.9733223" lon="49.3065361"><time>2023-06-17T10:51:12.220</time></trkpt><trkpt lat="55.9732719" lon="49.3064782"><time>2023-06-17T10:51:16.233</time></trkpt><trkpt lat="55.9732305" lon="49.3064217"><time>2023-06-17T10:51:19.230</time></trkpt><trkpt lat="55.9731932" lon="49.3063727"><time>2023-06-17T10:51:22.230</time></trkpt><trkpt lat="55.9731501" lon="49.3063034"><time>2023-06-17T10:51:26.227</time></trkpt><trkpt lat="55.9731020" lon="49.3062466"><time>2023-06-17T10:51:30.243</time></trkpt><trkpt lat="55.9730560" lon="49.3061894"><time>2023-06-17T10:51:34.227</time></trkpt><trkpt lat="55.9730135" lon="49.3061157"><time>2023-06-17T10:51:38.237</time></trkpt><trkpt lat="55.9729800" lon="49.3060313"><time>2023-06-17T10:51:42.233</time></trkpt><trkpt lat="55.9729415" lon="49.3059727"><time>2023-06-17T10:51:46.223</time></trkpt><trkpt lat="55.9728986" lon="49.3059192"><time>2023-06-17T10:51:50.240</time></trkpt><trkpt lat="55.9728645" lon="49.3058563"><time>2023-06-17T10:51:54.227</time></trkpt><trkpt lat="55.9728316" lon="49.3057969"><time>2023-06-17T10:51:58.237</time></trkpt><trkpt lat="55.9727889" lon="49.3057406"><time>2023-06-17T10:52:02.213</time></trkpt><trkpt lat="55.9727538" lon="49.3056791"><time>2023-06-17T10:52:06.233</time></trkpt><trkpt lat="55.9727176" lon="49.3056096"><time>2023-06-17T10:52:10.223</time></trkpt><trkpt lat="55.9726778" lon="49.3055411"><time>2023-06-17T10:52:14.220</time></trkpt><trkpt lat="55.9726404" lon="49.3054958"><time>2023-06-17T10:52:17.320</time></trkpt><trkpt lat="55.9725976" lon="49.3054320"><time>2023-06-17T10:52:21.240</time></trkpt><trkpt lat="55.9725611" lon="49.3053565"><time>2023-06-17T10:52:25.220</time></trkpt><trkpt lat="55.9725070" lon="49.3053004"><time>2023-06-17T10:52:28.237</time></trkpt><trkpt lat="55.9724709" lon="49.3052474"><time>2023-06-17T10:52:30.223</time></trkpt><trkpt lat="55.9724344" lon="49.3051854"><time>2023-06-17T10:52:32.220</time></trkpt><trkpt lat="55.9723939" lon="49.3051332"><time>2023-06-17T10:52:34.223</time></trkpt><trkpt lat="55.9723587" lon="49.3050834"><time>2023-06-17T10:52:36.233</time></trkpt><trkpt lat="55.9723051" lon="49.3050152"><time>2023-06-17T10:52:39.230</time></trkpt><trkpt lat="55.9722499" lon="49.3049498"><time>2023-06-17T10:52:42.237</time></trkpt><trkpt lat="55.9722029" lon="49.3048847"><time>2023-06-17T10:52:45.230</time></trkpt><trkpt lat="55.9721605" lon="49.3048356"><time>2023-06-17T10:52:48.227</time></trkpt><trkpt lat="55.9721184" lon="49.3047835"><time>2023-06-17T10:52:52.223</time></trkpt><trkpt lat="55.9720819" lon="49.3047333"><time>2023-06-17T10:52:56.217</time></trkpt><trkpt lat="55.9720485" lon="49.3046756"><time>2023-06-17T10:53:00.223</time></trkpt><trkpt lat="55.9720100" lon="49.3046269"><time>2023-06-17T10:53:04.220</time></trkpt><trkpt lat="55.9719732" lon="49.3045690"><time>2023-06-17T10:53:08.230</time></trkpt><trkpt lat="55.9719333" lon="49.3045083"><time>2023-06-17T10:53:11.240</time></trkpt><trkpt lat="55.9718933" lon="49.3044718"><time>2023-06-17T10:53:14.227</time></trkpt><trkpt lat="55.9718423" lon="49.3044201"><time>2023-06-17T10:53:18.260</time></trkpt><trkpt lat="55.9717984" lon="49.3043603"><time>2023-06-17T10:53:22.240</time></trkpt><trkpt lat="55.9717587" lon="49.3042861"><time>2023-06-17T10:53:26.220</time></trkpt><trkpt lat="55.9717074" lon="49.3042359"><time>2023-06-17T10:53:30.223</time></trkpt><trkpt lat="55.9716599" lon="49.3041891"><time>2023-06-17T10:53:34.213</time></trkpt><trkpt lat="55.9716163" lon="49.3041315"><time>2023-06-17T10:53:38.227</time></trkpt><trkpt lat="55.9715663" lon="49.3040757"><time>2023-06-17T10:53:42.227</time></trkpt><trkpt lat="55.9715294" lon="49.3040269"><time>2023-06-17T10:53:45.220</time></trkpt><trkpt lat="55.9714933" lon="49.3039774"><time>2023-06-17T10:53:48.240</time></trkpt><trkpt lat="55.9714514" lon="49.3039230"><time>2023-06-17T10:53:52.240</time></trkpt><trkpt lat="55.9714071" lon="49.3038655"><time>2023-06-17T10:53:56.230</time></trkpt><trkpt lat="55.9713687" lon="49.3038118"><time>2023-06-17T10:53:59.227</time></trkpt><trkpt lat="55.9713234" lon="49.3037518"><time>2023-06-17T10:54:03.210</time></trkpt><trkpt lat="55.9712790" lon="49.3036940"><time>2023-06-17T10:54:07.213</time></trkpt><trkpt lat="55.9712335" lon="49.3036337"><time>2023-06-17T10:54:11.210</time></trkpt><trkpt lat="55.9711901" lon="49.3035718"><time>2023-06-17T10:54:15.227</time></trkpt><trkpt lat="55.9711451" lon="49.3035135"><time>2023-06-17T10:54:19.230</time></trkpt><trkpt lat="55.9710987" lon="49.3034599"><time>2023-06-17T10:54:23.210</time></trkpt><trkpt lat="55.9710548" lon="49.3033991"><time>2023-06-17T10:54:27.200</time></trkpt><trkpt lat="55.9710082" lon="49.3033403"><time>2023-06-17T10:54:31.227</time></trkpt><trkpt lat="55.9709647" lon="49.3032835"><time>2023-06-17T10:54:35.223</time></trkpt><trkpt lat="55.9709243" lon="49.3032439"><time>2023-06-17T10:54:39.227</time></trkpt><trkpt lat="55.9708775" lon="49.3031797"><time>2023-06-17T10:54:44.237</time></trkpt><trkpt lat="55.9708392" lon="49.3031299"><time>2023-06-17T10:54:47.240</time></trkpt><trkpt lat="55.9707984" lon="49.3030937"><time>2023-06-17T10:54:54.223</time></trkpt><trkpt lat="55.9707592" lon="49.3030449"><time>2023-06-17T10:54:58.220</time></trkpt><trkpt lat="55.9707219" lon="49.3029893"><time>2023-06-17T10:55:02.233</time></trkpt><trkpt lat="55.9706839" lon="49.3029413"><time>2023-06-17T10:55:06.230</time></trkpt><trkpt lat="55.9706374" lon="49.3028830"><time>2023-06-17T10:55:10.223</time></trkpt><trkpt lat="55.9705935" lon="49.3028273"><time>2023-06-17T10:55:14.217</time></trkpt><trkpt lat="55.9705526" lon="49.3027661"><time>2023-06-17T10:55:18.227</time></trkpt><trkpt lat="55.9705077" lon="49.3027149"><time>2023-06-17T10:55:22.217</time></trkpt><trkpt lat="55.9704644" lon="49.3026602"><time>2023-06-17T10:55:26.223</time></trkpt><trkpt lat="55.9704262" lon="49.3026167"><time>2023-06-17T10:55:29.217</time></trkpt><trkpt lat="55.9703769" lon="49.3025469"><time>2023-06-17T10:55:33.217</time></trkpt><trkpt lat="55.9703289" lon="49.3024881"><time>2023-06-17T10:55:37.237</time></trkpt><trkpt lat="55.9702809" lon="49.3024393"><time>2023-06-17T10:55:41.227</time></trkpt><trkpt lat="55.9702333" lon="49.3023833"><time>2023-06-17T10:55:45.220</time></trkpt><trkpt lat="55.9701880" lon="49.3023221"><time>2023-06-17T10:55:49.220</time></trkpt><trkpt lat="55.9701408" lon="49.3022742"><time>2023-06-17T10:55:53.233</time></trkpt><trkpt lat="55.9700970" lon="49.3022132"><time>2023-06-17T10:55:57.220</time></trkpt><trkpt lat="55.9700565" lon="49.3021539"><time>2023-06-17T10:56:01.227</time></trkpt><trkpt lat="55.9700152" lon="49.3020963"><time>2023-06-17T10:56:05.220</time></trkpt><trkpt lat="55.9699720" lon="49.3020380"><time>2023-06-17T10:56:09.210</time></trkpt><trkpt lat="55.9699282" lon="49.3019818"><time>2023-06-17T10:56:13.233</time></trkpt><trkpt lat="55.9698833" lon="49.3019329"><time>2023-06-17T10:56:17.223</time></trkpt><trkpt lat="55.9698411" lon="49.3018802"><time>2023-06-17T10:56:21.217</time></trkpt><trkpt lat="55.9698035" lon="49.3018300"><time>2023-06-17T10:56:25.217</time></trkpt><trkpt lat="55.9697621" lon="49.3017765"><time>2023-06-17T10:56:29.223</time></trkpt><trkpt lat="55.9697141" lon="49.3017270"><time>2023-06-17T10:56:33.227</time></trkpt><trkpt lat="55.9696677" lon="49.3016836"><time>2023-06-17T10:56:37.230</time></trkpt><trkpt lat="55.9696288" lon="49.3016154"><time>2023-06-17T10:56:41.220</time></trkpt><trkpt lat="55.9695836" lon="49.3015614"><time>2023-06-17T10:56:45.217</time></trkpt><trkpt lat="55.9695423" lon="49.3014963"><time>2023-06-17T10:56:49.223</time></trkpt><trkpt lat="55.9694999" lon="49.3014335"><time>2023-06-17T10:56:53.243</time></trkpt><trkpt lat="55.9694556" lon="49.3013770"><time>2023-06-17T10:56:58.227</time></trkpt><trkpt lat="55.9694140" lon="49.3013113"><time>2023-06-17T10:57:02.227</time></trkpt><trkpt lat="55.9693677" lon="49.3012620"><time>2023-06-17T10:57:06.227</time></trkpt><trkpt lat="55.9693260" lon="49.3012106"><time>2023-06-17T10:57:10.230</time></trkpt><trkpt lat="55.9692801" lon="49.3011471"><time>2023-06-17T10:57:14.227</time></trkpt><trkpt lat="55.9692365" lon="49.3010747"><time>2023-06-17T10:57:18.233</time></trkpt><trkpt lat="55.9691957" lon="49.3010153"><time>2023-06-17T10:57:22.223</time></trkpt><trkpt lat="55.9691599" lon="49.3009653"><time>2023-06-17T10:57:25.230</time></trkpt><trkpt lat="55.9691261" lon="49.3009093"><time>2023-06-17T10:57:28.223</time></trkpt><trkpt lat="55.9690821" lon="49.3008646"><time>2023-06-17T10:57:32.217</time></trkpt><trkpt lat="55.9690406" lon="49.3008141"><time>2023-06-17T10:57:36.230</time></trkpt><trkpt lat="55.9689969" lon="49.3007530"><time>2023-06-17T10:57:40.237</time></trkpt><trkpt lat="55.9689542" lon="49.3007020"><time>2023-06-17T10:57:44.230</time></trkpt><trkpt lat="55.9689081" lon="49.3006473"><time>2023-06-17T10:57:48.227</time></trkpt><trkpt lat="55.9688650" lon="49.3005943"><time>2023-06-17T10:57:52.223</time></trkpt><trkpt lat="55.9688226" lon="49.3005498"><time>2023-06-17T10:57:56.237</time></trkpt><trkpt lat="55.9687751" lon="49.3005045"><time>2023-06-17T10:58:00.230</time></trkpt><trkpt lat="55.9687262" lon="49.3004716"><time>2023-06-17T10:58:04.230</time></trkpt><trkpt lat="55.9686825" lon="49.3004246"><time>2023-06-17T10:58:08.227</time></trkpt><trkpt lat="55.9686332" lon="49.3003843"><time>2023-06-17T10:58:12.227</time></trkpt><trkpt lat="55.9685925" lon="49.3003370"><time>2023-06-17T10:58:16.223</time></trkpt><trkpt lat="55.9685436" lon="49.3002999"><time>2023-06-17T10:58:21.223</time></trkpt><trkpt lat="55.9685060" lon="49.3002544"><time>2023-06-17T10:58:25.220</time></trkpt><trkpt lat="55.9684631" lon="49.3002182"><time>2023-06-17T10:58:29.220</time></trkpt><trkpt lat="55.9684145" lon="49.3001818"><time>2023-06-17T10:58:34.233</time></trkpt><trkpt lat="55.9683704" lon="49.3001351"><time>2023-06-17T10:58:38.223</time></trkpt><trkpt lat="55.9683222" lon="49.3001063"><time>2023-06-17T10:58:42.217</time></trkpt><trkpt lat="55.9682776" lon="49.3000507"><time>2023-06-17T10:58:47.223</time></trkpt><trkpt lat="55.9682362" lon="49.3000052"><time>2023-06-17T10:58:51.217</time></trkpt><trkpt lat="55.9681903" lon="49.2999516"><time>2023-06-17T10:58:56.227</time></trkpt><trkpt lat="55.9681447" lon="49.2999203"><time>2023-06-17T10:59:01.247</time></trkpt><trkpt lat="55.9681031" lon="49.2998766"><time>2023-06-17T10:59:06.230</time></trkpt><trkpt lat="55.9680604" lon="49.2998417"><time>2023-06-17T10:59:10.227</time></trkpt><trkpt lat="55.9680185" lon="49.2998041"><time>2023-06-17T10:59:14.223</time></trkpt><trkpt lat="55.9679758" lon="49.2997562"><time>2023-06-17T10:59:19.217</time></trkpt><trkpt lat="55.9679298" lon="49.2997278"><time>2023-06-17T10:59:24.223</time></trkpt><trkpt lat="55.9678868" lon="49.2996726"><time>2023-06-17T10:59:29.210</time></trkpt><trkpt lat="55.9678423" lon="49.2996197"><time>2023-06-17T10:59:34.223</time></trkpt><trkpt lat="55.9678019" lon="49.2995774"><time>2023-06-17T10:59:38.230</time></trkpt><trkpt lat="55.9677540" lon="49.2995420"><time>2023-06-17T10:59:43.233</time></trkpt><trkpt lat="55.9677084" lon="49.2995125"><time>2023-06-17T10:59:48.217</time></trkpt><trkpt lat="55.9676615" lon="49.2994612"><time>2023-06-17T10:59:53.217</time></trkpt><trkpt lat="55.9676175" lon="49.2994112"><time>2023-06-17T10:59:58.233</time></trkpt><trkpt lat="55.9675723" lon="49.2993541"><time>2023-06-17T11:00:03.217</time></trkpt><trkpt lat="55.9675298" lon="49.2993022"><time>2023-06-17T11:00:08.217</time></trkpt><trkpt lat="55.9674911" lon="49.2992524"><time>2023-06-17T11:00:12.213</time></trkpt><trkpt lat="55.9674485" lon="49.2992074"><time>2023-06-17T11:00:16.220</time></trkpt><trkpt lat="55.9674091" lon="49.2991605"><time>2023-06-17T11:00:20.327</time></trkpt><trkpt lat="55.9673643" lon="49.2991106"><time>2023-06-17T11:00:24.217</time></trkpt><trkpt lat="55.9673141" lon="49.2991060"><time>2023-06-17T11:00:28.227</time></trkpt><trkpt lat="55.9672979" lon="49.2990250"><time>2023-06-17T11:00:34.227</time></trkpt><trkpt lat="55.9672807" lon="49.2989455"><time>2023-06-17T11:00:39.233</time></trkpt><trkpt lat="55.9672653" lon="49.2988535"><time>2023-06-17T11:00:44.220</time></trkpt><trkpt lat="55.9672527" lon="49.2987572"><time>2023-06-17T11:00:50.223</time></trkpt><trkpt lat="55.9672472" lon="49.2986600"><time>2023-06-17T11:00:55.223</time></trkpt><trkpt lat="55.9672377" lon="49.2985806"><time>2023-06-17T11:00:59.233</time></trkpt><trkpt lat="55.9672309" lon="49.2984963"><time>2023-06-17T11:01:04.233</time></trkpt><trkpt lat="55.9672166" lon="49.2984128"><time>2023-06-17T11:01:09.227</time></trkpt><trkpt lat="55.9672117" lon="49.2983260"><time>2023-06-17T11:01:14.227</time></trkpt><trkpt lat="55.9672141" lon="49.2982303"><time>2023-06-17T11:01:19.227</time></trkpt><trkpt lat="55.9672118" lon="49.2981364"><time>2023-06-17T11:01:24.227</time></trkpt><trkpt lat="55.9672164" lon="49.2980424"><time>2023-06-17T11:01:30.230</time></trkpt><trkpt lat="55.9672209" lon="49.2979601"><time>2023-06-17T11:01:34.230</time></trkpt><trkpt lat="55.9672303" lon="49.2978677"><time>2023-06-17T11:01:39.257</time></trkpt><trkpt lat="55.9672383" lon="49.2977712"><time>2023-06-17T11:01:44.237</time></trkpt><trkpt lat="55.9672508" lon="49.2976841"><time>2023-06-17T11:01:49.237</time></trkpt><trkpt lat="55.9672538" lon="49.2975988"><time>2023-06-17T11:01:53.223</time></trkpt><trkpt lat="55.9672535" lon="49.2975129"><time>2023-06-17T11:01:57.207</time></trkpt><trkpt lat="55.9672694" lon="49.2974353"><time>2023-06-17T11:02:06.223</time></trkpt><trkpt lat="55.9672616" lon="49.2973492"><time>2023-06-17T11:02:11.227</time></trkpt><trkpt lat="55.9672686" lon="49.2972627"><time>2023-06-17T11:02:15.233</time></trkpt><trkpt lat="55.9672736" lon="49.2971810"><time>2023-06-17T11:02:19.223</time></trkpt><trkpt lat="55.9672806" lon="49.2970990"><time>2023-06-17T11:02:23.237</time></trkpt><trkpt lat="55.9672912" lon="49.2970200"><time>2023-06-17T11:02:27.227</time></trkpt><trkpt lat="55.9672967" lon="49.2969269"><time>2023-06-17T11:02:32.237</time></trkpt><trkpt lat="55.9672972" lon="49.2968424"><time>2023-06-17T11:02:36.217</time></trkpt><trkpt lat="55.9673004" lon="49.2967436"><time>2023-06-17T11:02:41.227</time></trkpt><trkpt lat="55.9673001" lon="49.2966627"><time>2023-06-17T11:02:45.220</time></trkpt><trkpt lat="55.9673039" lon="49.2965782"><time>2023-06-17T11:02:49.220</time></trkpt><trkpt lat="55.9673058" lon="49.2964812"><time>2023-06-17T11:02:54.223</time></trkpt><trkpt lat="55.9673125" lon="49.2963932"><time>2023-06-17T11:02:58.240</time></trkpt><trkpt lat="55.9673264" lon="49.2963031"><time>2023-06-17T11:03:02.213</time></trkpt><trkpt lat="55.9673365" lon="49.2962047"><time>2023-06-17T11:03:07.223</time></trkpt><trkpt lat="55.9673440" lon="49.2961227"><time>2023-06-17T11:03:11.230</time></trkpt><trkpt lat="55.9673446" lon="49.2960324"><time>2023-06-17T11:03:15.227</time></trkpt><trkpt lat="55.9673290" lon="49.2959556"><time>2023-06-17T11:03:19.217</time></trkpt><trkpt lat="55.9672996" lon="49.2958808"><time>2023-06-17T11:03:23.223</time></trkpt><trkpt lat="55.9672567" lon="49.2958570"><time>2023-06-17T11:03:27.227</time></trkpt><trkpt lat="55.9672058" lon="49.2958441"><time>2023-06-17T11:03:31.230</time></trkpt><trkpt lat="55.9671696" lon="49.2957934"><time>2023-06-17T11:03:35.237</time></trkpt><trkpt lat="55.9671221" lon="49.2957705"><time>2023-06-17T11:03:39.223</time></trkpt><trkpt lat="55.9670760" lon="49.2957747"><time>2023-06-17T11:03:43.243</time></trkpt><trkpt lat="55.9670314" lon="49.2957545"><time>2023-06-17T11:03:47.227</time></trkpt><trkpt lat="55.9669850" lon="49.2957069"><time>2023-06-17T11:03:51.237</time></trkpt><trkpt lat="55.9669494" lon="49.2956512"><time>2023-06-17T11:03:55.227</time></trkpt><trkpt lat="55.9669252" lon="49.2955597"><time>2023-06-17T11:03:59.227</time></trkpt><trkpt lat="55.9669067" lon="49.2954808"><time>2023-06-17T11:04:03.217</time></trkpt><trkpt lat="55.9668890" lon="49.2953869"><time>2023-06-17T11:04:07.220</time></trkpt><trkpt lat="55.9668606" lon="49.2953142"><time>2023-06-17T11:04:11.220</time></trkpt><trkpt lat="55.9668279" lon="49.2952379"><time>2023-06-17T11:04:15.230</time></trkpt><trkpt lat="55.9667844" lon="49.2951943"><time>2023-06-17T11:04:19.223</time></trkpt><trkpt lat="55.9667400" lon="49.2952232"><time>2023-06-17T11:04:23.237</time></trkpt><trkpt lat="55.9666908" lon="49.2952612"><time>2023-06-17T11:04:27.237</time></trkpt><trkpt lat="55.9666456" lon="49.2952990"><time>2023-06-17T11:04:31.237</time></trkpt><trkpt lat="55.9665927" lon="49.2953206"><time>2023-06-17T11:04:35.227</time></trkpt><trkpt lat="55.9665413" lon="49.2953539"><time>2023-06-17T11:04:39.240</time></trkpt><trkpt lat="55.9664909" lon="49.2953914"><time>2023-06-17T11:04:43.220</time></trkpt><trkpt lat="55.9664373" lon="49.2954296"><time>2023-06-17T11:04:47.267</time></trkpt><trkpt lat="55.9663871" lon="49.2954692"><time>2023-06-17T11:04:51.230</time></trkpt><trkpt lat="55.9663424" lon="49.2955044"><time>2023-06-17T11:04:55.217</time></trkpt><trkpt lat="55.9662881" lon="49.2955275"><time>2023-06-17T11:04:59.240</time></trkpt><trkpt lat="55.9662440" lon="49.2955447"><time>2023-06-17T11:05:02.237</time></trkpt><trkpt lat="55.9661942" lon="49.2955786"><time>2023-06-17T11:05:06.233</time></trkpt><trkpt lat="55.9661555" lon="49.2956356"><time>2023-06-17T11:05:10.227</time></trkpt><trkpt lat="55.9661383" lon="49.2957257"><time>2023-06-17T11:05:14.230</time></trkpt><trkpt lat="55.9661486" lon="49.2958265"><time>2023-06-17T11:05:18.227</time></trkpt><trkpt lat="55.9661612" lon="49.2959245"><time>2023-06-17T11:05:22.233</time></trkpt><trkpt lat="55.9661802" lon="49.2960189"><time>2023-06-17T11:05:26.230</time></trkpt><trkpt lat="55.9661873" lon="49.2961158"><time>2023-06-17T11:05:30.237</time></trkpt><trkpt lat="55.9661914" lon="49.2962036"><time>2023-06-17T11:05:34.227</time></trkpt><trkpt lat="55.9661695" lon="49.2962972"><time>2023-06-17T11:05:38.220</time></trkpt><trkpt lat="55.9661345" lon="49.2963582"><time>2023-06-17T11:05:41.237</time></trkpt><trkpt lat="55.9660829" lon="49.2963934"><time>2023-06-17T11:05:45.227</time></trkpt><trkpt lat="55.9660307" lon="49.2964107"><time>2023-06-17T11:05:49.213</time></trkpt><trkpt lat="55.9659748" lon="49.2964102"><time>2023-06-17T11:05:53.217</time></trkpt><trkpt lat="55.9659223" lon="49.2964325"><time>2023-06-17T11:05:58.227</time></trkpt><trkpt lat="55.9658717" lon="49.2964629"><time>2023-06-17T11:06:03.223</time></trkpt><trkpt lat="55.9658242" lon="49.2964512"><time>2023-06-17T11:06:07.227</time></trkpt><trkpt lat="55.9657735" lon="49.2964125"><time>2023-06-17T11:06:10.230</time></trkpt><trkpt lat="55.9657214" lon="49.2963675"><time>2023-06-17T11:06:14.227</time></trkpt><trkpt lat="55.9656735" lon="49.2963256"><time>2023-06-17T11:06:18.237</time></trkpt><trkpt lat="55.9656130" lon="49.2963206"><time>2023-06-17T11:06:22.237</time></trkpt><trkpt lat="55.9655688" lon="49.2963366"><time>2023-06-17T11:06:25.247</time></trkpt><trkpt lat="55.9655236" lon="49.2963635"><time>2023-06-17T11:06:29.213</time></trkpt><trkpt lat="55.9654757" lon="49.2964218"><time>2023-06-17T11:06:33.237</time></trkpt><trkpt lat="55.9654289" lon="49.2964711"><time>2023-06-17T11:06:37.227</time></trkpt><trkpt lat="55.9653812" lon="49.2965190"><time>2023-06-17T11:06:41.233</time></trkpt><trkpt lat="55.9653324" lon="49.2965626"><time>2023-06-17T11:06:45.227</time></trkpt><trkpt lat="55.9652882" lon="49.2965998"><time>2023-06-17T11:06:48.200</time></trkpt><trkpt lat="55.9652378" lon="49.2966135"><time>2023-06-17T11:06:52.213</time></trkpt><trkpt lat="55.9651964" lon="49.2966508"><time>2023-06-17T11:06:58.200</time></trkpt><trkpt lat="55.9651471" lon="49.2966757"><time>2023-06-17T11:07:02.227</time></trkpt><trkpt lat="55.9650977" lon="49.2966936"><time>2023-06-17T11:07:06.220</time></trkpt><trkpt lat="55.9650499" lon="49.2967336"><time>2023-06-17T11:07:10.213</time></trkpt><trkpt lat="55.9650008" lon="49.2967614"><time>2023-06-17T11:07:14.213</time></trkpt><trkpt lat="55.9649520" lon="49.2967948"><time>2023-06-17T11:07:18.213</time></trkpt><trkpt lat="55.9649048" lon="49.2968302"><time>2023-06-17T11:07:22.227</time></trkpt><trkpt lat="55.9648645" lon="49.2968858"><time>2023-06-17T11:07:26.207</time></trkpt><trkpt lat="55.9648344" lon="49.2969571"><time>2023-06-17T11:07:30.227</time></trkpt><trkpt lat="55.9648214" lon="49.2970471"><time>2023-06-17T11:07:34.217</time></trkpt><trkpt lat="55.9648031" lon="49.2971347"><time>2023-06-17T11:07:39.237</time></trkpt><trkpt lat="55.9648224" lon="49.2972095"><time>2023-06-17T11:07:43.220</time></trkpt><trkpt lat="55.9648563" lon="49.2972853"><time>2023-06-17T11:07:48.233</time></trkpt><trkpt lat="55.9648907" lon="49.2973586"><time>2023-06-17T11:07:52.230</time></trkpt><trkpt lat="55.9649344" lon="49.2974192"><time>2023-06-17T11:07:56.243</time></trkpt><trkpt lat="55.9649631" lon="49.2975004"><time>2023-06-17T11:08:00.213</time></trkpt><trkpt lat="55.9649902" lon="49.2975841"><time>2023-06-17T11:08:05.200</time></trkpt><trkpt lat="55.9650086" lon="49.2976605"><time>2023-06-17T11:08:09.217</time></trkpt><trkpt lat="55.9650086" lon="49.2976605"><time>2023-06-17T11:08:10.147</time></trkpt><trkpt lat="55.9649598" lon="49.2976562"><time>2023-06-17T11:08:15.217</time></trkpt><trkpt lat="55.9649437" lon="49.2975668"><time>2023-06-17T11:08:19.227</time></trkpt><trkpt lat="55.9649107" lon="49.2974869"><time>2023-06-17T11:08:23.243</time></trkpt><trkpt lat="55.9648796" lon="49.2974140"><time>2023-06-17T11:08:28.227</time></trkpt><trkpt lat="55.9648453" lon="49.2973532"><time>2023-06-17T11:08:33.217</time></trkpt><trkpt lat="55.9648216" lon="49.2972657"><time>2023-06-17T11:08:38.217</time></trkpt><trkpt lat="55.9647947" lon="49.2971964"><time>2023-06-17T11:08:43.220</time></trkpt><trkpt lat="55.9647831" lon="49.2971083"><time>2023-06-17T11:08:48.227</time></trkpt><trkpt lat="55.9648105" lon="49.2970437"><time>2023-06-17T11:08:52.217</time></trkpt><trkpt lat="55.9648293" lon="49.2969705"><time>2023-06-17T11:08:56.217</time></trkpt><trkpt lat="55.9648522" lon="49.2968907"><time>2023-06-17T11:09:01.217</time></trkpt><trkpt lat="55.9648878" lon="49.2968225"><time>2023-06-17T11:09:06.227</time></trkpt><trkpt lat="55.9649286" lon="49.2967700"><time>2023-06-17T11:09:11.213</time></trkpt><trkpt lat="55.9649735" lon="49.2967484"><time>2023-06-17T11:09:15.227</time></trkpt><trkpt lat="55.9650243" lon="49.2967193"><time>2023-06-17T11:09:20.217</time></trkpt><trkpt lat="55.9650666" lon="49.2966784"><time>2023-06-17T11:09:24.223</time></trkpt><trkpt lat="55.9651079" lon="49.2966452"><time>2023-06-17T11:09:28.223</time></trkpt><trkpt lat="55.9651518" lon="49.2966208"><time>2023-06-17T11:09:32.227</time></trkpt><trkpt lat="55.9652026" lon="49.2965969"><time>2023-06-17T11:09:37.217</time></trkpt><trkpt lat="55.9652500" lon="49.2965501"><time>2023-06-17T11:09:42.227</time></trkpt><trkpt lat="55.9653004" lon="49.2965283"><time>2023-06-17T11:09:47.217</time></trkpt><trkpt lat="55.9653370" lon="49.2964766"><time>2023-06-17T11:09:51.217</time></trkpt><trkpt lat="55.9652921" lon="49.2965083"><time>2023-06-17T11:09:57.217</time></trkpt><trkpt lat="55.9652619" lon="49.2965800"><time>2023-06-17T11:10:01.217</time></trkpt><trkpt lat="55.9652166" lon="49.2966128"><time>2023-06-17T11:10:05.227</time></trkpt><trkpt lat="55.9651651" lon="49.2966478"><time>2023-06-17T11:10:10.220</time></trkpt><trkpt lat="55.9651178" lon="49.2966758"><time>2023-06-17T11:10:14.227</time></trkpt><trkpt lat="55.9650727" lon="49.2966976"><time>2023-06-17T11:10:18.220</time></trkpt><trkpt lat="55.9650313" lon="49.2967465"><time>2023-06-17T11:10:22.223</time></trkpt><trkpt lat="55.9649844" lon="49.2967719"><time>2023-06-17T11:10:26.220</time></trkpt><trkpt lat="55.9649422" lon="49.2968049"><time>2023-06-17T11:10:30.223</time></trkpt><trkpt lat="55.9648960" lon="49.2968423"><time>2023-06-17T11:10:34.227</time></trkpt><trkpt lat="55.9648503" lon="49.2968705"><time>2023-06-17T11:10:38.230</time></trkpt><trkpt lat="55.9648003" lon="49.2968968"><time>2023-06-17T11:10:43.220</time></trkpt><trkpt lat="55.9647507" lon="49.2969248"><time>2023-06-17T11:10:48.230</time></trkpt><trkpt lat="55.9646990" lon="49.2969497"><time>2023-06-17T11:10:53.227</time></trkpt><trkpt lat="55.9646526" lon="49.2969616"><time>2023-06-17T11:10:57.230</time></trkpt><trkpt lat="55.9645992" lon="49.2969802"><time>2023-06-17T11:11:02.213</time></trkpt><trkpt lat="55.9645473" lon="49.2969698"><time>2023-06-17T11:11:07.220</time></trkpt><trkpt lat="55.9645024" lon="49.2969478"><time>2023-06-17T11:11:11.223</time></trkpt><trkpt lat="55.9644686" lon="49.2968705"><time>2023-06-17T11:11:16.220</time></trkpt><trkpt lat="55.9644473" lon="49.2967805"><time>2023-06-17T11:11:21.220</time></trkpt><trkpt lat="55.9644149" lon="49.2967030"><time>2023-06-17T11:11:26.210</time></trkpt><trkpt lat="55.9643855" lon="49.2966401"><time>2023-06-17T11:11:30.233</time></trkpt><trkpt lat="55.9643392" lon="49.2965786"><time>2023-06-17T11:11:34.213</time></trkpt><trkpt lat="55.9642977" lon="49.2965150"><time>2023-06-17T11:11:38.213</time></trkpt><trkpt lat="55.9642763" lon="49.2964409"><time>2023-06-17T11:11:43.217</time></trkpt><trkpt lat="55.9642574" lon="49.2963553"><time>2023-06-17T11:11:48.213</time></trkpt><trkpt lat="55.9642451" lon="49.2962769"><time>2023-06-17T11:11:52.217</time></trkpt><trkpt lat="55.9642364" lon="49.2961781"><time>2023-06-17T11:11:57.220</time></trkpt><trkpt lat="55.9642289" lon="49.2960860"><time>2023-06-17T11:12:01.213</time></trkpt><trkpt lat="55.9642127" lon="49.2960041"><time>2023-06-17T11:12:05.220</time></trkpt><trkpt lat="55.9641942" lon="49.2959161"><time>2023-06-17T11:12:09.230</time></trkpt><trkpt lat="55.9641737" lon="49.2958243"><time>2023-06-17T11:12:14.203</time></trkpt><trkpt lat="55.9641558" lon="49.2957319"><time>2023-06-17T11:12:19.210</time></trkpt><trkpt lat="55.9641457" lon="49.2956501"><time>2023-06-17T11:12:23.220</time></trkpt><trkpt lat="55.9641376" lon="49.2955622"><time>2023-06-17T11:12:27.227</time></trkpt><trkpt lat="55.9641233" lon="49.2954836"><time>2023-06-17T11:12:31.213</time></trkpt><trkpt lat="55.9641036" lon="49.2953975"><time>2023-06-17T11:12:36.213</time></trkpt><trkpt lat="55.9640852" lon="49.2953164"><time>2023-06-17T11:12:41.223</time></trkpt><trkpt lat="55.9640587" lon="49.2952354"><time>2023-06-17T11:12:46.213</time></trkpt><trkpt lat="55.9640317" lon="49.2951558"><time>2023-06-17T11:12:51.227</time></trkpt><trkpt lat="55.9640112" lon="49.2950846"><time>2023-06-17T11:12:55.227</time></trkpt><trkpt lat="55.9639815" lon="49.2950026"><time>2023-06-17T11:13:00.210</time></trkpt><trkpt lat="55.9639639" lon="49.2949156"><time>2023-06-17T11:13:05.217</time></trkpt><trkpt lat="55.9639421" lon="49.2948418"><time>2023-06-17T11:13:10.217</time></trkpt><trkpt lat="55.9639506" lon="49.2947411"><time>2023-06-17T11:13:51.217</time></trkpt><trkpt lat="55.9639401" lon="49.2946592"><time>2023-06-17T11:13:56.217</time></trkpt><trkpt lat="55.9639180" lon="49.2945765"><time>2023-06-17T11:14:01.217</time></trkpt><trkpt lat="55.9639020" lon="49.2944837"><time>2023-06-17T11:14:06.220</time></trkpt><trkpt lat="55.9638926" lon="49.2943919"><time>2023-06-17T11:14:11.227</time></trkpt><trkpt lat="55.9638889" lon="49.2942965"><time>2023-06-17T11:14:15.227</time></trkpt><trkpt lat="55.9638876" lon="49.2942067"><time>2023-06-17T11:14:19.233</time></trkpt><trkpt lat="55.9638804" lon="49.2941254"><time>2023-06-17T11:14:23.223</time></trkpt><trkpt lat="55.9638742" lon="49.2940316"><time>2023-06-17T11:14:28.263</time></trkpt><trkpt lat="55.9638296" lon="49.2940044"><time>2023-06-17T11:14:34.230</time></trkpt><trkpt lat="55.9637829" lon="49.2940237"><time>2023-06-17T11:14:39.227</time></trkpt><trkpt lat="55.9637341" lon="49.2940100"><time>2023-06-17T11:14:44.207</time></trkpt><trkpt lat="55.9636814" lon="49.2939957"><time>2023-06-17T11:14:49.227</time></trkpt><trkpt lat="55.9636357" lon="49.2940016"><time>2023-06-17T11:14:53.217</time></trkpt><trkpt lat="55.9635815" lon="49.2939830"><time>2023-06-17T11:14:58.220</time></trkpt><trkpt lat="55.9635301" lon="49.2939756"><time>2023-06-17T11:15:10.223</time></trkpt><trkpt lat="55.9634732" lon="49.2939796"><time>2023-06-17T11:15:15.220</time></trkpt><trkpt lat="55.9634189" lon="49.2939794"><time>2023-06-17T11:15:20.227</time></trkpt><trkpt lat="55.9633661" lon="49.2939926"><time>2023-06-17T11:15:24.267</time></trkpt><trkpt lat="55.9633187" lon="49.2940115"><time>2023-06-17T11:15:28.220</time></trkpt><trkpt lat="55.9632721" lon="49.2940281"><time>2023-06-17T11:15:32.230</time></trkpt><trkpt lat="55.9632235" lon="49.2940481"><time>2023-06-17T11:15:36.227</time></trkpt><trkpt lat="55.9631794" lon="49.2940679"><time>2023-06-17T11:15:40.260</time></trkpt><trkpt lat="55.9631278" lon="49.2940835"><time>2023-06-17T11:15:45.303</time></trkpt><trkpt lat="55.9630764" lon="49.2941040"><time>2023-06-17T11:15:50.220</time></trkpt><trkpt lat="55.9630247" lon="49.2941213"><time>2023-06-17T11:15:54.210</time></trkpt><trkpt lat="55.9629741" lon="49.2941170"><time>2023-06-17T11:15:58.293</time></trkpt><trkpt lat="55.9629283" lon="49.2941210"><time>2023-06-17T11:16:02.213</time></trkpt><trkpt lat="55.9628781" lon="49.2941132"><time>2023-06-17T11:16:06.250</time></trkpt><trkpt lat="55.9628213" lon="49.2941163"><time>2023-06-17T11:16:11.247</time></trkpt><trkpt lat="55.9627742" lon="49.2941015"><time>2023-06-17T11:16:15.213</time></trkpt><trkpt lat="55.9627259" lon="49.2940882"><time>2023-06-17T11:16:19.213</time></trkpt><trkpt lat="55.9626715" lon="49.2940648"><time>2023-06-17T11:16:24.223</time></trkpt><trkpt lat="55.9626247" lon="49.2940500"><time>2023-06-17T11:16:28.227</time></trkpt><trkpt lat="55.9625707" lon="49.2940314"><time>2023-06-17T11:16:33.223</time></trkpt><trkpt lat="55.9625187" lon="49.2940059"><time>2023-06-17T11:16:37.227</time></trkpt><trkpt lat="55.9624666" lon="49.2939967"><time>2023-06-17T11:16:41.233</time></trkpt><trkpt lat="55.9624193" lon="49.2939769"><time>2023-06-17T11:16:45.230</time></trkpt><trkpt lat="55.9623695" lon="49.2939439"><time>2023-06-17T11:16:50.223</time></trkpt><trkpt lat="55.9623260" lon="49.2939213"><time>2023-06-17T11:16:54.230</time></trkpt><trkpt lat="55.9622806" lon="49.2938988"><time>2023-06-17T11:16:58.227</time></trkpt><trkpt lat="55.9622333" lon="49.2938831"><time>2023-06-17T11:17:02.220</time></trkpt><trkpt lat="55.9621845" lon="49.2938726"><time>2023-06-17T11:17:06.237</time></trkpt><trkpt lat="55.9621396" lon="49.2938730"><time>2023-06-17T11:17:10.227</time></trkpt><trkpt lat="55.9620881" lon="49.2938532"><time>2023-06-17T11:17:15.217</time></trkpt><trkpt lat="55.9620414" lon="49.2938132"><time>2023-06-17T11:17:20.223</time></trkpt><trkpt lat="55.9619954" lon="49.2937834"><time>2023-06-17T11:17:24.210</time></trkpt><trkpt lat="55.9619465" lon="49.2937486"><time>2023-06-17T11:17:29.217</time></trkpt><trkpt lat="55.9619006" lon="49.2937051"><time>2023-06-17T11:17:34.217</time></trkpt><trkpt lat="55.9618514" lon="49.2936560"><time>2023-06-17T11:17:39.207</time></trkpt><trkpt lat="55.9617950" lon="49.2936318"><time>2023-06-17T11:17:43.217</time></trkpt><trkpt lat="55.9617380" lon="49.2936259"><time>2023-06-17T11:17:47.227</time></trkpt><trkpt lat="55.9616880" lon="49.2936218"><time>2023-06-17T11:17:52.263</time></trkpt><trkpt lat="55.9616395" lon="49.2936571"><time>2023-06-17T11:18:00.223</time></trkpt><trkpt lat="55.9615904" lon="49.2936238"><time>2023-06-17T11:18:06.213</time></trkpt><trkpt lat="55.9615435" lon="49.2936057"><time>2023-06-17T11:18:16.237</time></trkpt><trkpt lat="55.9614976" lon="49.2935727"><time>2023-06-17T11:18:22.223</time></trkpt><trkpt lat="55.9614540" lon="49.2935223"><time>2023-06-17T11:18:27.223</time></trkpt><trkpt lat="55.9614024" lon="49.2934944"><time>2023-06-17T11:18:32.237</time></trkpt><trkpt lat="55.9613558" lon="49.2934610"><time>2023-06-17T11:18:37.223</time></trkpt><trkpt lat="55.9613072" lon="49.2934287"><time>2023-06-17T11:18:42.227</time></trkpt><trkpt lat="55.9612578" lon="49.2934108"><time>2023-06-17T11:18:46.230</time></trkpt><trkpt lat="55.9612086" lon="49.2933903"><time>2023-06-17T11:18:50.217</time></trkpt><trkpt lat="55.9611577" lon="49.2933678"><time>2023-06-17T11:18:54.220</time></trkpt><trkpt lat="55.9611130" lon="49.2933442"><time>2023-06-17T11:19:02.223</time></trkpt><trkpt lat="55.9610574" lon="49.2933145"><time>2023-06-17T11:19:07.230</time></trkpt><trkpt lat="55.9610133" lon="49.2932970"><time>2023-06-17T11:19:10.227</time></trkpt><trkpt lat="55.9609614" lon="49.2932861"><time>2023-06-17T11:19:14.213</time></trkpt><trkpt lat="55.9609046" lon="49.2932705"><time>2023-06-17T11:19:18.227</time></trkpt><trkpt lat="55.9608543" lon="49.2932522"><time>2023-06-17T11:19:22.227</time></trkpt><trkpt lat="55.9608044" lon="49.2932203"><time>2023-06-17T11:19:26.290</time></trkpt><trkpt lat="55.9607556" lon="49.2931919"><time>2023-06-17T11:19:30.220</time></trkpt><trkpt lat="55.9607181" lon="49.2931474"><time>2023-06-17T11:19:34.227</time></trkpt><trkpt lat="55.9606822" lon="49.2930982"><time>2023-06-17T11:19:38.223</time></trkpt><trkpt lat="55.9606443" lon="49.2930460"><time>2023-06-17T11:19:42.223</time></trkpt><trkpt lat="55.9606087" lon="49.2929959"><time>2023-06-17T11:19:46.233</time></trkpt><trkpt lat="55.9605664" lon="49.2929447"><time>2023-06-17T11:19:50.233</time></trkpt><trkpt lat="55.9605251" lon="49.2929080"><time>2023-06-17T11:19:54.233</time></trkpt><trkpt lat="55.9604784" lon="49.2928572"><time>2023-06-17T11:19:59.233</time></trkpt><trkpt lat="55.9604415" lon="49.2927943"><time>2023-06-17T11:20:03.203</time></trkpt><trkpt lat="55.9604082" lon="49.2927374"><time>2023-06-17T11:20:07.217</time></trkpt><trkpt lat="55.9603693" lon="49.2926877"><time>2023-06-17T11:20:11.227</time></trkpt><trkpt lat="55.9603313" lon="49.2926316"><time>2023-06-17T11:20:15.227</time></trkpt><trkpt lat="55.9602961" lon="49.2925775"><time>2023-06-17T11:20:19.223</time></trkpt><trkpt lat="55.9602636" lon="49.2925178"><time>2023-06-17T11:20:24.230</time></trkpt><trkpt lat="55.9602149" lon="49.2924715"><time>2023-06-17T11:20:30.217</time></trkpt><trkpt lat="55.9601756" lon="49.2924295"><time>2023-06-17T11:20:35.220</time></trkpt><trkpt lat="55.9601234" lon="49.2924245"><time>2023-06-17T11:20:40.230</time></trkpt><trkpt lat="55.9600816" lon="49.2923690"><time>2023-06-17T11:20:45.227</time></trkpt><trkpt lat="55.9600496" lon="49.2923082"><time>2023-06-17T11:20:49.233</time></trkpt><trkpt lat="55.9600111" lon="49.2922429"><time>2023-06-17T11:20:54.220</time></trkpt><trkpt lat="55.9599659" lon="49.2921852"><time>2023-06-17T11:20:59.227</time></trkpt><trkpt lat="55.9599282" lon="49.2921225"><time>2023-06-17T11:21:03.230</time></trkpt><trkpt lat="55.9598938" lon="49.2920520"><time>2023-06-17T11:21:08.220</time></trkpt><trkpt lat="55.9598584" lon="49.2919995"><time>2023-06-17T11:21:13.207</time></trkpt><trkpt lat="55.9598204" lon="49.2919382"><time>2023-06-17T11:21:24.213</time></trkpt><trkpt lat="55.9597876" lon="49.2918792"><time>2023-06-17T11:21:28.220</time></trkpt><trkpt lat="55.9597509" lon="49.2918054"><time>2023-06-17T11:21:33.217</time></trkpt><trkpt lat="55.9597057" lon="49.2917525"><time>2023-06-17T11:21:38.223</time></trkpt><trkpt lat="55.9596744" lon="49.2916901"><time>2023-06-17T11:21:42.217</time></trkpt><trkpt lat="55.9596395" lon="49.2916246"><time>2023-06-17T11:21:47.217</time></trkpt><trkpt lat="55.9596057" lon="49.2915664"><time>2023-06-17T11:21:51.227</time></trkpt><trkpt lat="55.9595716" lon="49.2915050"><time>2023-06-17T11:21:56.233</time></trkpt><trkpt lat="55.9595264" lon="49.2915236"><time>2023-06-17T11:22:00.227</time></trkpt><trkpt lat="55.9594932" lon="49.2915779"><time>2023-06-17T11:22:06.227</time></trkpt><trkpt lat="55.9594964" lon="49.2914610"><time>2023-06-17T11:22:09.213</time></trkpt><trkpt lat="55.9594725" lon="49.2913906"><time>2023-06-17T11:22:13.217</time></trkpt><trkpt lat="55.9594438" lon="49.2913258"><time>2023-06-17T11:22:17.217</time></trkpt><trkpt lat="55.9594149" lon="49.2912594"><time>2023-06-17T11:22:21.217</time></trkpt><trkpt lat="55.9593856" lon="49.2911941"><time>2023-06-17T11:22:25.223</time></trkpt><trkpt lat="55.9593510" lon="49.2911203"><time>2023-06-17T11:22:30.233</time></trkpt><trkpt lat="55.9593149" lon="49.2910570"><time>2023-06-17T11:22:35.217</time></trkpt><trkpt lat="55.9592752" lon="49.2909884"><time>2023-06-17T11:22:40.230</time></trkpt><trkpt lat="55.9592421" lon="49.2909173"><time>2023-06-17T11:22:45.227</time></trkpt><trkpt lat="55.9592124" lon="49.2908517"><time>2023-06-17T11:22:49.223</time></trkpt><trkpt lat="55.9591749" lon="49.2907770"><time>2023-06-17T11:22:54.223</time></trkpt><trkpt lat="55.9591275" lon="49.2907166"><time>2023-06-17T11:22:59.230</time></trkpt><trkpt lat="55.9590802" lon="49.2907028"><time>2023-06-17T11:23:03.240</time></trkpt><trkpt lat="55.9590332" lon="49.2907052"><time>2023-06-17T11:23:07.223</time></trkpt><trkpt lat="55.9589871" lon="49.2907084"><time>2023-06-17T11:23:11.230</time></trkpt><trkpt lat="55.9589331" lon="49.2907286"><time>2023-06-17T11:23:16.220</time></trkpt><trkpt lat="55.9588889" lon="49.2907566"><time>2023-06-17T11:23:20.333</time></trkpt><trkpt lat="55.9588464" lon="49.2907914"><time>2023-06-17T11:23:24.227</time></trkpt><trkpt lat="55.9587942" lon="49.2908236"><time>2023-06-17T11:23:29.227</time></trkpt><trkpt lat="55.9587454" lon="49.2908370"><time>2023-06-17T11:23:33.217</time></trkpt><trkpt lat="55.9586977" lon="49.2908395"><time>2023-06-17T11:23:37.213</time></trkpt><trkpt lat="55.9586459" lon="49.2908795"><time>2023-06-17T11:23:42.230</time></trkpt><trkpt lat="55.9586031" lon="49.2909179"><time>2023-06-17T11:23:46.213</time></trkpt><trkpt lat="55.9585597" lon="49.2909413"><time>2023-06-17T11:23:50.217</time></trkpt><trkpt lat="55.9585145" lon="49.2909752"><time>2023-06-17T11:23:54.230</time></trkpt><trkpt lat="55.9584709" lon="49.2910007"><time>2023-06-17T11:23:58.213</time></trkpt><trkpt lat="55.9584173" lon="49.2910297"><time>2023-06-17T11:24:02.227</time></trkpt><trkpt lat="55.9583693" lon="49.2910593"><time>2023-06-17T11:24:06.237</time></trkpt><trkpt lat="55.9583231" lon="49.2910834"><time>2023-06-17T11:24:10.230</time></trkpt><trkpt lat="55.9582768" lon="49.2911050"><time>2023-06-17T11:24:14.213</time></trkpt><trkpt lat="55.9582311" lon="49.2911298"><time>2023-06-17T11:24:18.227</time></trkpt><trkpt lat="55.9581863" lon="49.2911620"><time>2023-06-17T11:24:22.237</time></trkpt><trkpt lat="55.9581366" lon="49.2911895"><time>2023-06-17T11:24:26.220</time></trkpt><trkpt lat="55.9580943" lon="49.2912306"><time>2023-06-17T11:24:30.220</time></trkpt><trkpt lat="55.9580614" lon="49.2912890"><time>2023-06-17T11:24:34.227</time></trkpt><trkpt lat="55.9580336" lon="49.2913541"><time>2023-06-17T11:24:38.217</time></trkpt><trkpt lat="55.9580110" lon="49.2914282"><time>2023-06-17T11:24:42.230</time></trkpt><trkpt lat="55.9579947" lon="49.2915072"><time>2023-06-17T11:24:46.230</time></trkpt><trkpt lat="55.9579804" lon="49.2915911"><time>2023-06-17T11:24:50.230</time></trkpt><trkpt lat="55.9579647" lon="49.2916668"><time>2023-06-17T11:24:54.223</time></trkpt><trkpt lat="55.9579402" lon="49.2917445"><time>2023-06-17T11:24:58.237</time></trkpt><trkpt lat="55.9579105" lon="49.2918084"><time>2023-06-17T11:25:02.220</time></trkpt><trkpt lat="55.9578747" lon="49.2918606"><time>2023-06-17T11:25:06.217</time></trkpt><trkpt lat="55.9578311" lon="49.2919166"><time>2023-06-17T11:25:11.203</time></trkpt><trkpt lat="55.9577855" lon="49.2919659"><time>2023-06-17T11:25:16.217</time></trkpt><trkpt lat="55.9577411" lon="49.2920291"><time>2023-06-17T11:25:21.220</time></trkpt><trkpt lat="55.9577020" lon="49.2920688"><time>2023-06-17T11:25:25.220</time></trkpt><trkpt lat="55.9576542" lon="49.2921232"><time>2023-06-17T11:25:31.230</time></trkpt><trkpt lat="55.9576185" lon="49.2921914"><time>2023-06-17T11:25:36.217</time></trkpt><trkpt lat="55.9575691" lon="49.2922230"><time>2023-06-17T11:25:40.223</time></trkpt><trkpt lat="55.9575306" lon="49.2922686"><time>2023-06-17T11:25:44.223</time></trkpt><trkpt lat="55.9574896" lon="49.2923215"><time>2023-06-17T11:25:48.213</time></trkpt><trkpt lat="55.9574526" lon="49.2923723"><time>2023-06-17T11:25:52.233</time></trkpt><trkpt lat="55.9574130" lon="49.2924207"><time>2023-06-17T11:25:56.233</time></trkpt><trkpt lat="55.9573753" lon="49.2924674"><time>2023-06-17T11:26:00.233</time></trkpt><trkpt lat="55.9573292" lon="49.2925124"><time>2023-06-17T11:26:04.220</time></trkpt><trkpt lat="55.9572831" lon="49.2925407"><time>2023-06-17T11:26:08.227</time></trkpt><trkpt lat="55.9572291" lon="49.2925278"><time>2023-06-17T11:26:13.230</time></trkpt><trkpt lat="55.9571811" lon="49.2924801"><time>2023-06-17T11:26:18.220</time></trkpt><trkpt lat="55.9571541" lon="49.2924060"><time>2023-06-17T11:26:23.217</time></trkpt><trkpt lat="55.9571463" lon="49.2923214"><time>2023-06-17T11:26:28.217</time></trkpt><trkpt lat="55.9571566" lon="49.2922235"><time>2023-06-17T11:26:33.217</time></trkpt><trkpt lat="55.9571783" lon="49.2921525"><time>2023-06-17T11:26:37.223</time></trkpt><trkpt lat="55.9572005" lon="49.2920654"><time>2023-06-17T11:26:42.213</time></trkpt><trkpt lat="55.9572088" lon="49.2919720"><time>2023-06-17T11:26:47.217</time></trkpt><trkpt lat="55.9572116" lon="49.2918770"><time>2023-06-17T11:26:52.217</time></trkpt><trkpt lat="55.9571989" lon="49.2917875"><time>2023-06-17T11:26:57.210</time></trkpt><trkpt lat="55.9571726" lon="49.2917060"><time>2023-06-17T11:27:02.210</time></trkpt><trkpt lat="55.9571461" lon="49.2916307"><time>2023-06-17T11:27:07.207</time></trkpt><trkpt lat="55.9571145" lon="49.2915551"><time>2023-06-17T11:27:12.200</time></trkpt><trkpt lat="55.9570820" lon="49.2914775"><time>2023-06-17T11:27:17.400</time></trkpt><trkpt lat="55.9570458" lon="49.2914071"><time>2023-06-17T11:27:22.220</time></trkpt><trkpt lat="55.9570152" lon="49.2913308"><time>2023-06-17T11:27:27.213</time></trkpt><trkpt lat="55.9569889" lon="49.2912630"><time>2023-06-17T11:27:31.227</time></trkpt><trkpt lat="55.9569626" lon="49.2911752"><time>2023-06-17T11:27:36.213</time></trkpt><trkpt lat="55.9569339" lon="49.2910965"><time>2023-06-17T11:27:41.233</time></trkpt><trkpt lat="55.9569034" lon="49.2910174"><time>2023-06-17T11:27:46.230</time></trkpt><trkpt lat="55.9568794" lon="49.2909474"><time>2023-06-17T11:27:50.227</time></trkpt><trkpt lat="55.9568532" lon="49.2908748"><time>2023-06-17T11:27:54.217</time></trkpt><trkpt lat="55.9568408" lon="49.2907897"><time>2023-06-17T11:27:59.227</time></trkpt><trkpt lat="55.9568319" lon="49.2907090"><time>2023-06-17T11:28:03.227</time></trkpt><trkpt lat="55.9568197" lon="49.2906219"><time>2023-06-17T11:28:07.227</time></trkpt><trkpt lat="55.9568138" lon="49.2905391"><time>2023-06-17T11:28:11.220</time></trkpt><trkpt lat="55.9567996" lon="49.2904440"><time>2023-06-17T11:28:18.210</time></trkpt><trkpt lat="55.9568080" lon="49.2903605"><time>2023-06-17T11:28:22.223</time></trkpt><trkpt lat="55.9568148" lon="49.2902730"><time>2023-06-17T11:28:27.253</time></trkpt><trkpt lat="55.9568186" lon="49.2901898"><time>2023-06-17T11:28:31.227</time></trkpt><trkpt lat="55.9568217" lon="49.2901076"><time>2023-06-17T11:28:35.253</time></trkpt><trkpt lat="55.9568236" lon="49.2900172"><time>2023-06-17T11:28:40.300</time></trkpt><trkpt lat="55.9568535" lon="49.2899539"><time>2023-06-17T11:28:44.297</time></trkpt><trkpt lat="55.9568931" lon="49.2898848"><time>2023-06-17T11:28:49.257</time></trkpt><trkpt lat="55.9569243" lon="49.2898155"><time>2023-06-17T11:28:54.210</time></trkpt><trkpt lat="55.9568849" lon="49.2898805"><time>2023-06-17T11:29:09.230</time></trkpt><trkpt lat="55.9568333" lon="49.2898901"><time>2023-06-17T11:29:14.220</time></trkpt><trkpt lat="55.9568003" lon="49.2898286"><time>2023-06-17T11:29:18.227</time></trkpt><trkpt lat="55.9567884" lon="49.2897455"><time>2023-06-17T11:29:22.223</time></trkpt><trkpt lat="55.9567762" lon="49.2896507"><time>2023-06-17T11:29:27.210</time></trkpt><trkpt lat="55.9567645" lon="49.2895718"><time>2023-06-17T11:29:31.233</time></trkpt><trkpt lat="55.9567546" lon="49.2894921"><time>2023-06-17T11:29:35.263</time></trkpt><trkpt lat="55.9567411" lon="49.2893941"><time>2023-06-17T11:29:40.227</time></trkpt><trkpt lat="55.9567294" lon="49.2893067"><time>2023-06-17T11:29:44.293</time></trkpt><trkpt lat="55.9567220" lon="49.2892089"><time>2023-06-17T11:29:49.227</time></trkpt><trkpt lat="55.9567140" lon="49.2891185"><time>2023-06-17T11:29:53.253</time></trkpt><trkpt lat="55.9567037" lon="49.2890309"><time>2023-06-17T11:29:57.313</time></trkpt><trkpt lat="55.9566951" lon="49.2889503"><time>2023-06-17T11:30:01.297</time></trkpt><trkpt lat="55.9566894" lon="49.2888566"><time>2023-06-17T11:30:06.253</time></trkpt><trkpt lat="55.9566836" lon="49.2887734"><time>2023-06-17T11:30:10.233</time></trkpt><trkpt lat="55.9566795" lon="49.2886932"><time>2023-06-17T11:30:14.250</time></trkpt><trkpt lat="55.9566756" lon="49.2886041"><time>2023-06-17T11:30:18.227</time></trkpt><trkpt lat="55.9566721" lon="49.2885049"><time>2023-06-17T11:30:23.260</time></trkpt><trkpt lat="55.9566654" lon="49.2884107"><time>2023-06-17T11:30:28.227</time></trkpt><trkpt lat="55.9566608" lon="49.2883214"><time>2023-06-17T11:30:32.267</time></trkpt><trkpt lat="55.9566512" lon="49.2882194"><time>2023-06-17T11:30:37.300</time></trkpt><trkpt lat="55.9566438" lon="49.2881353"><time>2023-06-17T11:30:41.263</time></trkpt><trkpt lat="55.9566372" lon="49.2880540"><time>2023-06-17T11:30:45.250</time></trkpt><trkpt lat="55.9566286" lon="49.2879638"><time>2023-06-17T11:30:50.223</time></trkpt><trkpt lat="55.9566165" lon="49.2878848"><time>2023-06-17T11:30:54.257</time></trkpt><trkpt lat="55.9566052" lon="49.2878032"><time>2023-06-17T11:30:58.233</time></trkpt><trkpt lat="55.9565899" lon="49.2877202"><time>2023-06-17T11:31:02.293</time></trkpt><trkpt lat="55.9565766" lon="49.2876264"><time>2023-06-17T11:31:07.310</time></trkpt><trkpt lat="55.9565663" lon="49.2875410"><time>2023-06-17T11:31:11.317</time></trkpt><trkpt lat="55.9565538" lon="49.2874564"><time>2023-06-17T11:31:15.263</time></trkpt><trkpt lat="55.9565412" lon="49.2873737"><time>2023-06-17T11:31:19.233</time></trkpt><trkpt lat="55.9565288" lon="49.2872878"><time>2023-06-17T11:31:23.257</time></trkpt><trkpt lat="55.9565153" lon="49.2871901"><time>2023-06-17T11:31:28.233</time></trkpt><trkpt lat="55.9565035" lon="49.2871091"><time>2023-06-17T11:31:32.287</time></trkpt><trkpt lat="55.9564909" lon="49.2870295"><time>2023-06-17T11:31:36.297</time></trkpt><trkpt lat="55.9564724" lon="49.2869333"><time>2023-06-17T11:31:41.273</time></trkpt><trkpt lat="55.9564616" lon="49.2868383"><time>2023-06-17T11:31:46.293</time></trkpt><trkpt lat="55.9564497" lon="49.2867553"><time>2023-06-17T11:31:50.230</time></trkpt><trkpt lat="55.9564384" lon="49.2866610"><time>2023-06-17T11:31:55.310</time></trkpt><trkpt lat="55.9564316" lon="49.2865776"><time>2023-06-17T11:31:59.227</time></trkpt><trkpt lat="55.9564202" lon="49.2864940"><time>2023-06-17T11:32:03.263</time></trkpt><trkpt lat="55.9564077" lon="49.2864158"><time>2023-06-17T11:32:07.297</time></trkpt><trkpt lat="55.9563988" lon="49.2863166"><time>2023-06-17T11:32:12.257</time></trkpt><trkpt lat="55.9563859" lon="49.2862346"><time>2023-06-17T11:32:16.253</time></trkpt><trkpt lat="55.9563777" lon="49.2861379"><time>2023-06-17T11:32:21.257</time></trkpt><trkpt lat="55.9563827" lon="49.2860583"><time>2023-06-17T11:32:26.253</time></trkpt><trkpt lat="55.9563620" lon="49.2859849"><time>2023-06-17T11:32:34.257</time></trkpt><trkpt lat="55.9563541" lon="49.2858953"><time>2023-06-17T11:32:39.230</time></trkpt><trkpt lat="55.9563366" lon="49.2857990"><time>2023-06-17T11:32:44.253</time></trkpt><trkpt lat="55.9563265" lon="49.2857199"><time>2023-06-17T11:32:48.233</time></trkpt><trkpt lat="55.9563160" lon="49.2856396"><time>2023-06-17T11:32:52.250</time></trkpt><trkpt lat="55.9563066" lon="49.2855590"><time>2023-06-17T11:32:56.427</time></trkpt><trkpt lat="55.9562934" lon="49.2854797"><time>2023-06-17T11:33:00.227</time></trkpt><trkpt lat="55.9562644" lon="49.2854005"><time>2023-06-17T11:33:05.267</time></trkpt><trkpt lat="55.9562505" lon="49.2853117"><time>2023-06-17T11:33:09.243</time></trkpt><trkpt lat="55.9562478" lon="49.2852197"><time>2023-06-17T11:33:13.260</time></trkpt><trkpt lat="55.9562504" lon="49.2851282"><time>2023-06-17T11:33:17.267</time></trkpt><trkpt lat="55.9562667" lon="49.2850472"><time>2023-06-17T11:33:21.257</time></trkpt><trkpt lat="55.9562885" lon="49.2849674"><time>2023-06-17T11:33:25.273</time></trkpt><trkpt lat="55.9563210" lon="49.2849113"><time>2023-06-17T11:33:29.233</time></trkpt><trkpt lat="55.9563688" lon="49.2848685"><time>2023-06-17T11:33:33.290</time></trkpt><trkpt lat="55.9564093" lon="49.2848224"><time>2023-06-17T11:33:37.250</time></trkpt><trkpt lat="55.9564533" lon="49.2847718"><time>2023-06-17T11:33:41.277</time></trkpt><trkpt lat="55.9564860" lon="49.2847133"><time>2023-06-17T11:33:45.273</time></trkpt><trkpt lat="55.9565234" lon="49.2846531"><time>2023-06-17T11:33:49.227</time></trkpt><trkpt lat="55.9565568" lon="49.2845862"><time>2023-06-17T11:33:53.250</time></trkpt><trkpt lat="55.9565951" lon="49.2845322"><time>2023-06-17T11:33:57.260</time></trkpt><trkpt lat="55.9566370" lon="49.2844806"><time>2023-06-17T11:34:01.267</time></trkpt><trkpt lat="55.9566841" lon="49.2844327"><time>2023-06-17T11:34:05.297</time></trkpt><trkpt lat="55.9567260" lon="49.2843752"><time>2023-06-17T11:34:09.227</time></trkpt><trkpt lat="55.9567624" lon="49.2843168"><time>2023-06-17T11:34:13.307</time></trkpt><trkpt lat="55.9567902" lon="49.2842519"><time>2023-06-17T11:34:34.257</time></trkpt><trkpt lat="55.9568254" lon="49.2841834"><time>2023-06-17T11:34:38.250</time></trkpt><trkpt lat="55.9568635" lon="49.2841284"><time>2023-06-17T11:34:42.273</time></trkpt><trkpt lat="55.9569061" lon="49.2840733"><time>2023-06-17T11:34:46.287</time></trkpt><trkpt lat="55.9569423" lon="49.2840042"><time>2023-06-17T11:34:50.230</time></trkpt><trkpt lat="55.9569849" lon="49.2839408"><time>2023-06-17T11:34:54.250</time></trkpt><trkpt lat="55.9570238" lon="49.2838918"><time>2023-06-17T11:34:58.283</time></trkpt><trkpt lat="55.9570626" lon="49.2838379"><time>2023-06-17T11:35:02.267</time></trkpt><trkpt lat="55.9571135" lon="49.2837940"><time>2023-06-17T11:35:06.250</time></trkpt><trkpt lat="55.9571574" lon="49.2837392"><time>2023-06-17T11:35:10.220</time></trkpt><trkpt lat="55.9571961" lon="49.2836783"><time>2023-06-17T11:35:14.230</time></trkpt><trkpt lat="55.9572310" lon="49.2836154"><time>2023-06-17T11:35:18.307</time></trkpt><trkpt lat="55.9572646" lon="49.2835334"><time>2023-06-17T11:35:23.257</time></trkpt><trkpt lat="55.9572936" lon="49.2834717"><time>2023-06-17T11:35:27.250</time></trkpt><trkpt lat="55.9573249" lon="49.2834109"><time>2023-06-17T11:35:31.247</time></trkpt><trkpt lat="55.9573533" lon="49.2833484"><time>2023-06-17T11:35:35.257</time></trkpt><trkpt lat="55.9573407" lon="49.2832703"><time>2023-06-17T11:35:42.253</time></trkpt><trkpt lat="55.9572865" lon="49.2832713"><time>2023-06-17T11:35:50.233</time></trkpt><trkpt lat="55.9572843" lon="49.2831730"><time>2023-06-17T11:35:55.263</time></trkpt><trkpt lat="55.9572576" lon="49.2831033"><time>2023-06-17T11:36:08.263</time></trkpt><trkpt lat="55.9572228" lon="49.2830322"><time>2023-06-17T11:36:15.217</time></trkpt><trkpt lat="55.9572008" lon="49.2829608"><time>2023-06-17T11:36:19.240</time></trkpt><trkpt lat="55.9571866" lon="49.2828778"><time>2023-06-17T11:36:23.257</time></trkpt><trkpt lat="55.9571811" lon="49.2827966"><time>2023-06-17T11:36:27.250</time></trkpt><trkpt lat="55.9571859" lon="49.2827148"><time>2023-06-17T11:36:31.217</time></trkpt><trkpt lat="55.9571694" lon="49.2826391"><time>2023-06-17T11:36:35.297</time></trkpt><trkpt lat="55.9571463" lon="49.2825670"><time>2023-06-17T11:36:39.230</time></trkpt><trkpt lat="55.9571887" lon="49.2825086"><time>2023-06-17T11:36:45.257</time></trkpt><trkpt lat="55.9572406" lon="49.2824758"><time>2023-06-17T11:36:49.223</time></trkpt><trkpt lat="55.9572813" lon="49.2824334"><time>2023-06-17T11:36:53.307</time></trkpt><trkpt lat="55.9573132" lon="49.2823689"><time>2023-06-17T11:36:57.253</time></trkpt><trkpt lat="55.9573392" lon="49.2822980"><time>2023-06-17T11:37:01.217</time></trkpt><trkpt lat="55.9573541" lon="49.2822110"><time>2023-06-17T11:37:06.217</time></trkpt><trkpt lat="55.9573320" lon="49.2821298"><time>2023-06-17T11:37:11.227</time></trkpt><trkpt lat="55.9572828" lon="49.2821304"><time>2023-06-17T11:37:15.233</time></trkpt><trkpt lat="55.9572597" lon="49.2820634"><time>2023-06-17T11:37:23.207</time></trkpt><trkpt lat="55.9572594" lon="49.2820603"><time>2023-06-17T11:37:23.347</time></trkpt><trkpt lat="55.9572807" lon="49.2821327"><time>2023-06-17T11:37:57.227</time></trkpt><trkpt lat="55.9573294" lon="49.2821322"><time>2023-06-17T11:38:02.217</time></trkpt><trkpt lat="55.9573513" lon="49.2822051"><time>2023-06-17T11:38:07.217</time></trkpt><trkpt lat="55.9573930" lon="49.2822548"><time>2023-06-17T11:38:13.220</time></trkpt><trkpt lat="55.9574414" lon="49.2822938"><time>2023-06-17T11:38:19.220</time></trkpt><trkpt lat="55.9574917" lon="49.2822609"><time>2023-06-17T11:38:24.287</time></trkpt><trkpt lat="55.9575357" lon="49.2822394"><time>2023-06-17T11:38:28.257</time></trkpt><trkpt lat="55.9575893" lon="49.2822233"><time>2023-06-17T11:38:33.267</time></trkpt><trkpt lat="55.9576387" lon="49.2822014"><time>2023-06-17T11:38:38.263</time></trkpt><trkpt lat="55.9576847" lon="49.2821725"><time>2023-06-17T11:38:47.297</time></trkpt><trkpt lat="55.9577333" lon="49.2821469"><time>2023-06-17T11:38:52.230</time></trkpt><trkpt lat="55.9577849" lon="49.2821182"><time>2023-06-17T11:38:57.250</time></trkpt><trkpt lat="55.9578284" lon="49.2820850"><time>2023-06-17T11:39:04.280</time></trkpt><trkpt lat="55.9578787" lon="49.2820774"><time>2023-06-17T11:39:13.260</time></trkpt><trkpt lat="55.9579239" lon="49.2820861"><time>2023-06-17T11:39:20.220</time></trkpt><trkpt lat="55.9578785" lon="49.2820913"><time>2023-06-17T11:40:00.227</time></trkpt><trkpt lat="55.9578305" lon="49.2820765"><time>2023-06-17T11:40:07.263</time></trkpt><trkpt lat="55.9577845" lon="49.2820967"><time>2023-06-17T11:40:14.307</time></trkpt><trkpt lat="55.9578227" lon="49.2820525"><time>2023-06-17T11:44:18.220</time></trkpt><trkpt lat="55.9578690" lon="49.2820768"><time>2023-06-17T11:44:26.223</time></trkpt><trkpt lat="55.9579155" lon="49.2821043"><time>2023-06-17T11:44:31.277</time></trkpt><trkpt lat="55.9579615" lon="49.2821041"><time>2023-06-17T11:44:36.283</time></trkpt><trkpt lat="55.9580037" lon="49.2820568"><time>2023-06-17T11:44:41.257</time></trkpt><trkpt lat="55.9580460" lon="49.2820211"><time>2023-06-17T11:44:46.293</time></trkpt><trkpt lat="55.9580662" lon="49.2819438"><time>2023-06-17T11:45:23.257</time></trkpt><trkpt lat="55.9581121" lon="49.2819174"><time>2023-06-17T11:45:28.243</time></trkpt><trkpt lat="55.9581411" lon="49.2818471"><time>2023-06-17T11:45:34.230</time></trkpt><trkpt lat="55.9581697" lon="49.2817711"><time>2023-06-17T11:45:40.230</time></trkpt><trkpt lat="55.9581997" lon="49.2817052"><time>2023-06-17T11:45:45.303</time></trkpt><trkpt lat="55.9582346" lon="49.2816398"><time>2023-06-17T11:45:50.267</time></trkpt><trkpt lat="55.9582752" lon="49.2815793"><time>2023-06-17T11:45:55.280</time></trkpt><trkpt lat="55.9583132" lon="49.2815189"><time>2023-06-17T11:46:00.287</time></trkpt><trkpt lat="55.9583269" lon="49.2814246"><time>2023-06-17T11:46:06.277</time></trkpt><trkpt lat="55.9583501" lon="49.2813557"><time>2023-06-17T11:46:12.227</time></trkpt><trkpt lat="55.9583849" lon="49.2813005"><time>2023-06-17T11:46:17.253</time></trkpt><trkpt lat="55.9584229" lon="49.2812363"><time>2023-06-17T11:46:22.227</time></trkpt><trkpt lat="55.9584626" lon="49.2811727"><time>2023-06-17T11:46:27.267</time></trkpt><trkpt lat="55.9585023" lon="49.2811149"><time>2023-06-17T11:46:32.227</time></trkpt><trkpt lat="55.9585371" lon="49.2810612"><time>2023-06-17T11:46:36.270</time></trkpt><trkpt lat="55.9585812" lon="49.2810054"><time>2023-06-17T11:46:42.230</time></trkpt><trkpt lat="55.9586173" lon="49.2809571"><time>2023-06-17T11:46:46.290</time></trkpt><trkpt lat="55.9586637" lon="49.2809065"><time>2023-06-17T11:46:51.237</time></trkpt><trkpt lat="55.9587062" lon="49.2808526"><time>2023-06-17T11:46:56.227</time></trkpt><trkpt lat="55.9587448" lon="49.2807842"><time>2023-06-17T11:47:01.263</time></trkpt><trkpt lat="55.9587812" lon="49.2807189"><time>2023-06-17T11:47:06.293</time></trkpt><trkpt lat="55.9588191" lon="49.2806512"><time>2023-06-17T11:47:11.247</time></trkpt><trkpt lat="55.9588575" lon="49.2805789"><time>2023-06-17T11:47:16.223</time></trkpt><trkpt lat="55.9588910" lon="49.2805236"><time>2023-06-17T11:47:20.227</time></trkpt><trkpt lat="55.9589292" lon="49.2804539"><time>2023-06-17T11:47:25.217</time></trkpt><trkpt lat="55.9589592" lon="49.2803883"><time>2023-06-17T11:47:29.220</time></trkpt><trkpt lat="55.9589903" lon="49.2803073"><time>2023-06-17T11:47:34.210</time></trkpt><trkpt lat="55.9590089" lon="49.2802323"><time>2023-06-17T11:47:38.230</time></trkpt><trkpt lat="55.9590248" lon="49.2801524"><time>2023-06-17T11:47:42.223</time></trkpt><trkpt lat="55.9590451" lon="49.2800649"><time>2023-06-17T11:47:47.223</time></trkpt><trkpt lat="55.9590658" lon="49.2799786"><time>2023-06-17T11:47:52.217</time></trkpt><trkpt lat="55.9590855" lon="49.2798915"><time>2023-06-17T11:47:57.220</time></trkpt><trkpt lat="55.9591080" lon="49.2798131"><time>2023-06-17T11:48:02.223</time></trkpt><trkpt lat="55.9591283" lon="49.2797321"><time>2023-06-17T11:48:07.227</time></trkpt><trkpt lat="55.9591570" lon="49.2796544"><time>2023-06-17T11:48:12.220</time></trkpt><trkpt lat="55.9591860" lon="49.2795744"><time>2023-06-17T11:48:17.590</time></trkpt><trkpt lat="55.9592116" lon="49.2794970"><time>2023-06-17T11:48:22.220</time></trkpt><trkpt lat="55.9592421" lon="49.2794261"><time>2023-06-17T11:48:26.303</time></trkpt><trkpt lat="55.9592732" lon="49.2793678"><time>2023-06-17T11:48:30.220</time></trkpt><trkpt lat="55.9593033" lon="49.2793051"><time>2023-06-17T11:48:34.307</time></trkpt><trkpt lat="55.9593355" lon="49.2792487"><time>2023-06-17T11:48:38.243</time></trkpt><trkpt lat="55.9593776" lon="49.2791855"><time>2023-06-17T11:48:57.253</time></trkpt><trkpt lat="55.9594150" lon="49.2791370"><time>2023-06-17T11:49:01.230</time></trkpt><trkpt lat="55.9594606" lon="49.2791249"><time>2023-06-17T11:49:05.303</time></trkpt><trkpt lat="55.9595080" lon="49.2791240"><time>2023-06-17T11:49:09.233</time></trkpt><trkpt lat="55.9595552" lon="49.2790933"><time>2023-06-17T11:49:13.297</time></trkpt><trkpt lat="55.9595966" lon="49.2790438"><time>2023-06-17T11:49:17.320</time></trkpt><trkpt lat="55.9596359" lon="49.2789927"><time>2023-06-17T11:49:21.223</time></trkpt><trkpt lat="55.9596748" lon="49.2789516"><time>2023-06-17T11:49:25.277</time></trkpt><trkpt lat="55.9597082" lon="49.2788969"><time>2023-06-17T11:49:29.223</time></trkpt><trkpt lat="55.9597323" lon="49.2788218"><time>2023-06-17T11:49:33.227</time></trkpt><trkpt lat="55.9597484" lon="49.2787305"><time>2023-06-17T11:49:37.257</time></trkpt><trkpt lat="55.9597648" lon="49.2786515"><time>2023-06-17T11:49:41.223</time></trkpt><trkpt lat="55.9597944" lon="49.2785807"><time>2023-06-17T11:49:45.253</time></trkpt><trkpt lat="55.9598272" lon="49.2785198"><time>2023-06-17T11:49:49.230</time></trkpt><trkpt lat="55.9598575" lon="49.2784590"><time>2023-06-17T11:49:53.267</time></trkpt><trkpt lat="55.9598909" lon="49.2783963"><time>2023-06-17T11:49:57.267</time></trkpt><trkpt lat="55.9599192" lon="49.2783339"><time>2023-06-17T11:50:01.227</time></trkpt><trkpt lat="55.9599615" lon="49.2782782"><time>2023-06-17T11:50:06.287</time></trkpt><trkpt lat="55.9600050" lon="49.2782250"><time>2023-06-17T11:50:11.220</time></trkpt><trkpt lat="55.9600503" lon="49.2781749"><time>2023-06-17T11:50:16.253</time></trkpt><trkpt lat="55.9600878" lon="49.2781267"><time>2023-06-17T11:50:20.233</time></trkpt><trkpt lat="55.9601225" lon="49.2780651"><time>2023-06-17T11:50:24.293</time></trkpt><trkpt lat="55.9601596" lon="49.2779931"><time>2023-06-17T11:50:29.237</time></trkpt><trkpt lat="55.9601917" lon="49.2779291"><time>2023-06-17T11:50:33.257</time></trkpt><trkpt lat="55.9602287" lon="49.2778720"><time>2023-06-17T11:50:37.253</time></trkpt><trkpt lat="55.9602692" lon="49.2778057"><time>2023-06-17T11:50:42.287</time></trkpt><trkpt lat="55.9603058" lon="49.2777562"><time>2023-06-17T11:50:46.320</time></trkpt><trkpt lat="55.9603510" lon="49.2777193"><time>2023-06-17T11:50:50.223</time></trkpt><trkpt lat="55.9604015" lon="49.2777026"><time>2023-06-17T11:50:54.263</time></trkpt><trkpt lat="55.9604537" lon="49.2776792"><time>2023-06-17T11:50:59.220</time></trkpt><trkpt lat="55.9605040" lon="49.2776445"><time>2023-06-17T11:51:04.290</time></trkpt><trkpt lat="55.9605477" lon="49.2776220"><time>2023-06-17T11:51:08.293</time></trkpt><trkpt lat="55.9605995" lon="49.2775996"><time>2023-06-17T11:51:13.267</time></trkpt><trkpt lat="55.9606449" lon="49.2775777"><time>2023-06-17T11:51:17.257</time></trkpt><trkpt lat="55.9606979" lon="49.2775755"><time>2023-06-17T11:51:22.307</time></trkpt><trkpt lat="55.9607508" lon="49.2775759"><time>2023-06-17T11:51:26.227</time></trkpt><trkpt lat="55.9607983" lon="49.2775577"><time>2023-06-17T11:51:30.227</time></trkpt><trkpt lat="55.9608166" lon="49.2774642"><time>2023-06-17T11:51:33.283</time></trkpt><trkpt lat="55.9608328" lon="49.2773821"><time>2023-06-17T11:51:36.247</time></trkpt><trkpt lat="55.9608418" lon="49.2773011"><time>2023-06-17T11:51:39.230</time></trkpt><trkpt lat="55.9608586" lon="49.2772171"><time>2023-06-17T11:51:42.257</time></trkpt><trkpt lat="55.9608790" lon="49.2771278"><time>2023-06-17T11:51:45.287</time></trkpt><trkpt lat="55.9609270" lon="49.2770906"><time>2023-06-17T11:51:51.227</time></trkpt><trkpt lat="55.9609774" lon="49.2770795"><time>2023-06-17T11:51:57.267</time></trkpt><trkpt lat="55.9610215" lon="49.2770274"><time>2023-06-17T11:52:03.283</time></trkpt><trkpt lat="55.9610617" lon="49.2769664"><time>2023-06-17T11:52:08.247</time></trkpt><trkpt lat="55.9611060" lon="49.2769100"><time>2023-06-17T11:52:13.250</time></trkpt><trkpt lat="55.9611572" lon="49.2768692"><time>2023-06-17T11:52:18.247</time></trkpt><trkpt lat="55.9612134" lon="49.2768435"><time>2023-06-17T11:52:23.277</time></trkpt><trkpt lat="55.9612576" lon="49.2768261"><time>2023-06-17T11:52:27.257</time></trkpt><trkpt lat="55.9612980" lon="49.2767723"><time>2023-06-17T11:52:31.210</time></trkpt><trkpt lat="55.9613472" lon="49.2767239"><time>2023-06-17T11:52:36.290</time></trkpt><trkpt lat="55.9613681" lon="49.2766506"><time>2023-06-17T11:52:41.223</time></trkpt><trkpt lat="55.9613308" lon="49.2765795"><time>2023-06-17T11:52:46.293</time></trkpt><trkpt lat="55.9612927" lon="49.2765199"><time>2023-06-17T11:52:51.217</time></trkpt><trkpt lat="55.9612530" lon="49.2764594"><time>2023-06-17T11:52:56.260</time></trkpt><trkpt lat="55.9612182" lon="49.2763960"><time>2023-06-17T11:53:00.223</time></trkpt><trkpt lat="55.9611741" lon="49.2763278"><time>2023-06-17T11:53:04.307</time></trkpt><trkpt lat="55.9611377" lon="49.2762757"><time>2023-06-17T11:53:08.297</time></trkpt><trkpt lat="55.9611018" lon="49.2762203"><time>2023-06-17T11:53:12.293</time></trkpt><trkpt lat="55.9610621" lon="49.2761501"><time>2023-06-17T11:53:17.260</time></trkpt><trkpt lat="55.9610214" lon="49.2760917"><time>2023-06-17T11:53:21.233</time></trkpt><trkpt lat="55.9609822" lon="49.2760386"><time>2023-06-17T11:53:25.297</time></trkpt><trkpt lat="55.9609452" lon="49.2759813"><time>2023-06-17T11:53:29.253</time></trkpt><trkpt lat="55.9609098" lon="49.2759248"><time>2023-06-17T11:53:33.283</time></trkpt><trkpt lat="55.9608726" lon="49.2758752"><time>2023-06-17T11:53:37.247</time></trkpt><trkpt lat="55.9608384" lon="49.2758221"><time>2023-06-17T11:53:41.233</time></trkpt><trkpt lat="55.9607992" lon="49.2757718"><time>2023-06-17T11:53:45.257</time></trkpt><trkpt lat="55.9607614" lon="49.2757131"><time>2023-06-17T11:53:49.253</time></trkpt><trkpt lat="55.9607223" lon="49.2756640"><time>2023-06-17T11:53:53.277</time></trkpt><trkpt lat="55.9606841" lon="49.2756047"><time>2023-06-17T11:53:57.243</time></trkpt><trkpt lat="55.9606451" lon="49.2755473"><time>2023-06-17T11:54:01.223</time></trkpt><trkpt lat="55.9606061" lon="49.2754919"><time>2023-06-17T11:54:05.263</time></trkpt><trkpt lat="55.9605623" lon="49.2754470"><time>2023-06-17T11:54:09.270</time></trkpt><trkpt lat="55.9605219" lon="49.2753891"><time>2023-06-17T11:54:13.273</time></trkpt><trkpt lat="55.9604856" lon="49.2753369"><time>2023-06-17T11:54:17.313</time></trkpt><trkpt lat="55.9604495" lon="49.2752739"><time>2023-06-17T11:54:21.227</time></trkpt><trkpt lat="55.9604171" lon="49.2752125"><time>2023-06-17T11:54:25.287</time></trkpt><trkpt lat="55.9603820" lon="49.2751453"><time>2023-06-17T11:54:29.260</time></trkpt><trkpt lat="55.9603464" lon="49.2750885"><time>2023-06-17T11:54:33.290</time></trkpt><trkpt lat="55.9603056" lon="49.2750217"><time>2023-06-17T11:54:37.257</time></trkpt><trkpt lat="55.9602712" lon="49.2749582"><time>2023-06-17T11:54:41.223</time></trkpt><trkpt lat="55.9602350" lon="49.2748930"><time>2023-06-17T11:54:45.240</time></trkpt><trkpt lat="55.9601990" lon="49.2748406"><time>2023-06-17T11:54:49.267</time></trkpt><trkpt lat="55.9601638" lon="49.2747765"><time>2023-06-17T11:54:53.250</time></trkpt><trkpt lat="55.9601270" lon="49.2747295"><time>2023-06-17T11:54:57.277</time></trkpt><trkpt lat="55.9600857" lon="49.2746833"><time>2023-06-17T11:55:01.213</time></trkpt><trkpt lat="55.9600412" lon="49.2746195"><time>2023-06-17T11:55:06.267</time></trkpt><trkpt lat="55.9600055" lon="49.2745614"><time>2023-06-17T11:55:10.227</time></trkpt><trkpt lat="55.9599709" lon="49.2745059"><time>2023-06-17T11:55:14.247</time></trkpt><trkpt lat="55.9599301" lon="49.2744382"><time>2023-06-17T11:55:19.260</time></trkpt><trkpt lat="55.9598942" lon="49.2743741"><time>2023-06-17T11:55:23.223</time></trkpt><trkpt lat="55.9598599" lon="49.2743190"><time>2023-06-17T11:55:27.293</time></trkpt><trkpt lat="55.9598240" lon="49.2742581"><time>2023-06-17T11:55:31.217</time></trkpt><trkpt lat="55.9597859" lon="49.2742042"><time>2023-06-17T11:55:35.283</time></trkpt><trkpt lat="55.9597479" lon="49.2741479"><time>2023-06-17T11:55:39.283</time></trkpt><trkpt lat="55.9597134" lon="49.2740935"><time>2023-06-17T11:55:43.283</time></trkpt><trkpt lat="55.9596782" lon="49.2740346"><time>2023-06-17T11:55:47.313</time></trkpt><trkpt lat="55.9596350" lon="49.2739714"><time>2023-06-17T11:55:52.263</time></trkpt><trkpt lat="55.9596005" lon="49.2739153"><time>2023-06-17T11:55:56.287</time></trkpt><trkpt lat="55.9595662" lon="49.2738604"><time>2023-06-17T11:56:00.227</time></trkpt><trkpt lat="55.9595301" lon="49.2738045"><time>2023-06-17T11:56:04.307</time></trkpt><trkpt lat="55.9594949" lon="49.2737535"><time>2023-06-17T11:56:08.260</time></trkpt><trkpt lat="55.9594556" lon="49.2736942"><time>2023-06-17T11:56:12.217</time></trkpt><trkpt lat="55.9594205" lon="49.2736408"><time>2023-06-17T11:56:16.247</time></trkpt><trkpt lat="55.9593877" lon="49.2735777"><time>2023-06-17T11:56:20.227</time></trkpt><trkpt lat="55.9593489" lon="49.2735275"><time>2023-06-17T11:56:24.270</time></trkpt><trkpt lat="55.9593101" lon="49.2734655"><time>2023-06-17T11:56:28.270</time></trkpt><trkpt lat="55.9592726" lon="49.2734060"><time>2023-06-17T11:56:32.287</time></trkpt><trkpt lat="55.9592340" lon="49.2733463"><time>2023-06-17T11:56:36.263</time></trkpt><trkpt lat="55.9591948" lon="49.2732952"><time>2023-06-17T11:56:40.223</time></trkpt><trkpt lat="55.9591603" lon="49.2732393"><time>2023-06-17T11:56:44.250</time></trkpt><trkpt lat="55.9591241" lon="49.2731823"><time>2023-06-17T11:56:48.257</time></trkpt><trkpt lat="55.9590865" lon="49.2731221"><time>2023-06-17T11:56:52.223</time></trkpt><trkpt lat="55.9590512" lon="49.2730615"><time>2023-06-17T11:56:56.253</time></trkpt><trkpt lat="55.9590120" lon="49.2730021"><time>2023-06-17T11:57:00.230</time></trkpt><trkpt lat="55.9589753" lon="49.2729408"><time>2023-06-17T11:57:04.270</time></trkpt><trkpt lat="55.9589347" lon="49.2728707"><time>2023-06-17T11:57:08.287</time></trkpt><trkpt lat="55.9588982" lon="49.2728169"><time>2023-06-17T11:57:13.237</time></trkpt><trkpt lat="55.9588605" lon="49.2727548"><time>2023-06-17T11:57:16.257</time></trkpt><trkpt lat="55.9588181" lon="49.2726976"><time>2023-06-17T11:57:20.227</time></trkpt><trkpt lat="55.9587779" lon="49.2726370"><time>2023-06-17T11:57:24.257</time></trkpt><trkpt lat="55.9587414" lon="49.2725785"><time>2023-06-17T11:57:28.250</time></trkpt><trkpt lat="55.9587032" lon="49.2725188"><time>2023-06-17T11:57:33.250</time></trkpt><trkpt lat="55.9586624" lon="49.2724527"><time>2023-06-17T11:57:36.297</time></trkpt><trkpt lat="55.9586232" lon="49.2723971"><time>2023-06-17T11:57:40.220</time></trkpt><trkpt lat="55.9585832" lon="49.2723264"><time>2023-06-17T11:57:44.267</time></trkpt><trkpt lat="55.9585446" lon="49.2722689"><time>2023-06-17T11:57:48.297</time></trkpt><trkpt lat="55.9585068" lon="49.2722155"><time>2023-06-17T11:57:53.247</time></trkpt><trkpt lat="55.9584657" lon="49.2721474"><time>2023-06-17T11:57:56.260</time></trkpt><trkpt lat="55.9584281" lon="49.2720926"><time>2023-06-17T11:58:00.237</time></trkpt><trkpt lat="55.9583890" lon="49.2720268"><time>2023-06-17T11:58:04.253</time></trkpt><trkpt lat="55.9583497" lon="49.2719557"><time>2023-06-17T11:58:08.260</time></trkpt><trkpt lat="55.9583109" lon="49.2718965"><time>2023-06-17T11:58:12.210</time></trkpt><trkpt lat="55.9582745" lon="49.2718272"><time>2023-06-17T11:58:16.303</time></trkpt><trkpt lat="55.9582398" lon="49.2717597"><time>2023-06-17T11:58:20.233</time></trkpt><trkpt lat="55.9582007" lon="49.2716920"><time>2023-06-17T11:58:24.223</time></trkpt><trkpt lat="55.9581596" lon="49.2716274"><time>2023-06-17T11:58:29.230</time></trkpt><trkpt lat="55.9581182" lon="49.2715826"><time>2023-06-17T11:58:32.237</time></trkpt><trkpt lat="55.9580838" lon="49.2715208"><time>2023-06-17T11:58:36.240</time></trkpt><trkpt lat="55.9580492" lon="49.2714548"><time>2023-06-17T11:58:40.237</time></trkpt><trkpt lat="55.9580143" lon="49.2713885"><time>2023-06-17T11:58:44.260</time></trkpt><trkpt lat="55.9579729" lon="49.2713363"><time>2023-06-17T11:58:48.253</time></trkpt><trkpt lat="55.9579310" lon="49.2712822"><time>2023-06-17T11:58:52.217</time></trkpt><trkpt lat="55.9578904" lon="49.2712237"><time>2023-06-17T11:58:56.263</time></trkpt><trkpt lat="55.9578507" lon="49.2711775"><time>2023-06-17T11:59:00.230</time></trkpt><trkpt lat="55.9578114" lon="49.2711258"><time>2023-06-17T11:59:04.280</time></trkpt><trkpt lat="55.9577695" lon="49.2710835"><time>2023-06-17T11:59:08.250</time></trkpt><trkpt lat="55.9577301" lon="49.2710224"><time>2023-06-17T11:59:12.220</time></trkpt><trkpt lat="55.9576903" lon="49.2709669"><time>2023-06-17T11:59:16.257</time></trkpt><trkpt lat="55.9576520" lon="49.2709075"><time>2023-06-17T11:59:20.230</time></trkpt><trkpt lat="55.9576127" lon="49.2708444"><time>2023-06-17T11:59:24.257</time></trkpt><trkpt lat="55.9575797" lon="49.2707841"><time>2023-06-17T11:59:28.253</time></trkpt><trkpt lat="55.9575468" lon="49.2707121"><time>2023-06-17T11:59:32.230</time></trkpt><trkpt lat="55.9575121" lon="49.2706344"><time>2023-06-17T11:59:36.257</time></trkpt><trkpt lat="55.9574763" lon="49.2705649"><time>2023-06-17T11:59:40.230</time></trkpt><trkpt lat="55.9574442" lon="49.2704901"><time>2023-06-17T11:59:44.257</time></trkpt><trkpt lat="55.9574094" lon="49.2704316"><time>2023-06-17T11:59:48.250</time></trkpt><trkpt lat="55.9573676" lon="49.2703696"><time>2023-06-17T11:59:52.230</time></trkpt><trkpt lat="55.9573310" lon="49.2703100"><time>2023-06-17T11:59:56.290</time></trkpt><trkpt lat="55.9572965" lon="49.2702551"><time>2023-06-17T12:00:00.223</time></trkpt><trkpt lat="55.9572583" lon="49.2701979"><time>2023-06-17T12:00:04.313</time></trkpt><trkpt lat="55.9572196" lon="49.2701399"><time>2023-06-17T12:00:08.287</time></trkpt><trkpt lat="55.9571753" lon="49.2700749"><time>2023-06-17T12:00:12.223</time></trkpt><trkpt lat="55.9571358" lon="49.2700164"><time>2023-06-17T12:00:17.237</time></trkpt><trkpt lat="55.9570993" lon="49.2699552"><time>2023-06-17T12:00:20.227</time></trkpt><trkpt lat="55.9570596" lon="49.2698933"><time>2023-06-17T12:00:24.300</time></trkpt><trkpt lat="55.9570219" lon="49.2698304"><time>2023-06-17T12:00:29.233</time></trkpt><trkpt lat="55.9569842" lon="49.2697695"><time>2023-06-17T12:00:32.227</time></trkpt><trkpt lat="55.9569443" lon="49.2697177"><time>2023-06-17T12:00:36.297</time></trkpt><trkpt lat="55.9569072" lon="49.2696644"><time>2023-06-17T12:00:40.217</time></trkpt><trkpt lat="55.9568654" lon="49.2696005"><time>2023-06-17T12:00:44.250</time></trkpt><trkpt lat="55.9568291" lon="49.2695441"><time>2023-06-17T12:00:48.250</time></trkpt><trkpt lat="55.9567908" lon="49.2694880"><time>2023-06-17T12:00:52.220</time></trkpt><trkpt lat="55.9567548" lon="49.2694339"><time>2023-06-17T12:00:56.253</time></trkpt><trkpt lat="55.9567223" lon="49.2693660"><time>2023-06-17T12:01:00.237</time></trkpt><trkpt lat="55.9566840" lon="49.2692988"><time>2023-06-17T12:01:04.260</time></trkpt><trkpt lat="55.9566472" lon="49.2692377"><time>2023-06-17T12:01:08.267</time></trkpt><trkpt lat="55.9566113" lon="49.2691621"><time>2023-06-17T12:01:12.227</time></trkpt><trkpt lat="55.9565760" lon="49.2691065"><time>2023-06-17T12:01:16.250</time></trkpt><trkpt lat="55.9565409" lon="49.2690317"><time>2023-06-17T12:01:20.227</time></trkpt><trkpt lat="55.9565045" lon="49.2689630"><time>2023-06-17T12:01:24.253</time></trkpt><trkpt lat="55.9564695" lon="49.2688981"><time>2023-06-17T12:01:28.250</time></trkpt><trkpt lat="55.9564329" lon="49.2688363"><time>2023-06-17T12:01:32.230</time></trkpt><trkpt lat="55.9563922" lon="49.2687857"><time>2023-06-17T12:01:36.283</time></trkpt><trkpt lat="55.9563516" lon="49.2687252"><time>2023-06-17T12:01:40.227</time></trkpt><trkpt lat="55.9563134" lon="49.2686730"><time>2023-06-17T12:01:44.247</time></trkpt><trkpt lat="55.9562746" lon="49.2686238"><time>2023-06-17T12:01:48.253</time></trkpt><trkpt lat="55.9562401" lon="49.2685715"><time>2023-06-17T12:01:52.223</time></trkpt><trkpt lat="55.9562052" lon="49.2685131"><time>2023-06-17T12:01:56.223</time></trkpt><trkpt lat="55.9561702" lon="49.2684448"><time>2023-06-17T12:02:00.237</time></trkpt><trkpt lat="55.9561424" lon="49.2683707"><time>2023-06-17T12:02:04.247</time></trkpt><trkpt lat="55.9561103" lon="49.2682918"><time>2023-06-17T12:02:08.243</time></trkpt><trkpt lat="55.9560767" lon="49.2682284"><time>2023-06-17T12:02:12.230</time></trkpt><trkpt lat="55.9560415" lon="49.2681648"><time>2023-06-17T12:02:16.253</time></trkpt><trkpt lat="55.9560045" lon="49.2681036"><time>2023-06-17T12:02:20.227</time></trkpt><trkpt lat="55.9559704" lon="49.2680363"><time>2023-06-17T12:02:25.290</time></trkpt><trkpt lat="55.9559272" lon="49.2680001"><time>2023-06-17T12:02:30.233</time></trkpt><trkpt lat="55.9558856" lon="49.2679390"><time>2023-06-17T12:02:35.267</time></trkpt><trkpt lat="55.9558400" lon="49.2678785"><time>2023-06-17T12:02:40.230</time></trkpt><trkpt lat="55.9558012" lon="49.2678220"><time>2023-06-17T12:02:44.263</time></trkpt><trkpt lat="55.9557581" lon="49.2677580"><time>2023-06-17T12:02:48.263</time></trkpt><trkpt lat="55.9557185" lon="49.2677011"><time>2023-06-17T12:02:52.230</time></trkpt><trkpt lat="55.9556795" lon="49.2676350"><time>2023-06-17T12:02:56.273</time></trkpt><trkpt lat="55.9556444" lon="49.2675827"><time>2023-06-17T12:03:00.240</time></trkpt><trkpt lat="55.9556049" lon="49.2675295"><time>2023-06-17T12:03:04.297</time></trkpt><trkpt lat="55.9555648" lon="49.2674785"><time>2023-06-17T12:03:08.247</time></trkpt><trkpt lat="55.9555198" lon="49.2674559"><time>2023-06-17T12:03:12.233</time></trkpt><trkpt lat="55.9554799" lon="49.2674002"><time>2023-06-17T12:03:16.263</time></trkpt><trkpt lat="55.9554425" lon="49.2673437"><time>2023-06-17T12:03:20.330</time></trkpt><trkpt lat="55.9554036" lon="49.2672850"><time>2023-06-17T12:03:24.253</time></trkpt><trkpt lat="55.9553668" lon="49.2672291"><time>2023-06-17T12:03:28.243</time></trkpt><trkpt lat="55.9553267" lon="49.2671774"><time>2023-06-17T12:03:32.233</time></trkpt><trkpt lat="55.9552875" lon="49.2671316"><time>2023-06-17T12:03:36.307</time></trkpt><trkpt lat="55.9552510" lon="49.2670756"><time>2023-06-17T12:03:40.230</time></trkpt><trkpt lat="55.9552067" lon="49.2670174"><time>2023-06-17T12:03:45.277</time></trkpt><trkpt lat="55.9551701" lon="49.2669602"><time>2023-06-17T12:03:49.247</time></trkpt><trkpt lat="55.9551330" lon="49.2669069"><time>2023-06-17T12:03:53.260</time></trkpt><trkpt lat="55.9550909" lon="49.2668557"><time>2023-06-17T12:03:57.260</time></trkpt><trkpt lat="55.9550488" lon="49.2668075"><time>2023-06-17T12:04:01.227</time></trkpt><trkpt lat="55.9550091" lon="49.2667466"><time>2023-06-17T12:04:05.307</time></trkpt><trkpt lat="55.9549663" lon="49.2667033"><time>2023-06-17T12:04:10.237</time></trkpt><trkpt lat="55.9549218" lon="49.2666673"><time>2023-06-17T12:04:13.307</time></trkpt><trkpt lat="55.9548805" lon="49.2666162"><time>2023-06-17T12:04:17.300</time></trkpt><trkpt lat="55.9548402" lon="49.2665722"><time>2023-06-17T12:04:21.223</time></trkpt><trkpt lat="55.9548001" lon="49.2665140"><time>2023-06-17T12:04:25.257</time></trkpt><trkpt lat="55.9547625" lon="49.2664690"><time>2023-06-17T12:04:29.283</time></trkpt><trkpt lat="55.9547324" lon="49.2664063"><time>2023-06-17T12:04:33.263</time></trkpt><trkpt lat="55.9546888" lon="49.2663386"><time>2023-06-17T12:04:38.293</time></trkpt><trkpt lat="55.9546544" lon="49.2662801"><time>2023-06-17T12:04:42.230</time></trkpt><trkpt lat="55.9546170" lon="49.2662280"><time>2023-06-17T12:04:46.260</time></trkpt><trkpt lat="55.9545740" lon="49.2661606"><time>2023-06-17T12:04:51.230</time></trkpt><trkpt lat="55.9545328" lon="49.2661036"><time>2023-06-17T12:04:56.263</time></trkpt><trkpt lat="55.9544874" lon="49.2660426"><time>2023-06-17T12:05:01.220</time></trkpt><trkpt lat="55.9544480" lon="49.2659936"><time>2023-06-17T12:05:05.230</time></trkpt><trkpt lat="55.9544106" lon="49.2659452"><time>2023-06-17T12:05:09.297</time></trkpt><trkpt lat="55.9543726" lon="49.2658979"><time>2023-06-17T12:05:13.220</time></trkpt><trkpt lat="55.9543262" lon="49.2658597"><time>2023-06-17T12:05:17.277</time></trkpt><trkpt lat="55.9542851" lon="49.2658058"><time>2023-06-17T12:05:22.223</time></trkpt><trkpt lat="55.9542462" lon="49.2657347"><time>2023-06-17T12:05:27.257</time></trkpt><trkpt lat="55.9542117" lon="49.2656830"><time>2023-06-17T12:05:31.233</time></trkpt><trkpt lat="55.9541754" lon="49.2656307"><time>2023-06-17T12:05:47.260</time></trkpt><trkpt lat="55.9541311" lon="49.2655855"><time>2023-06-17T12:05:51.227</time></trkpt><trkpt lat="55.9540895" lon="49.2655247"><time>2023-06-17T12:05:55.310</time></trkpt><trkpt lat="55.9540407" lon="49.2654731"><time>2023-06-17T12:06:00.247</time></trkpt><trkpt lat="55.9540032" lon="49.2654220"><time>2023-06-17T12:06:04.303</time></trkpt><trkpt lat="55.9539646" lon="49.2653773"><time>2023-06-17T12:06:08.263</time></trkpt><trkpt lat="55.9539217" lon="49.2653151"><time>2023-06-17T12:06:13.227</time></trkpt><trkpt lat="55.9538811" lon="49.2652603"><time>2023-06-17T12:06:17.263</time></trkpt><trkpt lat="55.9538431" lon="49.2652110"><time>2023-06-17T12:06:21.227</time></trkpt><trkpt lat="55.9538023" lon="49.2651614"><time>2023-06-17T12:06:25.300</time></trkpt><trkpt lat="55.9537631" lon="49.2651104"><time>2023-06-17T12:06:30.233</time></trkpt><trkpt lat="55.9537264" lon="49.2650585"><time>2023-06-17T12:06:33.247</time></trkpt><trkpt lat="55.9536848" lon="49.2650102"><time>2023-06-17T12:06:37.300</time></trkpt><trkpt lat="55.9536433" lon="49.2649682"><time>2023-06-17T12:06:41.233</time></trkpt><trkpt lat="55.9535984" lon="49.2649244"><time>2023-06-17T12:06:45.250</time></trkpt><trkpt lat="55.9535597" lon="49.2648800"><time>2023-06-17T12:06:49.260</time></trkpt><trkpt lat="55.9535189" lon="49.2648338"><time>2023-06-17T12:06:53.220</time></trkpt><trkpt lat="55.9534784" lon="49.2647915"><time>2023-06-17T12:06:57.253</time></trkpt><trkpt lat="55.9534371" lon="49.2647525"><time>2023-06-17T12:07:01.230</time></trkpt><trkpt lat="55.9533993" lon="49.2646994"><time>2023-06-17T12:07:05.253</time></trkpt><trkpt lat="55.9533616" lon="49.2646479"><time>2023-06-17T12:07:09.253</time></trkpt><trkpt lat="55.9533233" lon="49.2645942"><time>2023-06-17T12:07:13.227</time></trkpt><trkpt lat="55.9532787" lon="49.2645425"><time>2023-06-17T12:07:18.263</time></trkpt><trkpt lat="55.9532366" lon="49.2644879"><time>2023-06-17T12:07:23.213</time></trkpt><trkpt lat="55.9531868" lon="49.2644401"><time>2023-06-17T12:07:28.283</time></trkpt><trkpt lat="55.9531419" lon="49.2644035"><time>2023-06-17T12:07:32.217</time></trkpt><trkpt lat="55.9530992" lon="49.2643608"><time>2023-06-17T12:07:36.300</time></trkpt><trkpt lat="55.9530588" lon="49.2643159"><time>2023-06-17T12:07:40.297</time></trkpt><trkpt lat="55.9530184" lon="49.2642700"><time>2023-06-17T12:07:44.297</time></trkpt><trkpt lat="55.9529778" lon="49.2642173"><time>2023-06-17T12:07:48.260</time></trkpt><trkpt lat="55.9529359" lon="49.2641598"><time>2023-06-17T12:07:52.237</time></trkpt><trkpt lat="55.9528926" lon="49.2641118"><time>2023-06-17T12:07:56.290</time></trkpt><trkpt lat="55.9528519" lon="49.2640600"><time>2023-06-17T12:08:00.220</time></trkpt><trkpt lat="55.9528080" lon="49.2640187"><time>2023-06-17T12:08:04.303</time></trkpt><trkpt lat="55.9527584" lon="49.2639803"><time>2023-06-17T12:08:08.297</time></trkpt><trkpt lat="55.9527099" lon="49.2639528"><time>2023-06-17T12:08:12.230</time></trkpt><trkpt lat="55.9526636" lon="49.2639270"><time>2023-06-17T12:08:16.260</time></trkpt><trkpt lat="55.9526136" lon="49.2638754"><time>2023-06-17T12:08:20.220</time></trkpt><trkpt lat="55.9525652" lon="49.2638427"><time>2023-06-17T12:08:24.267</time></trkpt><trkpt lat="55.9525227" lon="49.2637997"><time>2023-06-17T12:08:28.267</time></trkpt><trkpt lat="55.9524735" lon="49.2637492"><time>2023-06-17T12:08:33.267</time></trkpt><trkpt lat="55.9524345" lon="49.2636988"><time>2023-06-17T12:08:37.247</time></trkpt><trkpt lat="55.9523964" lon="49.2636393"><time>2023-06-17T12:08:41.217</time></trkpt><trkpt lat="55.9523626" lon="49.2635748"><time>2023-06-17T12:08:46.237</time></trkpt><trkpt lat="55.9523312" lon="49.2635122"><time>2023-06-17T12:08:49.253</time></trkpt><trkpt lat="55.9523126" lon="49.2634325"><time>2023-06-17T12:08:53.223</time></trkpt><trkpt lat="55.9522894" lon="49.2633482"><time>2023-06-17T12:08:57.297</time></trkpt><trkpt lat="55.9522690" lon="49.2632764"><time>2023-06-17T12:09:01.227</time></trkpt><trkpt lat="55.9522500" lon="49.2631998"><time>2023-06-17T12:09:05.227</time></trkpt><trkpt lat="55.9522305" lon="49.2631111"><time>2023-06-17T12:09:10.387</time></trkpt><trkpt lat="55.9522040" lon="49.2630373"><time>2023-06-17T12:09:14.257</time></trkpt><trkpt lat="55.9521732" lon="49.2629644"><time>2023-06-17T12:09:19.287</time></trkpt><trkpt lat="55.9521476" lon="49.2628902"><time>2023-06-17T12:09:24.297</time></trkpt><trkpt lat="55.9521177" lon="49.2628264"><time>2023-06-17T12:09:28.283</time></trkpt><trkpt lat="55.9520894" lon="49.2627613"><time>2023-06-17T12:09:32.223</time></trkpt><trkpt lat="55.9520475" lon="49.2627003"><time>2023-06-17T12:09:37.243</time></trkpt><trkpt lat="55.9520009" lon="49.2626643"><time>2023-06-17T12:09:42.230</time></trkpt><trkpt lat="55.9519808" lon="49.2625771"><time>2023-06-17T12:09:46.290</time></trkpt><trkpt lat="55.9519638" lon="49.2624889"><time>2023-06-17T12:09:50.230</time></trkpt><trkpt lat="55.9519328" lon="49.2624215"><time>2023-06-17T12:09:54.257</time></trkpt><trkpt lat="55.9518885" lon="49.2623741"><time>2023-06-17T12:09:58.260</time></trkpt><trkpt lat="55.9518410" lon="49.2623325"><time>2023-06-17T12:10:03.217</time></trkpt><trkpt lat="55.9518048" lon="49.2622850"><time>2023-06-17T12:10:07.290</time></trkpt><trkpt lat="55.9517698" lon="49.2622229"><time>2023-06-17T12:10:11.217</time></trkpt><trkpt lat="55.9517418" lon="49.2621480"><time>2023-06-17T12:10:15.307</time></trkpt><trkpt lat="55.9517102" lon="49.2620816"><time>2023-06-17T12:10:19.300</time></trkpt><trkpt lat="55.9516714" lon="49.2620140"><time>2023-06-17T12:10:23.217</time></trkpt><trkpt lat="55.9516345" lon="49.2619478"><time>2023-06-17T12:10:27.287</time></trkpt><trkpt lat="55.9515937" lon="49.2618928"><time>2023-06-17T12:10:31.217</time></trkpt><trkpt lat="55.9515464" lon="49.2618522"><time>2023-06-17T12:10:35.297</time></trkpt><trkpt lat="55.9514994" lon="49.2618217"><time>2023-06-17T12:10:40.250</time></trkpt><trkpt lat="55.9514517" lon="49.2618031"><time>2023-06-17T12:10:44.273</time></trkpt><trkpt lat="55.9514137" lon="49.2617465"><time>2023-06-17T12:10:48.247</time></trkpt><trkpt lat="55.9513671" lon="49.2617343"><time>2023-06-17T12:10:53.213</time></trkpt><trkpt lat="55.9513150" lon="49.2617136"><time>2023-06-17T12:10:58.300</time></trkpt><trkpt lat="55.9512649" lon="49.2616863"><time>2023-06-17T12:11:03.227</time></trkpt><trkpt lat="55.9512189" lon="49.2616815"><time>2023-06-17T12:11:08.247</time></trkpt><trkpt lat="55.9511670" lon="49.2616554"><time>2023-06-17T12:11:14.293</time></trkpt><trkpt lat="55.9511228" lon="49.2616232"><time>2023-06-17T12:11:19.270</time></trkpt><trkpt lat="55.9510682" lon="49.2616114"><time>2023-06-17T12:11:24.250</time></trkpt><trkpt lat="55.9510204" lon="49.2616128"><time>2023-06-17T12:11:28.257</time></trkpt><trkpt lat="55.9509734" lon="49.2616043"><time>2023-06-17T12:11:32.230</time></trkpt><trkpt lat="55.9509272" lon="49.2615874"><time>2023-06-17T12:11:36.290</time></trkpt><trkpt lat="55.9508741" lon="49.2615969"><time>2023-06-17T12:11:41.227</time></trkpt><trkpt lat="55.9508317" lon="49.2616239"><time>2023-06-17T12:11:45.260</time></trkpt><trkpt lat="55.9507860" lon="49.2616251"><time>2023-06-17T12:11:49.293</time></trkpt><trkpt lat="55.9507430" lon="49.2616574"><time>2023-06-17T12:11:53.223</time></trkpt><trkpt lat="55.9506883" lon="49.2616676"><time>2023-06-17T12:11:58.257</time></trkpt><trkpt lat="55.9506403" lon="49.2616861"><time>2023-06-17T12:12:02.227</time></trkpt><trkpt lat="55.9505929" lon="49.2617235"><time>2023-06-17T12:12:07.287</time></trkpt><trkpt lat="55.9505421" lon="49.2617693"><time>2023-06-17T12:12:12.223</time></trkpt><trkpt lat="55.9505030" lon="49.2618261"><time>2023-06-17T12:12:16.253</time></trkpt><trkpt lat="55.9504615" lon="49.2618849"><time>2023-06-17T12:12:21.227</time></trkpt><trkpt lat="55.9504298" lon="49.2619430"><time>2023-06-17T12:12:25.263</time></trkpt><trkpt lat="55.9504419" lon="49.2620290"><time>2023-06-17T12:12:36.280</time></trkpt><trkpt lat="55.9503886" lon="49.2620512"><time>2023-06-17T12:12:46.250</time></trkpt><trkpt lat="55.9503432" lon="49.2620255"><time>2023-06-17T12:12:52.217</time></trkpt><trkpt lat="55.9503053" lon="49.2620702"><time>2023-06-17T12:12:56.273</time></trkpt><trkpt lat="55.9502697" lon="49.2621219"><time>2023-06-17T12:13:00.243</time></trkpt><trkpt lat="55.9502330" lon="49.2621906"><time>2023-06-17T12:13:06.233</time></trkpt><trkpt lat="55.9502432" lon="49.2622720"><time>2023-06-17T12:13:09.287</time></trkpt><trkpt lat="55.9502678" lon="49.2623559"><time>2023-06-17T12:13:14.267</time></trkpt><trkpt lat="55.9503014" lon="49.2624138"><time>2023-06-17T12:13:19.250</time></trkpt><trkpt lat="55.9503249" lon="49.2624875"><time>2023-06-17T12:13:24.263</time></trkpt><trkpt lat="55.9503341" lon="49.2625798"><time>2023-06-17T12:13:29.307</time></trkpt><trkpt lat="55.9503277" lon="49.2626717"><time>2023-06-17T12:13:34.290</time></trkpt><trkpt lat="55.9502946" lon="49.2627321"><time>2023-06-17T12:13:38.267</time></trkpt><trkpt lat="55.9502543" lon="49.2627706"><time>2023-06-17T12:13:42.217</time></trkpt><trkpt lat="55.9502070" lon="49.2627988"><time>2023-06-17T12:13:46.247</time></trkpt><trkpt lat="55.9501611" lon="49.2628386"><time>2023-06-17T12:13:51.253</time></trkpt><trkpt lat="55.9501163" lon="49.2628670"><time>2023-06-17T12:13:56.270</time></trkpt><trkpt lat="55.9500728" lon="49.2629124"><time>2023-06-17T12:14:01.217</time></trkpt><trkpt lat="55.9500309" lon="49.2629434"><time>2023-06-17T12:14:05.253</time></trkpt><trkpt lat="55.9499816" lon="49.2629531"><time>2023-06-17T12:14:09.260</time></trkpt><trkpt lat="55.9499312" lon="49.2629560"><time>2023-06-17T12:14:13.220</time></trkpt><trkpt lat="55.9498834" lon="49.2629340"><time>2023-06-17T12:14:17.210</time></trkpt><trkpt lat="55.9498382" lon="49.2629313"><time>2023-06-17T12:14:21.223</time></trkpt><trkpt lat="55.9497928" lon="49.2629138"><time>2023-06-17T12:14:26.213</time></trkpt><trkpt lat="55.9497538" lon="49.2629572"><time>2023-06-17T12:14:32.210</time></trkpt><trkpt lat="55.9497538" lon="49.2629572"><time>2023-06-17T12:14:32.897</time></trkpt><trkpt lat="55.9497984" lon="49.2629324"><time>2023-06-17T12:14:41.263</time></trkpt><trkpt lat="55.9498421" lon="49.2629598"><time>2023-06-17T12:14:45.293</time></trkpt><trkpt lat="55.9498867" lon="49.2629753"><time>2023-06-17T12:14:50.270</time></trkpt><trkpt lat="55.9499338" lon="49.2629846"><time>2023-06-17T12:14:56.247</time></trkpt><trkpt lat="55.9499838" lon="49.2629929"><time>2023-06-17T12:15:01.287</time></trkpt><trkpt lat="55.9500261" lon="49.2629614"><time>2023-06-17T12:15:06.290</time></trkpt><trkpt lat="55.9500645" lon="49.2629087"><time>2023-06-17T12:15:11.263</time></trkpt><trkpt lat="55.9501091" lon="49.2628730"><time>2023-06-17T12:15:16.207</time></trkpt><trkpt lat="55.9501498" lon="49.2628318"><time>2023-06-17T12:15:21.287</time></trkpt><trkpt lat="55.9501966" lon="49.2627767"><time>2023-06-17T12:15:26.277</time></trkpt><trkpt lat="55.9502426" lon="49.2627434"><time>2023-06-17T12:15:30.293</time></trkpt><trkpt lat="55.9502785" lon="49.2626807"><time>2023-06-17T12:15:34.273</time></trkpt><trkpt lat="55.9502985" lon="49.2625988"><time>2023-06-17T12:15:38.260</time></trkpt><trkpt lat="55.9502941" lon="49.2625120"><time>2023-06-17T12:15:42.220</time></trkpt><trkpt lat="55.9502767" lon="49.2624297"><time>2023-06-17T12:15:47.260</time></trkpt><trkpt lat="55.9502434" lon="49.2623685"><time>2023-06-17T12:15:52.220</time></trkpt><trkpt lat="55.9502243" lon="49.2622888"><time>2023-06-17T12:15:56.247</time></trkpt><trkpt lat="55.9502117" lon="49.2622113"><time>2023-06-17T12:16:00.250</time></trkpt><trkpt lat="55.9501583" lon="49.2622060"><time>2023-06-17T12:16:06.220</time></trkpt><trkpt lat="55.9501141" lon="49.2622284"><time>2023-06-17T12:16:10.270</time></trkpt><trkpt lat="55.9500657" lon="49.2622381"><time>2023-06-17T12:16:15.280</time></trkpt><trkpt lat="55.9500090" lon="49.2622343"><time>2023-06-17T12:16:20.257</time></trkpt><trkpt lat="55.9499610" lon="49.2622207"><time>2023-06-17T12:16:24.227</time></trkpt><trkpt lat="55.9499186" lon="49.2621919"><time>2023-06-17T12:16:28.297</time></trkpt><trkpt lat="55.9498778" lon="49.2621576"><time>2023-06-17T12:16:32.217</time></trkpt><trkpt lat="55.9498345" lon="49.2621204"><time>2023-06-17T12:16:36.253</time></trkpt><trkpt lat="55.9497850" lon="49.2620810"><time>2023-06-17T12:16:40.293</time></trkpt><trkpt lat="55.9497384" lon="49.2620556"><time>2023-06-17T12:16:44.227</time></trkpt><trkpt lat="55.9496891" lon="49.2620329"><time>2023-06-17T12:16:48.250</time></trkpt><trkpt lat="55.9496425" lon="49.2620222"><time>2023-06-17T12:16:52.217</time></trkpt><trkpt lat="55.9495915" lon="49.2620116"><time>2023-06-17T12:16:56.267</time></trkpt><trkpt lat="55.9495358" lon="49.2620324"><time>2023-06-17T12:17:00.253</time></trkpt><trkpt lat="55.9494856" lon="49.2620523"><time>2023-06-17T12:17:04.220</time></trkpt><trkpt lat="55.9494329" lon="49.2620536"><time>2023-06-17T12:17:08.317</time></trkpt><trkpt lat="55.9493767" lon="49.2620571"><time>2023-06-17T12:17:13.227</time></trkpt><trkpt lat="55.9493274" lon="49.2620668"><time>2023-06-17T12:17:17.287</time></trkpt><trkpt lat="55.9492772" lon="49.2620903"><time>2023-06-17T12:17:21.227</time></trkpt><trkpt lat="55.9492285" lon="49.2621007"><time>2023-06-17T12:17:24.217</time></trkpt><trkpt lat="55.9491793" lon="49.2621430"><time>2023-06-17T12:17:28.260</time></trkpt><trkpt lat="55.9491359" lon="49.2621826"><time>2023-06-17T12:17:32.220</time></trkpt><trkpt lat="55.9490950" lon="49.2622219"><time>2023-06-17T12:17:36.250</time></trkpt><trkpt lat="55.9490467" lon="49.2622639"><time>2023-06-17T12:17:40.253</time></trkpt><trkpt lat="55.9489933" lon="49.2622749"><time>2023-06-17T12:17:46.207</time></trkpt><trkpt lat="55.9489387" lon="49.2622896"><time>2023-06-17T12:17:50.257</time></trkpt><trkpt lat="55.9488867" lon="49.2622830"><time>2023-06-17T12:17:55.257</time></trkpt><trkpt lat="55.9488403" lon="49.2622893"><time>2023-06-17T12:17:59.243</time></trkpt><trkpt lat="55.9487904" lon="49.2622919"><time>2023-06-17T12:18:03.220</time></trkpt><trkpt lat="55.9487435" lon="49.2622772"><time>2023-06-17T12:18:07.250</time></trkpt><trkpt lat="55.9486955" lon="49.2622829"><time>2023-06-17T12:18:11.217</time></trkpt><trkpt lat="55.9486420" lon="49.2623069"><time>2023-06-17T12:18:16.250</time></trkpt><trkpt lat="55.9485915" lon="49.2623118"><time>2023-06-17T12:18:21.220</time></trkpt><trkpt lat="55.9485444" lon="49.2623132"><time>2023-06-17T12:18:25.257</time></trkpt><trkpt lat="55.9484971" lon="49.2623239"><time>2023-06-17T12:18:30.247</time></trkpt><trkpt lat="55.9484478" lon="49.2623365"><time>2023-06-17T12:18:33.213</time></trkpt><trkpt lat="55.9484021" lon="49.2623353"><time>2023-06-17T12:18:37.260</time></trkpt><trkpt lat="55.9483503" lon="49.2623428"><time>2023-06-17T12:18:41.253</time></trkpt><trkpt lat="55.9483003" lon="49.2623403"><time>2023-06-17T12:18:45.273</time></trkpt><trkpt lat="55.9482505" lon="49.2623306"><time>2023-06-17T12:18:49.260</time></trkpt><trkpt lat="55.9482034" lon="49.2623076"><time>2023-06-17T12:18:53.240</time></trkpt><trkpt lat="55.9481536" lon="49.2622880"><time>2023-06-17T12:18:57.257</time></trkpt><trkpt lat="55.9481101" lon="49.2622424"><time>2023-06-17T12:19:02.217</time></trkpt><trkpt lat="55.9480635" lon="49.2622479"><time>2023-06-17T12:19:07.297</time></trkpt><trkpt lat="55.9480171" lon="49.2622660"><time>2023-06-17T12:19:11.297</time></trkpt><trkpt lat="55.9479632" lon="49.2622823"><time>2023-06-17T12:19:16.250</time></trkpt><trkpt lat="55.9479160" lon="49.2623005"><time>2023-06-17T12:19:20.247</time></trkpt><trkpt lat="55.9478725" lon="49.2623205"><time>2023-06-17T12:19:24.220</time></trkpt><trkpt lat="55.9478269" lon="49.2623484"><time>2023-06-17T12:19:28.257</time></trkpt><trkpt lat="55.9477784" lon="49.2623839"><time>2023-06-17T12:19:32.217</time></trkpt><trkpt lat="55.9477337" lon="49.2624120"><time>2023-06-17T12:19:36.220</time></trkpt><trkpt lat="55.9476896" lon="49.2624400"><time>2023-06-17T12:19:40.253</time></trkpt><trkpt lat="55.9476406" lon="49.2624435"><time>2023-06-17T12:19:44.213</time></trkpt><trkpt lat="55.9475961" lon="49.2624309"><time>2023-06-17T12:19:48.253</time></trkpt><trkpt lat="55.9475544" lon="49.2623978"><time>2023-06-17T12:19:52.217</time></trkpt><trkpt lat="55.9475030" lon="49.2624027"><time>2023-06-17T12:19:56.293</time></trkpt><trkpt lat="55.9474529" lon="49.2624203"><time>2023-06-17T12:20:00.283</time></trkpt><trkpt lat="55.9473980" lon="49.2624120"><time>2023-06-17T12:20:04.230</time></trkpt><trkpt lat="55.9473491" lon="49.2623917"><time>2023-06-17T12:20:08.260</time></trkpt><trkpt lat="55.9473007" lon="49.2623779"><time>2023-06-17T12:20:12.227</time></trkpt><trkpt lat="55.9472492" lon="49.2623610"><time>2023-06-17T12:20:16.267</time></trkpt><trkpt lat="55.9471970" lon="49.2623288"><time>2023-06-17T12:20:20.280</time></trkpt><trkpt lat="55.9471468" lon="49.2622794"><time>2023-06-17T12:20:24.223</time></trkpt><trkpt lat="55.9471008" lon="49.2622293"><time>2023-06-17T12:20:28.280</time></trkpt><trkpt lat="55.9470607" lon="49.2621679"><time>2023-06-17T12:20:32.227</time></trkpt><trkpt lat="55.9470172" lon="49.2621127"><time>2023-06-17T12:20:36.260</time></trkpt><trkpt lat="55.9469767" lon="49.2620488"><time>2023-06-17T12:20:40.250</time></trkpt><trkpt lat="55.9469325" lon="49.2619905"><time>2023-06-17T12:20:44.220</time></trkpt><trkpt lat="55.9468897" lon="49.2619396"><time>2023-06-17T12:20:48.297</time></trkpt><trkpt lat="55.9468474" lon="49.2618915"><time>2023-06-17T12:20:52.230</time></trkpt><trkpt lat="55.9468027" lon="49.2618380"><time>2023-06-17T12:20:56.247</time></trkpt><trkpt lat="55.9467534" lon="49.2617899"><time>2023-06-17T12:21:00.253</time></trkpt><trkpt lat="55.9467058" lon="49.2617379"><time>2023-06-17T12:21:04.220</time></trkpt><trkpt lat="55.9466579" lon="49.2616887"><time>2023-06-17T12:21:08.267</time></trkpt><trkpt lat="55.9466088" lon="49.2616511"><time>2023-06-17T12:21:12.227</time></trkpt><trkpt lat="55.9465648" lon="49.2616076"><time>2023-06-17T12:21:16.233</time></trkpt><trkpt lat="55.9465138" lon="49.2615626"><time>2023-06-17T12:21:21.230</time></trkpt><trkpt lat="55.9464700" lon="49.2615147"><time>2023-06-17T12:21:24.227</time></trkpt><trkpt lat="55.9464253" lon="49.2614634"><time>2023-06-17T12:21:28.287</time></trkpt><trkpt lat="55.9463843" lon="49.2613991"><time>2023-06-17T12:21:32.227</time></trkpt><trkpt lat="55.9463419" lon="49.2613453"><time>2023-06-17T12:21:36.243</time></trkpt><trkpt lat="55.9463099" lon="49.2612802"><time>2023-06-17T12:21:40.247</time></trkpt><trkpt lat="55.9462979" lon="49.2611957"><time>2023-06-17T12:21:44.220</time></trkpt><trkpt lat="55.9463059" lon="49.2611114"><time>2023-06-17T12:21:48.253</time></trkpt><trkpt lat="55.9463233" lon="49.2610318"><time>2023-06-17T12:21:52.220</time></trkpt><trkpt lat="55.9463358" lon="49.2609465"><time>2023-06-17T12:21:56.260</time></trkpt><trkpt lat="55.9463518" lon="49.2608554"><time>2023-06-17T12:22:00.250</time></trkpt><trkpt lat="55.9463652" lon="49.2607596"><time>2023-06-17T12:22:04.210</time></trkpt><trkpt lat="55.9463730" lon="49.2606637"><time>2023-06-17T12:22:08.297</time></trkpt><trkpt lat="55.9463773" lon="49.2605642"><time>2023-06-17T12:22:12.217</time></trkpt><trkpt lat="55.9463711" lon="49.2604617"><time>2023-06-17T12:22:16.313</time></trkpt><trkpt lat="55.9463442" lon="49.2603864"><time>2023-06-17T12:22:20.303</time></trkpt><trkpt lat="55.9463118" lon="49.2603291"><time>2023-06-17T12:22:24.227</time></trkpt><trkpt lat="55.9462763" lon="49.2602788"><time>2023-06-17T12:22:29.237</time></trkpt><trkpt lat="55.9462331" lon="49.2602396"><time>2023-06-17T12:22:32.217</time></trkpt><trkpt lat="55.9461864" lon="49.2602012"><time>2023-06-17T12:22:36.317</time></trkpt><trkpt lat="55.9461401" lon="49.2601592"><time>2023-06-17T12:22:40.247</time></trkpt><trkpt lat="55.9460960" lon="49.2601220"><time>2023-06-17T12:22:44.230</time></trkpt><trkpt lat="55.9460506" lon="49.2600944"><time>2023-06-17T12:22:48.270</time></trkpt><trkpt lat="55.9460027" lon="49.2600535"><time>2023-06-17T12:22:52.217</time></trkpt><trkpt lat="55.9459554" lon="49.2600146"><time>2023-06-17T12:22:56.270</time></trkpt><trkpt lat="55.9459120" lon="49.2599598"><time>2023-06-17T12:23:00.247</time></trkpt><trkpt lat="55.9458709" lon="49.2598985"><time>2023-06-17T12:23:04.217</time></trkpt><trkpt lat="55.9458307" lon="49.2598247"><time>2023-06-17T12:23:08.257</time></trkpt><trkpt lat="55.9457935" lon="49.2597523"><time>2023-06-17T12:23:12.223</time></trkpt><trkpt lat="55.9457535" lon="49.2596780"><time>2023-06-17T12:23:16.250</time></trkpt><trkpt lat="55.9457154" lon="49.2596176"><time>2023-06-17T12:23:20.253</time></trkpt><trkpt lat="55.9456719" lon="49.2595649"><time>2023-06-17T12:23:24.223</time></trkpt><trkpt lat="55.9456334" lon="49.2594944"><time>2023-06-17T12:23:28.257</time></trkpt><trkpt lat="55.9456113" lon="49.2594000"><time>2023-06-17T12:23:32.220</time></trkpt><trkpt lat="55.9456135" lon="49.2593068"><time>2023-06-17T12:23:36.227</time></trkpt><trkpt lat="55.9456218" lon="49.2592174"><time>2023-06-17T12:23:40.207</time></trkpt><trkpt lat="55.9456306" lon="49.2591289"><time>2023-06-17T12:23:44.237</time></trkpt><trkpt lat="55.9456578" lon="49.2590407"><time>2023-06-17T12:23:48.280</time></trkpt><trkpt lat="55.9456715" lon="49.2589547"><time>2023-06-17T12:23:52.207</time></trkpt><trkpt lat="55.9456826" lon="49.2588623"><time>2023-06-17T12:23:56.237</time></trkpt><trkpt lat="55.9456974" lon="49.2587639"><time>2023-06-17T12:24:00.217</time></trkpt><trkpt lat="55.9457135" lon="49.2586762"><time>2023-06-17T12:24:04.213</time></trkpt><trkpt lat="55.9457315" lon="49.2585903"><time>2023-06-17T12:24:08.213</time></trkpt><trkpt lat="55.9457404" lon="49.2585018"><time>2023-06-17T12:24:12.213</time></trkpt><trkpt lat="55.9457541" lon="49.2584088"><time>2023-06-17T12:24:16.227</time></trkpt><trkpt lat="55.9457733" lon="49.2583131"><time>2023-06-17T12:24:20.230</time></trkpt><trkpt lat="55.9457834" lon="49.2582179"><time>2023-06-17T12:24:25.270</time></trkpt><trkpt lat="55.9458003" lon="49.2581223"><time>2023-06-17T12:24:29.287</time></trkpt><trkpt lat="55.9458088" lon="49.2580225"><time>2023-06-17T12:24:33.260</time></trkpt><trkpt lat="55.9458206" lon="49.2579387"><time>2023-06-17T12:24:37.300</time></trkpt><trkpt lat="55.9458360" lon="49.2578468"><time>2023-06-17T12:24:41.223</time></trkpt><trkpt lat="55.9458538" lon="49.2577594"><time>2023-06-17T12:24:45.257</time></trkpt><trkpt lat="55.9458708" lon="49.2576736"><time>2023-06-17T12:24:49.247</time></trkpt><trkpt lat="55.9458907" lon="49.2575745"><time>2023-06-17T12:24:53.270</time></trkpt><trkpt lat="55.9458886" lon="49.2574789"><time>2023-06-17T12:24:57.267</time></trkpt><trkpt lat="55.9458781" lon="49.2573768"><time>2023-06-17T12:25:01.220</time></trkpt><trkpt lat="55.9458681" lon="49.2572807"><time>2023-06-17T12:25:05.250</time></trkpt><trkpt lat="55.9458523" lon="49.2571820"><time>2023-06-17T12:25:09.263</time></trkpt><trkpt lat="55.9458260" lon="49.2571014"><time>2023-06-17T12:25:13.297</time></trkpt><trkpt lat="55.9457928" lon="49.2570278"><time>2023-06-17T12:25:17.283</time></trkpt><trkpt lat="55.9457559" lon="49.2569516"><time>2023-06-17T12:25:21.220</time></trkpt><trkpt lat="55.9457369" lon="49.2568539"><time>2023-06-17T12:25:25.293</time></trkpt><trkpt lat="55.9457425" lon="49.2567544"><time>2023-06-17T12:25:29.300</time></trkpt><trkpt lat="55.9457753" lon="49.2566922"><time>2023-06-17T12:25:33.263</time></trkpt><trkpt lat="55.9457980" lon="49.2565932"><time>2023-06-17T12:25:37.253</time></trkpt><trkpt lat="55.9458310" lon="49.2565218"><time>2023-06-17T12:25:40.210</time></trkpt><trkpt lat="55.9458236" lon="49.2564362"><time>2023-06-17T12:25:42.217</time></trkpt><trkpt lat="55.9458156" lon="49.2563356"><time>2023-06-17T12:25:46.243</time></trkpt><trkpt lat="55.9457594" lon="49.2562930"><time>2023-06-17T12:25:49.213</time></trkpt><trkpt lat="55.9456975" lon="49.2563318"><time>2023-06-17T12:25:56.250</time></trkpt><trkpt lat="55.9457025" lon="49.2564355"><time>2023-06-17T12:25:57.237</time></trkpt><trkpt lat="55.9457573" lon="49.2564451"><time>2023-06-17T12:25:59.233</time></trkpt><trkpt lat="55.9457315" lon="49.2563745"><time>2023-06-17T12:26:10.220</time></trkpt><trkpt lat="55.9457671" lon="49.2564255"><time>2023-06-17T12:26:17.200</time></trkpt><trkpt lat="55.9457960" lon="49.2564984"><time>2023-06-17T12:26:28.237</time></trkpt><trkpt lat="55.9457970" lon="49.2566179"><time>2023-06-17T12:26:32.217</time></trkpt><trkpt lat="55.9457775" lon="49.2567042"><time>2023-06-17T12:27:23.263</time></trkpt><trkpt lat="55.9457414" lon="49.2567735"><time>2023-06-17T12:27:27.247</time></trkpt><trkpt lat="55.9456980" lon="49.2568160"><time>2023-06-17T12:27:31.223</time></trkpt><trkpt lat="55.9456446" lon="49.2568188"><time>2023-06-17T12:27:35.210</time></trkpt><trkpt lat="55.9455916" lon="49.2568001"><time>2023-06-17T12:27:39.223</time></trkpt><trkpt lat="55.9455460" lon="49.2567687"><time>2023-06-17T12:27:43.310</time></trkpt><trkpt lat="55.9455034" lon="49.2567360"><time>2023-06-17T12:27:47.287</time></trkpt><trkpt lat="55.9454576" lon="49.2566972"><time>2023-06-17T12:27:51.227</time></trkpt><trkpt lat="55.9454107" lon="49.2566605"><time>2023-06-17T12:27:55.303</time></trkpt><trkpt lat="55.9453594" lon="49.2566272"><time>2023-06-17T12:27:59.263</time></trkpt><trkpt lat="55.9453122" lon="49.2565955"><time>2023-06-17T12:28:03.223</time></trkpt><trkpt lat="55.9452671" lon="49.2565465"><time>2023-06-17T12:28:07.250</time></trkpt><trkpt lat="55.9452186" lon="49.2565005"><time>2023-06-17T12:28:11.220</time></trkpt><trkpt lat="55.9451722" lon="49.2564456"><time>2023-06-17T12:28:15.297</time></trkpt><trkpt lat="55.9451363" lon="49.2563873"><time>2023-06-17T12:28:19.217</time></trkpt><trkpt lat="55.9450951" lon="49.2563283"><time>2023-06-17T12:28:23.213</time></trkpt><trkpt lat="55.9450572" lon="49.2562524"><time>2023-06-17T12:28:27.303</time></trkpt><trkpt lat="55.9450213" lon="49.2561875"><time>2023-06-17T12:28:31.220</time></trkpt><trkpt lat="55.9449802" lon="49.2561365"><time>2023-06-17T12:28:35.247</time></trkpt><trkpt lat="55.9449412" lon="49.2560726"><time>2023-06-17T12:28:39.287</time></trkpt><trkpt lat="55.9449084" lon="49.2560097"><time>2023-06-17T12:28:43.247</time></trkpt><trkpt lat="55.9448687" lon="49.2559567"><time>2023-06-17T12:28:47.300</time></trkpt><trkpt lat="55.9448234" lon="49.2559456"><time>2023-06-17T12:28:51.220</time></trkpt><trkpt lat="55.9447800" lon="49.2559873"><time>2023-06-17T12:28:56.287</time></trkpt><trkpt lat="55.9447428" lon="49.2560350"><time>2023-06-17T12:29:00.320</time></trkpt><trkpt lat="55.9447157" lon="49.2561145"><time>2023-06-17T12:29:05.273</time></trkpt><trkpt lat="55.9446819" lon="49.2561763"><time>2023-06-17T12:29:10.253</time></trkpt><trkpt lat="55.9446389" lon="49.2562294"><time>2023-06-17T12:29:15.260</time></trkpt><trkpt lat="55.9446003" lon="49.2562784"><time>2023-06-17T12:29:19.253</time></trkpt><trkpt lat="55.9445543" lon="49.2563339"><time>2023-06-17T12:29:24.270</time></trkpt><trkpt lat="55.9445158" lon="49.2563837"><time>2023-06-17T12:29:28.253</time></trkpt><trkpt lat="55.9444730" lon="49.2564296"><time>2023-06-17T12:29:32.217</time></trkpt><trkpt lat="55.9444314" lon="49.2564826"><time>2023-06-17T12:29:37.263</time></trkpt><trkpt lat="55.9443931" lon="49.2565271"><time>2023-06-17T12:29:41.227</time></trkpt><trkpt lat="55.9443602" lon="49.2565863"><time>2023-06-17T12:29:45.260</time></trkpt><trkpt lat="55.9443190" lon="49.2566478"><time>2023-06-17T12:29:50.303</time></trkpt><trkpt lat="55.9442738" lon="49.2567053"><time>2023-06-17T12:29:55.303</time></trkpt><trkpt lat="55.9442303" lon="49.2567663"><time>2023-06-17T12:30:00.257</time></trkpt><trkpt lat="55.9441907" lon="49.2568187"><time>2023-06-17T12:30:04.270</time></trkpt><trkpt lat="55.9441533" lon="49.2568702"><time>2023-06-17T12:30:08.247</time></trkpt><trkpt lat="55.9441164" lon="49.2569208"><time>2023-06-17T12:30:12.217</time></trkpt><trkpt lat="55.9440770" lon="49.2569670"><time>2023-06-17T12:30:16.250</time></trkpt><trkpt lat="55.9440348" lon="49.2570105"><time>2023-06-17T12:30:20.230</time></trkpt><trkpt lat="55.9439903" lon="49.2570401"><time>2023-06-17T12:30:24.213</time></trkpt><trkpt lat="55.9439507" lon="49.2570940"><time>2023-06-17T12:30:28.287</time></trkpt><trkpt lat="55.9439132" lon="49.2571461"><time>2023-06-17T12:30:32.223</time></trkpt><trkpt lat="55.9438762" lon="49.2572017"><time>2023-06-17T12:30:36.243</time></trkpt><trkpt lat="55.9438308" lon="49.2572378"><time>2023-06-17T12:30:40.263</time></trkpt><trkpt lat="55.9437894" lon="49.2572848"><time>2023-06-17T12:30:44.257</time></trkpt><trkpt lat="55.9437472" lon="49.2573340"><time>2023-06-17T12:30:48.357</time></trkpt><trkpt lat="55.9437007" lon="49.2573735"><time>2023-06-17T12:30:52.223</time></trkpt><trkpt lat="55.9436560" lon="49.2574051"><time>2023-06-17T12:30:56.377</time></trkpt><trkpt lat="55.9436065" lon="49.2574269"><time>2023-06-17T12:31:00.290</time></trkpt><trkpt lat="55.9435547" lon="49.2574380"><time>2023-06-17T12:31:04.273</time></trkpt><trkpt lat="55.9435033" lon="49.2574642"><time>2023-06-17T12:31:08.290</time></trkpt><trkpt lat="55.9434471" lon="49.2574576"><time>2023-06-17T12:31:12.237</time></trkpt><trkpt lat="55.9433959" lon="49.2574512"><time>2023-06-17T12:31:16.253</time></trkpt><trkpt lat="55.9433399" lon="49.2574430"><time>2023-06-17T12:31:20.260</time></trkpt><trkpt lat="55.9432871" lon="49.2574187"><time>2023-06-17T12:31:24.257</time></trkpt><trkpt lat="55.9432385" lon="49.2574033"><time>2023-06-17T12:31:28.290</time></trkpt><trkpt lat="55.9431897" lon="49.2573730"><time>2023-06-17T12:31:32.220</time></trkpt><trkpt lat="55.9431423" lon="49.2573490"><time>2023-06-17T12:31:36.297</time></trkpt><trkpt lat="55.9430970" lon="49.2573270"><time>2023-06-17T12:31:40.290</time></trkpt><trkpt lat="55.9430496" lon="49.2573065"><time>2023-06-17T12:31:44.307</time></trkpt><trkpt lat="55.9430006" lon="49.2572923"><time>2023-06-17T12:31:48.327</time></trkpt><trkpt lat="55.9429480" lon="49.2572745"><time>2023-06-17T12:31:52.213</time></trkpt><trkpt lat="55.9428987" lon="49.2572663"><time>2023-06-17T12:31:56.253</time></trkpt><trkpt lat="55.9428448" lon="49.2572616"><time>2023-06-17T12:32:00.293</time></trkpt><trkpt lat="55.9427920" lon="49.2572635"><time>2023-06-17T12:32:04.303</time></trkpt><trkpt lat="55.9427433" lon="49.2572691"><time>2023-06-17T12:32:08.287</time></trkpt><trkpt lat="55.9426941" lon="49.2572766"><time>2023-06-17T12:32:12.217</time></trkpt><trkpt lat="55.9426394" lon="49.2573001"><time>2023-06-17T12:32:17.240</time></trkpt><trkpt lat="55.9425937" lon="49.2573139"><time>2023-06-17T12:32:21.217</time></trkpt><trkpt lat="55.9425487" lon="49.2573334"><time>2023-06-17T12:32:25.253</time></trkpt><trkpt lat="55.9424998" lon="49.2573512"><time>2023-06-17T12:32:29.283</time></trkpt><trkpt lat="55.9424511" lon="49.2573707"><time>2023-06-17T12:32:33.220</time></trkpt><trkpt lat="55.9424004" lon="49.2573956"><time>2023-06-17T12:32:37.290</time></trkpt><trkpt lat="55.9423528" lon="49.2574195"><time>2023-06-17T12:32:41.223</time></trkpt><trkpt lat="55.9423080" lon="49.2574547"><time>2023-06-17T12:32:45.847</time></trkpt><trkpt lat="55.9422657" lon="49.2574935"><time>2023-06-17T12:32:49.220</time></trkpt><trkpt lat="55.9422224" lon="49.2575234"><time>2023-06-17T12:32:53.223</time></trkpt><trkpt lat="55.9421747" lon="49.2575680"><time>2023-06-17T12:32:57.257</time></trkpt><trkpt lat="55.9421338" lon="49.2576209"><time>2023-06-17T12:33:01.227</time></trkpt><trkpt lat="55.9420898" lon="49.2576719"><time>2023-06-17T12:33:05.270</time></trkpt><trkpt lat="55.9420483" lon="49.2577242"><time>2023-06-17T12:33:09.260</time></trkpt><trkpt lat="55.9420077" lon="49.2577809"><time>2023-06-17T12:33:13.220</time></trkpt><trkpt lat="55.9419665" lon="49.2578395"><time>2023-06-17T12:33:17.217</time></trkpt><trkpt lat="55.9419302" lon="49.2579023"><time>2023-06-17T12:33:21.237</time></trkpt><trkpt lat="55.9418974" lon="49.2579656"><time>2023-06-17T12:33:25.250</time></trkpt><trkpt lat="55.9418602" lon="49.2580294"><time>2023-06-17T12:33:29.260</time></trkpt><trkpt lat="55.9418223" lon="49.2580842"><time>2023-06-17T12:33:33.220</time></trkpt><trkpt lat="55.9417799" lon="49.2581413"><time>2023-06-17T12:33:37.247</time></trkpt><trkpt lat="55.9417428" lon="49.2582040"><time>2023-06-17T12:33:41.213</time></trkpt><trkpt lat="55.9417105" lon="49.2582688"><time>2023-06-17T12:33:45.253</time></trkpt><trkpt lat="55.9416742" lon="49.2583415"><time>2023-06-17T12:33:49.260</time></trkpt><trkpt lat="55.9416342" lon="49.2584007"><time>2023-06-17T12:33:53.223</time></trkpt><trkpt lat="55.9415990" lon="49.2584614"><time>2023-06-17T12:33:57.263</time></trkpt><trkpt lat="55.9415703" lon="49.2585444"><time>2023-06-17T12:34:02.207</time></trkpt><trkpt lat="55.9415321" lon="49.2586050"><time>2023-06-17T12:34:06.253</time></trkpt><trkpt lat="55.9414861" lon="49.2586605"><time>2023-06-17T12:34:11.207</time></trkpt><trkpt lat="55.9414494" lon="49.2587159"><time>2023-06-17T12:34:15.257</time></trkpt><trkpt lat="55.9414078" lon="49.2587816"><time>2023-06-17T12:34:20.260</time></trkpt><trkpt lat="55.9413713" lon="49.2588412"><time>2023-06-17T12:34:24.300</time></trkpt><trkpt lat="55.9413328" lon="49.2588942"><time>2023-06-17T12:34:28.243</time></trkpt><trkpt lat="55.9412908" lon="49.2589635"><time>2023-06-17T12:34:33.223</time></trkpt><trkpt lat="55.9412515" lon="49.2590095"><time>2023-06-17T12:34:37.280</time></trkpt><trkpt lat="55.9412159" lon="49.2590669"><time>2023-06-17T12:34:41.220</time></trkpt><trkpt lat="55.9411768" lon="49.2591300"><time>2023-06-17T12:34:46.257</time></trkpt><trkpt lat="55.9411355" lon="49.2591794"><time>2023-06-17T12:34:50.260</time></trkpt><trkpt lat="55.9411009" lon="49.2592320"><time>2023-06-17T12:34:54.303</time></trkpt><trkpt lat="55.9410619" lon="49.2592734"><time>2023-06-17T12:34:58.303</time></trkpt><trkpt lat="55.9410229" lon="49.2593214"><time>2023-06-17T12:35:02.227</time></trkpt><trkpt lat="55.9409814" lon="49.2593698"><time>2023-06-17T12:35:06.333</time></trkpt><trkpt lat="55.9409363" lon="49.2594056"><time>2023-06-17T12:35:10.250</time></trkpt><trkpt lat="55.9408899" lon="49.2594378"><time>2023-06-17T12:35:14.290</time></trkpt><trkpt lat="55.9408465" lon="49.2594731"><time>2023-06-17T12:35:18.250</time></trkpt><trkpt lat="55.9408013" lon="49.2595108"><time>2023-06-17T12:35:22.220</time></trkpt><trkpt lat="55.9407523" lon="49.2595378"><time>2023-06-17T12:35:26.263</time></trkpt><trkpt lat="55.9407050" lon="49.2595501"><time>2023-06-17T12:35:30.250</time></trkpt><trkpt lat="55.9406553" lon="49.2595515"><time>2023-06-17T12:35:34.287</time></trkpt><trkpt lat="55.9406051" lon="49.2595607"><time>2023-06-17T12:35:38.283</time></trkpt><trkpt lat="55.9405550" lon="49.2595535"><time>2023-06-17T12:35:46.280</time></trkpt><trkpt lat="55.9405081" lon="49.2595529"><time>2023-06-17T12:35:50.277</time></trkpt><trkpt lat="55.9404601" lon="49.2595426"><time>2023-06-17T12:35:54.260</time></trkpt><trkpt lat="55.9404096" lon="49.2595322"><time>2023-06-17T12:35:58.287</time></trkpt><trkpt lat="55.9403615" lon="49.2595198"><time>2023-06-17T12:36:02.230</time></trkpt><trkpt lat="55.9403142" lon="49.2595031"><time>2023-06-17T12:36:06.247</time></trkpt><trkpt lat="55.9402597" lon="49.2594858"><time>2023-06-17T12:36:10.290</time></trkpt><trkpt lat="55.9402081" lon="49.2594836"><time>2023-06-17T12:36:14.273</time></trkpt><trkpt lat="55.9401595" lon="49.2595042"><time>2023-06-17T12:36:18.287</time></trkpt><trkpt lat="55.9401093" lon="49.2595202"><time>2023-06-17T12:36:22.223</time></trkpt><trkpt lat="55.9400599" lon="49.2595405"><time>2023-06-17T12:36:26.260</time></trkpt><trkpt lat="55.9400087" lon="49.2595534"><time>2023-06-17T12:36:30.293</time></trkpt><trkpt lat="55.9399576" lon="49.2595495"><time>2023-06-17T12:36:34.213</time></trkpt><trkpt lat="55.9399101" lon="49.2595631"><time>2023-06-17T12:36:38.260</time></trkpt><trkpt lat="55.9398625" lon="49.2595911"><time>2023-06-17T12:36:42.203</time></trkpt><trkpt lat="55.9398103" lon="49.2596019"><time>2023-06-17T12:36:46.207</time></trkpt><trkpt lat="55.9397595" lon="49.2596264"><time>2023-06-17T12:36:50.217</time></trkpt><trkpt lat="55.9397061" lon="49.2596562"><time>2023-06-17T12:36:54.210</time></trkpt><trkpt lat="55.9396553" lon="49.2596714"><time>2023-06-17T12:36:58.213</time></trkpt><trkpt lat="55.9396073" lon="49.2597028"><time>2023-06-17T12:37:02.217</time></trkpt><trkpt lat="55.9395612" lon="49.2597347"><time>2023-06-17T12:37:06.250</time></trkpt><trkpt lat="55.9395115" lon="49.2597592"><time>2023-06-17T12:37:10.270</time></trkpt><trkpt lat="55.9394640" lon="49.2597937"><time>2023-06-17T12:37:14.253</time></trkpt><trkpt lat="55.9394179" lon="49.2598204"><time>2023-06-17T12:37:18.250</time></trkpt><trkpt lat="55.9393717" lon="49.2598629"><time>2023-06-17T12:37:22.223</time></trkpt><trkpt lat="55.9393284" lon="49.2599042"><time>2023-06-17T12:37:26.250</time></trkpt><trkpt lat="55.9392874" lon="49.2599374"><time>2023-06-17T12:37:30.250</time></trkpt><trkpt lat="55.9392399" lon="49.2599725"><time>2023-06-17T12:37:34.267</time></trkpt><trkpt lat="55.9392049" lon="49.2600249"><time>2023-06-17T12:37:38.250</time></trkpt><trkpt lat="55.9391825" lon="49.2601068"><time>2023-06-17T12:37:42.223</time></trkpt><trkpt lat="55.9391530" lon="49.2601801"><time>2023-06-17T12:37:46.247</time></trkpt><trkpt lat="55.9391065" lon="49.2602272"><time>2023-06-17T12:37:50.257</time></trkpt><trkpt lat="55.9390654" lon="49.2602817"><time>2023-06-17T12:37:54.307</time></trkpt><trkpt lat="55.9390242" lon="49.2603434"><time>2023-06-17T12:37:58.253</time></trkpt><trkpt lat="55.9389852" lon="49.2604061"><time>2023-06-17T12:38:02.227</time></trkpt><trkpt lat="55.9389492" lon="49.2604716"><time>2023-06-17T12:38:06.253</time></trkpt><trkpt lat="55.9389174" lon="49.2605505"><time>2023-06-17T12:38:10.250</time></trkpt><trkpt lat="55.9388936" lon="49.2606346"><time>2023-06-17T12:38:14.300</time></trkpt><trkpt lat="55.9388764" lon="49.2607138"><time>2023-06-17T12:38:18.213</time></trkpt><trkpt lat="55.9388544" lon="49.2607972"><time>2023-06-17T12:38:22.227</time></trkpt><trkpt lat="55.9388132" lon="49.2608588"><time>2023-06-17T12:38:26.300</time></trkpt><trkpt lat="55.9387720" lon="49.2609035"><time>2023-06-17T12:38:30.307</time></trkpt><trkpt lat="55.9387271" lon="49.2609519"><time>2023-06-17T12:38:34.210</time></trkpt><trkpt lat="55.9386801" lon="49.2609927"><time>2023-06-17T12:38:38.257</time></trkpt><trkpt lat="55.9386378" lon="49.2610472"><time>2023-06-17T12:38:42.223</time></trkpt><trkpt lat="55.9385968" lon="49.2610953"><time>2023-06-17T12:38:46.240</time></trkpt><trkpt lat="55.9385590" lon="49.2611471"><time>2023-06-17T12:38:50.257</time></trkpt><trkpt lat="55.9385153" lon="49.2611990"><time>2023-06-17T12:38:55.247</time></trkpt><trkpt lat="55.9384715" lon="49.2612193"><time>2023-06-17T12:38:57.227</time></trkpt><trkpt lat="55.9384156" lon="49.2612222"><time>2023-06-17T12:39:01.220</time></trkpt><trkpt lat="55.9383662" lon="49.2612089"><time>2023-06-17T12:39:05.253</time></trkpt><trkpt lat="55.9383293" lon="49.2611473"><time>2023-06-17T12:39:10.220</time></trkpt></trkseg></trk></gpx>